<?xml version="1.0" encoding="UTF-8" standalone="no" ?>
<gpx xmlns="http://www.topografix.com/GPX/1/1" xmlns:xsi="http://www.w3.org/2001/XMLSchema-instance" xsi:schemaLocation="http://www.topografix.com/GPX/1/1 http://www.topografix.com/GPX/1/1/gpx.xsd" version="1.1" creator="VisuGPX - https://www.visugpx.com">
  <metadata>
    <name>Cinglé J1 - Villarte to Crest - 150km &amp;amp; 1000d+</name>
  </metadata>
  <trk>
    <name><![CDATA[Cinglé#1]]></name>
    <trkseg>
      <trkpt lat="45.74025" lon="4.83224">
        <ele>166.973302</ele>
        <time>2025-02-14T15:23:16.806Z</time>
      </trkpt>
      <trkpt lat="45.74037" lon="4.83192">
        <ele>166.973302</ele>
        <time>2025-02-14T15:23:34.540Z</time>
      </trkpt>
      <trkpt lat="45.74034" lon="4.83189">
        <ele>166.973302</ele>
        <time>2025-02-14T15:23:37.285Z</time>
      </trkpt>
      <trkpt lat="45.74029" lon="4.83185">
        <ele>166.973302</ele>
        <time>2025-02-14T15:23:40.835Z</time>
      </trkpt>
      <trkpt lat="45.73989" lon="4.833">
        <ele>166.861668</ele>
        <time>2025-02-14T15:23:48.223Z</time>
      </trkpt>
      <trkpt lat="45.73985" lon="4.83311">
        <ele>166.833824</ele>
        <time>2025-02-14T15:23:48.940Z</time>
      </trkpt>
      <trkpt lat="45.73978" lon="4.83306">
        <ele>166.808165</ele>
        <time>2025-02-14T15:23:49.556Z</time>
      </trkpt>
      <trkpt lat="45.73874" lon="4.83236">
        <ele>166.431565</ele>
        <time>2025-02-14T15:23:59.189Z</time>
      </trkpt>
      <trkpt lat="45.73866" lon="4.83234">
        <ele>166.404635</ele>
        <time>2025-02-14T15:23:59.903Z</time>
      </trkpt>
      <trkpt lat="45.73865" lon="4.8324">
        <ele>166.388866</ele>
        <time>2025-02-14T15:24:00.305Z</time>
      </trkpt>
      <trkpt lat="45.73832" lon="4.8338">
        <ele>165.864062</ele>
        <time>2025-02-14T15:24:08.231Z</time>
      </trkpt>
      <trkpt lat="45.73808" lon="4.83483">
        <ele>165.480116</ele>
        <time>2025-02-14T15:24:14.196Z</time>
      </trkpt>
      <trkpt lat="45.73803" lon="4.83505">
        <ele>165.573996</ele>
        <time>2025-02-14T15:24:15.533Z</time>
      </trkpt>
      <trkpt lat="45.73802" lon="4.83511">
        <ele>165.606264</ele>
        <time>2025-02-14T15:24:15.881Z</time>
      </trkpt>
      <trkpt lat="45.73785" lon="4.83584">
        <ele>166.012388</ele>
        <time>2025-02-14T15:24:20.516Z</time>
      </trkpt>
      <trkpt lat="45.73782" lon="4.83594">
        <ele>166.069673</ele>
        <time>2025-02-14T15:24:21.277Z</time>
      </trkpt>
      <trkpt lat="45.7378" lon="4.83605">
        <ele>166.131938</ele>
        <time>2025-02-14T15:24:22.112Z</time>
      </trkpt>
      <trkpt lat="45.73759" lon="4.83694">
        <ele>166.628109</ele>
        <time>2025-02-14T15:24:30.376Z</time>
      </trkpt>
      <trkpt lat="45.73758" lon="4.83701">
        <ele>166.668371</ele>
        <time>2025-02-14T15:24:31.109Z</time>
      </trkpt>
      <trkpt lat="45.7375" lon="4.83698">
        <ele>166.730011</ele>
        <time>2025-02-14T15:24:32.153Z</time>
      </trkpt>
      <trkpt lat="45.73747" lon="4.83706">
        <ele>166.778202</ele>
        <time>2025-02-14T15:24:33.015Z</time>
      </trkpt>
      <trkpt lat="45.73744" lon="4.83725">
        <ele>166.861473</ele>
        <time>2025-02-14T15:24:34.792Z</time>
      </trkpt>
      <trkpt lat="45.73741" lon="4.8374">
        <ele>166.907843</ele>
        <time>2025-02-14T15:24:36.156Z</time>
      </trkpt>
      <trkpt lat="45.73729" lon="4.83772">
        <ele>167.019467</ele>
        <time>2025-02-14T15:24:39.534Z</time>
      </trkpt>
      <trkpt lat="45.7371" lon="4.83826">
        <ele>167.203148</ele>
        <time>2025-02-14T15:24:44.727Z</time>
      </trkpt>
      <trkpt lat="45.73682" lon="4.83903">
        <ele>167.467993</ele>
        <time>2025-02-14T15:24:50.312Z</time>
      </trkpt>
      <trkpt lat="45.73679" lon="4.83963">
        <ele>167.536782</ele>
        <time>2025-02-14T15:24:53.271Z</time>
      </trkpt>
      <trkpt lat="45.73679" lon="4.83972">
        <ele>167.472152</ele>
        <time>2025-02-14T15:24:53.713Z</time>
      </trkpt>
      <trkpt lat="45.73679" lon="4.83984">
        <ele>167.390311</ele>
        <time>2025-02-14T15:24:54.258Z</time>
      </trkpt>
      <trkpt lat="45.73675" lon="4.84073">
        <ele>166.766278</ele>
        <time>2025-02-14T15:24:58.412Z</time>
      </trkpt>
      <trkpt lat="45.7367" lon="4.8421">
        <ele>165.820373</ele>
        <time>2025-02-14T15:25:05.505Z</time>
      </trkpt>
      <trkpt lat="45.73667" lon="4.84226">
        <ele>165.957376</ele>
        <time>2025-02-14T15:25:06.631Z</time>
      </trkpt>
      <trkpt lat="45.73667" lon="4.84235">
        <ele>166.031811</ele>
        <time>2025-02-14T15:25:07.294Z</time>
      </trkpt>
      <trkpt lat="45.73666" lon="4.84254">
        <ele>166.197087</ele>
        <time>2025-02-14T15:25:08.782Z</time>
      </trkpt>
      <trkpt lat="45.73668" lon="4.84275">
        <ele>166.371292</ele>
        <time>2025-02-14T15:25:10.424Z</time>
      </trkpt>
      <trkpt lat="45.73668" lon="4.84296">
        <ele>166.543876</ele>
        <time>2025-02-14T15:25:12.607Z</time>
      </trkpt>
      <trkpt lat="45.7367" lon="4.84459">
        <ele>167.904682</ele>
        <time>2025-02-14T15:25:27.514Z</time>
      </trkpt>
      <trkpt lat="45.73675" lon="4.84537">
        <ele>168.410612</ele>
        <time>2025-02-14T15:25:34.650Z</time>
      </trkpt>
      <trkpt lat="45.73675" lon="4.84548">
        <ele>168.477971</ele>
        <time>2025-02-14T15:25:35.555Z</time>
      </trkpt>
      <trkpt lat="45.73683" lon="4.84666">
        <ele>169.221583</ele>
        <time>2025-02-14T15:25:44.380Z</time>
      </trkpt>
      <trkpt lat="45.73688" lon="4.84739">
        <ele>169.616909</ele>
        <time>2025-02-14T15:25:49.068Z</time>
      </trkpt>
      <trkpt lat="45.73701" lon="4.84913">
        <ele>170.035789</ele>
        <time>2025-02-14T15:26:00.415Z</time>
      </trkpt>
      <trkpt lat="45.73702" lon="4.84928">
        <ele>170.071956</ele>
        <time>2025-02-14T15:26:01.482Z</time>
      </trkpt>
      <trkpt lat="45.73704" lon="4.84948">
        <ele>170.120706</ele>
        <time>2025-02-14T15:26:02.939Z</time>
      </trkpt>
      <trkpt lat="45.73711" lon="4.85034">
        <ele>170.565202</ele>
        <time>2025-02-14T15:26:09.380Z</time>
      </trkpt>
      <trkpt lat="45.73712" lon="4.85044">
        <ele>170.631274</ele>
        <time>2025-02-14T15:26:10.143Z</time>
      </trkpt>
      <trkpt lat="45.73714" lon="4.85071">
        <ele>170.812051</ele>
        <time>2025-02-14T15:26:12.252Z</time>
      </trkpt>
      <trkpt lat="45.73729" lon="4.85248">
        <ele>172.015101</ele>
        <time>2025-02-14T15:26:26.484Z</time>
      </trkpt>
      <trkpt lat="45.73729" lon="4.8525">
        <ele>172.0309</ele>
        <time>2025-02-14T15:26:26.651Z</time>
      </trkpt>
      <trkpt lat="45.73729" lon="4.85256">
        <ele>172.075202</ele>
        <time>2025-02-14T15:26:27.135Z</time>
      </trkpt>
      <trkpt lat="45.7372" lon="4.8526">
        <ele>172.175831</ele>
        <time>2025-02-14T15:26:28.255Z</time>
      </trkpt>
      <trkpt lat="45.73693" lon="4.85271">
        <ele>172.478502</ele>
        <time>2025-02-14T15:26:31.583Z</time>
      </trkpt>
      <trkpt lat="45.73669" lon="4.85281">
        <ele>172.742158</ele>
        <time>2025-02-14T15:26:34.465Z</time>
      </trkpt>
      <trkpt lat="45.73628" lon="4.85298">
        <ele>173.198622</ele>
        <time>2025-02-14T15:26:39.671Z</time>
      </trkpt>
      <trkpt lat="45.73621" lon="4.853">
        <ele>173.274634</ele>
        <time>2025-02-14T15:26:40.512Z</time>
      </trkpt>
      <trkpt lat="45.73597" lon="4.85311">
        <ele>173.549798</ele>
        <time>2025-02-14T15:26:43.364Z</time>
      </trkpt>
      <trkpt lat="45.73589" lon="4.85313">
        <ele>173.63156</ele>
        <time>2025-02-14T15:26:44.207Z</time>
      </trkpt>
      <trkpt lat="45.73578" lon="4.85316">
        <ele>173.751682</ele>
        <time>2025-02-14T15:26:45.447Z</time>
      </trkpt>
      <trkpt lat="45.73571" lon="4.85317">
        <ele>173.828036</ele>
        <time>2025-02-14T15:26:46.207Z</time>
      </trkpt>
      <trkpt lat="45.7354" lon="4.85321">
        <ele>173.878733</ele>
        <time>2025-02-14T15:26:49.553Z</time>
      </trkpt>
      <trkpt lat="45.73511" lon="4.85326">
        <ele>173.921611</ele>
        <time>2025-02-14T15:26:52.578Z</time>
      </trkpt>
      <trkpt lat="45.73504" lon="4.85326">
        <ele>173.931106</ele>
        <time>2025-02-14T15:26:53.213Z</time>
      </trkpt>
      <trkpt lat="45.73505" lon="4.85336">
        <ele>173.941383</ele>
        <time>2025-02-14T15:26:53.879Z</time>
      </trkpt>
      <trkpt lat="45.73544" lon="4.85408">
        <ele>174.033567</ele>
        <time>2025-02-14T15:26:59.565Z</time>
      </trkpt>
      <trkpt lat="45.73622" lon="4.85557">
        <ele>173.489305</ele>
        <time>2025-02-14T15:27:09.700Z</time>
      </trkpt>
      <trkpt lat="45.73628" lon="4.85566">
        <ele>173.4296</ele>
        <time>2025-02-14T15:27:10.324Z</time>
      </trkpt>
      <trkpt lat="45.7356" lon="4.85654">
        <ele>172.81697</ele>
        <time>2025-02-14T15:27:17.194Z</time>
      </trkpt>
      <trkpt lat="45.73555" lon="4.85659">
        <ele>172.794319</ele>
        <time>2025-02-14T15:27:17.697Z</time>
      </trkpt>
      <trkpt lat="45.73551" lon="4.85663">
        <ele>172.776404</ele>
        <time>2025-02-14T15:27:18.084Z</time>
      </trkpt>
      <trkpt lat="45.73544" lon="4.85671">
        <ele>172.744593</ele>
        <time>2025-02-14T15:27:18.777Z</time>
      </trkpt>
      <trkpt lat="45.73487" lon="4.85717">
        <ele>172.515392</ele>
        <time>2025-02-14T15:27:23.951Z</time>
      </trkpt>
      <trkpt lat="45.73408" lon="4.85782">
        <ele>172.216877</ele>
        <time>2025-02-14T15:27:31.774Z</time>
      </trkpt>
      <trkpt lat="45.73399" lon="4.8579">
        <ele>172.242222</ele>
        <time>2025-02-14T15:27:32.735Z</time>
      </trkpt>
      <trkpt lat="45.73396" lon="4.85791">
        <ele>172.248543</ele>
        <time>2025-02-14T15:27:32.976Z</time>
      </trkpt>
      <trkpt lat="45.7338" lon="4.85803">
        <ele>172.29234</ele>
        <time>2025-02-14T15:27:34.644Z</time>
      </trkpt>
      <trkpt lat="45.73368" lon="4.85811">
        <ele>172.325255</ele>
        <time>2025-02-14T15:27:35.955Z</time>
      </trkpt>
      <trkpt lat="45.73364" lon="4.85814">
        <ele>172.336364</ele>
        <time>2025-02-14T15:27:36.433Z</time>
      </trkpt>
      <trkpt lat="45.73324" lon="4.85837">
        <ele>172.441892</ele>
        <time>2025-02-14T15:27:40.766Z</time>
      </trkpt>
      <trkpt lat="45.73295" lon="4.85855">
        <ele>172.51904</ele>
        <time>2025-02-14T15:27:43.934Z</time>
      </trkpt>
      <trkpt lat="45.73281" lon="4.85863">
        <ele>172.556403</ele>
        <time>2025-02-14T15:27:45.421Z</time>
      </trkpt>
      <trkpt lat="45.73258" lon="4.85877">
        <ele>172.617146</ele>
        <time>2025-02-14T15:27:47.698Z</time>
      </trkpt>
      <trkpt lat="45.73217" lon="4.85901">
        <ele>172.749389</ele>
        <time>2025-02-14T15:27:51.581Z</time>
      </trkpt>
      <trkpt lat="45.73211" lon="4.85905">
        <ele>172.769637</ele>
        <time>2025-02-14T15:27:52.135Z</time>
      </trkpt>
      <trkpt lat="45.73204" lon="4.85909">
        <ele>172.795094</ele>
        <time>2025-02-14T15:27:52.889Z</time>
      </trkpt>
      <trkpt lat="45.73142" lon="4.85949">
        <ele>173.013827</ele>
        <time>2025-02-14T15:27:59.341Z</time>
      </trkpt>
      <trkpt lat="45.73131" lon="4.85956">
        <ele>173.050759</ele>
        <time>2025-02-14T15:28:00.545Z</time>
      </trkpt>
      <trkpt lat="45.73111" lon="4.85953">
        <ele>173.116866</ele>
        <time>2025-02-14T15:28:02.664Z</time>
      </trkpt>
      <trkpt lat="45.73106" lon="4.8596">
        <ele>173.13929</ele>
        <time>2025-02-14T15:28:03.397Z</time>
      </trkpt>
      <trkpt lat="45.73098" lon="4.85965">
        <ele>173.166226</ele>
        <time>2025-02-14T15:28:04.246Z</time>
      </trkpt>
      <trkpt lat="45.7307" lon="4.85976">
        <ele>173.239886</ele>
        <time>2025-02-14T15:28:07.209Z</time>
      </trkpt>
      <trkpt lat="45.73061" lon="4.85979">
        <ele>173.253777</ele>
        <time>2025-02-14T15:28:08.159Z</time>
      </trkpt>
      <trkpt lat="45.73055" lon="4.85983">
        <ele>173.264091</ele>
        <time>2025-02-14T15:28:08.832Z</time>
      </trkpt>
      <trkpt lat="45.7304" lon="4.85991">
        <ele>173.288583</ele>
        <time>2025-02-14T15:28:10.526Z</time>
      </trkpt>
      <trkpt lat="45.73007" lon="4.86008">
        <ele>173.341846</ele>
        <time>2025-02-14T15:28:14.116Z</time>
      </trkpt>
      <trkpt lat="45.72956" lon="4.86043">
        <ele>173.427551</ele>
        <time>2025-02-14T15:28:19.297Z</time>
      </trkpt>
      <trkpt lat="45.72931" lon="4.86057">
        <ele>173.467568</ele>
        <time>2025-02-14T15:28:21.445Z</time>
      </trkpt>
      <trkpt lat="45.72923" lon="4.86063">
        <ele>173.481815</ele>
        <time>2025-02-14T15:28:22.181Z</time>
      </trkpt>
      <trkpt lat="45.72906" lon="4.86075">
        <ele>173.480047</ele>
        <time>2025-02-14T15:28:23.689Z</time>
      </trkpt>
      <trkpt lat="45.72898" lon="4.86081">
        <ele>173.467648</ele>
        <time>2025-02-14T15:28:24.413Z</time>
      </trkpt>
      <trkpt lat="45.72882" lon="4.86095">
        <ele>173.442675</ele>
        <time>2025-02-14T15:28:25.924Z</time>
      </trkpt>
      <trkpt lat="45.72783" lon="4.86163">
        <ele>173.293454</ele>
        <time>2025-02-14T15:28:35.238Z</time>
      </trkpt>
      <trkpt lat="45.72766" lon="4.86172">
        <ele>173.269968</ele>
        <time>2025-02-14T15:28:36.826Z</time>
      </trkpt>
      <trkpt lat="45.72737" lon="4.86195">
        <ele>173.325991</ele>
        <time>2025-02-14T15:28:40.088Z</time>
      </trkpt>
      <trkpt lat="45.72725" lon="4.86205">
        <ele>173.3761</ele>
        <time>2025-02-14T15:28:41.402Z</time>
      </trkpt>
      <trkpt lat="45.72714" lon="4.86213">
        <ele>173.423929</ele>
        <time>2025-02-14T15:28:42.681Z</time>
      </trkpt>
      <trkpt lat="45.7269" lon="4.86231">
        <ele>173.527182</ele>
        <time>2025-02-14T15:28:45.457Z</time>
      </trkpt>
      <trkpt lat="45.72675" lon="4.86246">
        <ele>173.594591</ele>
        <time>2025-02-14T15:28:47.249Z</time>
      </trkpt>
      <trkpt lat="45.72657" lon="4.86261">
        <ele>173.676045</ele>
        <time>2025-02-14T15:28:49.460Z</time>
      </trkpt>
      <trkpt lat="45.72609" lon="4.86299">
        <ele>173.881233</ele>
        <time>2025-02-14T15:28:54.840Z</time>
      </trkpt>
      <trkpt lat="45.7259" lon="4.86311">
        <ele>173.965778</ele>
        <time>2025-02-14T15:28:56.818Z</time>
      </trkpt>
      <trkpt lat="45.72577" lon="4.86322">
        <ele>174.023511</ele>
        <time>2025-02-14T15:28:58.139Z</time>
      </trkpt>
      <trkpt lat="45.72568" lon="4.8633">
        <ele>174.068406</ele>
        <time>2025-02-14T15:28:59.172Z</time>
      </trkpt>
      <trkpt lat="45.72559" lon="4.86337">
        <ele>174.110818</ele>
        <time>2025-02-14T15:29:00.124Z</time>
      </trkpt>
      <trkpt lat="45.72535" lon="4.86357">
        <ele>174.222311</ele>
        <time>2025-02-14T15:29:02.656Z</time>
      </trkpt>
      <trkpt lat="45.72509" lon="4.86378">
        <ele>174.346995</ele>
        <time>2025-02-14T15:29:05.675Z</time>
      </trkpt>
      <trkpt lat="45.72446" lon="4.8643">
        <ele>174.643951</ele>
        <time>2025-02-14T15:29:12.901Z</time>
      </trkpt>
      <trkpt lat="45.7243" lon="4.86443">
        <ele>174.762972</ele>
        <time>2025-02-14T15:29:14.895Z</time>
      </trkpt>
      <trkpt lat="45.72424" lon="4.86448">
        <ele>174.814109</ele>
        <time>2025-02-14T15:29:15.677Z</time>
      </trkpt>
      <trkpt lat="45.7241" lon="4.86459">
        <ele>174.936135</ele>
        <time>2025-02-14T15:29:17.543Z</time>
      </trkpt>
      <trkpt lat="45.72373" lon="4.8649">
        <ele>175.25304</ele>
        <time>2025-02-14T15:29:22.229Z</time>
      </trkpt>
      <trkpt lat="45.72359" lon="4.86502">
        <ele>175.379513</ele>
        <time>2025-02-14T15:29:23.999Z</time>
      </trkpt>
      <trkpt lat="45.72352" lon="4.86508">
        <ele>175.438243</ele>
        <time>2025-02-14T15:29:24.808Z</time>
      </trkpt>
      <trkpt lat="45.72317" lon="4.86538">
        <ele>175.751792</ele>
        <time>2025-02-14T15:29:29.079Z</time>
      </trkpt>
      <trkpt lat="45.72266" lon="4.86581">
        <ele>176.188267</ele>
        <time>2025-02-14T15:29:35.324Z</time>
      </trkpt>
      <trkpt lat="45.72186" lon="4.86648">
        <ele>176.879792</ele>
        <time>2025-02-14T15:29:45.425Z</time>
      </trkpt>
      <trkpt lat="45.72178" lon="4.86655">
        <ele>176.946842</ele>
        <time>2025-02-14T15:29:46.407Z</time>
      </trkpt>
      <trkpt lat="45.72168" lon="4.86663">
        <ele>177.032715</ele>
        <time>2025-02-14T15:29:47.673Z</time>
      </trkpt>
      <trkpt lat="45.72075" lon="4.8674">
        <ele>177.506492</ele>
        <time>2025-02-14T15:29:58.950Z</time>
      </trkpt>
      <trkpt lat="45.72051" lon="4.8676">
        <ele>177.572073</ele>
        <time>2025-02-14T15:30:01.384Z</time>
      </trkpt>
      <trkpt lat="45.72004" lon="4.86799">
        <ele>177.696947</ele>
        <time>2025-02-14T15:30:06.132Z</time>
      </trkpt>
      <trkpt lat="45.71971" lon="4.86818">
        <ele>177.776264</ele>
        <time>2025-02-14T15:30:09.398Z</time>
      </trkpt>
      <trkpt lat="45.71957" lon="4.86828">
        <ele>177.790787</ele>
        <time>2025-02-14T15:30:10.812Z</time>
      </trkpt>
      <trkpt lat="45.71946" lon="4.8684">
        <ele>177.804463</ele>
        <time>2025-02-14T15:30:12.101Z</time>
      </trkpt>
      <trkpt lat="45.71945" lon="4.86841">
        <ele>177.804969</ele>
        <time>2025-02-14T15:30:12.144Z</time>
      </trkpt>
      <trkpt lat="45.71886" lon="4.86885">
        <ele>177.866903</ele>
        <time>2025-02-14T15:30:18.016Z</time>
      </trkpt>
      <trkpt lat="45.71864" lon="4.86905">
        <ele>177.891393</ele>
        <time>2025-02-14T15:30:20.446Z</time>
      </trkpt>
      <trkpt lat="45.71863" lon="4.86907">
        <ele>177.892913</ele>
        <time>2025-02-14T15:30:20.610Z</time>
      </trkpt>
      <trkpt lat="45.71801" lon="4.86965">
        <ele>177.999558</ele>
        <time>2025-02-14T15:30:27.572Z</time>
      </trkpt>
      <trkpt lat="45.71792" lon="4.86967">
        <ele>178.023363</ele>
        <time>2025-02-14T15:30:28.367Z</time>
      </trkpt>
      <trkpt lat="45.71721" lon="4.87032">
        <ele>178.25689</ele>
        <time>2025-02-14T15:30:36.294Z</time>
      </trkpt>
      <trkpt lat="45.71668" lon="4.8708">
        <ele>178.433032</ele>
        <time>2025-02-14T15:30:42.319Z</time>
      </trkpt>
      <trkpt lat="45.71596" lon="4.87137">
        <ele>179.038616</ele>
        <time>2025-02-14T15:30:51.036Z</time>
      </trkpt>
      <trkpt lat="45.71585" lon="4.87147">
        <ele>179.13703</ele>
        <time>2025-02-14T15:30:52.455Z</time>
      </trkpt>
      <trkpt lat="45.71523" lon="4.87202">
        <ele>179.686103</ele>
        <time>2025-02-14T15:31:00.426Z</time>
      </trkpt>
      <trkpt lat="45.71496" lon="4.87228">
        <ele>179.892339</ele>
        <time>2025-02-14T15:31:03.998Z</time>
      </trkpt>
      <trkpt lat="45.71448" lon="4.87269">
        <ele>180.196797</ele>
        <time>2025-02-14T15:31:10.161Z</time>
      </trkpt>
      <trkpt lat="45.71199" lon="4.87476">
        <ele>181.322485</ele>
        <time>2025-02-14T15:31:37.992Z</time>
      </trkpt>
      <trkpt lat="45.71106" lon="4.87517">
        <ele>181.552132</ele>
        <time>2025-02-14T15:31:46.732Z</time>
      </trkpt>
      <trkpt lat="45.7103" lon="4.87549">
        <ele>181.737253</ele>
        <time>2025-02-14T15:31:54.522Z</time>
      </trkpt>
      <trkpt lat="45.70993" lon="4.87565">
        <ele>181.878946</ele>
        <time>2025-02-14T15:31:58.542Z</time>
      </trkpt>
      <trkpt lat="45.7096" lon="4.87578">
        <ele>182.002652</ele>
        <time>2025-02-14T15:32:01.892Z</time>
      </trkpt>
      <trkpt lat="45.70879" lon="4.87612">
        <ele>182.31722</ele>
        <time>2025-02-14T15:32:10.027Z</time>
      </trkpt>
      <trkpt lat="45.70851" lon="4.8762">
        <ele>182.422675</ele>
        <time>2025-02-14T15:32:12.675Z</time>
      </trkpt>
      <trkpt lat="45.70839" lon="4.87624">
        <ele>182.471806</ele>
        <time>2025-02-14T15:32:13.880Z</time>
      </trkpt>
      <trkpt lat="45.70808" lon="4.87635">
        <ele>182.599926</ele>
        <time>2025-02-14T15:32:17.053Z</time>
      </trkpt>
      <trkpt lat="45.70754" lon="4.87673">
        <ele>182.837075</ele>
        <time>2025-02-14T15:32:23.061Z</time>
      </trkpt>
      <trkpt lat="45.70739" lon="4.87685">
        <ele>182.905901</ele>
        <time>2025-02-14T15:32:24.837Z</time>
      </trkpt>
      <trkpt lat="45.7073" lon="4.87692">
        <ele>182.945778</ele>
        <time>2025-02-14T15:32:25.825Z</time>
      </trkpt>
      <trkpt lat="45.70716" lon="4.87703">
        <ele>183.009118</ele>
        <time>2025-02-14T15:32:27.391Z</time>
      </trkpt>
      <trkpt lat="45.70635" lon="4.87764">
        <ele>183.391055</ele>
        <time>2025-02-14T15:32:36.320Z</time>
      </trkpt>
      <trkpt lat="45.70622" lon="4.87774">
        <ele>183.454964</ele>
        <time>2025-02-14T15:32:37.734Z</time>
      </trkpt>
      <trkpt lat="45.70611" lon="4.87783">
        <ele>183.507068</ele>
        <time>2025-02-14T15:32:38.882Z</time>
      </trkpt>
      <trkpt lat="45.70602" lon="4.87791">
        <ele>183.551237</ele>
        <time>2025-02-14T15:32:39.869Z</time>
      </trkpt>
      <trkpt lat="45.70598" lon="4.87794">
        <ele>183.57266</ele>
        <time>2025-02-14T15:32:40.368Z</time>
      </trkpt>
      <trkpt lat="45.70592" lon="4.878">
        <ele>183.604614</ele>
        <time>2025-02-14T15:32:41.097Z</time>
      </trkpt>
      <trkpt lat="45.70558" lon="4.87817">
        <ele>183.756385</ele>
        <time>2025-02-14T15:32:44.795Z</time>
      </trkpt>
      <trkpt lat="45.70555" lon="4.87817">
        <ele>183.768356</ele>
        <time>2025-02-14T15:32:45.101Z</time>
      </trkpt>
      <trkpt lat="45.70546" lon="4.87817">
        <ele>183.807671</ele>
        <time>2025-02-14T15:32:46.106Z</time>
      </trkpt>
      <trkpt lat="45.70531" lon="4.8782">
        <ele>183.87421</ele>
        <time>2025-02-14T15:32:47.799Z</time>
      </trkpt>
      <trkpt lat="45.70508" lon="4.87847">
        <ele>184.003469</ele>
        <time>2025-02-14T15:32:50.946Z</time>
      </trkpt>
      <trkpt lat="45.70455" lon="4.87894">
        <ele>184.273673</ele>
        <time>2025-02-14T15:32:56.916Z</time>
      </trkpt>
      <trkpt lat="45.70355" lon="4.8797">
        <ele>184.720256</ele>
        <time>2025-02-14T15:33:07.988Z</time>
      </trkpt>
      <trkpt lat="45.70253" lon="4.88049">
        <ele>184.999254</ele>
        <time>2025-02-14T15:33:18.944Z</time>
      </trkpt>
      <trkpt lat="45.70179" lon="4.88109">
        <ele>185.274314</ele>
        <time>2025-02-14T15:33:26.917Z</time>
      </trkpt>
      <trkpt lat="45.70132" lon="4.88147">
        <ele>185.490875</ele>
        <time>2025-02-14T15:33:31.939Z</time>
      </trkpt>
      <trkpt lat="45.70115" lon="4.88151">
        <ele>185.562734</ele>
        <time>2025-02-14T15:33:33.668Z</time>
      </trkpt>
      <trkpt lat="45.7011" lon="4.8815">
        <ele>185.581194</ele>
        <time>2025-02-14T15:33:34.108Z</time>
      </trkpt>
      <trkpt lat="45.70077" lon="4.88136">
        <ele>185.72124</ele>
        <time>2025-02-14T15:33:37.573Z</time>
      </trkpt>
      <trkpt lat="45.70054" lon="4.88135">
        <ele>185.812025</ele>
        <time>2025-02-14T15:33:39.982Z</time>
      </trkpt>
      <trkpt lat="45.70034" lon="4.88144">
        <ele>185.963369</ele>
        <time>2025-02-14T15:33:42.448Z</time>
      </trkpt>
      <trkpt lat="45.69993" lon="4.88173">
        <ele>186.298667</ele>
        <time>2025-02-14T15:33:47.713Z</time>
      </trkpt>
      <trkpt lat="45.69974" lon="4.88188">
        <ele>186.459556</ele>
        <time>2025-02-14T15:33:50.041Z</time>
      </trkpt>
      <trkpt lat="45.69948" lon="4.88198">
        <ele>186.664453</ele>
        <time>2025-02-14T15:33:52.792Z</time>
      </trkpt>
      <trkpt lat="45.69936" lon="4.882">
        <ele>186.750319</ele>
        <time>2025-02-14T15:33:53.897Z</time>
      </trkpt>
      <trkpt lat="45.69911" lon="4.88208">
        <ele>186.943228</ele>
        <time>2025-02-14T15:33:56.348Z</time>
      </trkpt>
      <trkpt lat="45.69897" lon="4.88221">
        <ele>187.069303</ele>
        <time>2025-02-14T15:33:58.222Z</time>
      </trkpt>
      <trkpt lat="45.69893" lon="4.88224">
        <ele>187.103781</ele>
        <time>2025-02-14T15:33:58.749Z</time>
      </trkpt>
      <trkpt lat="45.69871" lon="4.88258">
        <ele>187.222746</ele>
        <time>2025-02-14T15:34:02.532Z</time>
      </trkpt>
      <trkpt lat="45.69863" lon="4.88275">
        <ele>187.258425</ele>
        <time>2025-02-14T15:34:04.129Z</time>
      </trkpt>
      <trkpt lat="45.69855" lon="4.88298">
        <ele>187.30334</ele>
        <time>2025-02-14T15:34:05.951Z</time>
      </trkpt>
      <trkpt lat="45.69851" lon="4.8831">
        <ele>187.32744</ele>
        <time>2025-02-14T15:34:06.817Z</time>
      </trkpt>
      <trkpt lat="45.69844" lon="4.8832">
        <ele>187.351689</ele>
        <time>2025-02-14T15:34:07.625Z</time>
      </trkpt>
      <trkpt lat="45.69837" lon="4.88314">
        <ele>187.372035</ele>
        <time>2025-02-14T15:34:08.269Z</time>
      </trkpt>
      <trkpt lat="45.6983" lon="4.88318">
        <ele>187.392463</ele>
        <time>2025-02-14T15:34:08.965Z</time>
      </trkpt>
      <trkpt lat="45.69822" lon="4.88322">
        <ele>187.413468</ele>
        <time>2025-02-14T15:34:09.661Z</time>
      </trkpt>
      <trkpt lat="45.69803" lon="4.8833">
        <ele>187.464224</ele>
        <time>2025-02-14T15:34:11.560Z</time>
      </trkpt>
      <trkpt lat="45.69767" lon="4.88349">
        <ele>187.560447</ele>
        <time>2025-02-14T15:34:15.194Z</time>
      </trkpt>
      <trkpt lat="45.69748" lon="4.88359">
        <ele>187.610224</ele>
        <time>2025-02-14T15:34:16.964Z</time>
      </trkpt>
      <trkpt lat="45.69735" lon="4.88364">
        <ele>187.651928</ele>
        <time>2025-02-14T15:34:18.189Z</time>
      </trkpt>
      <trkpt lat="45.69706" lon="4.88372">
        <ele>187.744567</ele>
        <time>2025-02-14T15:34:20.621Z</time>
      </trkpt>
      <trkpt lat="45.69689" lon="4.88376">
        <ele>187.797645</ele>
        <time>2025-02-14T15:34:21.972Z</time>
      </trkpt>
      <trkpt lat="45.69675" lon="4.88374">
        <ele>187.841446</ele>
        <time>2025-02-14T15:34:23.141Z</time>
      </trkpt>
      <trkpt lat="45.69658" lon="4.88378">
        <ele>187.895943</ele>
        <time>2025-02-14T15:34:24.652Z</time>
      </trkpt>
      <trkpt lat="45.69647" lon="4.88379">
        <ele>187.93206</ele>
        <time>2025-02-14T15:34:25.743Z</time>
      </trkpt>
      <trkpt lat="45.69633" lon="4.88381">
        <ele>187.975305</ele>
        <time>2025-02-14T15:34:27.138Z</time>
      </trkpt>
      <trkpt lat="45.69635" lon="4.88395">
        <ele>188.006185</ele>
        <time>2025-02-14T15:34:28.174Z</time>
      </trkpt>
      <trkpt lat="45.69651" lon="4.88509">
        <ele>188.525061</ele>
        <time>2025-02-14T15:34:36.860Z</time>
      </trkpt>
      <trkpt lat="45.69669" lon="4.8864">
        <ele>189.753536</ele>
        <time>2025-02-14T15:34:48.388Z</time>
      </trkpt>
      <trkpt lat="45.69671" lon="4.88654">
        <ele>189.885846</ele>
        <time>2025-02-14T15:34:49.629Z</time>
      </trkpt>
      <trkpt lat="45.69663" lon="4.88655">
        <ele>189.98705</ele>
        <time>2025-02-14T15:34:50.559Z</time>
      </trkpt>
      <trkpt lat="45.69658" lon="4.88656">
        <ele>190.062698</ele>
        <time>2025-02-14T15:34:51.272Z</time>
      </trkpt>
      <trkpt lat="45.69601" lon="4.8866">
        <ele>190.891287</ele>
        <time>2025-02-14T15:34:58.342Z</time>
      </trkpt>
      <trkpt lat="45.69595" lon="4.8866">
        <ele>191.004561</ele>
        <time>2025-02-14T15:34:59.170Z</time>
      </trkpt>
      <trkpt lat="45.6949" lon="4.88664">
        <ele>192.854262</ele>
        <time>2025-02-14T15:35:12.829Z</time>
      </trkpt>
      <trkpt lat="45.69463" lon="4.88722">
        <ele>193.715729</ele>
        <time>2025-02-14T15:35:19.506Z</time>
      </trkpt>
      <trkpt lat="45.6946" lon="4.88744">
        <ele>193.996569</ele>
        <time>2025-02-14T15:35:21.652Z</time>
      </trkpt>
      <trkpt lat="45.69462" lon="4.88797">
        <ele>194.66834</ele>
        <time>2025-02-14T15:35:26.826Z</time>
      </trkpt>
      <trkpt lat="45.69463" lon="4.88826">
        <ele>195.028451</ele>
        <time>2025-02-14T15:35:29.555Z</time>
      </trkpt>
      <trkpt lat="45.69464" lon="4.88849">
        <ele>195.319272</ele>
        <time>2025-02-14T15:35:31.779Z</time>
      </trkpt>
      <trkpt lat="45.69476" lon="4.88963">
        <ele>196.76502</ele>
        <time>2025-02-14T15:35:42.302Z</time>
      </trkpt>
      <trkpt lat="45.69348" lon="4.89004">
        <ele>198.766069</ele>
        <time>2025-02-14T15:35:58.017Z</time>
      </trkpt>
      <trkpt lat="45.69344" lon="4.88997">
        <ele>198.847842</ele>
        <time>2025-02-14T15:35:58.695Z</time>
      </trkpt>
      <trkpt lat="45.69339" lon="4.88996">
        <ele>198.929817</ele>
        <time>2025-02-14T15:35:59.392Z</time>
      </trkpt>
      <trkpt lat="45.69334" lon="4.89">
        <ele>199.009833</ele>
        <time>2025-02-14T15:36:00.064Z</time>
      </trkpt>
      <trkpt lat="45.69333" lon="4.89008">
        <ele>199.090166</ele>
        <time>2025-02-14T15:36:00.740Z</time>
      </trkpt>
      <trkpt lat="45.693" lon="4.8901">
        <ele>199.587447</ele>
        <time>2025-02-14T15:36:05.089Z</time>
      </trkpt>
      <trkpt lat="45.69189" lon="4.89019">
        <ele>201.169184</ele>
        <time>2025-02-14T15:36:19.851Z</time>
      </trkpt>
      <trkpt lat="45.69156" lon="4.89028">
        <ele>201.649386</ele>
        <time>2025-02-14T15:36:23.735Z</time>
      </trkpt>
      <trkpt lat="45.69143" lon="4.89037">
        <ele>201.861127</ele>
        <time>2025-02-14T15:36:25.374Z</time>
      </trkpt>
      <trkpt lat="45.69058" lon="4.89089">
        <ele>203.176795</ele>
        <time>2025-02-14T15:36:35.056Z</time>
      </trkpt>
      <trkpt lat="45.69048" lon="4.89093">
        <ele>203.325017</ele>
        <time>2025-02-14T15:36:36.184Z</time>
      </trkpt>
      <trkpt lat="45.69037" lon="4.89096">
        <ele>203.484459</ele>
        <time>2025-02-14T15:36:37.411Z</time>
      </trkpt>
      <trkpt lat="45.6901" lon="4.89102">
        <ele>203.883998</ele>
        <time>2025-02-14T15:36:40.764Z</time>
      </trkpt>
      <trkpt lat="45.68991" lon="4.89106">
        <ele>204.153704</ele>
        <time>2025-02-14T15:36:43.293Z</time>
      </trkpt>
      <trkpt lat="45.68963" lon="4.89111">
        <ele>204.55027</ele>
        <time>2025-02-14T15:36:47.212Z</time>
      </trkpt>
      <trkpt lat="45.68907" lon="4.8912">
        <ele>205.855501</ele>
        <time>2025-02-14T15:36:55.716Z</time>
      </trkpt>
      <trkpt lat="45.68873" lon="4.89124">
        <ele>206.785945</ele>
        <time>2025-02-14T15:37:01.296Z</time>
      </trkpt>
      <trkpt lat="45.68844" lon="4.89121">
        <ele>207.595669</ele>
        <time>2025-02-14T15:37:06.321Z</time>
      </trkpt>
      <trkpt lat="45.68836" lon="4.89112">
        <ele>207.876468</ele>
        <time>2025-02-14T15:37:08.062Z</time>
      </trkpt>
      <trkpt lat="45.68828" lon="4.89111">
        <ele>208.083991</ele>
        <time>2025-02-14T15:37:09.343Z</time>
      </trkpt>
      <trkpt lat="45.68824" lon="4.89113">
        <ele>208.191253</ele>
        <time>2025-02-14T15:37:09.974Z</time>
      </trkpt>
      <trkpt lat="45.68817" lon="4.89128">
        <ele>208.544545</ele>
        <time>2025-02-14T15:37:12.115Z</time>
      </trkpt>
      <trkpt lat="45.68809" lon="4.89131">
        <ele>208.755572</ele>
        <time>2025-02-14T15:37:13.369Z</time>
      </trkpt>
      <trkpt lat="45.68788" lon="4.89138">
        <ele>209.346169</ele>
        <time>2025-02-14T15:37:16.809Z</time>
      </trkpt>
      <trkpt lat="45.68749" lon="4.89146">
        <ele>209.639623</ele>
        <time>2025-02-14T15:37:22.608Z</time>
      </trkpt>
      <trkpt lat="45.6867" lon="4.89169">
        <ele>209.403216</ele>
        <time>2025-02-14T15:37:30.626Z</time>
      </trkpt>
      <trkpt lat="45.68653" lon="4.89176">
        <ele>209.350863</ele>
        <time>2025-02-14T15:37:31.863Z</time>
      </trkpt>
      <trkpt lat="45.68648" lon="4.89178">
        <ele>209.335796</ele>
        <time>2025-02-14T15:37:32.207Z</time>
      </trkpt>
      <trkpt lat="45.68627" lon="4.89185">
        <ele>209.271568</ele>
        <time>2025-02-14T15:37:33.638Z</time>
      </trkpt>
      <trkpt lat="45.68605" lon="4.89207">
        <ele>209.194029</ele>
        <time>2025-02-14T15:37:35.285Z</time>
      </trkpt>
      <trkpt lat="45.686" lon="4.89209">
        <ele>209.096602</ele>
        <time>2025-02-14T15:37:35.647Z</time>
      </trkpt>
      <trkpt lat="45.68596" lon="4.8922">
        <ele>208.87623</ele>
        <time>2025-02-14T15:37:36.169Z</time>
      </trkpt>
      <trkpt lat="45.68589" lon="4.89225">
        <ele>208.680113</ele>
        <time>2025-02-14T15:37:36.629Z</time>
      </trkpt>
      <trkpt lat="45.68575" lon="4.89234">
        <ele>208.278599</ele>
        <time>2025-02-14T15:37:37.561Z</time>
      </trkpt>
      <trkpt lat="45.68497" lon="4.89316">
        <ele>205.816602</ele>
        <time>2025-02-14T15:37:43.460Z</time>
      </trkpt>
      <trkpt lat="45.6848" lon="4.89327">
        <ele>205.341579</ele>
        <time>2025-02-14T15:37:44.711Z</time>
      </trkpt>
      <trkpt lat="45.68418" lon="4.89344">
        <ele>204.343265</ele>
        <time>2025-02-14T15:37:49.157Z</time>
      </trkpt>
      <trkpt lat="45.68243" lon="4.89389">
        <ele>203.039106</ele>
        <time>2025-02-14T15:38:03.221Z</time>
      </trkpt>
      <trkpt lat="45.68236" lon="4.89391">
        <ele>203.007204</ele>
        <time>2025-02-14T15:38:03.766Z</time>
      </trkpt>
      <trkpt lat="45.68173" lon="4.89408">
        <ele>202.710028</ele>
        <time>2025-02-14T15:38:08.753Z</time>
      </trkpt>
      <trkpt lat="45.68143" lon="4.89416">
        <ele>202.571515</ele>
        <time>2025-02-14T15:38:11.049Z</time>
      </trkpt>
      <trkpt lat="45.68031" lon="4.89449">
        <ele>202.778342</ele>
        <time>2025-02-14T15:38:20.794Z</time>
      </trkpt>
      <trkpt lat="45.68018" lon="4.89454">
        <ele>202.863159</ele>
        <time>2025-02-14T15:38:22.198Z</time>
      </trkpt>
      <trkpt lat="45.67959" lon="4.89477">
        <ele>203.247206</ele>
        <time>2025-02-14T15:38:29.106Z</time>
      </trkpt>
      <trkpt lat="45.67919" lon="4.89495">
        <ele>203.53962</ele>
        <time>2025-02-14T15:38:34.093Z</time>
      </trkpt>
      <trkpt lat="45.67878" lon="4.89515">
        <ele>204.173932</ele>
        <time>2025-02-14T15:38:39.827Z</time>
      </trkpt>
      <trkpt lat="45.67834" lon="4.89535">
        <ele>204.844457</ele>
        <time>2025-02-14T15:38:45.603Z</time>
      </trkpt>
      <trkpt lat="45.67809" lon="4.89544">
        <ele>205.217969</ele>
        <time>2025-02-14T15:38:48.772Z</time>
      </trkpt>
      <trkpt lat="45.67803" lon="4.89547">
        <ele>205.306555</ele>
        <time>2025-02-14T15:38:49.525Z</time>
      </trkpt>
      <trkpt lat="45.67685" lon="4.89602">
        <ele>207.119005</ele>
        <time>2025-02-14T15:39:04.943Z</time>
      </trkpt>
      <trkpt lat="45.67677" lon="4.89612">
        <ele>207.273437</ele>
        <time>2025-02-14T15:39:06.265Z</time>
      </trkpt>
      <trkpt lat="45.67664" lon="4.89703">
        <ele>208.226105</ele>
        <time>2025-02-14T15:39:14.632Z</time>
      </trkpt>
      <trkpt lat="45.67628" lon="4.89765">
        <ele>209.142809</ele>
        <time>2025-02-14T15:39:20.971Z</time>
      </trkpt>
      <trkpt lat="45.676" lon="4.89815">
        <ele>209.976578</ele>
        <time>2025-02-14T15:39:26.511Z</time>
      </trkpt>
      <trkpt lat="45.67593" lon="4.89834">
        <ele>210.250639</ele>
        <time>2025-02-14T15:39:28.602Z</time>
      </trkpt>
      <trkpt lat="45.67592" lon="4.89856">
        <ele>210.536755</ele>
        <time>2025-02-14T15:39:30.772Z</time>
      </trkpt>
      <trkpt lat="45.67581" lon="4.89864">
        <ele>210.756757</ele>
        <time>2025-02-14T15:39:32.462Z</time>
      </trkpt>
      <trkpt lat="45.67577" lon="4.89879">
        <ele>210.977057</ele>
        <time>2025-02-14T15:39:34.133Z</time>
      </trkpt>
      <trkpt lat="45.67568" lon="4.89888">
        <ele>211.163843</ele>
        <time>2025-02-14T15:39:35.535Z</time>
      </trkpt>
      <trkpt lat="45.6756" lon="4.89893">
        <ele>211.333775</ele>
        <time>2025-02-14T15:39:36.887Z</time>
      </trkpt>
      <trkpt lat="45.67513" lon="4.89896">
        <ele>212.141566</ele>
        <time>2025-02-14T15:39:43.617Z</time>
      </trkpt>
      <trkpt lat="45.67494" lon="4.89893">
        <ele>212.317993</ele>
        <time>2025-02-14T15:39:46.225Z</time>
      </trkpt>
      <trkpt lat="45.67458" lon="4.89887">
        <ele>212.665533</ele>
        <time>2025-02-14T15:39:51.795Z</time>
      </trkpt>
      <trkpt lat="45.67416" lon="4.89878">
        <ele>213.069789</ele>
        <time>2025-02-14T15:39:57.361Z</time>
      </trkpt>
      <trkpt lat="45.6739" lon="4.89871">
        <ele>213.322676</ele>
        <time>2025-02-14T15:39:59.931Z</time>
      </trkpt>
      <trkpt lat="45.67357" lon="4.89853">
        <ele>213.654709</ele>
        <time>2025-02-14T15:40:02.795Z</time>
      </trkpt>
      <trkpt lat="45.67344" lon="4.89854">
        <ele>213.762738</ele>
        <time>2025-02-14T15:40:03.783Z</time>
      </trkpt>
      <trkpt lat="45.67318" lon="4.89855">
        <ele>212.926464</ele>
        <time>2025-02-14T15:40:05.532Z</time>
      </trkpt>
      <trkpt lat="45.67309" lon="4.89855">
        <ele>212.631578</ele>
        <time>2025-02-14T15:40:06.128Z</time>
      </trkpt>
      <trkpt lat="45.6725" lon="4.89853">
        <ele>210.719393</ele>
        <time>2025-02-14T15:40:09.779Z</time>
      </trkpt>
      <trkpt lat="45.67202" lon="4.89853">
        <ele>209.170477</ele>
        <time>2025-02-14T15:40:12.579Z</time>
      </trkpt>
      <trkpt lat="45.67151" lon="4.89858">
        <ele>207.229201</ele>
        <time>2025-02-14T15:40:15.520Z</time>
      </trkpt>
      <trkpt lat="45.67123" lon="4.8986">
        <ele>205.812927</ele>
        <time>2025-02-14T15:40:17.069Z</time>
      </trkpt>
      <trkpt lat="45.67106" lon="4.89866">
        <ele>204.883929</ele>
        <time>2025-02-14T15:40:18.077Z</time>
      </trkpt>
      <trkpt lat="45.671" lon="4.8986">
        <ele>204.543618</ele>
        <time>2025-02-14T15:40:18.447Z</time>
      </trkpt>
      <trkpt lat="45.6708" lon="4.89851">
        <ele>203.433121</ele>
        <time>2025-02-14T15:40:19.642Z</time>
      </trkpt>
      <trkpt lat="45.67051" lon="4.8984">
        <ele>201.910376</ele>
        <time>2025-02-14T15:40:21.287Z</time>
      </trkpt>
      <trkpt lat="45.67044" lon="4.89839">
        <ele>201.540604</ele>
        <time>2025-02-14T15:40:21.693Z</time>
      </trkpt>
      <trkpt lat="45.66991" lon="4.89844">
        <ele>198.825747</ele>
        <time>2025-02-14T15:40:24.662Z</time>
      </trkpt>
      <trkpt lat="45.66983" lon="4.89846">
        <ele>198.580023</ele>
        <time>2025-02-14T15:40:25.333Z</time>
      </trkpt>
      <trkpt lat="45.66944" lon="4.89851">
        <ele>197.654592</ele>
        <time>2025-02-14T15:40:28.622Z</time>
      </trkpt>
      <trkpt lat="45.66877" lon="4.8986">
        <ele>196.054305</ele>
        <time>2025-02-14T15:40:34.739Z</time>
      </trkpt>
      <trkpt lat="45.66871" lon="4.8986">
        <ele>195.910748</ele>
        <time>2025-02-14T15:40:35.346Z</time>
      </trkpt>
      <trkpt lat="45.6685" lon="4.89864">
        <ele>195.396376</ele>
        <time>2025-02-14T15:40:36.895Z</time>
      </trkpt>
      <trkpt lat="45.66793" lon="4.89872">
        <ele>194.439148</ele>
        <time>2025-02-14T15:40:41.356Z</time>
      </trkpt>
      <trkpt lat="45.66722" lon="4.89883">
        <ele>194.411707</ele>
        <time>2025-02-14T15:40:47.864Z</time>
      </trkpt>
      <trkpt lat="45.66718" lon="4.89884">
        <ele>194.409963</ele>
        <time>2025-02-14T15:40:48.296Z</time>
      </trkpt>
      <trkpt lat="45.6671" lon="4.89885">
        <ele>194.406974</ele>
        <time>2025-02-14T15:40:49.031Z</time>
      </trkpt>
      <trkpt lat="45.66703" lon="4.89886">
        <ele>194.404413</ele>
        <time>2025-02-14T15:40:49.657Z</time>
      </trkpt>
      <trkpt lat="45.66701" lon="4.89886">
        <ele>194.403327</ele>
        <time>2025-02-14T15:40:49.922Z</time>
      </trkpt>
      <trkpt lat="45.66665" lon="4.89892">
        <ele>194.389399</ele>
        <time>2025-02-14T15:40:53.223Z</time>
      </trkpt>
      <trkpt lat="45.66613" lon="4.89904">
        <ele>194.344699</ele>
        <time>2025-02-14T15:40:58.070Z</time>
      </trkpt>
      <trkpt lat="45.66565" lon="4.89921">
        <ele>194.26081</ele>
        <time>2025-02-14T15:41:02.690Z</time>
      </trkpt>
      <trkpt lat="45.66521" lon="4.89944">
        <ele>194.181708</ele>
        <time>2025-02-14T15:41:06.697Z</time>
      </trkpt>
      <trkpt lat="45.66478" lon="4.8997">
        <ele>194.101705</ele>
        <time>2025-02-14T15:41:10.400Z</time>
      </trkpt>
      <trkpt lat="45.6643" lon="4.89999">
        <ele>193.910402</ele>
        <time>2025-02-14T15:41:14.456Z</time>
      </trkpt>
      <trkpt lat="45.66378" lon="4.90007">
        <ele>193.663529</ele>
        <time>2025-02-14T15:41:18.575Z</time>
      </trkpt>
      <trkpt lat="45.66326" lon="4.90003">
        <ele>193.417195</ele>
        <time>2025-02-14T15:41:22.712Z</time>
      </trkpt>
      <trkpt lat="45.66296" lon="4.90004">
        <ele>193.272885</ele>
        <time>2025-02-14T15:41:25.200Z</time>
      </trkpt>
      <trkpt lat="45.66275" lon="4.90013">
        <ele>193.194235</ele>
        <time>2025-02-14T15:41:26.987Z</time>
      </trkpt>
      <trkpt lat="45.66272" lon="4.90008">
        <ele>193.181811</ele>
        <time>2025-02-14T15:41:27.402Z</time>
      </trkpt>
      <trkpt lat="45.66265" lon="4.90007">
        <ele>193.163545</ele>
        <time>2025-02-14T15:41:28.013Z</time>
      </trkpt>
      <trkpt lat="45.66261" lon="4.90011">
        <ele>193.152101</ele>
        <time>2025-02-14T15:41:28.389Z</time>
      </trkpt>
      <trkpt lat="45.66259" lon="4.9002">
        <ele>193.13556</ele>
        <time>2025-02-14T15:41:28.948Z</time>
      </trkpt>
      <trkpt lat="45.66245" lon="4.90024">
        <ele>193.098945</ele>
        <time>2025-02-14T15:41:30.163Z</time>
      </trkpt>
      <trkpt lat="45.66169" lon="4.90052">
        <ele>192.897406</ele>
        <time>2025-02-14T15:41:36.776Z</time>
      </trkpt>
      <trkpt lat="45.66103" lon="4.90067">
        <ele>192.73348</ele>
        <time>2025-02-14T15:41:42.353Z</time>
      </trkpt>
      <trkpt lat="45.66043" lon="4.90065">
        <ele>192.6125</ele>
        <time>2025-02-14T15:41:47.391Z</time>
      </trkpt>
      <trkpt lat="45.66034" lon="4.90065">
        <ele>192.593189</ele>
        <time>2025-02-14T15:41:48.195Z</time>
      </trkpt>
      <trkpt lat="45.65958" lon="4.90065">
        <ele>192.438284</ele>
        <time>2025-02-14T15:41:54.636Z</time>
      </trkpt>
      <trkpt lat="45.65944" lon="4.90069">
        <ele>192.410597</ele>
        <time>2025-02-14T15:41:55.789Z</time>
      </trkpt>
      <trkpt lat="45.65938" lon="4.90058">
        <ele>192.393374</ele>
        <time>2025-02-14T15:41:56.619Z</time>
      </trkpt>
      <trkpt lat="45.65932" lon="4.90057">
        <ele>192.388387</ele>
        <time>2025-02-14T15:41:57.148Z</time>
      </trkpt>
      <trkpt lat="45.65929" lon="4.90058">
        <ele>192.386203</ele>
        <time>2025-02-14T15:41:57.374Z</time>
      </trkpt>
      <trkpt lat="45.65925" lon="4.90063">
        <ele>192.381914</ele>
        <time>2025-02-14T15:41:57.821Z</time>
      </trkpt>
      <trkpt lat="45.65922" lon="4.90073">
        <ele>192.375859</ele>
        <time>2025-02-14T15:41:58.455Z</time>
      </trkpt>
      <trkpt lat="45.65924" lon="4.90083">
        <ele>192.36983</ele>
        <time>2025-02-14T15:41:59.084Z</time>
      </trkpt>
      <trkpt lat="45.65922" lon="4.90084">
        <ele>192.3679</ele>
        <time>2025-02-14T15:41:59.286Z</time>
      </trkpt>
      <trkpt lat="45.65917" lon="4.90088">
        <ele>192.363602</ele>
        <time>2025-02-14T15:41:59.735Z</time>
      </trkpt>
      <trkpt lat="45.65784" lon="4.90209">
        <ele>192.260456</ele>
        <time>2025-02-14T15:42:13.513Z</time>
      </trkpt>
      <trkpt lat="45.65779" lon="4.90214">
        <ele>192.264968</ele>
        <time>2025-02-14T15:42:14.124Z</time>
      </trkpt>
      <trkpt lat="45.65755" lon="4.90235">
        <ele>192.283954</ele>
        <time>2025-02-14T15:42:16.683Z</time>
      </trkpt>
      <trkpt lat="45.65651" lon="4.90328">
        <ele>192.366546</ele>
        <time>2025-02-14T15:42:27.576Z</time>
      </trkpt>
      <trkpt lat="45.65641" lon="4.90331">
        <ele>192.393935</ele>
        <time>2025-02-14T15:42:28.572Z</time>
      </trkpt>
      <trkpt lat="45.65632" lon="4.90328">
        <ele>192.436985</ele>
        <time>2025-02-14T15:42:29.385Z</time>
      </trkpt>
      <trkpt lat="45.65625" lon="4.90335">
        <ele>192.478435</ele>
        <time>2025-02-14T15:42:30.183Z</time>
      </trkpt>
      <trkpt lat="45.65623" lon="4.90341">
        <ele>192.500999</ele>
        <time>2025-02-14T15:42:30.618Z</time>
      </trkpt>
      <trkpt lat="45.65623" lon="4.90347">
        <ele>192.523123</ele>
        <time>2025-02-14T15:42:31.055Z</time>
      </trkpt>
      <trkpt lat="45.65617" lon="4.9036">
        <ele>192.577261</ele>
        <time>2025-02-14T15:42:32.114Z</time>
      </trkpt>
      <trkpt lat="45.65484" lon="4.90481">
        <ele>193.347541</ele>
        <time>2025-02-14T15:42:48.549Z</time>
      </trkpt>
      <trkpt lat="45.6542" lon="4.9054">
        <ele>193.685455</ele>
        <time>2025-02-14T15:42:56.256Z</time>
      </trkpt>
      <trkpt lat="45.65227" lon="4.90715">
        <ele>194.434657</ele>
        <time>2025-02-14T15:43:18.330Z</time>
      </trkpt>
      <trkpt lat="45.65176" lon="4.90762">
        <ele>194.557173</ele>
        <time>2025-02-14T15:43:23.986Z</time>
      </trkpt>
      <trkpt lat="45.65131" lon="4.90802">
        <ele>194.61676</ele>
        <time>2025-02-14T15:43:28.697Z</time>
      </trkpt>
      <trkpt lat="45.64936" lon="4.90977">
        <ele>194.873134</ele>
        <time>2025-02-14T15:43:49.970Z</time>
      </trkpt>
      <trkpt lat="45.64911" lon="4.90993">
        <ele>194.902731</ele>
        <time>2025-02-14T15:43:52.365Z</time>
      </trkpt>
      <trkpt lat="45.64876" lon="4.9101">
        <ele>194.941845</ele>
        <time>2025-02-14T15:43:55.706Z</time>
      </trkpt>
      <trkpt lat="45.64845" lon="4.91019">
        <ele>194.972157</ele>
        <time>2025-02-14T15:43:58.596Z</time>
      </trkpt>
      <trkpt lat="45.64815" lon="4.91022">
        <ele>195.00193</ele>
        <time>2025-02-14T15:44:01.482Z</time>
      </trkpt>
      <trkpt lat="45.64706" lon="4.91017">
        <ele>195.103722</ele>
        <time>2025-02-14T15:44:11.126Z</time>
      </trkpt>
      <trkpt lat="45.64699" lon="4.91017">
        <ele>195.104834</ele>
        <time>2025-02-14T15:44:11.885Z</time>
      </trkpt>
      <trkpt lat="45.64686" lon="4.91016">
        <ele>195.106581</ele>
        <time>2025-02-14T15:44:13.084Z</time>
      </trkpt>
      <trkpt lat="45.64647" lon="4.91005">
        <ele>195.112235</ele>
        <time>2025-02-14T15:44:16.905Z</time>
      </trkpt>
      <trkpt lat="45.64643" lon="4.90999">
        <ele>195.113033</ele>
        <time>2025-02-14T15:44:17.424Z</time>
      </trkpt>
      <trkpt lat="45.64634" lon="4.9099">
        <ele>195.114614</ele>
        <time>2025-02-14T15:44:18.448Z</time>
      </trkpt>
      <trkpt lat="45.64622" lon="4.90989">
        <ele>195.116279</ele>
        <time>2025-02-14T15:44:19.496Z</time>
      </trkpt>
      <trkpt lat="45.64616" lon="4.90992">
        <ele>195.117127</ele>
        <time>2025-02-14T15:44:20.016Z</time>
      </trkpt>
      <trkpt lat="45.64609" lon="4.91">
        <ele>195.118457</ele>
        <time>2025-02-14T15:44:20.830Z</time>
      </trkpt>
      <trkpt lat="45.64597" lon="4.91008">
        <ele>195.120299</ele>
        <time>2025-02-14T15:44:21.948Z</time>
      </trkpt>
      <trkpt lat="45.64583" lon="4.91011">
        <ele>195.122382</ele>
        <time>2025-02-14T15:44:23.244Z</time>
      </trkpt>
      <trkpt lat="45.64557" lon="4.91009">
        <ele>195.12596</ele>
        <time>2025-02-14T15:44:25.516Z</time>
      </trkpt>
      <trkpt lat="45.64495" lon="4.91006">
        <ele>194.914665</ele>
        <time>2025-02-14T15:44:30.807Z</time>
      </trkpt>
      <trkpt lat="45.64434" lon="4.91005">
        <ele>194.620045</ele>
        <time>2025-02-14T15:44:35.649Z</time>
      </trkpt>
      <trkpt lat="45.6441" lon="4.91005">
        <ele>194.507322</ele>
        <time>2025-02-14T15:44:37.477Z</time>
      </trkpt>
      <trkpt lat="45.64321" lon="4.90996">
        <ele>193.995206</ele>
        <time>2025-02-14T15:44:44.366Z</time>
      </trkpt>
      <trkpt lat="45.64121" lon="4.90965">
        <ele>192.596169</ele>
        <time>2025-02-14T15:44:59.802Z</time>
      </trkpt>
      <trkpt lat="45.64106" lon="4.90958">
        <ele>192.485288</ele>
        <time>2025-02-14T15:45:01.030Z</time>
      </trkpt>
      <trkpt lat="45.641" lon="4.90949">
        <ele>192.425511</ele>
        <time>2025-02-14T15:45:01.688Z</time>
      </trkpt>
      <trkpt lat="45.64088" lon="4.90947">
        <ele>192.337253</ele>
        <time>2025-02-14T15:45:02.663Z</time>
      </trkpt>
      <trkpt lat="45.64079" lon="4.90957">
        <ele>192.256896</ele>
        <time>2025-02-14T15:45:03.553Z</time>
      </trkpt>
      <trkpt lat="45.64044" lon="4.90963">
        <ele>192.015714</ele>
        <time>2025-02-14T15:45:06.203Z</time>
      </trkpt>
      <trkpt lat="45.64037" lon="4.90965">
        <ele>191.961397</ele>
        <time>2025-02-14T15:45:06.808Z</time>
      </trkpt>
      <trkpt lat="45.63842" lon="4.9096">
        <ele>190.603622</ele>
        <time>2025-02-14T15:45:21.598Z</time>
      </trkpt>
      <trkpt lat="45.63776" lon="4.90959">
        <ele>190.408366</ele>
        <time>2025-02-14T15:45:26.954Z</time>
      </trkpt>
      <trkpt lat="45.63664" lon="4.90948">
        <ele>190.202915</ele>
        <time>2025-02-14T15:45:36.965Z</time>
      </trkpt>
      <trkpt lat="45.63617" lon="4.90944">
        <ele>190.078509</ele>
        <time>2025-02-14T15:45:41.007Z</time>
      </trkpt>
      <trkpt lat="45.636" lon="4.90943">
        <ele>190.025902</ele>
        <time>2025-02-14T15:45:42.437Z</time>
      </trkpt>
      <trkpt lat="45.63582" lon="4.90941">
        <ele>189.967297</ele>
        <time>2025-02-14T15:45:44.000Z</time>
      </trkpt>
      <trkpt lat="45.63459" lon="4.90954">
        <ele>189.617601</ele>
        <time>2025-02-14T15:45:53.876Z</time>
      </trkpt>
      <trkpt lat="45.63381" lon="4.90965">
        <ele>189.672765</ele>
        <time>2025-02-14T15:46:00.466Z</time>
      </trkpt>
      <trkpt lat="45.63136" lon="4.91001">
        <ele>190.345989</ele>
        <time>2025-02-14T15:46:24.637Z</time>
      </trkpt>
      <trkpt lat="45.62843" lon="4.91041">
        <ele>191.905955</ele>
        <time>2025-02-14T15:46:54.386Z</time>
      </trkpt>
      <trkpt lat="45.62788" lon="4.91055">
        <ele>192.257359</ele>
        <time>2025-02-14T15:47:00.279Z</time>
      </trkpt>
      <trkpt lat="45.6266" lon="4.91069">
        <ele>193.210137</ele>
        <time>2025-02-14T15:47:14.196Z</time>
      </trkpt>
      <trkpt lat="45.62421" lon="4.91104">
        <ele>195.302038</ele>
        <time>2025-02-14T15:47:39.990Z</time>
      </trkpt>
      <trkpt lat="45.62387" lon="4.91106">
        <ele>195.6734</ele>
        <time>2025-02-14T15:47:44.027Z</time>
      </trkpt>
      <trkpt lat="45.62354" lon="4.91101">
        <ele>196.205784</ele>
        <time>2025-02-14T15:47:48.201Z</time>
      </trkpt>
      <trkpt lat="45.6233" lon="4.91094">
        <ele>196.615736</ele>
        <time>2025-02-14T15:47:51.511Z</time>
      </trkpt>
      <trkpt lat="45.62309" lon="4.91082">
        <ele>196.981074</ele>
        <time>2025-02-14T15:47:54.537Z</time>
      </trkpt>
      <trkpt lat="45.623" lon="4.91075">
        <ele>197.152259</ele>
        <time>2025-02-14T15:47:55.952Z</time>
      </trkpt>
      <trkpt lat="45.62293" lon="4.91069">
        <ele>197.283548</ele>
        <time>2025-02-14T15:47:57.036Z</time>
      </trkpt>
      <trkpt lat="45.6229" lon="4.91064">
        <ele>197.354537</ele>
        <time>2025-02-14T15:47:57.613Z</time>
      </trkpt>
      <trkpt lat="45.62282" lon="4.91061">
        <ele>197.50236</ele>
        <time>2025-02-14T15:47:58.836Z</time>
      </trkpt>
      <trkpt lat="45.62279" lon="4.91063">
        <ele>197.546012</ele>
        <time>2025-02-14T15:47:59.179Z</time>
      </trkpt>
      <trkpt lat="45.62271" lon="4.91062">
        <ele>197.681592</ele>
        <time>2025-02-14T15:48:00.286Z</time>
      </trkpt>
      <trkpt lat="45.62255" lon="4.91056">
        <ele>197.95089</ele>
        <time>2025-02-14T15:48:02.407Z</time>
      </trkpt>
      <trkpt lat="45.62234" lon="4.91045">
        <ele>198.313468</ele>
        <time>2025-02-14T15:48:05.171Z</time>
      </trkpt>
      <trkpt lat="45.62195" lon="4.91036">
        <ele>199.108319</ele>
        <time>2025-02-14T15:48:10.162Z</time>
      </trkpt>
      <trkpt lat="45.6217" lon="4.91037">
        <ele>199.662156</ele>
        <time>2025-02-14T15:48:13.566Z</time>
      </trkpt>
      <trkpt lat="45.62137" lon="4.9104">
        <ele>200.37409</ele>
        <time>2025-02-14T15:48:17.908Z</time>
      </trkpt>
      <trkpt lat="45.62088" lon="4.91043">
        <ele>201.436936</ele>
        <time>2025-02-14T15:48:24.618Z</time>
      </trkpt>
      <trkpt lat="45.62072" lon="4.91044">
        <ele>201.791218</ele>
        <time>2025-02-14T15:48:27.022Z</time>
      </trkpt>
      <trkpt lat="45.62057" lon="4.91045">
        <ele>202.121448</ele>
        <time>2025-02-14T15:48:29.388Z</time>
      </trkpt>
      <trkpt lat="45.61984" lon="4.91049">
        <ele>204.161522</ele>
        <time>2025-02-14T15:48:41.875Z</time>
      </trkpt>
      <trkpt lat="45.61912" lon="4.91049">
        <ele>206.289488</ele>
        <time>2025-02-14T15:48:53.123Z</time>
      </trkpt>
      <trkpt lat="45.61909" lon="4.91054">
        <ele>206.438856</ele>
        <time>2025-02-14T15:48:53.941Z</time>
      </trkpt>
      <trkpt lat="45.61908" lon="4.91064">
        <ele>206.634437</ele>
        <time>2025-02-14T15:48:54.954Z</time>
      </trkpt>
      <trkpt lat="45.61909" lon="4.91106">
        <ele>207.498901</ele>
        <time>2025-02-14T15:48:59.604Z</time>
      </trkpt>
      <trkpt lat="45.61912" lon="4.91147">
        <ele>208.308295</ele>
        <time>2025-02-14T15:49:04.306Z</time>
      </trkpt>
      <trkpt lat="45.61916" lon="4.9117">
        <ele>208.787985</ele>
        <time>2025-02-14T15:49:07.097Z</time>
      </trkpt>
      <trkpt lat="45.61938" lon="4.91274">
        <ele>210.874678</ele>
        <time>2025-02-14T15:49:18.426Z</time>
      </trkpt>
      <trkpt lat="45.61943" lon="4.91298">
        <ele>211.36035</ele>
        <time>2025-02-14T15:49:21.106Z</time>
      </trkpt>
      <trkpt lat="45.61961" lon="4.91351">
        <ele>212.516491</ele>
        <time>2025-02-14T15:49:27.786Z</time>
      </trkpt>
      <trkpt lat="45.61977" lon="4.91395">
        <ele>213.392407</ele>
        <time>2025-02-14T15:49:33.239Z</time>
      </trkpt>
      <trkpt lat="45.61991" lon="4.91439">
        <ele>214.254098</ele>
        <time>2025-02-14T15:49:38.503Z</time>
      </trkpt>
      <trkpt lat="45.62007" lon="4.91487">
        <ele>215.186164</ele>
        <time>2025-02-14T15:49:43.999Z</time>
      </trkpt>
      <trkpt lat="45.6201" lon="4.91497">
        <ele>215.368527</ele>
        <time>2025-02-14T15:49:45.071Z</time>
      </trkpt>
      <trkpt lat="45.62022" lon="4.91569">
        <ele>216.685233</ele>
        <time>2025-02-14T15:49:53.034Z</time>
      </trkpt>
      <trkpt lat="45.62022" lon="4.91573">
        <ele>216.759164</ele>
        <time>2025-02-14T15:49:53.509Z</time>
      </trkpt>
      <trkpt lat="45.62029" lon="4.91624">
        <ele>217.317175</ele>
        <time>2025-02-14T15:49:58.816Z</time>
      </trkpt>
      <trkpt lat="45.62033" lon="4.91646">
        <ele>217.414914</ele>
        <time>2025-02-14T15:50:00.777Z</time>
      </trkpt>
      <trkpt lat="45.62039" lon="4.91661">
        <ele>217.485083</ele>
        <time>2025-02-14T15:50:02.047Z</time>
      </trkpt>
      <trkpt lat="45.62045" lon="4.91676">
        <ele>217.562189</ele>
        <time>2025-02-14T15:50:03.332Z</time>
      </trkpt>
      <trkpt lat="45.62053" lon="4.91706">
        <ele>217.699078</ele>
        <time>2025-02-14T15:50:05.573Z</time>
      </trkpt>
      <trkpt lat="45.62057" lon="4.91725">
        <ele>217.784974</ele>
        <time>2025-02-14T15:50:06.898Z</time>
      </trkpt>
      <trkpt lat="45.62067" lon="4.91766">
        <ele>217.970254</ele>
        <time>2025-02-14T15:50:09.512Z</time>
      </trkpt>
      <trkpt lat="45.62081" lon="4.91803">
        <ele>218.14986</ele>
        <time>2025-02-14T15:50:11.859Z</time>
      </trkpt>
      <trkpt lat="45.62087" lon="4.91817">
        <ele>218.215691</ele>
        <time>2025-02-14T15:50:12.703Z</time>
      </trkpt>
      <trkpt lat="45.62135" lon="4.91933">
        <ele>220.047795</ele>
        <time>2025-02-14T15:50:21.372Z</time>
      </trkpt>
      <trkpt lat="45.62146" lon="4.91959">
        <ele>220.498546</ele>
        <time>2025-02-14T15:50:24.347Z</time>
      </trkpt>
      <trkpt lat="45.62169" lon="4.92017">
        <ele>221.502498</ele>
        <time>2025-02-14T15:50:32.143Z</time>
      </trkpt>
      <trkpt lat="45.62166" lon="4.92023">
        <ele>221.618255</ele>
        <time>2025-02-14T15:50:33.161Z</time>
      </trkpt>
      <trkpt lat="45.62167" lon="4.92027">
        <ele>221.676763</ele>
        <time>2025-02-14T15:50:33.661Z</time>
      </trkpt>
      <trkpt lat="45.62087" lon="4.92101">
        <ele>226.786812</ele>
        <time>2025-02-14T15:50:54.796Z</time>
      </trkpt>
      <trkpt lat="45.6196" lon="4.92263">
        <ele>238.103553</ele>
        <time>2025-02-14T15:51:39.642Z</time>
      </trkpt>
      <trkpt lat="45.61932" lon="4.9229">
        <ele>240.530206</ele>
        <time>2025-02-14T15:51:48.582Z</time>
      </trkpt>
      <trkpt lat="45.61903" lon="4.92308">
        <ele>242.73535</ele>
        <time>2025-02-14T15:51:56.555Z</time>
      </trkpt>
      <trkpt lat="45.61841" lon="4.9236">
        <ele>247.727425</ele>
        <time>2025-02-14T15:52:14.533Z</time>
      </trkpt>
      <trkpt lat="45.61771" lon="4.92388">
        <ele>252.59991</ele>
        <time>2025-02-14T15:52:33.504Z</time>
      </trkpt>
      <trkpt lat="45.61744" lon="4.92393">
        <ele>254.367941</ele>
        <time>2025-02-14T15:52:40.286Z</time>
      </trkpt>
      <trkpt lat="45.61701" lon="4.92393">
        <ele>257.21866</ele>
        <time>2025-02-14T15:52:50.983Z</time>
      </trkpt>
      <trkpt lat="45.61686" lon="4.92398">
        <ele>258.227318</ele>
        <time>2025-02-14T15:52:54.606Z</time>
      </trkpt>
      <trkpt lat="45.61674" lon="4.92405">
        <ele>258.848916</ele>
        <time>2025-02-14T15:52:57.749Z</time>
      </trkpt>
      <trkpt lat="45.61665" lon="4.92418">
        <ele>259.384751</ele>
        <time>2025-02-14T15:53:00.660Z</time>
      </trkpt>
      <trkpt lat="45.61644" lon="4.92472">
        <ele>261.174641</ele>
        <time>2025-02-14T15:53:09.737Z</time>
      </trkpt>
      <trkpt lat="45.61623" lon="4.92506">
        <ele>262.484649</ele>
        <time>2025-02-14T15:53:15.556Z</time>
      </trkpt>
      <trkpt lat="45.61599" lon="4.92524">
        <ele>263.63046</ele>
        <time>2025-02-14T15:53:20.054Z</time>
      </trkpt>
      <trkpt lat="45.61565" lon="4.92539">
        <ele>265.094912</ele>
        <time>2025-02-14T15:53:25.493Z</time>
      </trkpt>
      <trkpt lat="45.61487" lon="4.92549">
        <ele>268.733429</ele>
        <time>2025-02-14T15:53:37.768Z</time>
      </trkpt>
      <trkpt lat="45.6141" lon="4.92554">
        <ele>272.501325</ele>
        <time>2025-02-14T15:53:53.782Z</time>
      </trkpt>
      <trkpt lat="45.61386" lon="4.92535">
        <ele>273.811374</ele>
        <time>2025-02-14T15:54:00.569Z</time>
      </trkpt>
      <trkpt lat="45.61343" lon="4.92486">
        <ele>277.121222</ele>
        <time>2025-02-14T15:54:15.498Z</time>
      </trkpt>
      <trkpt lat="45.61326" lon="4.92474">
        <ele>278.330883</ele>
        <time>2025-02-14T15:54:20.663Z</time>
      </trkpt>
      <trkpt lat="45.61312" lon="4.92468">
        <ele>279.282707</ele>
        <time>2025-02-14T15:54:24.713Z</time>
      </trkpt>
      <trkpt lat="45.6126" lon="4.9246">
        <ele>282.69551</ele>
        <time>2025-02-14T15:54:38.532Z</time>
      </trkpt>
      <trkpt lat="45.61193" lon="4.92465">
        <ele>286.745509</ele>
        <time>2025-02-14T15:54:52.939Z</time>
      </trkpt>
      <trkpt lat="45.61106" lon="4.92452">
        <ele>290.517845</ele>
        <time>2025-02-14T15:55:07.723Z</time>
      </trkpt>
      <trkpt lat="45.61059" lon="4.92438">
        <ele>292.583537</ele>
        <time>2025-02-14T15:55:16.481Z</time>
      </trkpt>
      <trkpt lat="45.61047" lon="4.9243">
        <ele>293.159708</ele>
        <time>2025-02-14T15:55:19.168Z</time>
      </trkpt>
      <trkpt lat="45.61032" lon="4.92415">
        <ele>293.910552</ele>
        <time>2025-02-14T15:55:22.838Z</time>
      </trkpt>
      <trkpt lat="45.61024" lon="4.92401">
        <ele>294.779079</ele>
        <time>2025-02-14T15:55:25.659Z</time>
      </trkpt>
      <trkpt lat="45.60996" lon="4.92333">
        <ele>298.62034</ele>
        <time>2025-02-14T15:55:39.011Z</time>
      </trkpt>
      <trkpt lat="45.6093" lon="4.92175">
        <ele>307.658191</ele>
        <time>2025-02-14T15:56:14.418Z</time>
      </trkpt>
      <trkpt lat="45.60914" lon="4.92147">
        <ele>309.58073</ele>
        <time>2025-02-14T15:56:21.332Z</time>
      </trkpt>
      <trkpt lat="45.60899" lon="4.9213">
        <ele>311.034126</ele>
        <time>2025-02-14T15:56:26.544Z</time>
      </trkpt>
      <trkpt lat="45.60882" lon="4.92115">
        <ele>312.527361</ele>
        <time>2025-02-14T15:56:31.868Z</time>
      </trkpt>
      <trkpt lat="45.60841" lon="4.92091">
        <ele>315.95534</ele>
        <time>2025-02-14T15:56:44.072Z</time>
      </trkpt>
      <trkpt lat="45.60724" lon="4.92012">
        <ele>324.697828</ele>
        <time>2025-02-14T15:57:19.137Z</time>
      </trkpt>
      <trkpt lat="45.60693" lon="4.91994">
        <ele>326.7081</ele>
        <time>2025-02-14T15:57:27.121Z</time>
      </trkpt>
      <trkpt lat="45.60682" lon="4.9199">
        <ele>327.396791</ele>
        <time>2025-02-14T15:57:29.757Z</time>
      </trkpt>
      <trkpt lat="45.60679" lon="4.9199">
        <ele>327.561836</ele>
        <time>2025-02-14T15:57:30.380Z</time>
      </trkpt>
      <trkpt lat="45.60664" lon="4.91988">
        <ele>328.478533</ele>
        <time>2025-02-14T15:57:33.753Z</time>
      </trkpt>
      <trkpt lat="45.60631" lon="4.91995">
        <ele>330.566584</ele>
        <time>2025-02-14T15:57:40.985Z</time>
      </trkpt>
      <trkpt lat="45.60616" lon="4.92006">
        <ele>331.193971</ele>
        <time>2025-02-14T15:57:44.273Z</time>
      </trkpt>
      <trkpt lat="45.60522" lon="4.92093">
        <ele>332.386437</ele>
        <time>2025-02-14T15:57:59.532Z</time>
      </trkpt>
      <trkpt lat="45.60493" lon="4.92114">
        <ele>332.733543</ele>
        <time>2025-02-14T15:58:02.088Z</time>
      </trkpt>
      <trkpt lat="45.60446" lon="4.92131">
        <ele>332.051849</ele>
        <time>2025-02-14T15:58:05.286Z</time>
      </trkpt>
      <trkpt lat="45.60435" lon="4.92135">
        <ele>331.520299</ele>
        <time>2025-02-14T15:58:05.964Z</time>
      </trkpt>
      <trkpt lat="45.60366" lon="4.92152">
        <ele>328.157893</ele>
        <time>2025-02-14T15:58:09.996Z</time>
      </trkpt>
      <trkpt lat="45.60345" lon="4.92152">
        <ele>327.146259</ele>
        <time>2025-02-14T15:58:11.166Z</time>
      </trkpt>
      <trkpt lat="45.60335" lon="4.92146">
        <ele>326.636157</ele>
        <time>2025-02-14T15:58:11.752Z</time>
      </trkpt>
      <trkpt lat="45.60327" lon="4.92137">
        <ele>326.149901</ele>
        <time>2025-02-14T15:58:12.306Z</time>
      </trkpt>
      <trkpt lat="45.60322" lon="4.92126">
        <ele>325.708148</ele>
        <time>2025-02-14T15:58:12.807Z</time>
      </trkpt>
      <trkpt lat="45.60319" lon="4.92113">
        <ele>325.258624</ele>
        <time>2025-02-14T15:58:13.318Z</time>
      </trkpt>
      <trkpt lat="45.60323" lon="4.91983">
        <ele>320.694435</ele>
        <time>2025-02-14T15:58:18.258Z</time>
      </trkpt>
      <trkpt lat="45.60331" lon="4.91947">
        <ele>319.380209</ele>
        <time>2025-02-14T15:58:19.698Z</time>
      </trkpt>
      <trkpt lat="45.60341" lon="4.91919">
        <ele>318.237838</ele>
        <time>2025-02-14T15:58:20.977Z</time>
      </trkpt>
      <trkpt lat="45.60359" lon="4.9188">
        <ele>316.613271</ele>
        <time>2025-02-14T15:58:22.899Z</time>
      </trkpt>
      <trkpt lat="45.60373" lon="4.91837">
        <ele>314.927808</ele>
        <time>2025-02-14T15:58:25.106Z</time>
      </trkpt>
      <trkpt lat="45.60383" lon="4.9179">
        <ele>313.333468</ele>
        <time>2025-02-14T15:58:27.191Z</time>
      </trkpt>
      <trkpt lat="45.60382" lon="4.91773">
        <ele>312.764357</ele>
        <time>2025-02-14T15:58:27.914Z</time>
      </trkpt>
      <trkpt lat="45.60376" lon="4.91761">
        <ele>312.288638</ele>
        <time>2025-02-14T15:58:28.519Z</time>
      </trkpt>
      <trkpt lat="45.60367" lon="4.91753">
        <ele>311.785995</ele>
        <time>2025-02-14T15:58:29.148Z</time>
      </trkpt>
      <trkpt lat="45.60361" lon="4.91751">
        <ele>311.493091</ele>
        <time>2025-02-14T15:58:29.520Z</time>
      </trkpt>
      <trkpt lat="45.6035" lon="4.91751">
        <ele>310.964958</ele>
        <time>2025-02-14T15:58:30.181Z</time>
      </trkpt>
      <trkpt lat="45.60331" lon="4.91766">
        <ele>309.948828</ele>
        <time>2025-02-14T15:58:31.425Z</time>
      </trkpt>
      <trkpt lat="45.60306" lon="4.91793">
        <ele>308.472574</ele>
        <time>2025-02-14T15:58:33.191Z</time>
      </trkpt>
      <trkpt lat="45.60291" lon="4.91804">
        <ele>307.684004</ele>
        <time>2025-02-14T15:58:34.113Z</time>
      </trkpt>
      <trkpt lat="45.60245" lon="4.91816">
        <ele>304.331101</ele>
        <time>2025-02-14T15:58:36.597Z</time>
      </trkpt>
      <trkpt lat="45.60174" lon="4.91832">
        <ele>298.043481</ele>
        <time>2025-02-14T15:58:40.353Z</time>
      </trkpt>
      <trkpt lat="45.60105" lon="4.91873">
        <ele>291.594143</ele>
        <time>2025-02-14T15:58:44.228Z</time>
      </trkpt>
      <trkpt lat="45.60083" lon="4.91876">
        <ele>290.147022</ele>
        <time>2025-02-14T15:58:45.413Z</time>
      </trkpt>
      <trkpt lat="45.6006" lon="4.91859">
        <ele>288.599244</ele>
        <time>2025-02-14T15:58:46.782Z</time>
      </trkpt>
      <trkpt lat="45.59974" lon="4.91778">
        <ele>282.478656</ele>
        <time>2025-02-14T15:58:52.468Z</time>
      </trkpt>
      <trkpt lat="45.59955" lon="4.91755">
        <ele>281.009138</ele>
        <time>2025-02-14T15:58:53.972Z</time>
      </trkpt>
      <trkpt lat="45.59931" lon="4.91715">
        <ele>279.357053</ele>
        <time>2025-02-14T15:58:56.234Z</time>
      </trkpt>
      <trkpt lat="45.59875" lon="4.91647">
        <ele>276.329309</ele>
        <time>2025-02-14T15:59:00.761Z</time>
      </trkpt>
      <trkpt lat="45.59855" lon="4.91618">
        <ele>275.136264</ele>
        <time>2025-02-14T15:59:02.462Z</time>
      </trkpt>
      <trkpt lat="45.59838" lon="4.91604">
        <ele>274.341744</ele>
        <time>2025-02-14T15:59:03.565Z</time>
      </trkpt>
      <trkpt lat="45.59821" lon="4.91602">
        <ele>273.630999</ele>
        <time>2025-02-14T15:59:04.537Z</time>
      </trkpt>
      <trkpt lat="45.59771" lon="4.91618">
        <ele>270.473528</ele>
        <time>2025-02-14T15:59:07.363Z</time>
      </trkpt>
      <trkpt lat="45.5973" lon="4.91626">
        <ele>267.753264</ele>
        <time>2025-02-14T15:59:09.539Z</time>
      </trkpt>
      <trkpt lat="45.59597" lon="4.91608">
        <ele>258.787765</ele>
        <time>2025-02-14T15:59:16.749Z</time>
      </trkpt>
      <trkpt lat="45.59582" lon="4.91609">
        <ele>257.818295</ele>
        <time>2025-02-14T15:59:17.540Z</time>
      </trkpt>
      <trkpt lat="45.59539" lon="4.91624">
        <ele>254.849448</ele>
        <time>2025-02-14T15:59:19.975Z</time>
      </trkpt>
      <trkpt lat="45.59521" lon="4.91626">
        <ele>253.69707</ele>
        <time>2025-02-14T15:59:20.921Z</time>
      </trkpt>
      <trkpt lat="45.59507" lon="4.91623">
        <ele>252.732644</ele>
        <time>2025-02-14T15:59:21.721Z</time>
      </trkpt>
      <trkpt lat="45.59477" lon="4.91605">
        <ele>250.541056</ele>
        <time>2025-02-14T15:59:23.535Z</time>
      </trkpt>
      <trkpt lat="45.59411" lon="4.91548">
        <ele>245.948561</ele>
        <time>2025-02-14T15:59:27.676Z</time>
      </trkpt>
      <trkpt lat="45.59347" lon="4.91484">
        <ele>241.393857</ele>
        <time>2025-02-14T15:59:32.038Z</time>
      </trkpt>
      <trkpt lat="45.5933" lon="4.91473">
        <ele>240.309613</ele>
        <time>2025-02-14T15:59:33.093Z</time>
      </trkpt>
      <trkpt lat="45.59288" lon="4.91475">
        <ele>238.13187</ele>
        <time>2025-02-14T15:59:35.436Z</time>
      </trkpt>
      <trkpt lat="45.59218" lon="4.91491">
        <ele>235.076802</ele>
        <time>2025-02-14T15:59:39.532Z</time>
      </trkpt>
      <trkpt lat="45.59202" lon="4.91501">
        <ele>234.293997</ele>
        <time>2025-02-14T15:59:40.592Z</time>
      </trkpt>
      <trkpt lat="45.59162" lon="4.91541">
        <ele>232.200007</ele>
        <time>2025-02-14T15:59:43.447Z</time>
      </trkpt>
      <trkpt lat="45.59147" lon="4.91548">
        <ele>231.530256</ele>
        <time>2025-02-14T15:59:44.361Z</time>
      </trkpt>
      <trkpt lat="45.59136" lon="4.91547">
        <ele>231.034125</ele>
        <time>2025-02-14T15:59:45.032Z</time>
      </trkpt>
      <trkpt lat="45.59108" lon="4.91536">
        <ele>229.888104</ele>
        <time>2025-02-14T15:59:46.688Z</time>
      </trkpt>
      <trkpt lat="45.59062" lon="4.91517">
        <ele>227.929401</ele>
        <time>2025-02-14T15:59:49.511Z</time>
      </trkpt>
      <trkpt lat="45.58967" lon="4.9148">
        <ele>223.93924</ele>
        <time>2025-02-14T15:59:55.252Z</time>
      </trkpt>
      <trkpt lat="45.58809" lon="4.91444">
        <ele>218.374997</ele>
        <time>2025-02-14T16:00:04.751Z</time>
      </trkpt>
      <trkpt lat="45.58774" lon="4.91435">
        <ele>217.195511</ele>
        <time>2025-02-14T16:00:07.000Z</time>
      </trkpt>
      <trkpt lat="45.58755" lon="4.91425">
        <ele>216.616083</ele>
        <time>2025-02-14T16:00:08.285Z</time>
      </trkpt>
      <trkpt lat="45.5873" lon="4.9141">
        <ele>215.873676</ele>
        <time>2025-02-14T16:00:09.948Z</time>
      </trkpt>
      <trkpt lat="45.58719" lon="4.91404">
        <ele>215.544095</ele>
        <time>2025-02-14T16:00:10.685Z</time>
      </trkpt>
      <trkpt lat="45.58688" lon="4.9139">
        <ele>214.621481</ele>
        <time>2025-02-14T16:00:12.758Z</time>
      </trkpt>
      <trkpt lat="45.58671" lon="4.91388">
        <ele>214.144421</ele>
        <time>2025-02-14T16:00:13.817Z</time>
      </trkpt>
      <trkpt lat="45.58652" lon="4.9139">
        <ele>213.63359</ele>
        <time>2025-02-14T16:00:14.949Z</time>
      </trkpt>
      <trkpt lat="45.58554" lon="4.91417">
        <ele>211.173531</ele>
        <time>2025-02-14T16:00:21.242Z</time>
      </trkpt>
      <trkpt lat="45.58546" lon="4.91418">
        <ele>210.997428</ele>
        <time>2025-02-14T16:00:21.759Z</time>
      </trkpt>
      <trkpt lat="45.58534" lon="4.91426">
        <ele>210.712016</ele>
        <time>2025-02-14T16:00:22.605Z</time>
      </trkpt>
      <trkpt lat="45.58531" lon="4.91426">
        <ele>210.641283</ele>
        <time>2025-02-14T16:00:22.814Z</time>
      </trkpt>
      <trkpt lat="45.58521" lon="4.91429">
        <ele>210.428022</ele>
        <time>2025-02-14T16:00:23.449Z</time>
      </trkpt>
      <trkpt lat="45.58516" lon="4.91435">
        <ele>210.285016</ele>
        <time>2025-02-14T16:00:23.881Z</time>
      </trkpt>
      <trkpt lat="45.58513" lon="4.91451">
        <ele>210.037423</ele>
        <time>2025-02-14T16:00:24.628Z</time>
      </trkpt>
      <trkpt lat="45.58509" lon="4.91467">
        <ele>209.773935</ele>
        <time>2025-02-14T16:00:25.771Z</time>
      </trkpt>
      <trkpt lat="45.58498" lon="4.91487">
        <ele>209.391119</ele>
        <time>2025-02-14T16:00:27.448Z</time>
      </trkpt>
      <trkpt lat="45.58482" lon="4.915">
        <ele>208.991987</ele>
        <time>2025-02-14T16:00:29.213Z</time>
      </trkpt>
      <trkpt lat="45.58445" lon="4.91509">
        <ele>208.304146</ele>
        <time>2025-02-14T16:00:32.945Z</time>
      </trkpt>
      <trkpt lat="45.58416" lon="4.91517">
        <ele>207.936862</ele>
        <time>2025-02-14T16:00:35.733Z</time>
      </trkpt>
      <trkpt lat="45.58391" lon="4.91522">
        <ele>207.611524</ele>
        <time>2025-02-14T16:00:38.190Z</time>
      </trkpt>
      <trkpt lat="45.58307" lon="4.9153">
        <ele>206.5401</ele>
        <time>2025-02-14T16:00:46.586Z</time>
      </trkpt>
      <trkpt lat="45.58304" lon="4.91521">
        <ele>206.460717</ele>
        <time>2025-02-14T16:00:47.238Z</time>
      </trkpt>
      <trkpt lat="45.58298" lon="4.91519">
        <ele>206.38213</ele>
        <time>2025-02-14T16:00:47.894Z</time>
      </trkpt>
      <trkpt lat="45.58293" lon="4.91524">
        <ele>206.302734</ele>
        <time>2025-02-14T16:00:48.557Z</time>
      </trkpt>
      <trkpt lat="45.58292" lon="4.91532">
        <ele>206.228979</ele>
        <time>2025-02-14T16:00:49.186Z</time>
      </trkpt>
      <trkpt lat="45.58109" lon="4.9154">
        <ele>206.816008</ele>
        <time>2025-02-14T16:01:12.965Z</time>
      </trkpt>
      <trkpt lat="45.5808" lon="4.91541">
        <ele>207.570883</ele>
        <time>2025-02-14T16:01:17.355Z</time>
      </trkpt>
      <trkpt lat="45.5807" lon="4.91541">
        <ele>207.832939</ele>
        <time>2025-02-14T16:01:18.922Z</time>
      </trkpt>
      <trkpt lat="45.58028" lon="4.91536">
        <ele>208.927175</ele>
        <time>2025-02-14T16:01:25.740Z</time>
      </trkpt>
      <trkpt lat="45.57959" lon="4.91524">
        <ele>210.748527</ele>
        <time>2025-02-14T16:01:38.953Z</time>
      </trkpt>
      <trkpt lat="45.57922" lon="4.91511">
        <ele>212.319293</ele>
        <time>2025-02-14T16:01:47.805Z</time>
      </trkpt>
      <trkpt lat="45.57888" lon="4.91504">
        <ele>214.868289</ele>
        <time>2025-02-14T16:01:56.848Z</time>
      </trkpt>
      <trkpt lat="45.57856" lon="4.91498">
        <ele>217.17369</ele>
        <time>2025-02-14T16:02:05.906Z</time>
      </trkpt>
      <trkpt lat="45.57838" lon="4.91488">
        <ele>218.640824</ele>
        <time>2025-02-14T16:02:12.197Z</time>
      </trkpt>
      <trkpt lat="45.57777" lon="4.91404">
        <ele>224.889252</ele>
        <time>2025-02-14T16:02:41.320Z</time>
      </trkpt>
      <trkpt lat="45.57752" lon="4.91379">
        <ele>226.952455</ele>
        <time>2025-02-14T16:02:51.299Z</time>
      </trkpt>
      <trkpt lat="45.5772" lon="4.91364">
        <ele>229.278382</ele>
        <time>2025-02-14T16:03:02.019Z</time>
      </trkpt>
      <trkpt lat="45.57466" lon="4.91332">
        <ele>244.553338</ele>
        <time>2025-02-14T16:04:08.992Z</time>
      </trkpt>
      <trkpt lat="45.57372" lon="4.91311">
        <ele>246.698089</ele>
        <time>2025-02-14T16:04:28.263Z</time>
      </trkpt>
      <trkpt lat="45.57325" lon="4.9129">
        <ele>246.867068</ele>
        <time>2025-02-14T16:04:35.115Z</time>
      </trkpt>
      <trkpt lat="45.57273" lon="4.91271">
        <ele>247.053281</ele>
        <time>2025-02-14T16:04:40.461Z</time>
      </trkpt>
      <trkpt lat="45.5718" lon="4.91236">
        <ele>243.833404</ele>
        <time>2025-02-14T16:04:48.520Z</time>
      </trkpt>
      <trkpt lat="45.5715" lon="4.91224">
        <ele>242.499153</ele>
        <time>2025-02-14T16:04:51.017Z</time>
      </trkpt>
      <trkpt lat="45.56961" lon="4.9107">
        <ele>233.868365</ele>
        <time>2025-02-14T16:05:08.929Z</time>
      </trkpt>
      <trkpt lat="45.5694" lon="4.91063">
        <ele>233.066743</ele>
        <time>2025-02-14T16:05:10.892Z</time>
      </trkpt>
      <trkpt lat="45.5687" lon="4.91047">
        <ele>232.90497</ele>
        <time>2025-02-14T16:05:18.450Z</time>
      </trkpt>
      <trkpt lat="45.56859" lon="4.91043">
        <ele>232.972589</ele>
        <time>2025-02-14T16:05:19.977Z</time>
      </trkpt>
      <trkpt lat="45.56821" lon="4.91022">
        <ele>233.205792</ele>
        <time>2025-02-14T16:05:25.935Z</time>
      </trkpt>
      <trkpt lat="45.56775" lon="4.90996">
        <ele>233.496005</ele>
        <time>2025-02-14T16:05:34.130Z</time>
      </trkpt>
      <trkpt lat="45.56715" lon="4.90978">
        <ele>235.074551</ele>
        <time>2025-02-14T16:05:45.239Z</time>
      </trkpt>
      <trkpt lat="45.56666" lon="4.90979">
        <ele>236.786547</ele>
        <time>2025-02-14T16:05:54.448Z</time>
      </trkpt>
      <trkpt lat="45.56664" lon="4.90968">
        <ele>237.073418</ele>
        <time>2025-02-14T16:05:56.040Z</time>
      </trkpt>
      <trkpt lat="45.56653" lon="4.90962">
        <ele>237.477315</ele>
        <time>2025-02-14T16:05:58.428Z</time>
      </trkpt>
      <trkpt lat="45.56645" lon="4.90967">
        <ele>237.78112</ele>
        <time>2025-02-14T16:06:00.269Z</time>
      </trkpt>
      <trkpt lat="45.56642" lon="4.90975">
        <ele>238.007052</ele>
        <time>2025-02-14T16:06:01.624Z</time>
      </trkpt>
      <trkpt lat="45.56644" lon="4.90989">
        <ele>238.34537</ele>
        <time>2025-02-14T16:06:03.735Z</time>
      </trkpt>
      <trkpt lat="45.56651" lon="4.90996">
        <ele>238.672808</ele>
        <time>2025-02-14T16:06:05.766Z</time>
      </trkpt>
      <trkpt lat="45.56647" lon="4.91014">
        <ele>239.142751</ele>
        <time>2025-02-14T16:06:08.407Z</time>
      </trkpt>
      <trkpt lat="45.5664" lon="4.91022">
        <ele>239.440793</ele>
        <time>2025-02-14T16:06:10.145Z</time>
      </trkpt>
      <trkpt lat="45.56632" lon="4.91025">
        <ele>239.740941</ele>
        <time>2025-02-14T16:06:11.822Z</time>
      </trkpt>
      <trkpt lat="45.56618" lon="4.91025">
        <ele>240.436926</ele>
        <time>2025-02-14T16:06:14.727Z</time>
      </trkpt>
      <trkpt lat="45.56512" lon="4.91082">
        <ele>247.599945</ele>
        <time>2025-02-14T16:06:41.765Z</time>
      </trkpt>
      <trkpt lat="45.56464" lon="4.91118">
        <ele>250.988839</ele>
        <time>2025-02-14T16:06:55.963Z</time>
      </trkpt>
      <trkpt lat="45.56446" lon="4.9114">
        <ele>252.566934</ele>
        <time>2025-02-14T16:07:02.257Z</time>
      </trkpt>
      <trkpt lat="45.56361" lon="4.91287">
        <ele>261.585025</ele>
        <time>2025-02-14T16:07:36.609Z</time>
      </trkpt>
      <trkpt lat="45.56294" lon="4.91386">
        <ele>267.272372</ele>
        <time>2025-02-14T16:07:58.421Z</time>
      </trkpt>
      <trkpt lat="45.56275" lon="4.91419">
        <ele>268.940501</ele>
        <time>2025-02-14T16:08:04.835Z</time>
      </trkpt>
      <trkpt lat="45.56253" lon="4.91474">
        <ele>271.4005</ele>
        <time>2025-02-14T16:08:14.432Z</time>
      </trkpt>
      <trkpt lat="45.56247" lon="4.91495">
        <ele>272.282061</ele>
        <time>2025-02-14T16:08:17.767Z</time>
      </trkpt>
      <trkpt lat="45.56245" lon="4.9152">
        <ele>273.28607</ele>
        <time>2025-02-14T16:08:21.568Z</time>
      </trkpt>
      <trkpt lat="45.56246" lon="4.91533">
        <ele>273.87385</ele>
        <time>2025-02-14T16:08:23.423Z</time>
      </trkpt>
      <trkpt lat="45.5626" lon="4.91593">
        <ele>277.175993</ele>
        <time>2025-02-14T16:08:33.295Z</time>
      </trkpt>
      <trkpt lat="45.5626" lon="4.91613">
        <ele>278.225407</ele>
        <time>2025-02-14T16:08:36.652Z</time>
      </trkpt>
      <trkpt lat="45.56254" lon="4.91625">
        <ele>278.974574</ele>
        <time>2025-02-14T16:08:39.149Z</time>
      </trkpt>
      <trkpt lat="45.56242" lon="4.91635">
        <ele>280.049689</ele>
        <time>2025-02-14T16:08:42.902Z</time>
      </trkpt>
      <trkpt lat="45.56175" lon="4.9167">
        <ele>285.314111</ele>
        <time>2025-02-14T16:09:03.533Z</time>
      </trkpt>
      <trkpt lat="45.56158" lon="4.91687">
        <ele>286.890359</ele>
        <time>2025-02-14T16:09:10.157Z</time>
      </trkpt>
      <trkpt lat="45.56119" lon="4.91735">
        <ele>291.161045</ele>
        <time>2025-02-14T16:09:27.155Z</time>
      </trkpt>
      <trkpt lat="45.56099" lon="4.91757">
        <ele>293.265962</ele>
        <time>2025-02-14T16:09:35.525Z</time>
      </trkpt>
      <trkpt lat="45.5605" lon="4.91796">
        <ele>297.993061</ele>
        <time>2025-02-14T16:09:52.896Z</time>
      </trkpt>
      <trkpt lat="45.56004" lon="4.9184">
        <ele>302.057019</ele>
        <time>2025-02-14T16:10:06.508Z</time>
      </trkpt>
      <trkpt lat="45.55982" lon="4.9187">
        <ele>302.72168</ele>
        <time>2025-02-14T16:10:12.504Z</time>
      </trkpt>
      <trkpt lat="45.55942" lon="4.91936">
        <ele>304.045898</ele>
        <time>2025-02-14T16:10:21.482Z</time>
      </trkpt>
      <trkpt lat="45.55931" lon="4.91948">
        <ele>304.346547</ele>
        <time>2025-02-14T16:10:22.984Z</time>
      </trkpt>
      <trkpt lat="45.55918" lon="4.91961">
        <ele>304.698551</ele>
        <time>2025-02-14T16:10:24.483Z</time>
      </trkpt>
      <trkpt lat="45.5588" lon="4.91985">
        <ele>305.598289</ele>
        <time>2025-02-14T16:10:27.892Z</time>
      </trkpt>
      <trkpt lat="45.55847" lon="4.91993">
        <ele>305.572025</ele>
        <time>2025-02-14T16:10:31.455Z</time>
      </trkpt>
      <trkpt lat="45.55826" lon="4.91998">
        <ele>305.400119</ele>
        <time>2025-02-14T16:10:33.748Z</time>
      </trkpt>
      <trkpt lat="45.55814" lon="4.92001">
        <ele>305.305498</ele>
        <time>2025-02-14T16:10:35.014Z</time>
      </trkpt>
      <trkpt lat="45.558" lon="4.92009">
        <ele>305.189598</ele>
        <time>2025-02-14T16:10:36.571Z</time>
      </trkpt>
      <trkpt lat="45.55784" lon="4.92024">
        <ele>305.041351</ele>
        <time>2025-02-14T16:10:38.531Z</time>
      </trkpt>
      <trkpt lat="45.55758" lon="4.9206">
        <ele>304.758606</ele>
        <time>2025-02-14T16:10:42.301Z</time>
      </trkpt>
      <trkpt lat="45.55722" lon="4.92112">
        <ele>304.351466</ele>
        <time>2025-02-14T16:10:47.901Z</time>
      </trkpt>
      <trkpt lat="45.55719" lon="4.92117">
        <ele>304.270239</ele>
        <time>2025-02-14T16:10:48.463Z</time>
      </trkpt>
      <trkpt lat="45.55705" lon="4.92136">
        <ele>303.955591</ele>
        <time>2025-02-14T16:10:50.594Z</time>
      </trkpt>
      <trkpt lat="45.55688" lon="4.92175">
        <ele>303.42306</ele>
        <time>2025-02-14T16:10:54.131Z</time>
      </trkpt>
      <trkpt lat="45.5568" lon="4.92216">
        <ele>302.919316</ele>
        <time>2025-02-14T16:10:57.411Z</time>
      </trkpt>
      <trkpt lat="45.55674" lon="4.92262">
        <ele>302.378624</ele>
        <time>2025-02-14T16:11:00.721Z</time>
      </trkpt>
      <trkpt lat="45.55673" lon="4.92269">
        <ele>302.296217</ele>
        <time>2025-02-14T16:11:01.189Z</time>
      </trkpt>
      <trkpt lat="45.55669" lon="4.92305">
        <ele>301.868025</ele>
        <time>2025-02-14T16:11:03.560Z</time>
      </trkpt>
      <trkpt lat="45.55663" lon="4.92353">
        <ele>301.152374</ele>
        <time>2025-02-14T16:11:06.489Z</time>
      </trkpt>
      <trkpt lat="45.55652" lon="4.92387">
        <ele>299.717022</ele>
        <time>2025-02-14T16:11:08.062Z</time>
      </trkpt>
      <trkpt lat="45.55606" lon="4.92461">
        <ele>296.01549</ele>
        <time>2025-02-14T16:11:11.921Z</time>
      </trkpt>
      <trkpt lat="45.55584" lon="4.92472">
        <ele>294.765063</ele>
        <time>2025-02-14T16:11:13.204Z</time>
      </trkpt>
      <trkpt lat="45.55498" lon="4.92487">
        <ele>289.916444</ele>
        <time>2025-02-14T16:11:17.896Z</time>
      </trkpt>
      <trkpt lat="45.55487" lon="4.92492">
        <ele>289.168992</ele>
        <time>2025-02-14T16:11:18.556Z</time>
      </trkpt>
      <trkpt lat="45.5547" lon="4.925">
        <ele>288.029348</ele>
        <time>2025-02-14T16:11:19.555Z</time>
      </trkpt>
      <trkpt lat="45.55443" lon="4.92522">
        <ele>286.108368</ele>
        <time>2025-02-14T16:11:21.241Z</time>
      </trkpt>
      <trkpt lat="45.55391" lon="4.92563">
        <ele>282.405389</ele>
        <time>2025-02-14T16:11:24.505Z</time>
      </trkpt>
      <trkpt lat="45.55307" lon="4.92639">
        <ele>277.380724</ele>
        <time>2025-02-14T16:11:29.892Z</time>
      </trkpt>
      <trkpt lat="45.55262" lon="4.92672">
        <ele>275.05155</ele>
        <time>2025-02-14T16:11:32.764Z</time>
      </trkpt>
      <trkpt lat="45.5524" lon="4.92684">
        <ele>273.984539</ele>
        <time>2025-02-14T16:11:34.151Z</time>
      </trkpt>
      <trkpt lat="45.5518" lon="4.92704">
        <ele>271.590407</ele>
        <time>2025-02-14T16:11:38.322Z</time>
      </trkpt>
      <trkpt lat="45.55088" lon="4.92694">
        <ele>269.089074</ele>
        <time>2025-02-14T16:11:44.778Z</time>
      </trkpt>
      <trkpt lat="45.55067" lon="4.9268">
        <ele>268.437846</ele>
        <time>2025-02-14T16:11:46.244Z</time>
      </trkpt>
      <trkpt lat="45.55054" lon="4.92661">
        <ele>267.940601</ele>
        <time>2025-02-14T16:11:47.320Z</time>
      </trkpt>
      <trkpt lat="45.55044" lon="4.9263">
        <ele>267.114439</ele>
        <time>2025-02-14T16:11:48.701Z</time>
      </trkpt>
      <trkpt lat="45.55027" lon="4.92605">
        <ele>265.339475</ele>
        <time>2025-02-14T16:11:50.038Z</time>
      </trkpt>
      <trkpt lat="45.54988" lon="4.92575">
        <ele>262.072498</ele>
        <time>2025-02-14T16:11:52.423Z</time>
      </trkpt>
      <trkpt lat="45.5489" lon="4.92522">
        <ele>254.395558</ele>
        <time>2025-02-14T16:11:57.948Z</time>
      </trkpt>
      <trkpt lat="45.54844" lon="4.92501">
        <ele>250.481592</ele>
        <time>2025-02-14T16:12:00.523Z</time>
      </trkpt>
      <trkpt lat="45.54827" lon="4.92485">
        <ele>248.862094</ele>
        <time>2025-02-14T16:12:01.582Z</time>
      </trkpt>
      <trkpt lat="45.54817" lon="4.92463">
        <ele>247.368334</ele>
        <time>2025-02-14T16:12:02.560Z</time>
      </trkpt>
      <trkpt lat="45.54807" lon="4.92405">
        <ele>243.948922</ele>
        <time>2025-02-14T16:12:04.818Z</time>
      </trkpt>
      <trkpt lat="45.5479" lon="4.92362">
        <ele>241.189543</ele>
        <time>2025-02-14T16:12:06.634Z</time>
      </trkpt>
      <trkpt lat="45.54783" lon="4.9235">
        <ele>240.26095</ele>
        <time>2025-02-14T16:12:07.240Z</time>
      </trkpt>
      <trkpt lat="45.54759" lon="4.92303">
        <ele>235.951051</ele>
        <time>2025-02-14T16:12:09.343Z</time>
      </trkpt>
      <trkpt lat="45.54754" lon="4.92285">
        <ele>234.421231</ele>
        <time>2025-02-14T16:12:10.042Z</time>
      </trkpt>
      <trkpt lat="45.54753" lon="4.9227">
        <ele>233.238262</ele>
        <time>2025-02-14T16:12:10.577Z</time>
      </trkpt>
      <trkpt lat="45.54759" lon="4.92246">
        <ele>231.202718</ele>
        <time>2025-02-14T16:12:11.497Z</time>
      </trkpt>
      <trkpt lat="45.54789" lon="4.92157">
        <ele>223.433227</ele>
        <time>2025-02-14T16:12:14.965Z</time>
      </trkpt>
      <trkpt lat="45.54816" lon="4.92098">
        <ele>218.094739</ele>
        <time>2025-02-14T16:12:17.478Z</time>
      </trkpt>
      <trkpt lat="45.54817" lon="4.92091">
        <ele>217.650168</ele>
        <time>2025-02-14T16:12:17.727Z</time>
      </trkpt>
      <trkpt lat="45.54813" lon="4.92081">
        <ele>216.958917</ele>
        <time>2025-02-14T16:12:18.114Z</time>
      </trkpt>
      <trkpt lat="45.54803" lon="4.92073">
        <ele>215.933962</ele>
        <time>2025-02-14T16:12:18.694Z</time>
      </trkpt>
      <trkpt lat="45.54701" lon="4.92042">
        <ele>206.552615</ele>
        <time>2025-02-14T16:12:24.145Z</time>
      </trkpt>
      <trkpt lat="45.54676" lon="4.92041">
        <ele>204.325403</ele>
        <time>2025-02-14T16:12:25.533Z</time>
      </trkpt>
      <trkpt lat="45.54661" lon="4.92046">
        <ele>203.016366</ele>
        <time>2025-02-14T16:12:26.421Z</time>
      </trkpt>
      <trkpt lat="45.5464" lon="4.92057">
        <ele>202.089622</ele>
        <time>2025-02-14T16:12:27.663Z</time>
      </trkpt>
      <trkpt lat="45.5462" lon="4.92073">
        <ele>201.095816</ele>
        <time>2025-02-14T16:12:29.013Z</time>
      </trkpt>
      <trkpt lat="45.54589" lon="4.92105">
        <ele>199.497585</ele>
        <time>2025-02-14T16:12:31.221Z</time>
      </trkpt>
      <trkpt lat="45.54562" lon="4.92128">
        <ele>198.168635</ele>
        <time>2025-02-14T16:12:33.089Z</time>
      </trkpt>
      <trkpt lat="45.545" lon="4.9216">
        <ele>195.457131</ele>
        <time>2025-02-14T16:12:37.015Z</time>
      </trkpt>
      <trkpt lat="45.54476" lon="4.92177">
        <ele>194.785744</ele>
        <time>2025-02-14T16:12:38.667Z</time>
      </trkpt>
      <trkpt lat="45.54471" lon="4.92172">
        <ele>194.637807</ele>
        <time>2025-02-14T16:12:39.028Z</time>
      </trkpt>
      <trkpt lat="45.54465" lon="4.92166">
        <ele>194.462455</ele>
        <time>2025-02-14T16:12:39.660Z</time>
      </trkpt>
      <trkpt lat="45.54427" lon="4.92181">
        <ele>193.475208</ele>
        <time>2025-02-14T16:12:43.220Z</time>
      </trkpt>
      <trkpt lat="45.5442" lon="4.92183">
        <ele>193.304054</ele>
        <time>2025-02-14T16:12:43.851Z</time>
      </trkpt>
      <trkpt lat="45.54292" lon="4.92214">
        <ele>190.559143</ele>
        <time>2025-02-14T16:12:56.113Z</time>
      </trkpt>
      <trkpt lat="45.54174" lon="4.92229">
        <ele>189.070673</ele>
        <time>2025-02-14T16:13:08.310Z</time>
      </trkpt>
      <trkpt lat="45.54151" lon="4.92236">
        <ele>188.784873</ele>
        <time>2025-02-14T16:13:10.837Z</time>
      </trkpt>
      <trkpt lat="45.54128" lon="4.92247">
        <ele>188.604161</ele>
        <time>2025-02-14T16:13:13.469Z</time>
      </trkpt>
      <trkpt lat="45.54037" lon="4.92305">
        <ele>187.856813</ele>
        <time>2025-02-14T16:13:24.233Z</time>
      </trkpt>
      <trkpt lat="45.53969" lon="4.92333">
        <ele>187.388476</ele>
        <time>2025-02-14T16:13:31.907Z</time>
      </trkpt>
      <trkpt lat="45.53935" lon="4.92366">
        <ele>187.220287</ele>
        <time>2025-02-14T16:13:36.280Z</time>
      </trkpt>
      <trkpt lat="45.53875" lon="4.92394">
        <ele>186.960917</ele>
        <time>2025-02-14T16:13:43.249Z</time>
      </trkpt>
      <trkpt lat="45.53865" lon="4.92404">
        <ele>186.910786</ele>
        <time>2025-02-14T16:13:44.667Z</time>
      </trkpt>
      <trkpt lat="45.53857" lon="4.92416">
        <ele>186.863632</ele>
        <time>2025-02-14T16:13:46.022Z</time>
      </trkpt>
      <trkpt lat="45.53855" lon="4.92428">
        <ele>186.826843</ele>
        <time>2025-02-14T16:13:47.091Z</time>
      </trkpt>
      <trkpt lat="45.53865" lon="4.92433">
        <ele>186.783399</ele>
        <time>2025-02-14T16:13:48.389Z</time>
      </trkpt>
      <trkpt lat="45.53879" lon="4.92448">
        <ele>186.723679</ele>
        <time>2025-02-14T16:13:50.621Z</time>
      </trkpt>
      <trkpt lat="45.53888" lon="4.92475">
        <ele>186.780051</ele>
        <time>2025-02-14T16:13:53.298Z</time>
      </trkpt>
      <trkpt lat="45.53904" lon="4.92534">
        <ele>186.897186</ele>
        <time>2025-02-14T16:13:58.720Z</time>
      </trkpt>
      <trkpt lat="45.53912" lon="4.92565">
        <ele>186.958311</ele>
        <time>2025-02-14T16:14:01.661Z</time>
      </trkpt>
      <trkpt lat="45.53915" lon="4.92602">
        <ele>187.029256</ele>
        <time>2025-02-14T16:14:04.253Z</time>
      </trkpt>
      <trkpt lat="45.53918" lon="4.92613">
        <ele>187.050739</ele>
        <time>2025-02-14T16:14:05.047Z</time>
      </trkpt>
      <trkpt lat="45.53875" lon="4.92633">
        <ele>187.169534</ele>
        <time>2025-02-14T16:14:09.492Z</time>
      </trkpt>
      <trkpt lat="45.5385" lon="4.92642">
        <ele>187.355529</ele>
        <time>2025-02-14T16:14:12.137Z</time>
      </trkpt>
      <trkpt lat="45.53802" lon="4.92667">
        <ele>187.870578</ele>
        <time>2025-02-14T16:14:17.205Z</time>
      </trkpt>
      <trkpt lat="45.53794" lon="4.92674">
        <ele>187.968519</ele>
        <time>2025-02-14T16:14:18.198Z</time>
      </trkpt>
      <trkpt lat="45.53275" lon="4.92931">
        <ele>194.872889</ele>
        <time>2025-02-14T16:15:22.415Z</time>
      </trkpt>
      <trkpt lat="45.53168" lon="4.92953">
        <ele>197.437313</ele>
        <time>2025-02-14T16:15:40.317Z</time>
      </trkpt>
      <trkpt lat="45.53084" lon="4.92953">
        <ele>200.075348</ele>
        <time>2025-02-14T16:15:54.964Z</time>
      </trkpt>
      <trkpt lat="45.52816" lon="4.92945">
        <ele>207.76526</ele>
        <time>2025-02-14T16:16:36.656Z</time>
      </trkpt>
      <trkpt lat="45.52759" lon="4.92939">
        <ele>209.274921</ele>
        <time>2025-02-14T16:16:45.229Z</time>
      </trkpt>
      <trkpt lat="45.52749" lon="4.92938">
        <ele>209.535352</ele>
        <time>2025-02-14T16:16:46.719Z</time>
      </trkpt>
      <trkpt lat="45.52725" lon="4.92934">
        <ele>210.191433</ele>
        <time>2025-02-14T16:16:50.439Z</time>
      </trkpt>
      <trkpt lat="45.52713" lon="4.92925">
        <ele>210.554352</ele>
        <time>2025-02-14T16:16:52.521Z</time>
      </trkpt>
      <trkpt lat="45.52706" lon="4.92908">
        <ele>210.912306</ele>
        <time>2025-02-14T16:16:54.587Z</time>
      </trkpt>
      <trkpt lat="45.52695" lon="4.929">
        <ele>211.244755</ele>
        <time>2025-02-14T16:16:56.492Z</time>
      </trkpt>
      <trkpt lat="45.52688" lon="4.929">
        <ele>211.412031</ele>
        <time>2025-02-14T16:16:57.461Z</time>
      </trkpt>
      <trkpt lat="45.52679" lon="4.92906">
        <ele>211.694084</ele>
        <time>2025-02-14T16:16:59.063Z</time>
      </trkpt>
      <trkpt lat="45.52671" lon="4.92921">
        <ele>212.041786</ele>
        <time>2025-02-14T16:17:01.026Z</time>
      </trkpt>
      <trkpt lat="45.5265" lon="4.9293">
        <ele>212.618399</ele>
        <time>2025-02-14T16:17:04.322Z</time>
      </trkpt>
      <trkpt lat="45.52528" lon="4.92936">
        <ele>215.736795</ele>
        <time>2025-02-14T16:17:23.281Z</time>
      </trkpt>
      <trkpt lat="45.52475" lon="4.92945">
        <ele>217.026501</ele>
        <time>2025-02-14T16:17:31.127Z</time>
      </trkpt>
      <trkpt lat="45.52445" lon="4.92957">
        <ele>217.355902</ele>
        <time>2025-02-14T16:17:35.469Z</time>
      </trkpt>
      <trkpt lat="45.52346" lon="4.92977">
        <ele>218.378402</ele>
        <time>2025-02-14T16:17:46.578Z</time>
      </trkpt>
      <trkpt lat="45.52324" lon="4.92985">
        <ele>218.616153</ele>
        <time>2025-02-14T16:17:48.733Z</time>
      </trkpt>
      <trkpt lat="45.52291" lon="4.92992">
        <ele>218.819311</ele>
        <time>2025-02-14T16:17:51.818Z</time>
      </trkpt>
      <trkpt lat="45.52283" lon="4.92987">
        <ele>218.808475</ele>
        <time>2025-02-14T16:17:52.575Z</time>
      </trkpt>
      <trkpt lat="45.52272" lon="4.92991">
        <ele>218.792954</ele>
        <time>2025-02-14T16:17:53.652Z</time>
      </trkpt>
      <trkpt lat="45.52266" lon="4.92998">
        <ele>218.783563</ele>
        <time>2025-02-14T16:17:54.298Z</time>
      </trkpt>
      <trkpt lat="45.52236" lon="4.93">
        <ele>218.74332</ele>
        <time>2025-02-14T16:17:57.052Z</time>
      </trkpt>
      <trkpt lat="45.5217" lon="4.92991">
        <ele>218.65675</ele>
        <time>2025-02-14T16:18:02.961Z</time>
      </trkpt>
      <trkpt lat="45.52121" lon="4.92976">
        <ele>218.393161</ele>
        <time>2025-02-14T16:18:07.113Z</time>
      </trkpt>
      <trkpt lat="45.52078" lon="4.92954">
        <ele>216.917429</ele>
        <time>2025-02-14T16:18:10.349Z</time>
      </trkpt>
      <trkpt lat="45.52026" lon="4.92916">
        <ele>215.003305</ele>
        <time>2025-02-14T16:18:14.053Z</time>
      </trkpt>
      <trkpt lat="45.51922" lon="4.92817">
        <ele>209.184652</ele>
        <time>2025-02-14T16:18:21.009Z</time>
      </trkpt>
      <trkpt lat="45.51893" lon="4.92789">
        <ele>206.93776</ele>
        <time>2025-02-14T16:18:22.914Z</time>
      </trkpt>
      <trkpt lat="45.51871" lon="4.92769">
        <ele>205.303709</ele>
        <time>2025-02-14T16:18:24.299Z</time>
      </trkpt>
      <trkpt lat="45.51826" lon="4.92724">
        <ele>201.760724</ele>
        <time>2025-02-14T16:18:27.290Z</time>
      </trkpt>
      <trkpt lat="45.51765" lon="4.92646">
        <ele>197.055706</ele>
        <time>2025-02-14T16:18:31.727Z</time>
      </trkpt>
      <trkpt lat="45.51764" lon="4.92637">
        <ele>196.700713</ele>
        <time>2025-02-14T16:18:32.071Z</time>
      </trkpt>
      <trkpt lat="45.51757" lon="4.92623">
        <ele>196.00044</ele>
        <time>2025-02-14T16:18:32.746Z</time>
      </trkpt>
      <trkpt lat="45.51746" lon="4.92615">
        <ele>195.293817</ele>
        <time>2025-02-14T16:18:33.421Z</time>
      </trkpt>
      <trkpt lat="45.51737" lon="4.92592">
        <ele>194.246968</ele>
        <time>2025-02-14T16:18:34.433Z</time>
      </trkpt>
      <trkpt lat="45.51727" lon="4.92517">
        <ele>191.172699</ele>
        <time>2025-02-14T16:18:37.476Z</time>
      </trkpt>
      <trkpt lat="45.51717" lon="4.92476">
        <ele>191.051041</ele>
        <time>2025-02-14T16:18:39.237Z</time>
      </trkpt>
      <trkpt lat="45.51709" lon="4.92459">
        <ele>191.071282</ele>
        <time>2025-02-14T16:18:40.138Z</time>
      </trkpt>
      <trkpt lat="45.51674" lon="4.92356">
        <ele>191.184113</ele>
        <time>2025-02-14T16:18:46.549Z</time>
      </trkpt>
      <trkpt lat="45.51666" lon="4.92333">
        <ele>191.208902</ele>
        <time>2025-02-14T16:18:49.285Z</time>
      </trkpt>
      <trkpt lat="45.51653" lon="4.92302">
        <ele>191.244457</ele>
        <time>2025-02-14T16:18:53.942Z</time>
      </trkpt>
      <trkpt lat="45.51635" lon="4.92261">
        <ele>192.203122</ele>
        <time>2025-02-14T16:19:00.880Z</time>
      </trkpt>
      <trkpt lat="45.51635" lon="4.92245">
        <ele>192.725116</ele>
        <time>2025-02-14T16:19:03.240Z</time>
      </trkpt>
      <trkpt lat="45.51632" lon="4.92239">
        <ele>192.98806</ele>
        <time>2025-02-14T16:19:04.502Z</time>
      </trkpt>
      <trkpt lat="45.51622" lon="4.92231">
        <ele>193.544993</ele>
        <time>2025-02-14T16:19:07.193Z</time>
      </trkpt>
      <trkpt lat="45.51616" lon="4.92231">
        <ele>193.832275</ele>
        <time>2025-02-14T16:19:08.653Z</time>
      </trkpt>
      <trkpt lat="45.51608" lon="4.92238">
        <ele>194.263961</ele>
        <time>2025-02-14T16:19:10.731Z</time>
      </trkpt>
      <trkpt lat="45.51594" lon="4.92236">
        <ele>194.990702</ele>
        <time>2025-02-14T16:19:14.228Z</time>
      </trkpt>
      <trkpt lat="45.51565" lon="4.92222">
        <ele>196.468095</ele>
        <time>2025-02-14T16:19:21.236Z</time>
      </trkpt>
      <trkpt lat="45.51516" lon="4.92187">
        <ele>199.14056</ele>
        <time>2025-02-14T16:19:32.719Z</time>
      </trkpt>
      <trkpt lat="45.51503" lon="4.92171">
        <ele>199.974131</ele>
        <time>2025-02-14T16:19:35.996Z</time>
      </trkpt>
      <trkpt lat="45.51489" lon="4.92137">
        <ele>200.343138</ele>
        <time>2025-02-14T16:19:40.638Z</time>
      </trkpt>
      <trkpt lat="45.51481" lon="4.92088">
        <ele>200.777268</ele>
        <time>2025-02-14T16:19:45.988Z</time>
      </trkpt>
      <trkpt lat="45.51473" lon="4.92069">
        <ele>200.974418</ele>
        <time>2025-02-14T16:19:48.091Z</time>
      </trkpt>
      <trkpt lat="45.51459" lon="4.92049">
        <ele>201.21517</ele>
        <time>2025-02-14T16:19:50.299Z</time>
      </trkpt>
      <trkpt lat="45.51449" lon="4.92041">
        <ele>201.355325</ele>
        <time>2025-02-14T16:19:51.302Z</time>
      </trkpt>
      <trkpt lat="45.51432" lon="4.92033">
        <ele>201.579573</ele>
        <time>2025-02-14T16:19:52.904Z</time>
      </trkpt>
      <trkpt lat="45.51406" lon="4.92033">
        <ele>201.893038</ele>
        <time>2025-02-14T16:19:54.948Z</time>
      </trkpt>
      <trkpt lat="45.51388" lon="4.92042">
        <ele>202.13911</ele>
        <time>2025-02-14T16:19:56.573Z</time>
      </trkpt>
      <trkpt lat="45.5137" lon="4.92063">
        <ele>202.012347</ele>
        <time>2025-02-14T16:19:58.341Z</time>
      </trkpt>
      <trkpt lat="45.51355" lon="4.92087">
        <ele>201.686095</ele>
        <time>2025-02-14T16:19:59.870Z</time>
      </trkpt>
      <trkpt lat="45.51342" lon="4.92103">
        <ele>201.425195</ele>
        <time>2025-02-14T16:20:01.039Z</time>
      </trkpt>
      <trkpt lat="45.51319" lon="4.92115">
        <ele>201.067134</ele>
        <time>2025-02-14T16:20:02.590Z</time>
      </trkpt>
      <trkpt lat="45.512" lon="4.92142">
        <ele>199.735904</ele>
        <time>2025-02-14T16:20:10.658Z</time>
      </trkpt>
      <trkpt lat="45.51127" lon="4.92155">
        <ele>200.271126</ele>
        <time>2025-02-14T16:20:18.122Z</time>
      </trkpt>
      <trkpt lat="45.51084" lon="4.92151">
        <ele>200.587046</ele>
        <time>2025-02-14T16:20:23.553Z</time>
      </trkpt>
      <trkpt lat="45.51069" lon="4.92147">
        <ele>200.695837</ele>
        <time>2025-02-14T16:20:25.596Z</time>
      </trkpt>
      <trkpt lat="45.5104" lon="4.92132">
        <ele>200.946824</ele>
        <time>2025-02-14T16:20:30.030Z</time>
      </trkpt>
      <trkpt lat="45.51001" lon="4.92098">
        <ele>201.822257</ele>
        <time>2025-02-14T16:20:36.481Z</time>
      </trkpt>
      <trkpt lat="45.50988" lon="4.92081">
        <ele>202.15981</ele>
        <time>2025-02-14T16:20:38.795Z</time>
      </trkpt>
      <trkpt lat="45.50964" lon="4.92042">
        <ele>202.853267</ele>
        <time>2025-02-14T16:20:43.393Z</time>
      </trkpt>
      <trkpt lat="45.50882" lon="4.91877">
        <ele>205.709339</ele>
        <time>2025-02-14T16:21:02.602Z</time>
      </trkpt>
      <trkpt lat="45.5088" lon="4.91873">
        <ele>205.781486</ele>
        <time>2025-02-14T16:21:03.093Z</time>
      </trkpt>
      <trkpt lat="45.50842" lon="4.91799">
        <ele>207.142278</ele>
        <time>2025-02-14T16:21:11.938Z</time>
      </trkpt>
      <trkpt lat="45.5084" lon="4.91795">
        <ele>207.223413</ele>
        <time>2025-02-14T16:21:12.481Z</time>
      </trkpt>
      <trkpt lat="45.50835" lon="4.91783">
        <ele>207.428922</ele>
        <time>2025-02-14T16:21:13.907Z</time>
      </trkpt>
      <trkpt lat="45.50828" lon="4.91774">
        <ele>207.625073</ele>
        <time>2025-02-14T16:21:15.231Z</time>
      </trkpt>
      <trkpt lat="45.50819" lon="4.91769">
        <ele>207.832802</ele>
        <time>2025-02-14T16:21:16.758Z</time>
      </trkpt>
      <trkpt lat="45.5081" lon="4.91769">
        <ele>208.026864</ele>
        <time>2025-02-14T16:21:18.098Z</time>
      </trkpt>
      <trkpt lat="45.50804" lon="4.91736">
        <ele>208.584657</ele>
        <time>2025-02-14T16:21:21.744Z</time>
      </trkpt>
      <trkpt lat="45.50797" lon="4.91715">
        <ele>208.990344</ele>
        <time>2025-02-14T16:21:24.160Z</time>
      </trkpt>
      <trkpt lat="45.50783" lon="4.91686">
        <ele>209.594311</ele>
        <time>2025-02-14T16:21:27.601Z</time>
      </trkpt>
      <trkpt lat="45.50719" lon="4.9156">
        <ele>212.245698</ele>
        <time>2025-02-14T16:21:43.657Z</time>
      </trkpt>
      <trkpt lat="45.50608" lon="4.91346">
        <ele>216.871596</ele>
        <time>2025-02-14T16:22:12.131Z</time>
      </trkpt>
      <trkpt lat="45.50589" lon="4.91309">
        <ele>217.452582</ele>
        <time>2025-02-14T16:22:16.548Z</time>
      </trkpt>
      <trkpt lat="45.5057" lon="4.91272">
        <ele>217.998904</ele>
        <time>2025-02-14T16:22:20.376Z</time>
      </trkpt>
      <trkpt lat="45.5055" lon="4.9123">
        <ele>218.586493</ele>
        <time>2025-02-14T16:22:24.109Z</time>
      </trkpt>
      <trkpt lat="45.50545" lon="4.91214">
        <ele>218.797508</ele>
        <time>2025-02-14T16:22:25.335Z</time>
      </trkpt>
      <trkpt lat="45.50536" lon="4.91172">
        <ele>219.315862</ele>
        <time>2025-02-14T16:22:28.467Z</time>
      </trkpt>
      <trkpt lat="45.50511" lon="4.91174">
        <ele>219.745597</ele>
        <time>2025-02-14T16:22:31.843Z</time>
      </trkpt>
      <trkpt lat="45.505" lon="4.91168">
        <ele>219.940518</ele>
        <time>2025-02-14T16:22:33.688Z</time>
      </trkpt>
      <trkpt lat="45.5049" lon="4.91156">
        <ele>220.406755</ele>
        <time>2025-02-14T16:22:35.888Z</time>
      </trkpt>
      <trkpt lat="45.50482" lon="4.91134">
        <ele>221.26478</ele>
        <time>2025-02-14T16:22:38.838Z</time>
      </trkpt>
      <trkpt lat="45.50472" lon="4.91107">
        <ele>222.333414</ele>
        <time>2025-02-14T16:22:42.646Z</time>
      </trkpt>
      <trkpt lat="45.50462" lon="4.91093">
        <ele>223.030823</ele>
        <time>2025-02-14T16:22:45.191Z</time>
      </trkpt>
      <trkpt lat="45.50458" lon="4.91091">
        <ele>223.270679</ele>
        <time>2025-02-14T16:22:46.118Z</time>
      </trkpt>
      <trkpt lat="45.50412" lon="4.91094">
        <ele>225.559883</ele>
        <time>2025-02-14T16:22:55.707Z</time>
      </trkpt>
      <trkpt lat="45.50395" lon="4.91091">
        <ele>226.412192</ele>
        <time>2025-02-14T16:22:59.651Z</time>
      </trkpt>
      <trkpt lat="45.50319" lon="4.91035">
        <ele>231.219393</ele>
        <time>2025-02-14T16:23:21.661Z</time>
      </trkpt>
      <trkpt lat="45.50303" lon="4.91027">
        <ele>232.321532</ele>
        <time>2025-02-14T16:23:25.909Z</time>
      </trkpt>
      <trkpt lat="45.50234" lon="4.91008">
        <ele>236.971813</ele>
        <time>2025-02-14T16:23:43.495Z</time>
      </trkpt>
      <trkpt lat="45.50213" lon="4.91009">
        <ele>238.410704</ele>
        <time>2025-02-14T16:23:48.728Z</time>
      </trkpt>
      <trkpt lat="45.5018" lon="4.91018">
        <ele>240.58873</ele>
        <time>2025-02-14T16:23:56.495Z</time>
      </trkpt>
      <trkpt lat="45.50072" lon="4.91051">
        <ele>248.350027</ele>
        <time>2025-02-14T16:24:23.317Z</time>
      </trkpt>
      <trkpt lat="45.50048" lon="4.91057">
        <ele>250.130524</ele>
        <time>2025-02-14T16:24:29.867Z</time>
      </trkpt>
      <trkpt lat="45.50034" lon="4.91055">
        <ele>251.10015</ele>
        <time>2025-02-14T16:24:33.596Z</time>
      </trkpt>
      <trkpt lat="45.49998" lon="4.91045">
        <ele>253.669851</ele>
        <time>2025-02-14T16:24:44.035Z</time>
      </trkpt>
      <trkpt lat="45.49978" lon="4.91032">
        <ele>255.355042</ele>
        <time>2025-02-14T16:24:50.611Z</time>
      </trkpt>
      <trkpt lat="45.4993" lon="4.90969">
        <ele>260.354031</ele>
        <time>2025-02-14T16:25:10.342Z</time>
      </trkpt>
      <trkpt lat="45.49921" lon="4.9096">
        <ele>261.197958</ele>
        <time>2025-02-14T16:25:13.528Z</time>
      </trkpt>
      <trkpt lat="45.49905" lon="4.90954">
        <ele>262.431309</ele>
        <time>2025-02-14T16:25:17.933Z</time>
      </trkpt>
      <trkpt lat="45.49846" lon="4.9095">
        <ele>266.941609</ele>
        <time>2025-02-14T16:25:33.015Z</time>
      </trkpt>
      <trkpt lat="45.49754" lon="4.90942">
        <ele>271.147804</ele>
        <time>2025-02-14T16:25:53.017Z</time>
      </trkpt>
      <trkpt lat="45.49728" lon="4.90926">
        <ele>272.37068</ele>
        <time>2025-02-14T16:25:58.561Z</time>
      </trkpt>
      <trkpt lat="45.49687" lon="4.9089">
        <ele>274.479044</ele>
        <time>2025-02-14T16:26:06.938Z</time>
      </trkpt>
      <trkpt lat="45.49666" lon="4.90871">
        <ele>275.279527</ele>
        <time>2025-02-14T16:26:10.347Z</time>
      </trkpt>
      <trkpt lat="45.49651" lon="4.90863">
        <ele>275.460678</ele>
        <time>2025-02-14T16:26:12.336Z</time>
      </trkpt>
      <trkpt lat="45.49631" lon="4.90864">
        <ele>275.683784</ele>
        <time>2025-02-14T16:26:14.567Z</time>
      </trkpt>
      <trkpt lat="45.49626" lon="4.90861">
        <ele>275.741018</ele>
        <time>2025-02-14T16:26:15.122Z</time>
      </trkpt>
      <trkpt lat="45.4962" lon="4.90855">
        <ele>275.821187</ele>
        <time>2025-02-14T16:26:15.892Z</time>
      </trkpt>
      <trkpt lat="45.49566" lon="4.90791">
        <ele>276.593186</ele>
        <time>2025-02-14T16:26:22.924Z</time>
      </trkpt>
      <trkpt lat="45.49553" lon="4.90779">
        <ele>276.7667</ele>
        <time>2025-02-14T16:26:24.475Z</time>
      </trkpt>
      <trkpt lat="45.49553" lon="4.9077">
        <ele>276.834449</ele>
        <time>2025-02-14T16:26:25.093Z</time>
      </trkpt>
      <trkpt lat="45.49546" lon="4.90761">
        <ele>276.933398</ele>
        <time>2025-02-14T16:26:25.980Z</time>
      </trkpt>
      <trkpt lat="45.49535" lon="4.90763">
        <ele>277.057881</ele>
        <time>2025-02-14T16:26:27.113Z</time>
      </trkpt>
      <trkpt lat="45.49518" lon="4.90737">
        <ele>277.620958</ele>
        <time>2025-02-14T16:26:29.891Z</time>
      </trkpt>
      <trkpt lat="45.49491" lon="4.9071">
        <ele>278.626603</ele>
        <time>2025-02-14T16:26:34.171Z</time>
      </trkpt>
      <trkpt lat="45.49472" lon="4.90691">
        <ele>279.328559</ele>
        <time>2025-02-14T16:26:37.628Z</time>
      </trkpt>
      <trkpt lat="45.49461" lon="4.90674">
        <ele>279.842847</ele>
        <time>2025-02-14T16:26:40.485Z</time>
      </trkpt>
      <trkpt lat="45.49416" lon="4.90583">
        <ele>282.203375</ele>
        <time>2025-02-14T16:26:55.060Z</time>
      </trkpt>
      <trkpt lat="45.49395" lon="4.90539">
        <ele>283.385562</ele>
        <time>2025-02-14T16:27:02.510Z</time>
      </trkpt>
      <trkpt lat="45.4939" lon="4.90522">
        <ele>283.803019</ele>
        <time>2025-02-14T16:27:05.052Z</time>
      </trkpt>
      <trkpt lat="45.49383" lon="4.90514">
        <ele>284.086377</ele>
        <time>2025-02-14T16:27:06.699Z</time>
      </trkpt>
      <trkpt lat="45.49335" lon="4.9047">
        <ele>285.921739</ele>
        <time>2025-02-14T16:27:16.554Z</time>
      </trkpt>
      <trkpt lat="45.49308" lon="4.90452">
        <ele>286.896085</ele>
        <time>2025-02-14T16:27:21.279Z</time>
      </trkpt>
      <trkpt lat="45.493" lon="4.90451">
        <ele>287.141514</ele>
        <time>2025-02-14T16:27:22.410Z</time>
      </trkpt>
      <trkpt lat="45.49297" lon="4.90453">
        <ele>287.265135</ele>
        <time>2025-02-14T16:27:22.959Z</time>
      </trkpt>
      <trkpt lat="45.49281" lon="4.90475">
        <ele>287.973899</ele>
        <time>2025-02-14T16:27:25.937Z</time>
      </trkpt>
      <trkpt lat="45.49254" lon="4.90521">
        <ele>289.651548</ele>
        <time>2025-02-14T16:27:31.481Z</time>
      </trkpt>
      <trkpt lat="45.49205" lon="4.90581">
        <ele>292.509607</ele>
        <time>2025-02-14T16:27:41.561Z</time>
      </trkpt>
      <trkpt lat="45.49186" lon="4.90598">
        <ele>293.50364</ele>
        <time>2025-02-14T16:27:46.078Z</time>
      </trkpt>
      <trkpt lat="45.4917" lon="4.90597">
        <ele>294.215839</ele>
        <time>2025-02-14T16:27:49.603Z</time>
      </trkpt>
      <trkpt lat="45.49137" lon="4.9058">
        <ele>295.749456</ele>
        <time>2025-02-14T16:27:57.898Z</time>
      </trkpt>
      <trkpt lat="45.49132" lon="4.90578">
        <ele>295.987566</ele>
        <time>2025-02-14T16:27:59.291Z</time>
      </trkpt>
      <trkpt lat="45.49125" lon="4.90575">
        <ele>296.288276</ele>
        <time>2025-02-14T16:28:01.060Z</time>
      </trkpt>
      <trkpt lat="45.49086" lon="4.90562">
        <ele>299.911135</ele>
        <time>2025-02-14T16:28:12.577Z</time>
      </trkpt>
      <trkpt lat="45.49076" lon="4.90564">
        <ele>300.829891</ele>
        <time>2025-02-14T16:28:15.637Z</time>
      </trkpt>
      <trkpt lat="45.4903" lon="4.90602">
        <ele>305.72223</ele>
        <time>2025-02-14T16:28:32.740Z</time>
      </trkpt>
      <trkpt lat="45.48984" lon="4.90618">
        <ele>310.17466</ele>
        <time>2025-02-14T16:28:48.609Z</time>
      </trkpt>
      <trkpt lat="45.48951" lon="4.90652">
        <ele>313.989066</ele>
        <time>2025-02-14T16:29:02.211Z</time>
      </trkpt>
      <trkpt lat="45.48928" lon="4.90666">
        <ele>316.436924</ele>
        <time>2025-02-14T16:29:10.527Z</time>
      </trkpt>
      <trkpt lat="45.48891" lon="4.90687">
        <ele>320.327483</ele>
        <time>2025-02-14T16:29:24.030Z</time>
      </trkpt>
      <trkpt lat="45.4888" lon="4.90686">
        <ele>321.388324</ele>
        <time>2025-02-14T16:29:27.750Z</time>
      </trkpt>
      <trkpt lat="45.48858" lon="4.90676">
        <ele>323.604916</ele>
        <time>2025-02-14T16:29:35.380Z</time>
      </trkpt>
      <trkpt lat="45.48849" lon="4.90678">
        <ele>324.534496</ele>
        <time>2025-02-14T16:29:38.518Z</time>
      </trkpt>
      <trkpt lat="45.48838" lon="4.9069">
        <ele>325.875088</ele>
        <time>2025-02-14T16:29:42.973Z</time>
      </trkpt>
      <trkpt lat="45.48817" lon="4.90727">
        <ele>329.155208</ele>
        <time>2025-02-14T16:29:53.679Z</time>
      </trkpt>
      <trkpt lat="45.48807" lon="4.90736">
        <ele>330.297675</ele>
        <time>2025-02-14T16:29:57.231Z</time>
      </trkpt>
      <trkpt lat="45.4878" lon="4.90741">
        <ele>332.052042</ele>
        <time>2025-02-14T16:30:04.843Z</time>
      </trkpt>
      <trkpt lat="45.48738" lon="4.90755">
        <ele>334.70679</ele>
        <time>2025-02-14T16:30:16.573Z</time>
      </trkpt>
      <trkpt lat="45.48707" lon="4.90759">
        <ele>336.559651</ele>
        <time>2025-02-14T16:30:23.963Z</time>
      </trkpt>
      <trkpt lat="45.4865" lon="4.90736">
        <ele>340.158533</ele>
        <time>2025-02-14T16:30:35.966Z</time>
      </trkpt>
      <trkpt lat="45.48562" lon="4.90708">
        <ele>344.012356</ele>
        <time>2025-02-14T16:30:51.648Z</time>
      </trkpt>
      <trkpt lat="45.48551" lon="4.90701">
        <ele>344.463873</ele>
        <time>2025-02-14T16:30:53.752Z</time>
      </trkpt>
      <trkpt lat="45.48502" lon="4.90643">
        <ele>346.788293</ele>
        <time>2025-02-14T16:31:04.574Z</time>
      </trkpt>
      <trkpt lat="45.48478" lon="4.90619">
        <ele>347.841876</ele>
        <time>2025-02-14T16:31:09.642Z</time>
      </trkpt>
      <trkpt lat="45.48454" lon="4.90597">
        <ele>349.19249</ele>
        <time>2025-02-14T16:31:14.675Z</time>
      </trkpt>
      <trkpt lat="45.4843" lon="4.9058">
        <ele>350.640313</ele>
        <time>2025-02-14T16:31:19.777Z</time>
      </trkpt>
      <trkpt lat="45.48369" lon="4.90545">
        <ele>354.06261</ele>
        <time>2025-02-14T16:31:32.563Z</time>
      </trkpt>
      <trkpt lat="45.4831" lon="4.90515">
        <ele>357.381013</ele>
        <time>2025-02-14T16:31:47.736Z</time>
      </trkpt>
      <trkpt lat="45.48291" lon="4.90511">
        <ele>358.945072</ele>
        <time>2025-02-14T16:31:52.744Z</time>
      </trkpt>
      <trkpt lat="45.48185" lon="4.90507">
        <ele>368.753932</ele>
        <time>2025-02-14T16:32:26.065Z</time>
      </trkpt>
      <trkpt lat="45.48087" lon="4.9051">
        <ele>377.733414</ele>
        <time>2025-02-14T16:32:59.051Z</time>
      </trkpt>
      <trkpt lat="45.48052" lon="4.90516">
        <ele>381.031784</ele>
        <time>2025-02-14T16:33:10.699Z</time>
      </trkpt>
      <trkpt lat="45.48026" lon="4.90514">
        <ele>383.420311</ele>
        <time>2025-02-14T16:33:18.990Z</time>
      </trkpt>
      <trkpt lat="45.47962" lon="4.90498">
        <ele>389.364292</ele>
        <time>2025-02-14T16:33:38.587Z</time>
      </trkpt>
      <trkpt lat="45.47931" lon="4.9047">
        <ele>391.695078</ele>
        <time>2025-02-14T16:33:48.778Z</time>
      </trkpt>
      <trkpt lat="45.47903" lon="4.90452">
        <ele>392.997864</ele>
        <time>2025-02-14T16:33:56.139Z</time>
      </trkpt>
      <trkpt lat="45.4789" lon="4.90449">
        <ele>393.590885</ele>
        <time>2025-02-14T16:33:59.243Z</time>
      </trkpt>
      <trkpt lat="45.47875" lon="4.90458">
        <ele>394.298672</ele>
        <time>2025-02-14T16:34:02.772Z</time>
      </trkpt>
      <trkpt lat="45.47839" lon="4.90499">
        <ele>396.294171</ele>
        <time>2025-02-14T16:34:11.342Z</time>
      </trkpt>
      <trkpt lat="45.47806" lon="4.90558">
        <ele>398.492512</ele>
        <time>2025-02-14T16:34:18.236Z</time>
      </trkpt>
      <trkpt lat="45.47774" lon="4.90535">
        <ele>397.896774</ele>
        <time>2025-02-14T16:34:21.494Z</time>
      </trkpt>
      <trkpt lat="45.47611" lon="4.9059">
        <ele>394.20219</ele>
        <time>2025-02-14T16:34:32.228Z</time>
      </trkpt>
      <trkpt lat="45.476" lon="4.90594">
        <ele>393.641614</ele>
        <time>2025-02-14T16:34:33.108Z</time>
      </trkpt>
      <trkpt lat="45.47587" lon="4.90598">
        <ele>392.912377</ele>
        <time>2025-02-14T16:34:33.903Z</time>
      </trkpt>
      <trkpt lat="45.47404" lon="4.90659">
        <ele>381.830652</ele>
        <time>2025-02-14T16:34:44.172Z</time>
      </trkpt>
      <trkpt lat="45.47348" lon="4.90681">
        <ele>377.483197</ele>
        <time>2025-02-14T16:34:47.310Z</time>
      </trkpt>
      <trkpt lat="45.47325" lon="4.90686">
        <ele>375.749185</ele>
        <time>2025-02-14T16:34:48.554Z</time>
      </trkpt>
      <trkpt lat="45.46998" lon="4.90693">
        <ele>347.734082</ele>
        <time>2025-02-14T16:35:05.718Z</time>
      </trkpt>
      <trkpt lat="45.46916" lon="4.9069">
        <ele>340.449923</ele>
        <time>2025-02-14T16:35:09.987Z</time>
      </trkpt>
      <trkpt lat="45.4684" lon="4.90692">
        <ele>333.884283</ele>
        <time>2025-02-14T16:35:13.929Z</time>
      </trkpt>
      <trkpt lat="45.46799" lon="4.90685">
        <ele>330.324945</ele>
        <time>2025-02-14T16:35:16.071Z</time>
      </trkpt>
      <trkpt lat="45.46781" lon="4.90679">
        <ele>328.693233</ele>
        <time>2025-02-14T16:35:17.058Z</time>
      </trkpt>
      <trkpt lat="45.46752" lon="4.90661">
        <ele>325.968543</ele>
        <time>2025-02-14T16:35:18.718Z</time>
      </trkpt>
      <trkpt lat="45.46735" lon="4.90644">
        <ele>324.765026</ele>
        <time>2025-02-14T16:35:19.860Z</time>
      </trkpt>
      <trkpt lat="45.46713" lon="4.90614">
        <ele>323.275125</ele>
        <time>2025-02-14T16:35:21.494Z</time>
      </trkpt>
      <trkpt lat="45.46696" lon="4.90586">
        <ele>321.966859</ele>
        <time>2025-02-14T16:35:22.951Z</time>
      </trkpt>
      <trkpt lat="45.46671" lon="4.9052">
        <ele>319.387713</ele>
        <time>2025-02-14T16:35:25.914Z</time>
      </trkpt>
      <trkpt lat="45.46445" lon="4.89976">
        <ele>306.889855</ele>
        <time>2025-02-14T16:35:53.978Z</time>
      </trkpt>
      <trkpt lat="45.46428" lon="4.89949">
        <ele>306.369124</ele>
        <time>2025-02-14T16:35:55.623Z</time>
      </trkpt>
      <trkpt lat="45.46411" lon="4.8993">
        <ele>305.924668</ele>
        <time>2025-02-14T16:35:57.060Z</time>
      </trkpt>
      <trkpt lat="45.46395" lon="4.89917">
        <ele>305.562359</ele>
        <time>2025-02-14T16:35:58.239Z</time>
      </trkpt>
      <trkpt lat="45.46372" lon="4.89905">
        <ele>305.06263</ele>
        <time>2025-02-14T16:35:59.895Z</time>
      </trkpt>
      <trkpt lat="45.46358" lon="4.89899">
        <ele>304.761064</ele>
        <time>2025-02-14T16:36:00.893Z</time>
      </trkpt>
      <trkpt lat="45.46334" lon="4.89888">
        <ele>304.253017</ele>
        <time>2025-02-14T16:36:02.575Z</time>
      </trkpt>
      <trkpt lat="45.4631" lon="4.8987">
        <ele>303.737373</ele>
        <time>2025-02-14T16:36:04.417Z</time>
      </trkpt>
      <trkpt lat="45.46287" lon="4.89844">
        <ele>303.312235</ele>
        <time>2025-02-14T16:36:06.376Z</time>
      </trkpt>
      <trkpt lat="45.46266" lon="4.89803">
        <ele>302.787625</ele>
        <time>2025-02-14T16:36:08.836Z</time>
      </trkpt>
      <trkpt lat="45.46255" lon="4.89769">
        <ele>302.397707</ele>
        <time>2025-02-14T16:36:10.727Z</time>
      </trkpt>
      <trkpt lat="45.46248" lon="4.8973">
        <ele>301.987294</ele>
        <time>2025-02-14T16:36:12.716Z</time>
      </trkpt>
      <trkpt lat="45.46226" lon="4.89537">
        <ele>299.438461</ele>
        <time>2025-02-14T16:36:22.265Z</time>
      </trkpt>
      <trkpt lat="45.4622" lon="4.89516">
        <ele>299.094355</ele>
        <time>2025-02-14T16:36:23.334Z</time>
      </trkpt>
      <trkpt lat="45.46202" lon="4.89477">
        <ele>298.408564</ele>
        <time>2025-02-14T16:36:25.408Z</time>
      </trkpt>
      <trkpt lat="45.46196" lon="4.89456">
        <ele>298.080591</ele>
        <time>2025-02-14T16:36:26.385Z</time>
      </trkpt>
      <trkpt lat="45.46197" lon="4.89379">
        <ele>296.879862</ele>
        <time>2025-02-14T16:36:29.691Z</time>
      </trkpt>
      <trkpt lat="45.46195" lon="4.89356">
        <ele>296.492234</ele>
        <time>2025-02-14T16:36:30.670Z</time>
      </trkpt>
      <trkpt lat="45.46189" lon="4.89337">
        <ele>296.138746</ele>
        <time>2025-02-14T16:36:31.564Z</time>
      </trkpt>
      <trkpt lat="45.46171" lon="4.89307">
        <ele>295.489199</ele>
        <time>2025-02-14T16:36:33.214Z</time>
      </trkpt>
      <trkpt lat="45.46153" lon="4.89286">
        <ele>294.945029</ele>
        <time>2025-02-14T16:36:34.643Z</time>
      </trkpt>
      <trkpt lat="45.46111" lon="4.89251">
        <ele>293.792094</ele>
        <time>2025-02-14T16:36:37.824Z</time>
      </trkpt>
      <trkpt lat="45.46099" lon="4.89241">
        <ele>293.454442</ele>
        <time>2025-02-14T16:36:39.253Z</time>
      </trkpt>
      <trkpt lat="45.46085" lon="4.89229">
        <ele>293.14328</ele>
        <time>2025-02-14T16:36:40.441Z</time>
      </trkpt>
      <trkpt lat="45.46062" lon="4.89211">
        <ele>293.097612</ele>
        <time>2025-02-14T16:36:42.606Z</time>
      </trkpt>
      <trkpt lat="45.46011" lon="4.8917">
        <ele>292.997036</ele>
        <time>2025-02-14T16:36:48.241Z</time>
      </trkpt>
      <trkpt lat="45.45985" lon="4.89143">
        <ele>292.941059</ele>
        <time>2025-02-14T16:36:51.811Z</time>
      </trkpt>
      <trkpt lat="45.45954" lon="4.89098">
        <ele>292.866066</ele>
        <time>2025-02-14T16:36:55.946Z</time>
      </trkpt>
      <trkpt lat="45.45924" lon="4.89047">
        <ele>292.264228</ele>
        <time>2025-02-14T16:36:59.717Z</time>
      </trkpt>
      <trkpt lat="45.4576" lon="4.8875">
        <ele>286.693958</ele>
        <time>2025-02-14T16:37:16.705Z</time>
      </trkpt>
      <trkpt lat="45.45729" lon="4.88691">
        <ele>285.425591</ele>
        <time>2025-02-14T16:37:20.004Z</time>
      </trkpt>
      <trkpt lat="45.45712" lon="4.88651">
        <ele>284.575526</ele>
        <time>2025-02-14T16:37:22.074Z</time>
      </trkpt>
      <trkpt lat="45.45638" lon="4.88432">
        <ele>280.110109</ele>
        <time>2025-02-14T16:37:32.723Z</time>
      </trkpt>
      <trkpt lat="45.45589" lon="4.88289">
        <ele>277.669417</ele>
        <time>2025-02-14T16:37:39.877Z</time>
      </trkpt>
      <trkpt lat="45.4558" lon="4.88249">
        <ele>277.036292</ele>
        <time>2025-02-14T16:37:41.779Z</time>
      </trkpt>
      <trkpt lat="45.45579" lon="4.88216">
        <ele>276.524551</ele>
        <time>2025-02-14T16:37:43.414Z</time>
      </trkpt>
      <trkpt lat="45.45583" lon="4.88193">
        <ele>276.23173</ele>
        <time>2025-02-14T16:37:44.586Z</time>
      </trkpt>
      <trkpt lat="45.45591" lon="4.88166">
        <ele>275.901298</ele>
        <time>2025-02-14T16:37:46.010Z</time>
      </trkpt>
      <trkpt lat="45.45602" lon="4.8814">
        <ele>275.539685</ele>
        <time>2025-02-14T16:37:47.544Z</time>
      </trkpt>
      <trkpt lat="45.4561" lon="4.88123">
        <ele>275.308343</ele>
        <time>2025-02-14T16:37:48.511Z</time>
      </trkpt>
      <trkpt lat="45.45619" lon="4.88101">
        <ele>275.017317</ele>
        <time>2025-02-14T16:37:49.720Z</time>
      </trkpt>
      <trkpt lat="45.45623" lon="4.88086">
        <ele>274.830388</ele>
        <time>2025-02-14T16:37:50.498Z</time>
      </trkpt>
      <trkpt lat="45.45624" lon="4.88057">
        <ele>274.497322</ele>
        <time>2025-02-14T16:37:51.871Z</time>
      </trkpt>
      <trkpt lat="45.4561" lon="4.88008">
        <ele>273.893135</ele>
        <time>2025-02-14T16:37:54.401Z</time>
      </trkpt>
      <trkpt lat="45.45563" lon="4.87867">
        <ele>272.602136</ele>
        <time>2025-02-14T16:38:01.679Z</time>
      </trkpt>
      <trkpt lat="45.45513" lon="4.87726">
        <ele>271.744427</ele>
        <time>2025-02-14T16:38:10.306Z</time>
      </trkpt>
      <trkpt lat="45.45505" lon="4.87705">
        <ele>271.897796</ele>
        <time>2025-02-14T16:38:12.226Z</time>
      </trkpt>
      <trkpt lat="45.45487" lon="4.87658">
        <ele>272.224076</ele>
        <time>2025-02-14T16:38:16.432Z</time>
      </trkpt>
      <trkpt lat="45.45476" lon="4.87618">
        <ele>272.48899</ele>
        <time>2025-02-14T16:38:19.980Z</time>
      </trkpt>
      <trkpt lat="45.45465" lon="4.87562">
        <ele>272.847268</ele>
        <time>2025-02-14T16:38:25.199Z</time>
      </trkpt>
      <trkpt lat="45.45446" lon="4.87444">
        <ele>273.379187</ele>
        <time>2025-02-14T16:38:35.011Z</time>
      </trkpt>
      <trkpt lat="45.45453" lon="4.87438">
        <ele>273.415133</ele>
        <time>2025-02-14T16:38:35.958Z</time>
      </trkpt>
      <trkpt lat="45.45454" lon="4.87425">
        <ele>273.452712</ele>
        <time>2025-02-14T16:38:36.840Z</time>
      </trkpt>
      <trkpt lat="45.45447" lon="4.87417">
        <ele>273.490043</ele>
        <time>2025-02-14T16:38:37.747Z</time>
      </trkpt>
      <trkpt lat="45.45441" lon="4.87418">
        <ele>273.515321</ele>
        <time>2025-02-14T16:38:38.323Z</time>
      </trkpt>
      <trkpt lat="45.45433" lon="4.8737">
        <ele>273.657392</ele>
        <time>2025-02-14T16:38:41.479Z</time>
      </trkpt>
      <trkpt lat="45.45425" lon="4.87293">
        <ele>273.88195</ele>
        <time>2025-02-14T16:38:46.130Z</time>
      </trkpt>
      <trkpt lat="45.45423" lon="4.8727">
        <ele>273.95794</ele>
        <time>2025-02-14T16:38:47.474Z</time>
      </trkpt>
      <trkpt lat="45.45419" lon="4.87218">
        <ele>274.161182</ele>
        <time>2025-02-14T16:38:50.996Z</time>
      </trkpt>
      <trkpt lat="45.45418" lon="4.8721">
        <ele>274.193858</ele>
        <time>2025-02-14T16:38:51.609Z</time>
      </trkpt>
      <trkpt lat="45.45418" lon="4.87203">
        <ele>274.221068</ele>
        <time>2025-02-14T16:38:52.148Z</time>
      </trkpt>
      <trkpt lat="45.45417" lon="4.8719">
        <ele>274.27421</ele>
        <time>2025-02-14T16:38:53.204Z</time>
      </trkpt>
      <trkpt lat="45.45414" lon="4.87147">
        <ele>274.441482</ele>
        <time>2025-02-14T16:38:56.630Z</time>
      </trkpt>
      <trkpt lat="45.45404" lon="4.87037">
        <ele>274.876492</ele>
        <time>2025-02-14T16:39:05.628Z</time>
      </trkpt>
      <trkpt lat="45.454" lon="4.86967">
        <ele>273.977515</ele>
        <time>2025-02-14T16:39:09.914Z</time>
      </trkpt>
      <trkpt lat="45.45401" lon="4.86959">
        <ele>273.836971</ele>
        <time>2025-02-14T16:39:10.330Z</time>
      </trkpt>
      <trkpt lat="45.45406" lon="4.86953">
        <ele>273.675371</ele>
        <time>2025-02-14T16:39:10.818Z</time>
      </trkpt>
      <trkpt lat="45.45355" lon="4.86967">
        <ele>272.420247</ele>
        <time>2025-02-14T16:39:14.094Z</time>
      </trkpt>
      <trkpt lat="45.45306" lon="4.86985">
        <ele>271.160758</ele>
        <time>2025-02-14T16:39:17.117Z</time>
      </trkpt>
      <trkpt lat="45.45257" lon="4.87007">
        <ele>269.498049</ele>
        <time>2025-02-14T16:39:19.993Z</time>
      </trkpt>
      <trkpt lat="45.45238" lon="4.8702">
        <ele>268.602037</ele>
        <time>2025-02-14T16:39:21.211Z</time>
      </trkpt>
      <trkpt lat="45.45184" lon="4.87066">
        <ele>265.936008</ele>
        <time>2025-02-14T16:39:24.859Z</time>
      </trkpt>
      <trkpt lat="45.45162" lon="4.87085">
        <ele>264.85727</ele>
        <time>2025-02-14T16:39:26.338Z</time>
      </trkpt>
      <trkpt lat="45.4513" lon="4.8711">
        <ele>263.33456</ele>
        <time>2025-02-14T16:39:28.471Z</time>
      </trkpt>
      <trkpt lat="45.45118" lon="4.87116">
        <ele>262.910959</ele>
        <time>2025-02-14T16:39:29.256Z</time>
      </trkpt>
      <trkpt lat="45.45081" lon="4.87134">
        <ele>262.341539</ele>
        <time>2025-02-14T16:39:31.651Z</time>
      </trkpt>
      <trkpt lat="45.45049" lon="4.8715">
        <ele>261.849235</ele>
        <time>2025-02-14T16:39:33.900Z</time>
      </trkpt>
      <trkpt lat="45.45032" lon="4.87168">
        <ele>261.538863</ele>
        <time>2025-02-14T16:39:35.420Z</time>
      </trkpt>
      <trkpt lat="45.45021" lon="4.87191">
        <ele>261.263021</ele>
        <time>2025-02-14T16:39:36.816Z</time>
      </trkpt>
      <trkpt lat="45.45016" lon="4.87205">
        <ele>261.095299</ele>
        <time>2025-02-14T16:39:37.719Z</time>
      </trkpt>
      <trkpt lat="45.45011" lon="4.87214">
        <ele>260.976247</ele>
        <time>2025-02-14T16:39:38.376Z</time>
      </trkpt>
      <trkpt lat="45.45" lon="4.87227">
        <ele>260.770883</ele>
        <time>2025-02-14T16:39:39.611Z</time>
      </trkpt>
      <trkpt lat="45.44992" lon="4.87232">
        <ele>260.646032</ele>
        <time>2025-02-14T16:39:40.438Z</time>
      </trkpt>
      <trkpt lat="45.44978" lon="4.87233">
        <ele>260.43994</ele>
        <time>2025-02-14T16:39:41.805Z</time>
      </trkpt>
      <trkpt lat="45.44961" lon="4.87226">
        <ele>260.277595</ele>
        <time>2025-02-14T16:39:43.599Z</time>
      </trkpt>
      <trkpt lat="45.4493" lon="4.87196">
        <ele>260.048122</ele>
        <time>2025-02-14T16:39:47.230Z</time>
      </trkpt>
      <trkpt lat="45.44915" lon="4.87177">
        <ele>259.920116</ele>
        <time>2025-02-14T16:39:49.084Z</time>
      </trkpt>
      <trkpt lat="45.44857" lon="4.87087">
        <ele>259.387646</ele>
        <time>2025-02-14T16:39:55.438Z</time>
      </trkpt>
      <trkpt lat="45.44831" lon="4.87058">
        <ele>259.158786</ele>
        <time>2025-02-14T16:39:57.695Z</time>
      </trkpt>
      <trkpt lat="45.44788" lon="4.87024">
        <ele>258.716514</ele>
        <time>2025-02-14T16:40:01.049Z</time>
      </trkpt>
      <trkpt lat="45.44773" lon="4.87017">
        <ele>258.578748</ele>
        <time>2025-02-14T16:40:02.111Z</time>
      </trkpt>
      <trkpt lat="45.44743" lon="4.87008">
        <ele>258.304447</ele>
        <time>2025-02-14T16:40:04.231Z</time>
      </trkpt>
      <trkpt lat="45.44692" lon="4.87002">
        <ele>257.845573</ele>
        <time>2025-02-14T16:40:08.125Z</time>
      </trkpt>
      <trkpt lat="45.44632" lon="4.87004">
        <ele>258.05968</ele>
        <time>2025-02-14T16:40:14.198Z</time>
      </trkpt>
      <trkpt lat="45.44598" lon="4.87017">
        <ele>258.494256</ele>
        <time>2025-02-14T16:40:18.599Z</time>
      </trkpt>
      <trkpt lat="45.44581" lon="4.87029">
        <ele>258.727762</ele>
        <time>2025-02-14T16:40:21.068Z</time>
      </trkpt>
      <trkpt lat="45.44568" lon="4.87047">
        <ele>258.949656</ele>
        <time>2025-02-14T16:40:23.436Z</time>
      </trkpt>
      <trkpt lat="45.44538" lon="4.87097">
        <ele>259.515504</ele>
        <time>2025-02-14T16:40:29.564Z</time>
      </trkpt>
      <trkpt lat="45.44518" lon="4.87119">
        <ele>259.832178</ele>
        <time>2025-02-14T16:40:32.955Z</time>
      </trkpt>
      <trkpt lat="45.44416" lon="4.87164">
        <ele>260.066692</ele>
        <time>2025-02-14T16:40:44.493Z</time>
      </trkpt>
      <trkpt lat="45.44389" lon="4.87172">
        <ele>260.124228</ele>
        <time>2025-02-14T16:40:46.705Z</time>
      </trkpt>
      <trkpt lat="45.44357" lon="4.87167">
        <ele>260.191734</ele>
        <time>2025-02-14T16:40:49.166Z</time>
      </trkpt>
      <trkpt lat="45.443" lon="4.87144">
        <ele>259.485397</ele>
        <time>2025-02-14T16:40:53.351Z</time>
      </trkpt>
      <trkpt lat="45.44266" lon="4.87136">
        <ele>258.910726</ele>
        <time>2025-02-14T16:40:55.718Z</time>
      </trkpt>
      <trkpt lat="45.44003" lon="4.87105">
        <ele>254.329708</ele>
        <time>2025-02-14T16:41:13.172Z</time>
      </trkpt>
      <trkpt lat="45.43982" lon="4.87107">
        <ele>253.987792</ele>
        <time>2025-02-14T16:41:14.672Z</time>
      </trkpt>
      <trkpt lat="45.43955" lon="4.87116">
        <ele>253.734549</ele>
        <time>2025-02-14T16:41:16.616Z</time>
      </trkpt>
      <trkpt lat="45.43829" lon="4.8717">
        <ele>252.501126</ele>
        <time>2025-02-14T16:41:26.611Z</time>
      </trkpt>
      <trkpt lat="45.43674" lon="4.87236">
        <ele>251.702266</ele>
        <time>2025-02-14T16:41:39.229Z</time>
      </trkpt>
      <trkpt lat="45.43525" lon="4.87284">
        <ele>251.626922</ele>
        <time>2025-02-14T16:41:52.987Z</time>
      </trkpt>
      <trkpt lat="45.43424" lon="4.87299">
        <ele>251.650321</ele>
        <time>2025-02-14T16:42:02.656Z</time>
      </trkpt>
      <trkpt lat="45.43368" lon="4.87301">
        <ele>251.626002</ele>
        <time>2025-02-14T16:42:07.612Z</time>
      </trkpt>
      <trkpt lat="45.43341" lon="4.87297">
        <ele>251.614449</ele>
        <time>2025-02-14T16:42:09.843Z</time>
      </trkpt>
      <trkpt lat="45.43317" lon="4.87298">
        <ele>251.603913</ele>
        <time>2025-02-14T16:42:11.902Z</time>
      </trkpt>
      <trkpt lat="45.43253" lon="4.87316">
        <ele>251.600103</ele>
        <time>2025-02-14T16:42:17.347Z</time>
      </trkpt>
      <trkpt lat="45.43241" lon="4.87312">
        <ele>251.60389</ele>
        <time>2025-02-14T16:42:18.355Z</time>
      </trkpt>
      <trkpt lat="45.43235" lon="4.87321">
        <ele>251.606612</ele>
        <time>2025-02-14T16:42:19.103Z</time>
      </trkpt>
      <trkpt lat="45.43217" lon="4.87339">
        <ele>251.613474</ele>
        <time>2025-02-14T16:42:20.973Z</time>
      </trkpt>
      <trkpt lat="45.43119" lon="4.87425">
        <ele>251.683272</ele>
        <time>2025-02-14T16:42:31.785Z</time>
      </trkpt>
      <trkpt lat="45.43091" lon="4.87443">
        <ele>251.783287</ele>
        <time>2025-02-14T16:42:34.800Z</time>
      </trkpt>
      <trkpt lat="45.43018" lon="4.87476">
        <ele>252.036866</ele>
        <time>2025-02-14T16:42:42.529Z</time>
      </trkpt>
      <trkpt lat="45.4298" lon="4.87491">
        <ele>252.164944</ele>
        <time>2025-02-14T16:42:46.349Z</time>
      </trkpt>
      <trkpt lat="45.42956" lon="4.87496">
        <ele>252.225164</ele>
        <time>2025-02-14T16:42:48.658Z</time>
      </trkpt>
      <trkpt lat="45.42861" lon="4.87512">
        <ele>251.778941</ele>
        <time>2025-02-14T16:42:57.190Z</time>
      </trkpt>
      <trkpt lat="45.42801" lon="4.87525">
        <ele>251.496231</ele>
        <time>2025-02-14T16:43:01.910Z</time>
      </trkpt>
      <trkpt lat="45.42797" lon="4.87528">
        <ele>251.47557</ele>
        <time>2025-02-14T16:43:02.243Z</time>
      </trkpt>
      <trkpt lat="45.4263" lon="4.87579">
        <ele>247.850369</ele>
        <time>2025-02-14T16:43:13.583Z</time>
      </trkpt>
      <trkpt lat="45.426" lon="4.87592">
        <ele>246.970939</ele>
        <time>2025-02-14T16:43:15.430Z</time>
      </trkpt>
      <trkpt lat="45.42559" lon="4.87616">
        <ele>244.68461</ele>
        <time>2025-02-14T16:43:17.992Z</time>
      </trkpt>
      <trkpt lat="45.42534" lon="4.87623">
        <ele>243.373024</ele>
        <time>2025-02-14T16:43:19.419Z</time>
      </trkpt>
      <trkpt lat="45.42498" lon="4.87623">
        <ele>241.534987</ele>
        <time>2025-02-14T16:43:21.415Z</time>
      </trkpt>
      <trkpt lat="45.42447" lon="4.87615">
        <ele>238.936134</ele>
        <time>2025-02-14T16:43:24.193Z</time>
      </trkpt>
      <trkpt lat="45.42437" lon="4.87613">
        <ele>238.38915</ele>
        <time>2025-02-14T16:43:24.778Z</time>
      </trkpt>
      <trkpt lat="45.42408" lon="4.87609">
        <ele>237.286348</ele>
        <time>2025-02-14T16:43:26.365Z</time>
      </trkpt>
      <trkpt lat="45.42348" lon="4.876">
        <ele>235.168787</ele>
        <time>2025-02-14T16:43:29.802Z</time>
      </trkpt>
      <trkpt lat="45.42274" lon="4.87589">
        <ele>232.558075</ele>
        <time>2025-02-14T16:43:34.380Z</time>
      </trkpt>
      <trkpt lat="45.42012" lon="4.87549">
        <ele>233.404808</ele>
        <time>2025-02-14T16:43:57.234Z</time>
      </trkpt>
      <trkpt lat="45.41979" lon="4.87537">
        <ele>234.568443</ele>
        <time>2025-02-14T16:44:02.804Z</time>
      </trkpt>
      <trkpt lat="45.41946" lon="4.87511">
        <ele>235.855264</ele>
        <time>2025-02-14T16:44:10.589Z</time>
      </trkpt>
      <trkpt lat="45.41938" lon="4.87504">
        <ele>236.148099</ele>
        <time>2025-02-14T16:44:12.562Z</time>
      </trkpt>
      <trkpt lat="45.4192" lon="4.87487">
        <ele>236.878575</ele>
        <time>2025-02-14T16:44:17.840Z</time>
      </trkpt>
      <trkpt lat="45.41906" lon="4.87474">
        <ele>237.475542</ele>
        <time>2025-02-14T16:44:22.266Z</time>
      </trkpt>
      <trkpt lat="45.419" lon="4.87465">
        <ele>238.014449</ele>
        <time>2025-02-14T16:44:24.561Z</time>
      </trkpt>
      <trkpt lat="45.4189" lon="4.87441">
        <ele>239.25685</ele>
        <time>2025-02-14T16:44:30.068Z</time>
      </trkpt>
      <trkpt lat="45.41872" lon="4.87376">
        <ele>242.34295</ele>
        <time>2025-02-14T16:44:43.484Z</time>
      </trkpt>
      <trkpt lat="45.41859" lon="4.87357">
        <ele>243.479096</ele>
        <time>2025-02-14T16:44:47.997Z</time>
      </trkpt>
      <trkpt lat="45.41851" lon="4.87349">
        <ele>244.114068</ele>
        <time>2025-02-14T16:44:50.479Z</time>
      </trkpt>
      <trkpt lat="45.41835" lon="4.87341">
        <ele>245.174987</ele>
        <time>2025-02-14T16:44:54.738Z</time>
      </trkpt>
      <trkpt lat="45.41816" lon="4.87339">
        <ele>246.334588</ele>
        <time>2025-02-14T16:44:59.152Z</time>
      </trkpt>
      <trkpt lat="45.41768" lon="4.87358">
        <ele>248.992745</ele>
        <time>2025-02-14T16:45:09.341Z</time>
      </trkpt>
      <trkpt lat="45.41746" lon="4.87366">
        <ele>249.562498</ele>
        <time>2025-02-14T16:45:13.320Z</time>
      </trkpt>
      <trkpt lat="45.41726" lon="4.87367">
        <ele>250.069576</ele>
        <time>2025-02-14T16:45:16.624Z</time>
      </trkpt>
      <trkpt lat="45.41594" lon="4.87344">
        <ele>253.323948</ele>
        <time>2025-02-14T16:45:34.465Z</time>
      </trkpt>
      <trkpt lat="45.41318" lon="4.87297">
        <ele>256.242642</ele>
        <time>2025-02-14T16:46:04.307Z</time>
      </trkpt>
      <trkpt lat="45.41103" lon="4.87262">
        <ele>259.670852</ele>
        <time>2025-02-14T16:46:33.090Z</time>
      </trkpt>
      <trkpt lat="45.41091" lon="4.87258">
        <ele>259.884609</ele>
        <time>2025-02-14T16:46:34.711Z</time>
      </trkpt>
      <trkpt lat="45.41081" lon="4.8725">
        <ele>260.096847</ele>
        <time>2025-02-14T16:46:36.285Z</time>
      </trkpt>
      <trkpt lat="45.41059" lon="4.87224">
        <ele>260.65287</ele>
        <time>2025-02-14T16:46:39.846Z</time>
      </trkpt>
      <trkpt lat="45.40997" lon="4.87133">
        <ele>262.614571</ele>
        <time>2025-02-14T16:46:51.175Z</time>
      </trkpt>
      <trkpt lat="45.40972" lon="4.87102">
        <ele>263.360922</ele>
        <time>2025-02-14T16:46:56.127Z</time>
      </trkpt>
      <trkpt lat="45.40955" lon="4.8709">
        <ele>263.777487</ele>
        <time>2025-02-14T16:46:59.107Z</time>
      </trkpt>
      <trkpt lat="45.4091" lon="4.8707">
        <ele>264.868964</ele>
        <time>2025-02-14T16:47:06.974Z</time>
      </trkpt>
      <trkpt lat="45.40829" lon="4.87047">
        <ele>266.925731</ele>
        <time>2025-02-14T16:47:21.881Z</time>
      </trkpt>
      <trkpt lat="45.40785" lon="4.87038">
        <ele>268.018413</ele>
        <time>2025-02-14T16:47:28.289Z</time>
      </trkpt>
      <trkpt lat="45.40751" lon="4.87036">
        <ele>268.68838</ele>
        <time>2025-02-14T16:47:31.650Z</time>
      </trkpt>
      <trkpt lat="45.40733" lon="4.87024">
        <ele>268.397547</ele>
        <time>2025-02-14T16:47:33.282Z</time>
      </trkpt>
      <trkpt lat="45.40723" lon="4.87007">
        <ele>268.17844</ele>
        <time>2025-02-14T16:47:34.406Z</time>
      </trkpt>
      <trkpt lat="45.40716" lon="4.86937">
        <ele>267.466387</ele>
        <time>2025-02-14T16:47:37.876Z</time>
      </trkpt>
      <trkpt lat="45.40715" lon="4.86914">
        <ele>267.233164</ele>
        <time>2025-02-14T16:47:38.976Z</time>
      </trkpt>
      <trkpt lat="45.40714" lon="4.86912">
        <ele>267.211607</ele>
        <time>2025-02-14T16:47:39.078Z</time>
      </trkpt>
      <trkpt lat="45.4071" lon="4.86887">
        <ele>266.954925</ele>
        <time>2025-02-14T16:47:40.274Z</time>
      </trkpt>
      <trkpt lat="45.40707" lon="4.86873">
        <ele>266.810433</ele>
        <time>2025-02-14T16:47:40.909Z</time>
      </trkpt>
      <trkpt lat="45.40708" lon="4.86868">
        <ele>266.756886</ele>
        <time>2025-02-14T16:47:41.142Z</time>
      </trkpt>
      <trkpt lat="45.40703" lon="4.86861">
        <ele>266.660901</ele>
        <time>2025-02-14T16:47:41.570Z</time>
      </trkpt>
      <trkpt lat="45.40691" lon="4.86824">
        <ele>266.251208</ele>
        <time>2025-02-14T16:47:43.389Z</time>
      </trkpt>
      <trkpt lat="45.40689" lon="4.86807">
        <ele>265.908129</ele>
        <time>2025-02-14T16:47:44.142Z</time>
      </trkpt>
      <trkpt lat="45.40677" lon="4.86745">
        <ele>264.110844</ele>
        <time>2025-02-14T16:47:46.973Z</time>
      </trkpt>
      <trkpt lat="45.40675" lon="4.86724">
        <ele>263.541661</ele>
        <time>2025-02-14T16:47:47.852Z</time>
      </trkpt>
      <trkpt lat="45.40674" lon="4.86716">
        <ele>263.313978</ele>
        <time>2025-02-14T16:47:48.198Z</time>
      </trkpt>
      <trkpt lat="45.40667" lon="4.86704">
        <ele>262.884263</ele>
        <time>2025-02-14T16:47:48.863Z</time>
      </trkpt>
      <trkpt lat="45.40669" lon="4.86698">
        <ele>262.694163</ele>
        <time>2025-02-14T16:47:49.143Z</time>
      </trkpt>
      <trkpt lat="45.40665" lon="4.86693">
        <ele>262.50457</ele>
        <time>2025-02-14T16:47:49.433Z</time>
      </trkpt>
      <trkpt lat="45.4067" lon="4.86657">
        <ele>261.472339</ele>
        <time>2025-02-14T16:47:50.948Z</time>
      </trkpt>
      <trkpt lat="45.40672" lon="4.8661">
        <ele>260.1803</ele>
        <time>2025-02-14T16:47:52.808Z</time>
      </trkpt>
      <trkpt lat="45.4067" lon="4.86577">
        <ele>259.269294</ele>
        <time>2025-02-14T16:47:54.100Z</time>
      </trkpt>
      <trkpt lat="45.40653" lon="4.86477">
        <ele>256.076059</ele>
        <time>2025-02-14T16:47:58.131Z</time>
      </trkpt>
      <trkpt lat="45.40655" lon="4.86387">
        <ele>253.254296</ele>
        <time>2025-02-14T16:48:01.825Z</time>
      </trkpt>
      <trkpt lat="45.40654" lon="4.86303">
        <ele>250.870033</ele>
        <time>2025-02-14T16:48:05.319Z</time>
      </trkpt>
      <trkpt lat="45.4065" lon="4.86274">
        <ele>250.401854</ele>
        <time>2025-02-14T16:48:06.560Z</time>
      </trkpt>
      <trkpt lat="45.40644" lon="4.86257">
        <ele>250.083229</ele>
        <time>2025-02-14T16:48:07.418Z</time>
      </trkpt>
      <trkpt lat="45.40638" lon="4.8625">
        <ele>249.916592</ele>
        <time>2025-02-14T16:48:07.869Z</time>
      </trkpt>
      <trkpt lat="45.4061" lon="4.86235">
        <ele>249.226816</ele>
        <time>2025-02-14T16:48:09.788Z</time>
      </trkpt>
      <trkpt lat="45.40565" lon="4.86228">
        <ele>248.175419</ele>
        <time>2025-02-14T16:48:12.785Z</time>
      </trkpt>
      <trkpt lat="45.40488" lon="4.86215">
        <ele>246.728656</ele>
        <time>2025-02-14T16:48:18.079Z</time>
      </trkpt>
      <trkpt lat="45.40481" lon="4.86213">
        <ele>246.654332</ele>
        <time>2025-02-14T16:48:18.632Z</time>
      </trkpt>
      <trkpt lat="45.40464" lon="4.8621">
        <ele>246.484303</ele>
        <time>2025-02-14T16:48:19.909Z</time>
      </trkpt>
      <trkpt lat="45.40422" lon="4.86202">
        <ele>246.062511</ele>
        <time>2025-02-14T16:48:23.280Z</time>
      </trkpt>
      <trkpt lat="45.40402" lon="4.86198">
        <ele>245.864582</ele>
        <time>2025-02-14T16:48:24.885Z</time>
      </trkpt>
      <trkpt lat="45.40384" lon="4.86195">
        <ele>245.678865</ele>
        <time>2025-02-14T16:48:26.327Z</time>
      </trkpt>
      <trkpt lat="45.40361" lon="4.8619">
        <ele>245.455802</ele>
        <time>2025-02-14T16:48:28.003Z</time>
      </trkpt>
      <trkpt lat="45.40352" lon="4.86189">
        <ele>245.363607</ele>
        <time>2025-02-14T16:48:28.665Z</time>
      </trkpt>
      <trkpt lat="45.40305" lon="4.86179">
        <ele>244.909466</ele>
        <time>2025-02-14T16:48:32.014Z</time>
      </trkpt>
      <trkpt lat="45.4024" lon="4.86169">
        <ele>244.31659</ele>
        <time>2025-02-14T16:48:36.646Z</time>
      </trkpt>
      <trkpt lat="45.4021" lon="4.86166">
        <ele>244.041518</ele>
        <time>2025-02-14T16:48:38.833Z</time>
      </trkpt>
      <trkpt lat="45.40198" lon="4.86165">
        <ele>243.933307</ele>
        <time>2025-02-14T16:48:39.710Z</time>
      </trkpt>
      <trkpt lat="45.40155" lon="4.86161">
        <ele>243.542749</ele>
        <time>2025-02-14T16:48:43.019Z</time>
      </trkpt>
      <trkpt lat="45.40078" lon="4.8615">
        <ele>243.709272</ele>
        <time>2025-02-14T16:48:50.401Z</time>
      </trkpt>
      <trkpt lat="45.39911" lon="4.86132">
        <ele>244.527587</ele>
        <time>2025-02-14T16:49:06.959Z</time>
      </trkpt>
      <trkpt lat="45.39884" lon="4.86118">
        <ele>244.783324</ele>
        <time>2025-02-14T16:49:09.941Z</time>
      </trkpt>
      <trkpt lat="45.39879" lon="4.86135">
        <ele>244.903501</ele>
        <time>2025-02-14T16:49:11.409Z</time>
      </trkpt>
      <trkpt lat="45.39873" lon="4.86141">
        <ele>244.967418</ele>
        <time>2025-02-14T16:49:12.211Z</time>
      </trkpt>
      <trkpt lat="45.39783" lon="4.86142">
        <ele>246.051803</ele>
        <time>2025-02-14T16:49:23.233Z</time>
      </trkpt>
      <trkpt lat="45.39745" lon="4.86148">
        <ele>246.813971</ele>
        <time>2025-02-14T16:49:28.559Z</time>
      </trkpt>
      <trkpt lat="45.3971" lon="4.86143">
        <ele>247.49619</ele>
        <time>2025-02-14T16:49:33.375Z</time>
      </trkpt>
      <trkpt lat="45.39675" lon="4.86144">
        <ele>248.189062</ele>
        <time>2025-02-14T16:49:38.374Z</time>
      </trkpt>
      <trkpt lat="45.39604" lon="4.86145">
        <ele>249.457203</ele>
        <time>2025-02-14T16:49:48.625Z</time>
      </trkpt>
      <trkpt lat="45.39563" lon="4.86145">
        <ele>250.032688</ele>
        <time>2025-02-14T16:49:54.102Z</time>
      </trkpt>
      <trkpt lat="45.39541" lon="4.86148">
        <ele>250.341264</ele>
        <time>2025-02-14T16:49:56.846Z</time>
      </trkpt>
      <trkpt lat="45.39478" lon="4.86166">
        <ele>251.255361</ele>
        <time>2025-02-14T16:50:04.380Z</time>
      </trkpt>
      <trkpt lat="45.39442" lon="4.86183">
        <ele>251.679935</ele>
        <time>2025-02-14T16:50:08.369Z</time>
      </trkpt>
      <trkpt lat="45.39346" lon="4.86217">
        <ele>251.991398</ele>
        <time>2025-02-14T16:50:17.384Z</time>
      </trkpt>
      <trkpt lat="45.39302" lon="4.86236">
        <ele>252.136121</ele>
        <time>2025-02-14T16:50:21.821Z</time>
      </trkpt>
      <trkpt lat="45.38892" lon="4.86432">
        <ele>253.936405</ele>
        <time>2025-02-14T16:51:04.812Z</time>
      </trkpt>
      <trkpt lat="45.38879" lon="4.86442">
        <ele>253.978621</ele>
        <time>2025-02-14T16:51:06.563Z</time>
      </trkpt>
      <trkpt lat="45.38804" lon="4.86518">
        <ele>254.234108</ele>
        <time>2025-02-14T16:51:16.220Z</time>
      </trkpt>
      <trkpt lat="45.38779" lon="4.86533">
        <ele>254.239858</ele>
        <time>2025-02-14T16:51:18.644Z</time>
      </trkpt>
      <trkpt lat="45.38759" lon="4.86535">
        <ele>253.508494</ele>
        <time>2025-02-14T16:51:20.244Z</time>
      </trkpt>
      <trkpt lat="45.38675" lon="4.86531">
        <ele>250.522311</ele>
        <time>2025-02-14T16:51:25.529Z</time>
      </trkpt>
      <trkpt lat="45.38654" lon="4.86533">
        <ele>249.742403</ele>
        <time>2025-02-14T16:51:26.773Z</time>
      </trkpt>
      <trkpt lat="45.38636" lon="4.86543">
        <ele>249.05002</ele>
        <time>2025-02-14T16:51:27.857Z</time>
      </trkpt>
      <trkpt lat="45.38591" lon="4.86591">
        <ele>246.333346</ele>
        <time>2025-02-14T16:51:30.862Z</time>
      </trkpt>
      <trkpt lat="45.38571" lon="4.86618">
        <ele>244.443587</ele>
        <time>2025-02-14T16:51:32.344Z</time>
      </trkpt>
      <trkpt lat="45.38533" lon="4.86716">
        <ele>239.143818</ele>
        <time>2025-02-14T16:51:36.530Z</time>
      </trkpt>
      <trkpt lat="45.38528" lon="4.86749">
        <ele>237.512805</ele>
        <time>2025-02-14T16:51:37.836Z</time>
      </trkpt>
      <trkpt lat="45.38527" lon="4.86768">
        <ele>236.646083</ele>
        <time>2025-02-14T16:51:38.536Z</time>
      </trkpt>
      <trkpt lat="45.38525" lon="4.86782">
        <ele>235.949618</ele>
        <time>2025-02-14T16:51:39.106Z</time>
      </trkpt>
      <trkpt lat="45.38522" lon="4.86806">
        <ele>235.362315</ele>
        <time>2025-02-14T16:51:40.062Z</time>
      </trkpt>
      <trkpt lat="45.3842" lon="4.86747">
        <ele>232.492109</ele>
        <time>2025-02-14T16:51:49.670Z</time>
      </trkpt>
      <trkpt lat="45.38344" lon="4.86711">
        <ele>231.767275</ele>
        <time>2025-02-14T16:51:58.474Z</time>
      </trkpt>
      <trkpt lat="45.38192" lon="4.86652">
        <ele>236.556509</ele>
        <time>2025-02-14T16:52:31.035Z</time>
      </trkpt>
      <trkpt lat="45.38188" lon="4.8665">
        <ele>236.839734</ele>
        <time>2025-02-14T16:52:32.180Z</time>
      </trkpt>
      <trkpt lat="45.38164" lon="4.8664">
        <ele>238.441817</ele>
        <time>2025-02-14T16:52:38.897Z</time>
      </trkpt>
      <trkpt lat="45.38153" lon="4.86636">
        <ele>239.182332</ele>
        <time>2025-02-14T16:52:41.677Z</time>
      </trkpt>
      <trkpt lat="45.38139" lon="4.86602">
        <ele>240.983237</ele>
        <time>2025-02-14T16:52:48.425Z</time>
      </trkpt>
      <trkpt lat="45.38129" lon="4.86565">
        <ele>242.78232</ele>
        <time>2025-02-14T16:52:55.574Z</time>
      </trkpt>
      <trkpt lat="45.38118" lon="4.86546">
        <ele>243.918978</ele>
        <time>2025-02-14T16:53:00.394Z</time>
      </trkpt>
      <trkpt lat="45.38095" lon="4.86532">
        <ele>245.514048</ele>
        <time>2025-02-14T16:53:07.115Z</time>
      </trkpt>
      <trkpt lat="45.38074" lon="4.86522">
        <ele>246.979138</ele>
        <time>2025-02-14T16:53:12.714Z</time>
      </trkpt>
      <trkpt lat="45.37978" lon="4.86507">
        <ele>253.157981</ele>
        <time>2025-02-14T16:53:37.631Z</time>
      </trkpt>
      <trkpt lat="45.37953" lon="4.86496">
        <ele>254.80481</ele>
        <time>2025-02-14T16:53:44.497Z</time>
      </trkpt>
      <trkpt lat="45.37929" lon="4.86475">
        <ele>256.602757</ele>
        <time>2025-02-14T16:53:51.666Z</time>
      </trkpt>
      <trkpt lat="45.37896" lon="4.86405">
        <ele>259.674153</ele>
        <time>2025-02-14T16:54:04.676Z</time>
      </trkpt>
      <trkpt lat="45.37884" lon="4.86387">
        <ele>259.864351</ele>
        <time>2025-02-14T16:54:07.725Z</time>
      </trkpt>
      <trkpt lat="45.37847" lon="4.86354">
        <ele>260.362074</ele>
        <time>2025-02-14T16:54:14.110Z</time>
      </trkpt>
      <trkpt lat="45.37842" lon="4.86351">
        <ele>260.421813</ele>
        <time>2025-02-14T16:54:14.717Z</time>
      </trkpt>
      <trkpt lat="45.37722" lon="4.86295">
        <ele>261.031194</ele>
        <time>2025-02-14T16:54:24.339Z</time>
      </trkpt>
      <trkpt lat="45.37686" lon="4.86274">
        <ele>260.256931</ele>
        <time>2025-02-14T16:54:26.865Z</time>
      </trkpt>
      <trkpt lat="45.37619" lon="4.86223">
        <ele>258.741476</ele>
        <time>2025-02-14T16:54:31.724Z</time>
      </trkpt>
      <trkpt lat="45.37459" lon="4.86099">
        <ele>255.376285</ele>
        <time>2025-02-14T16:54:43.494Z</time>
      </trkpt>
      <trkpt lat="45.37432" lon="4.86083">
        <ele>254.834268</ele>
        <time>2025-02-14T16:54:45.635Z</time>
      </trkpt>
      <trkpt lat="45.37411" lon="4.86075">
        <ele>254.696482</ele>
        <time>2025-02-14T16:54:47.215Z</time>
      </trkpt>
      <trkpt lat="45.3724" lon="4.86064">
        <ele>254.562212</ele>
        <time>2025-02-14T16:55:03.006Z</time>
      </trkpt>
      <trkpt lat="45.37221" lon="4.86061">
        <ele>254.617437</ele>
        <time>2025-02-14T16:55:04.862Z</time>
      </trkpt>
      <trkpt lat="45.37017" lon="4.85999">
        <ele>255.422063</ele>
        <time>2025-02-14T16:55:24.850Z</time>
      </trkpt>
      <trkpt lat="45.36946" lon="4.85981">
        <ele>255.90895</ele>
        <time>2025-02-14T16:55:32.774Z</time>
      </trkpt>
      <trkpt lat="45.36901" lon="4.85973">
        <ele>256.208302</ele>
        <time>2025-02-14T16:55:38.035Z</time>
      </trkpt>
      <trkpt lat="45.368" lon="4.8597">
        <ele>256.316924</ele>
        <time>2025-02-14T16:55:48.313Z</time>
      </trkpt>
      <trkpt lat="45.36787" lon="4.85962">
        <ele>256.324416</ele>
        <time>2025-02-14T16:55:49.533Z</time>
      </trkpt>
      <trkpt lat="45.36704" lon="4.85919">
        <ele>256.22722</ele>
        <time>2025-02-14T16:55:56.462Z</time>
      </trkpt>
      <trkpt lat="45.36659" lon="4.85907">
        <ele>255.797825</ele>
        <time>2025-02-14T16:55:59.745Z</time>
      </trkpt>
      <trkpt lat="45.36638" lon="4.85898">
        <ele>255.596465</ele>
        <time>2025-02-14T16:56:01.308Z</time>
      </trkpt>
      <trkpt lat="45.36639" lon="4.85882">
        <ele>255.494962</ele>
        <time>2025-02-14T16:56:02.132Z</time>
      </trkpt>
      <trkpt lat="45.36635" lon="4.85876">
        <ele>255.440873</ele>
        <time>2025-02-14T16:56:02.543Z</time>
      </trkpt>
      <trkpt lat="45.36625" lon="4.85872">
        <ele>255.339657</ele>
        <time>2025-02-14T16:56:03.367Z</time>
      </trkpt>
      <trkpt lat="45.36617" lon="4.85882">
        <ele>255.23793</ele>
        <time>2025-02-14T16:56:04.199Z</time>
      </trkpt>
      <trkpt lat="45.3661" lon="4.85874">
        <ele>255.159435</ele>
        <time>2025-02-14T16:56:04.805Z</time>
      </trkpt>
      <trkpt lat="45.36596" lon="4.85873">
        <ele>255.026227</ele>
        <time>2025-02-14T16:56:05.882Z</time>
      </trkpt>
      <trkpt lat="45.36584" lon="4.85877">
        <ele>254.909423</ele>
        <time>2025-02-14T16:56:06.822Z</time>
      </trkpt>
      <trkpt lat="45.36573" lon="4.8588">
        <ele>254.808766</ele>
        <time>2025-02-14T16:56:07.639Z</time>
      </trkpt>
      <trkpt lat="45.36549" lon="4.85878">
        <ele>254.62045</ele>
        <time>2025-02-14T16:56:09.413Z</time>
      </trkpt>
      <trkpt lat="45.36388" lon="4.85837">
        <ele>253.648004</ele>
        <time>2025-02-14T16:56:22.108Z</time>
      </trkpt>
      <trkpt lat="45.36323" lon="4.8582">
        <ele>253.43754</ele>
        <time>2025-02-14T16:56:27.976Z</time>
      </trkpt>
      <trkpt lat="45.36206" lon="4.85785">
        <ele>253.073614</ele>
        <time>2025-02-14T16:56:38.455Z</time>
      </trkpt>
      <trkpt lat="45.36198" lon="4.85783">
        <ele>252.931625</ele>
        <time>2025-02-14T16:56:39.092Z</time>
      </trkpt>
      <trkpt lat="45.35538" lon="4.85605">
        <ele>239.31643</ele>
        <time>2025-02-14T16:57:23.983Z</time>
      </trkpt>
      <trkpt lat="45.35512" lon="4.85604">
        <ele>238.507534</ele>
        <time>2025-02-14T16:57:25.413Z</time>
      </trkpt>
      <trkpt lat="45.35456" lon="4.85607">
        <ele>236.719422</ele>
        <time>2025-02-14T16:57:28.452Z</time>
      </trkpt>
      <trkpt lat="45.35397" lon="4.8562">
        <ele>234.850049</ele>
        <time>2025-02-14T16:57:31.733Z</time>
      </trkpt>
      <trkpt lat="45.35385" lon="4.85635">
        <ele>234.336891</ele>
        <time>2025-02-14T16:57:32.769Z</time>
      </trkpt>
      <trkpt lat="45.35382" lon="4.8567">
        <ele>233.566099</ele>
        <time>2025-02-14T16:57:34.607Z</time>
      </trkpt>
      <trkpt lat="45.35376" lon="4.85681">
        <ele>233.263103</ele>
        <time>2025-02-14T16:57:35.447Z</time>
      </trkpt>
      <trkpt lat="45.35371" lon="4.85693">
        <ele>232.938218</ele>
        <time>2025-02-14T16:57:36.431Z</time>
      </trkpt>
      <trkpt lat="45.35341" lon="4.85708">
        <ele>232.850165</ele>
        <time>2025-02-14T16:57:40.468Z</time>
      </trkpt>
      <trkpt lat="45.35329" lon="4.85705">
        <ele>233.228007</ele>
        <time>2025-02-14T16:57:42.438Z</time>
      </trkpt>
      <trkpt lat="45.35321" lon="4.85699">
        <ele>233.48505</ele>
        <time>2025-02-14T16:57:43.862Z</time>
      </trkpt>
      <trkpt lat="45.35305" lon="4.85659">
        <ele>234.482574</ele>
        <time>2025-02-14T16:57:49.936Z</time>
      </trkpt>
      <trkpt lat="45.35302" lon="4.85631">
        <ele>235.088937</ele>
        <time>2025-02-14T16:57:53.717Z</time>
      </trkpt>
      <trkpt lat="45.35307" lon="4.8558">
        <ele>236.200346</ele>
        <time>2025-02-14T16:58:00.758Z</time>
      </trkpt>
      <trkpt lat="45.35306" lon="4.85564">
        <ele>236.532075</ele>
        <time>2025-02-14T16:58:02.748Z</time>
      </trkpt>
      <trkpt lat="45.35297" lon="4.85546">
        <ele>237.001026</ele>
        <time>2025-02-14T16:58:05.239Z</time>
      </trkpt>
      <trkpt lat="45.35262" lon="4.85522">
        <ele>238.081792</ele>
        <time>2025-02-14T16:58:11.145Z</time>
      </trkpt>
      <trkpt lat="45.35253" lon="4.855">
        <ele>238.419044</ele>
        <time>2025-02-14T16:58:13.803Z</time>
      </trkpt>
      <trkpt lat="45.35227" lon="4.85409">
        <ele>239.722967</ele>
        <time>2025-02-14T16:58:23.892Z</time>
      </trkpt>
      <trkpt lat="45.35211" lon="4.85388">
        <ele>240.13059</ele>
        <time>2025-02-14T16:58:26.892Z</time>
      </trkpt>
      <trkpt lat="45.35159" lon="4.85364">
        <ele>241.162457</ele>
        <time>2025-02-14T16:58:33.587Z</time>
      </trkpt>
      <trkpt lat="45.35041" lon="4.85312">
        <ele>241.221457</ele>
        <time>2025-02-14T16:58:44.534Z</time>
      </trkpt>
      <trkpt lat="45.34995" lon="4.85293">
        <ele>241.19476</ele>
        <time>2025-02-14T16:58:48.307Z</time>
      </trkpt>
      <trkpt lat="45.34953" lon="4.85275">
        <ele>241.003094</ele>
        <time>2025-02-14T16:58:51.777Z</time>
      </trkpt>
      <trkpt lat="45.34841" lon="4.85228">
        <ele>240.265922</ele>
        <time>2025-02-14T16:59:00.696Z</time>
      </trkpt>
      <trkpt lat="45.34822" lon="4.8522">
        <ele>240.140353</ele>
        <time>2025-02-14T16:59:02.182Z</time>
      </trkpt>
      <trkpt lat="45.34744" lon="4.8519">
        <ele>239.481452</ele>
        <time>2025-02-14T16:59:08.660Z</time>
      </trkpt>
      <trkpt lat="45.34675" lon="4.85157">
        <ele>238.865896</ele>
        <time>2025-02-14T16:59:14.101Z</time>
      </trkpt>
      <trkpt lat="45.34511" lon="4.85086">
        <ele>237.129756</ele>
        <time>2025-02-14T16:59:26.202Z</time>
      </trkpt>
      <trkpt lat="45.34474" lon="4.85069">
        <ele>236.721188</ele>
        <time>2025-02-14T16:59:29.162Z</time>
      </trkpt>
      <trkpt lat="45.34447" lon="4.85066">
        <ele>236.528718</ele>
        <time>2025-02-14T16:59:31.346Z</time>
      </trkpt>
      <trkpt lat="45.344" lon="4.85069">
        <ele>236.292194</ele>
        <time>2025-02-14T16:59:35.475Z</time>
      </trkpt>
      <trkpt lat="45.34323" lon="4.85078">
        <ele>235.914889</ele>
        <time>2025-02-14T16:59:41.972Z</time>
      </trkpt>
      <trkpt lat="45.34293" lon="4.8508">
        <ele>235.765806</ele>
        <time>2025-02-14T16:59:44.267Z</time>
      </trkpt>
      <trkpt lat="45.34233" lon="4.85088">
        <ele>235.031365</ele>
        <time>2025-02-14T16:59:48.541Z</time>
      </trkpt>
      <trkpt lat="45.34109" lon="4.85103">
        <ele>233.369454</ele>
        <time>2025-02-14T16:59:57.020Z</time>
      </trkpt>
      <trkpt lat="45.34031" lon="4.85111">
        <ele>233.105966</ele>
        <time>2025-02-14T17:00:02.777Z</time>
      </trkpt>
      <trkpt lat="45.33922" lon="4.85122">
        <ele>232.821363</ele>
        <time>2025-02-14T17:00:12.826Z</time>
      </trkpt>
      <trkpt lat="45.33891" lon="4.85122">
        <ele>233.004854</ele>
        <time>2025-02-14T17:00:16.341Z</time>
      </trkpt>
      <trkpt lat="45.33879" lon="4.85189">
        <ele>233.291708</ele>
        <time>2025-02-14T17:00:22.012Z</time>
      </trkpt>
      <trkpt lat="45.33857" lon="4.85291">
        <ele>233.735776</ele>
        <time>2025-02-14T17:00:30.559Z</time>
      </trkpt>
      <trkpt lat="45.33854" lon="4.85333">
        <ele>233.732676</ele>
        <time>2025-02-14T17:00:33.171Z</time>
      </trkpt>
      <trkpt lat="45.33859" lon="4.85371">
        <ele>233.274722</ele>
        <time>2025-02-14T17:00:35.207Z</time>
      </trkpt>
      <trkpt lat="45.33871" lon="4.85415">
        <ele>232.718155</ele>
        <time>2025-02-14T17:00:37.460Z</time>
      </trkpt>
      <trkpt lat="45.33922" lon="4.85557">
        <ele>230.855605</ele>
        <time>2025-02-14T17:00:44.619Z</time>
      </trkpt>
      <trkpt lat="45.33931" lon="4.85613">
        <ele>230.255683</ele>
        <time>2025-02-14T17:00:47.260Z</time>
      </trkpt>
      <trkpt lat="45.33931" lon="4.85652">
        <ele>229.848747</ele>
        <time>2025-02-14T17:00:49.083Z</time>
      </trkpt>
      <trkpt lat="45.33928" lon="4.85685">
        <ele>229.505543</ele>
        <time>2025-02-14T17:00:50.652Z</time>
      </trkpt>
      <trkpt lat="45.33925" lon="4.85708">
        <ele>229.261958</ele>
        <time>2025-02-14T17:00:51.805Z</time>
      </trkpt>
      <trkpt lat="45.33912" lon="4.85761">
        <ele>228.673758</ele>
        <time>2025-02-14T17:00:54.746Z</time>
      </trkpt>
      <trkpt lat="45.33903" lon="4.85814">
        <ele>228.100416</ele>
        <time>2025-02-14T17:00:57.736Z</time>
      </trkpt>
      <trkpt lat="45.33896" lon="4.85846">
        <ele>227.714065</ele>
        <time>2025-02-14T17:00:59.627Z</time>
      </trkpt>
      <trkpt lat="45.33895" lon="4.85877">
        <ele>227.36592</ele>
        <time>2025-02-14T17:01:01.218Z</time>
      </trkpt>
      <trkpt lat="45.33897" lon="4.85905">
        <ele>227.049115</ele>
        <time>2025-02-14T17:01:02.610Z</time>
      </trkpt>
      <trkpt lat="45.33892" lon="4.86005">
        <ele>225.910545</ele>
        <time>2025-02-14T17:01:07.468Z</time>
      </trkpt>
      <trkpt lat="45.33883" lon="4.86003">
        <ele>225.764323</ele>
        <time>2025-02-14T17:01:08.058Z</time>
      </trkpt>
      <trkpt lat="45.33837" lon="4.8601">
        <ele>224.732769</ele>
        <time>2025-02-14T17:01:11.022Z</time>
      </trkpt>
      <trkpt lat="45.33737" lon="4.86023">
        <ele>221.576114</ele>
        <time>2025-02-14T17:01:16.958Z</time>
      </trkpt>
      <trkpt lat="45.33648" lon="4.86029">
        <ele>219.117394</ele>
        <time>2025-02-14T17:01:22.393Z</time>
      </trkpt>
      <trkpt lat="45.33508" lon="4.8605">
        <ele>216.388669</ele>
        <time>2025-02-14T17:01:31.909Z</time>
      </trkpt>
      <trkpt lat="45.33399" lon="4.86066">
        <ele>215.140327</ele>
        <time>2025-02-14T17:01:39.732Z</time>
      </trkpt>
      <trkpt lat="45.33359" lon="4.85996">
        <ele>214.48542</ele>
        <time>2025-02-14T17:01:46.372Z</time>
      </trkpt>
      <trkpt lat="45.33314" lon="4.8593">
        <ele>214.077134</ele>
        <time>2025-02-14T17:01:53.571Z</time>
      </trkpt>
      <trkpt lat="45.33196" lon="4.8574">
        <ele>213.296657</ele>
        <time>2025-02-14T17:02:13.835Z</time>
      </trkpt>
      <trkpt lat="45.33141" lon="4.85636">
        <ele>212.922488</ele>
        <time>2025-02-14T17:02:24.160Z</time>
      </trkpt>
      <trkpt lat="45.33115" lon="4.85555">
        <ele>212.525407</ele>
        <time>2025-02-14T17:02:31.216Z</time>
      </trkpt>
      <trkpt lat="45.331" lon="4.85423">
        <ele>211.426478</ele>
        <time>2025-02-14T17:02:41.300Z</time>
      </trkpt>
      <trkpt lat="45.33109" lon="4.85233">
        <ele>207.995076</ele>
        <time>2025-02-14T17:02:53.985Z</time>
      </trkpt>
      <trkpt lat="45.33104" lon="4.8517">
        <ele>206.236858</ele>
        <time>2025-02-14T17:02:57.676Z</time>
      </trkpt>
      <trkpt lat="45.33087" lon="4.85116">
        <ele>204.55833</ele>
        <time>2025-02-14T17:03:01.066Z</time>
      </trkpt>
      <trkpt lat="45.3306" lon="4.84978">
        <ele>199.773261</ele>
        <time>2025-02-14T17:03:08.922Z</time>
      </trkpt>
      <trkpt lat="45.33012" lon="4.84854">
        <ele>194.737443</ele>
        <time>2025-02-14T17:03:17.053Z</time>
      </trkpt>
      <trkpt lat="45.32963" lon="4.84764">
        <ele>192.467337</ele>
        <time>2025-02-14T17:03:24.212Z</time>
      </trkpt>
      <trkpt lat="45.32885" lon="4.84638">
        <ele>189.337689</ele>
        <time>2025-02-14T17:03:35.446Z</time>
      </trkpt>
      <trkpt lat="45.32848" lon="4.8451">
        <ele>186.329436</ele>
        <time>2025-02-14T17:03:43.967Z</time>
      </trkpt>
      <trkpt lat="45.32842" lon="4.84494">
        <ele>185.942022</ele>
        <time>2025-02-14T17:03:45.048Z</time>
      </trkpt>
      <trkpt lat="45.32799" lon="4.8443">
        <ele>184.028642</ele>
        <time>2025-02-14T17:03:50.466Z</time>
      </trkpt>
      <trkpt lat="45.32789" lon="4.84383">
        <ele>183.266884</ele>
        <time>2025-02-14T17:03:53.406Z</time>
      </trkpt>
      <trkpt lat="45.32784" lon="4.84371">
        <ele>183.038773</ele>
        <time>2025-02-14T17:03:54.295Z</time>
      </trkpt>
      <trkpt lat="45.32752" lon="4.84342">
        <ele>182.192789</ele>
        <time>2025-02-14T17:03:57.669Z</time>
      </trkpt>
      <trkpt lat="45.32745" lon="4.84327">
        <ele>181.905623</ele>
        <time>2025-02-14T17:03:58.858Z</time>
      </trkpt>
      <trkpt lat="45.32737" lon="4.84316">
        <ele>181.658568</ele>
        <time>2025-02-14T17:03:59.902Z</time>
      </trkpt>
      <trkpt lat="45.3271" lon="4.84219">
        <ele>180.025483</ele>
        <time>2025-02-14T17:04:07.245Z</time>
      </trkpt>
      <trkpt lat="45.32682" lon="4.84167">
        <ele>179.252011</ele>
        <time>2025-02-14T17:04:12.012Z</time>
      </trkpt>
      <trkpt lat="45.32677" lon="4.84152">
        <ele>179.052723</ele>
        <time>2025-02-14T17:04:13.245Z</time>
      </trkpt>
      <trkpt lat="45.3265" lon="4.84049">
        <ele>177.75456</ele>
        <time>2025-02-14T17:04:20.889Z</time>
      </trkpt>
      <trkpt lat="45.32627" lon="4.83988">
        <ele>176.876549</ele>
        <time>2025-02-14T17:04:25.404Z</time>
      </trkpt>
      <trkpt lat="45.32619" lon="4.83964">
        <ele>176.400724</ele>
        <time>2025-02-14T17:04:27.037Z</time>
      </trkpt>
      <trkpt lat="45.32609" lon="4.83924">
        <ele>175.629009</ele>
        <time>2025-02-14T17:04:29.640Z</time>
      </trkpt>
      <trkpt lat="45.32596" lon="4.83874">
        <ele>174.66374</ele>
        <time>2025-02-14T17:04:32.929Z</time>
      </trkpt>
      <trkpt lat="45.32585" lon="4.83836">
        <ele>173.910227</ele>
        <time>2025-02-14T17:04:35.540Z</time>
      </trkpt>
      <trkpt lat="45.3257" lon="4.83791">
        <ele>173.014187</ele>
        <time>2025-02-14T17:04:38.696Z</time>
      </trkpt>
      <trkpt lat="45.32544" lon="4.83715">
        <ele>171.939637</ele>
        <time>2025-02-14T17:04:44.276Z</time>
      </trkpt>
      <trkpt lat="45.32499" lon="4.8363">
        <ele>170.977759</ele>
        <time>2025-02-14T17:04:52.033Z</time>
      </trkpt>
      <trkpt lat="45.32479" lon="4.83559">
        <ele>170.290145</ele>
        <time>2025-02-14T17:04:57.702Z</time>
      </trkpt>
      <trkpt lat="45.32463" lon="4.83502">
        <ele>169.753378</ele>
        <time>2025-02-14T17:05:02.269Z</time>
      </trkpt>
      <trkpt lat="45.32431" lon="4.83418">
        <ele>168.914076</ele>
        <time>2025-02-14T17:05:09.339Z</time>
      </trkpt>
      <trkpt lat="45.32427" lon="4.83392">
        <ele>168.680408</ele>
        <time>2025-02-14T17:05:11.256Z</time>
      </trkpt>
      <trkpt lat="45.32421" lon="4.8339">
        <ele>168.608913</ele>
        <time>2025-02-14T17:05:11.650Z</time>
      </trkpt>
      <trkpt lat="45.32417" lon="4.83382">
        <ele>168.529784</ele>
        <time>2025-02-14T17:05:12.090Z</time>
      </trkpt>
      <trkpt lat="45.32402" lon="4.83339">
        <ele>168.110626</ele>
        <time>2025-02-14T17:05:14.389Z</time>
      </trkpt>
      <trkpt lat="45.3239" lon="4.83295">
        <ele>167.791627</ele>
        <time>2025-02-14T17:05:16.644Z</time>
      </trkpt>
      <trkpt lat="45.32379" lon="4.83241">
        <ele>167.568855</ele>
        <time>2025-02-14T17:05:19.332Z</time>
      </trkpt>
      <trkpt lat="45.32374" lon="4.83222">
        <ele>167.492637</ele>
        <time>2025-02-14T17:05:20.270Z</time>
      </trkpt>
      <trkpt lat="45.32362" lon="4.83183">
        <ele>167.323802</ele>
        <time>2025-02-14T17:05:22.419Z</time>
      </trkpt>
      <trkpt lat="45.32345" lon="4.83147">
        <ele>167.155023</ele>
        <time>2025-02-14T17:05:24.686Z</time>
      </trkpt>
      <trkpt lat="45.32331" lon="4.83135">
        <ele>167.065612</ele>
        <time>2025-02-14T17:05:25.952Z</time>
      </trkpt>
      <trkpt lat="45.32324" lon="4.83148">
        <ele>167.001529</ele>
        <time>2025-02-14T17:05:26.932Z</time>
      </trkpt>
      <trkpt lat="45.32234" lon="4.83214">
        <ele>169.756511</ele>
        <time>2025-02-14T17:05:41.268Z</time>
      </trkpt>
      <trkpt lat="45.32223" lon="4.83222">
        <ele>170.217888</ele>
        <time>2025-02-14T17:05:43.599Z</time>
      </trkpt>
      <trkpt lat="45.32128" lon="4.83289">
        <ele>174.221534</ele>
        <time>2025-02-14T17:06:07.051Z</time>
      </trkpt>
      <trkpt lat="45.32085" lon="4.83317">
        <ele>176.023547</ele>
        <time>2025-02-14T17:06:17.480Z</time>
      </trkpt>
      <trkpt lat="45.32033" lon="4.83353">
        <ele>178.225731</ele>
        <time>2025-02-14T17:06:28.230Z</time>
      </trkpt>
      <trkpt lat="45.31992" lon="4.83398">
        <ele>180.1848</ele>
        <time>2025-02-14T17:06:35.623Z</time>
      </trkpt>
      <trkpt lat="45.3198" lon="4.83415">
        <ele>180.484364</ele>
        <time>2025-02-14T17:06:37.749Z</time>
      </trkpt>
      <trkpt lat="45.31957" lon="4.83469">
        <ele>180.507967</ele>
        <time>2025-02-14T17:06:42.821Z</time>
      </trkpt>
      <trkpt lat="45.31946" lon="4.83511">
        <ele>180.525344</ele>
        <time>2025-02-14T17:06:46.312Z</time>
      </trkpt>
      <trkpt lat="45.3194" lon="4.83551">
        <ele>180.540666</ele>
        <time>2025-02-14T17:06:48.962Z</time>
      </trkpt>
      <trkpt lat="45.31932" lon="4.83571">
        <ele>180.549289</ele>
        <time>2025-02-14T17:06:50.247Z</time>
      </trkpt>
      <trkpt lat="45.31918" lon="4.83583">
        <ele>180.558647</ele>
        <time>2025-02-14T17:06:51.564Z</time>
      </trkpt>
      <trkpt lat="45.3191" lon="4.83586">
        <ele>180.562728</ele>
        <time>2025-02-14T17:06:52.113Z</time>
      </trkpt>
      <trkpt lat="45.31887" lon="4.83593">
        <ele>180.575381</ele>
        <time>2025-02-14T17:06:54.458Z</time>
      </trkpt>
      <trkpt lat="45.3188" lon="4.83553">
        <ele>178.917181</ele>
        <time>2025-02-14T17:06:57.139Z</time>
      </trkpt>
      <trkpt lat="45.31869" lon="4.83516">
        <ele>177.229994</ele>
        <time>2025-02-14T17:06:59.540Z</time>
      </trkpt>
      <trkpt lat="45.31855" lon="4.83482">
        <ele>175.539529</ele>
        <time>2025-02-14T17:07:01.791Z</time>
      </trkpt>
      <trkpt lat="45.31843" lon="4.83467">
        <ele>174.563701</ele>
        <time>2025-02-14T17:07:03.037Z</time>
      </trkpt>
      <trkpt lat="45.31833" lon="4.8346">
        <ele>173.910006</ele>
        <time>2025-02-14T17:07:03.861Z</time>
      </trkpt>
      <trkpt lat="45.31782" lon="4.83478">
        <ele>170.696384</ele>
        <time>2025-02-14T17:07:07.792Z</time>
      </trkpt>
      <trkpt lat="45.31745" lon="4.83487">
        <ele>168.287588</ele>
        <time>2025-02-14T17:07:10.494Z</time>
      </trkpt>
      <trkpt lat="45.31706" lon="4.83504">
        <ele>165.381954</ele>
        <time>2025-02-14T17:07:13.579Z</time>
      </trkpt>
      <trkpt lat="45.31688" lon="4.83515">
        <ele>164.054902</ele>
        <time>2025-02-14T17:07:14.998Z</time>
      </trkpt>
      <trkpt lat="45.31672" lon="4.83531">
        <ele>162.680384</ele>
        <time>2025-02-14T17:07:16.481Z</time>
      </trkpt>
      <trkpt lat="45.31655" lon="4.83562">
        <ele>160.746846</ele>
        <time>2025-02-14T17:07:18.623Z</time>
      </trkpt>
      <trkpt lat="45.31641" lon="4.83584">
        <ele>159.296399</ele>
        <time>2025-02-14T17:07:20.282Z</time>
      </trkpt>
      <trkpt lat="45.31628" lon="4.83597">
        <ele>158.208689</ele>
        <time>2025-02-14T17:07:21.573Z</time>
      </trkpt>
      <trkpt lat="45.31615" lon="4.83605">
        <ele>157.234615</ele>
        <time>2025-02-14T17:07:22.785Z</time>
      </trkpt>
      <trkpt lat="45.31559" lon="4.8363">
        <ele>156.474972</ele>
        <time>2025-02-14T17:07:28.509Z</time>
      </trkpt>
      <trkpt lat="45.31543" lon="4.83641">
        <ele>156.271692</ele>
        <time>2025-02-14T17:07:30.253Z</time>
      </trkpt>
      <trkpt lat="45.31528" lon="4.83657">
        <ele>156.052299</ele>
        <time>2025-02-14T17:07:32.274Z</time>
      </trkpt>
      <trkpt lat="45.3151" lon="4.8369">
        <ele>155.714747</ele>
        <time>2025-02-14T17:07:35.604Z</time>
      </trkpt>
      <trkpt lat="45.31502" lon="4.83713">
        <ele>155.501493</ele>
        <time>2025-02-14T17:07:37.766Z</time>
      </trkpt>
      <trkpt lat="45.31493" lon="4.8382">
        <ele>155.46239</ele>
        <time>2025-02-14T17:07:47.227Z</time>
      </trkpt>
      <trkpt lat="45.31479" lon="4.8384">
        <ele>155.67412</ele>
        <time>2025-02-14T17:07:49.753Z</time>
      </trkpt>
      <trkpt lat="45.31456" lon="4.83864">
        <ele>155.987676</ele>
        <time>2025-02-14T17:07:53.529Z</time>
      </trkpt>
      <trkpt lat="45.31406" lon="4.83931">
        <ele>156.732543</ele>
        <time>2025-02-14T17:08:03.289Z</time>
      </trkpt>
      <trkpt lat="45.31382" lon="4.83963">
        <ele>157.485826</ele>
        <time>2025-02-14T17:08:09.042Z</time>
      </trkpt>
      <trkpt lat="45.31377" lon="4.83967">
        <ele>157.893106</ele>
        <time>2025-02-14T17:08:10.198Z</time>
      </trkpt>
      <trkpt lat="45.31358" lon="4.83982">
        <ele>159.307495</ele>
        <time>2025-02-14T17:08:14.532Z</time>
      </trkpt>
      <trkpt lat="45.31303" lon="4.83977">
        <ele>163.039868</ele>
        <time>2025-02-14T17:08:28.787Z</time>
      </trkpt>
      <trkpt lat="45.31232" lon="4.83955">
        <ele>167.921214</ele>
        <time>2025-02-14T17:08:53.680Z</time>
      </trkpt>
      <trkpt lat="45.31189" lon="4.83944">
        <ele>170.866622</ele>
        <time>2025-02-14T17:09:09.518Z</time>
      </trkpt>
      <trkpt lat="45.31159" lon="4.83946">
        <ele>172.951288</ele>
        <time>2025-02-14T17:09:20.101Z</time>
      </trkpt>
      <trkpt lat="45.31143" lon="4.83951">
        <ele>174.074071</ele>
        <time>2025-02-14T17:09:25.503Z</time>
      </trkpt>
      <trkpt lat="45.3111" lon="4.83969">
        <ele>176.471113</ele>
        <time>2025-02-14T17:09:36.340Z</time>
      </trkpt>
      <trkpt lat="45.311" lon="4.83977">
        <ele>177.228424</ele>
        <time>2025-02-14T17:09:39.469Z</time>
      </trkpt>
      <trkpt lat="45.31065" lon="4.84006">
        <ele>180.014351</ele>
        <time>2025-02-14T17:09:48.795Z</time>
      </trkpt>
      <trkpt lat="45.31046" lon="4.84007">
        <ele>181.277706</ele>
        <time>2025-02-14T17:09:52.411Z</time>
      </trkpt>
      <trkpt lat="45.3102" lon="4.84012">
        <ele>181.665421</ele>
        <time>2025-02-14T17:09:57.060Z</time>
      </trkpt>
      <trkpt lat="45.30992" lon="4.84024">
        <ele>182.00484</ele>
        <time>2025-02-14T17:10:01.721Z</time>
      </trkpt>
      <trkpt lat="45.30979" lon="4.83993">
        <ele>182.297462</ele>
        <time>2025-02-14T17:10:05.443Z</time>
      </trkpt>
      <trkpt lat="45.30963" lon="4.83896">
        <ele>183.107071</ele>
        <time>2025-02-14T17:10:14.822Z</time>
      </trkpt>
      <trkpt lat="45.3096" lon="4.83834">
        <ele>183.446584</ele>
        <time>2025-02-14T17:10:19.943Z</time>
      </trkpt>
      <trkpt lat="45.30962" lon="4.83809">
        <ele>183.442226</ele>
        <time>2025-02-14T17:10:22.044Z</time>
      </trkpt>
      <trkpt lat="45.3083" lon="4.83764">
        <ele>183.409414</ele>
        <time>2025-02-14T17:10:38.329Z</time>
      </trkpt>
      <trkpt lat="45.30806" lon="4.83761">
        <ele>183.314505</ele>
        <time>2025-02-14T17:10:41.363Z</time>
      </trkpt>
      <trkpt lat="45.30776" lon="4.83766">
        <ele>183.083219</ele>
        <time>2025-02-14T17:10:45.059Z</time>
      </trkpt>
      <trkpt lat="45.30757" lon="4.83763">
        <ele>182.940852</ele>
        <time>2025-02-14T17:10:47.291Z</time>
      </trkpt>
      <trkpt lat="45.30749" lon="4.83756">
        <ele>182.866544</ele>
        <time>2025-02-14T17:10:48.456Z</time>
      </trkpt>
      <trkpt lat="45.30673" lon="4.83694">
        <ele>182.201004</ele>
        <time>2025-02-14T17:10:58.133Z</time>
      </trkpt>
      <trkpt lat="45.30621" lon="4.83635">
        <ele>179.451417</ele>
        <time>2025-02-14T17:11:04.304Z</time>
      </trkpt>
      <trkpt lat="45.30584" lon="4.83597">
        <ele>176.861744</ele>
        <time>2025-02-14T17:11:07.957Z</time>
      </trkpt>
      <trkpt lat="45.30559" lon="4.83582">
        <ele>175.280014</ele>
        <time>2025-02-14T17:11:10.063Z</time>
      </trkpt>
      <trkpt lat="45.30527" lon="4.83568">
        <ele>173.389337</ele>
        <time>2025-02-14T17:11:12.541Z</time>
      </trkpt>
      <trkpt lat="45.30465" lon="4.83563">
        <ele>169.83758</ele>
        <time>2025-02-14T17:11:17.154Z</time>
      </trkpt>
      <trkpt lat="45.30456" lon="4.83562">
        <ele>169.322319</ele>
        <time>2025-02-14T17:11:17.825Z</time>
      </trkpt>
      <trkpt lat="45.30411" lon="4.83576">
        <ele>166.693573</ele>
        <time>2025-02-14T17:11:21.330Z</time>
      </trkpt>
      <trkpt lat="45.30374" lon="4.83571">
        <ele>164.588333</ele>
        <time>2025-02-14T17:11:24.307Z</time>
      </trkpt>
      <trkpt lat="45.30331" lon="4.83571">
        <ele>162.126006</ele>
        <time>2025-02-14T17:11:28.161Z</time>
      </trkpt>
      <trkpt lat="45.3029" lon="4.83575">
        <ele>161.242452</ele>
        <time>2025-02-14T17:11:32.294Z</time>
      </trkpt>
      <trkpt lat="45.30279" lon="4.83575">
        <ele>161.15394</ele>
        <time>2025-02-14T17:11:33.454Z</time>
      </trkpt>
      <trkpt lat="45.30234" lon="4.83584">
        <ele>160.782359</ele>
        <time>2025-02-14T17:11:38.720Z</time>
      </trkpt>
      <trkpt lat="45.30172" lon="4.8359">
        <ele>160.282927</ele>
        <time>2025-02-14T17:11:45.807Z</time>
      </trkpt>
      <trkpt lat="45.30131" lon="4.83314">
        <ele>158.475783</ele>
        <time>2025-02-14T17:12:07.316Z</time>
      </trkpt>
      <trkpt lat="45.30132" lon="4.83261">
        <ele>157.807998</ele>
        <time>2025-02-14T17:12:10.899Z</time>
      </trkpt>
      <trkpt lat="45.30136" lon="4.83205">
        <ele>156.906192</ele>
        <time>2025-02-14T17:12:14.477Z</time>
      </trkpt>
      <trkpt lat="45.30134" lon="4.83174">
        <ele>156.408686</ele>
        <time>2025-02-14T17:12:16.421Z</time>
      </trkpt>
      <trkpt lat="45.3012" lon="4.83145">
        <ele>155.860667</ele>
        <time>2025-02-14T17:12:18.568Z</time>
      </trkpt>
      <trkpt lat="45.30105" lon="4.83135">
        <ele>155.487567</ele>
        <time>2025-02-14T17:12:20.027Z</time>
      </trkpt>
      <trkpt lat="45.30066" lon="4.83117">
        <ele>154.543955</ele>
        <time>2025-02-14T17:12:23.800Z</time>
      </trkpt>
      <trkpt lat="45.29973" lon="4.83079">
        <ele>153.792135</ele>
        <time>2025-02-14T17:12:33.479Z</time>
      </trkpt>
      <trkpt lat="45.29963" lon="4.83073">
        <ele>153.730655</ele>
        <time>2025-02-14T17:12:34.764Z</time>
      </trkpt>
      <trkpt lat="45.29937" lon="4.83052">
        <ele>153.559623</ele>
        <time>2025-02-14T17:12:38.637Z</time>
      </trkpt>
      <trkpt lat="45.29863" lon="4.82984">
        <ele>153.538486</ele>
        <time>2025-02-14T17:12:50.215Z</time>
      </trkpt>
      <trkpt lat="45.29833" lon="4.82962">
        <ele>153.829289</ele>
        <time>2025-02-14T17:12:54.584Z</time>
      </trkpt>
      <trkpt lat="45.2978" lon="4.82921">
        <ele>154.343316</ele>
        <time>2025-02-14T17:13:03.824Z</time>
      </trkpt>
      <trkpt lat="45.29741" lon="4.8289">
        <ele>154.724325</ele>
        <time>2025-02-14T17:13:10.436Z</time>
      </trkpt>
      <trkpt lat="45.29691" lon="4.82846">
        <ele>154.948936</ele>
        <time>2025-02-14T17:13:18.749Z</time>
      </trkpt>
      <trkpt lat="45.29699" lon="4.82813">
        <ele>155.023745</ele>
        <time>2025-02-14T17:13:22.095Z</time>
      </trkpt>
      <trkpt lat="45.29698" lon="4.82787">
        <ele>155.079486</ele>
        <time>2025-02-14T17:13:24.640Z</time>
      </trkpt>
      <trkpt lat="45.29585" lon="4.82244">
        <ele>154.319065</ele>
        <time>2025-02-14T17:14:10.590Z</time>
      </trkpt>
      <trkpt lat="45.29524" lon="4.81951">
        <ele>153.420595</ele>
        <time>2025-02-14T17:14:34.350Z</time>
      </trkpt>
      <trkpt lat="45.29509" lon="4.81897">
        <ele>153.453826</ele>
        <time>2025-02-14T17:14:39.238Z</time>
      </trkpt>
      <trkpt lat="45.29501" lon="4.81883">
        <ele>153.488028</ele>
        <time>2025-02-14T17:14:40.747Z</time>
      </trkpt>
      <trkpt lat="45.29497" lon="4.81853">
        <ele>153.548795</ele>
        <time>2025-02-14T17:14:43.458Z</time>
      </trkpt>
      <trkpt lat="45.29475" lon="4.81783">
        <ele>153.700297</ele>
        <time>2025-02-14T17:14:50.420Z</time>
      </trkpt>
      <trkpt lat="45.29442" lon="4.81712">
        <ele>153.869407</ele>
        <time>2025-02-14T17:14:58.703Z</time>
      </trkpt>
      <trkpt lat="45.29417" lon="4.81658">
        <ele>153.92351</ele>
        <time>2025-02-14T17:15:04.814Z</time>
      </trkpt>
      <trkpt lat="45.29396" lon="4.81623">
        <ele>153.958198</ele>
        <time>2025-02-14T17:15:09.081Z</time>
      </trkpt>
      <trkpt lat="45.29319" lon="4.81487">
        <ele>153.858379</ele>
        <time>2025-02-14T17:15:23.713Z</time>
      </trkpt>
      <trkpt lat="45.29284" lon="4.81422">
        <ele>153.134836</ele>
        <time>2025-02-14T17:15:29.763Z</time>
      </trkpt>
      <trkpt lat="45.29272" lon="4.81408">
        <ele>152.945208</ele>
        <time>2025-02-14T17:15:31.296Z</time>
      </trkpt>
      <trkpt lat="45.29244" lon="4.81394">
        <ele>152.568541</ele>
        <time>2025-02-14T17:15:34.188Z</time>
      </trkpt>
      <trkpt lat="45.29224" lon="4.8139">
        <ele>152.316377</ele>
        <time>2025-02-14T17:15:36.052Z</time>
      </trkpt>
      <trkpt lat="45.29217" lon="4.81372">
        <ele>152.134936</ele>
        <time>2025-02-14T17:15:37.389Z</time>
      </trkpt>
      <trkpt lat="45.29175" lon="4.81384">
        <ele>151.838129</ele>
        <time>2025-02-14T17:15:40.346Z</time>
      </trkpt>
      <trkpt lat="45.29171" lon="4.81385">
        <ele>151.840104</ele>
        <time>2025-02-14T17:15:40.622Z</time>
      </trkpt>
      <trkpt lat="45.29136" lon="4.81394">
        <ele>151.858002</ele>
        <time>2025-02-14T17:15:43.180Z</time>
      </trkpt>
      <trkpt lat="45.29123" lon="4.81397">
        <ele>151.864656</ele>
        <time>2025-02-14T17:15:44.176Z</time>
      </trkpt>
      <trkpt lat="45.29107" lon="4.81399">
        <ele>151.873032</ele>
        <time>2025-02-14T17:15:45.533Z</time>
      </trkpt>
      <trkpt lat="45.29082" lon="4.81409">
        <ele>151.885993</ele>
        <time>2025-02-14T17:15:47.916Z</time>
      </trkpt>
      <trkpt lat="45.29077" lon="4.81414">
        <ele>151.88945</ele>
        <time>2025-02-14T17:15:48.647Z</time>
      </trkpt>
      <trkpt lat="45.29056" lon="4.81423">
        <ele>151.900261</ele>
        <time>2025-02-14T17:15:51.027Z</time>
      </trkpt>
      <trkpt lat="45.29037" lon="4.81429">
        <ele>151.91014</ele>
        <time>2025-02-14T17:15:53.495Z</time>
      </trkpt>
      <trkpt lat="45.28983" lon="4.81449">
        <ele>151.562949</ele>
        <time>2025-02-14T17:16:01.847Z</time>
      </trkpt>
      <trkpt lat="45.2891" lon="4.81492">
        <ele>150.793539</ele>
        <time>2025-02-14T17:16:10.163Z</time>
      </trkpt>
      <trkpt lat="45.28906" lon="4.81476">
        <ele>150.679882</ele>
        <time>2025-02-14T17:16:11.300Z</time>
      </trkpt>
      <trkpt lat="45.28904" lon="4.81453">
        <ele>150.518716</ele>
        <time>2025-02-14T17:16:12.756Z</time>
      </trkpt>
      <trkpt lat="45.28914" lon="4.81397">
        <ele>149.924686</ele>
        <time>2025-02-14T17:16:15.989Z</time>
      </trkpt>
      <trkpt lat="45.28916" lon="4.81384">
        <ele>149.413118</ele>
        <time>2025-02-14T17:16:16.739Z</time>
      </trkpt>
      <trkpt lat="45.28915" lon="4.8135">
        <ele>148.134544</ele>
        <time>2025-02-14T17:16:18.585Z</time>
      </trkpt>
      <trkpt lat="45.28914" lon="4.81344">
        <ele>147.905318</ele>
        <time>2025-02-14T17:16:18.915Z</time>
      </trkpt>
      <trkpt lat="45.28906" lon="4.81306">
        <ele>146.382329</ele>
        <time>2025-02-14T17:16:21.085Z</time>
      </trkpt>
      <trkpt lat="45.28892" lon="4.8127">
        <ele>144.851067</ele>
        <time>2025-02-14T17:16:23.282Z</time>
      </trkpt>
      <trkpt lat="45.28881" lon="4.81252">
        <ele>143.943552</ele>
        <time>2025-02-14T17:16:24.595Z</time>
      </trkpt>
      <trkpt lat="45.28838" lon="4.81213">
        <ele>141.226713</ele>
        <time>2025-02-14T17:16:28.600Z</time>
      </trkpt>
      <trkpt lat="45.28721" lon="4.81168">
        <ele>139.073875</ele>
        <time>2025-02-14T17:16:40.689Z</time>
      </trkpt>
      <trkpt lat="45.28603" lon="4.81139">
        <ele>137.880625</ele>
        <time>2025-02-14T17:16:54.912Z</time>
      </trkpt>
      <trkpt lat="45.28547" lon="4.81133">
        <ele>137.587251</ele>
        <time>2025-02-14T17:17:01.190Z</time>
      </trkpt>
      <trkpt lat="45.28428" lon="4.8114">
        <ele>136.469012</ele>
        <time>2025-02-14T17:17:14.034Z</time>
      </trkpt>
      <trkpt lat="45.28333" lon="4.81153">
        <ele>134.871825</ele>
        <time>2025-02-14T17:17:22.909Z</time>
      </trkpt>
      <trkpt lat="45.28363" lon="4.81128">
        <ele>134.299229</ele>
        <time>2025-02-14T17:17:26.126Z</time>
      </trkpt>
      <trkpt lat="45.28386" lon="4.81119">
        <ele>134.16076</ele>
        <time>2025-02-14T17:17:28.511Z</time>
      </trkpt>
      <trkpt lat="45.28405" lon="4.81107">
        <ele>134.123478</ele>
        <time>2025-02-14T17:17:30.453Z</time>
      </trkpt>
      <trkpt lat="45.28267" lon="4.81124">
        <ele>133.867398</ele>
        <time>2025-02-14T17:17:43.507Z</time>
      </trkpt>
      <trkpt lat="45.28209" lon="4.81136">
        <ele>133.966946</ele>
        <time>2025-02-14T17:17:50.576Z</time>
      </trkpt>
      <trkpt lat="45.28176" lon="4.81137">
        <ele>134.030508</ele>
        <time>2025-02-14T17:17:53.970Z</time>
      </trkpt>
      <trkpt lat="45.2808" lon="4.81153">
        <ele>134.174028</ele>
        <time>2025-02-14T17:18:01.954Z</time>
      </trkpt>
      <trkpt lat="45.28045" lon="4.81161">
        <ele>133.968623</ele>
        <time>2025-02-14T17:18:04.535Z</time>
      </trkpt>
      <trkpt lat="45.2801" lon="4.81164">
        <ele>133.75625</ele>
        <time>2025-02-14T17:18:07.228Z</time>
      </trkpt>
      <trkpt lat="45.27994" lon="4.8117">
        <ele>133.659323</ele>
        <time>2025-02-14T17:18:08.477Z</time>
      </trkpt>
      <trkpt lat="45.27971" lon="4.81172">
        <ele>133.523727</ele>
        <time>2025-02-14T17:18:10.245Z</time>
      </trkpt>
      <trkpt lat="45.27936" lon="4.81185">
        <ele>133.306968</ele>
        <time>2025-02-14T17:18:13.141Z</time>
      </trkpt>
      <trkpt lat="45.27869" lon="4.8118">
        <ele>132.999321</ele>
        <time>2025-02-14T17:18:18.617Z</time>
      </trkpt>
      <trkpt lat="45.27799" lon="4.81181">
        <ele>132.73988</ele>
        <time>2025-02-14T17:18:24.403Z</time>
      </trkpt>
      <trkpt lat="45.27755" lon="4.81175">
        <ele>132.574564</ele>
        <time>2025-02-14T17:18:27.972Z</time>
      </trkpt>
      <trkpt lat="45.27746" lon="4.81175">
        <ele>132.540835</ele>
        <time>2025-02-14T17:18:28.708Z</time>
      </trkpt>
      <trkpt lat="45.27724" lon="4.81183">
        <ele>132.47889</ele>
        <time>2025-02-14T17:18:30.507Z</time>
      </trkpt>
      <trkpt lat="45.27695" lon="4.81178">
        <ele>132.512317</ele>
        <time>2025-02-14T17:18:32.930Z</time>
      </trkpt>
      <trkpt lat="45.27659" lon="4.81178">
        <ele>132.552438</ele>
        <time>2025-02-14T17:18:35.864Z</time>
      </trkpt>
      <trkpt lat="45.27556" lon="4.81176">
        <ele>132.668748</ele>
        <time>2025-02-14T17:18:45.665Z</time>
      </trkpt>
      <trkpt lat="45.27537" lon="4.81179">
        <ele>132.723089</ele>
        <time>2025-02-14T17:18:47.775Z</time>
      </trkpt>
      <trkpt lat="45.27518" lon="4.81173">
        <ele>132.797807</ele>
        <time>2025-02-14T17:18:49.984Z</time>
      </trkpt>
      <trkpt lat="45.27484" lon="4.8117">
        <ele>132.928332</ele>
        <time>2025-02-14T17:18:53.831Z</time>
      </trkpt>
      <trkpt lat="45.27476" lon="4.81172">
        <ele>132.960176</ele>
        <time>2025-02-14T17:18:54.772Z</time>
      </trkpt>
      <trkpt lat="45.27409" lon="4.81171">
        <ele>133.219657</ele>
        <time>2025-02-14T17:19:01.699Z</time>
      </trkpt>
      <trkpt lat="45.27362" lon="4.81174">
        <ele>133.290916</ele>
        <time>2025-02-14T17:19:05.654Z</time>
      </trkpt>
      <trkpt lat="45.27256" lon="4.81184">
        <ele>132.269508</ele>
        <time>2025-02-14T17:19:13.221Z</time>
      </trkpt>
      <trkpt lat="45.2719" lon="4.81188">
        <ele>131.626604</ele>
        <time>2025-02-14T17:19:17.991Z</time>
      </trkpt>
      <trkpt lat="45.27175" lon="4.81186">
        <ele>131.534029</ele>
        <time>2025-02-14T17:19:19.111Z</time>
      </trkpt>
      <trkpt lat="45.27172" lon="4.81191">
        <ele>131.506365</ele>
        <time>2025-02-14T17:19:19.458Z</time>
      </trkpt>
      <trkpt lat="45.27143" lon="4.81188">
        <ele>131.329726</ele>
        <time>2025-02-14T17:19:21.673Z</time>
      </trkpt>
      <trkpt lat="45.27057" lon="4.81198">
        <ele>130.798698</ele>
        <time>2025-02-14T17:19:28.546Z</time>
      </trkpt>
      <trkpt lat="45.2701" lon="4.81199">
        <ele>130.514614</ele>
        <time>2025-02-14T17:19:32.368Z</time>
      </trkpt>
      <trkpt lat="45.26978" lon="4.81193">
        <ele>130.401752</ele>
        <time>2025-02-14T17:19:34.992Z</time>
      </trkpt>
      <trkpt lat="45.26971" lon="4.81196">
        <ele>130.379312</ele>
        <time>2025-02-14T17:19:35.504Z</time>
      </trkpt>
      <trkpt lat="45.26968" lon="4.81201">
        <ele>130.362922</ele>
        <time>2025-02-14T17:19:35.892Z</time>
      </trkpt>
      <trkpt lat="45.26955" lon="4.81197">
        <ele>130.317046</ele>
        <time>2025-02-14T17:19:36.937Z</time>
      </trkpt>
      <trkpt lat="45.26927" lon="4.81196">
        <ele>130.218221</ele>
        <time>2025-02-14T17:19:39.183Z</time>
      </trkpt>
      <trkpt lat="45.26884" lon="4.812">
        <ele>130.069222</ele>
        <time>2025-02-14T17:19:42.572Z</time>
      </trkpt>
      <trkpt lat="45.26783" lon="4.81218">
        <ele>130.163051</ele>
        <time>2025-02-14T17:19:51.599Z</time>
      </trkpt>
      <trkpt lat="45.2673" lon="4.81229">
        <ele>130.422944</ele>
        <time>2025-02-14T17:19:57.179Z</time>
      </trkpt>
      <trkpt lat="45.26654" lon="4.81268">
        <ele>130.790981</ele>
        <time>2025-02-14T17:20:06.064Z</time>
      </trkpt>
      <trkpt lat="45.26636" lon="4.81273">
        <ele>130.815009</ele>
        <time>2025-02-14T17:20:07.997Z</time>
      </trkpt>
      <trkpt lat="45.26628" lon="4.81273">
        <ele>130.825829</ele>
        <time>2025-02-14T17:20:08.841Z</time>
      </trkpt>
      <trkpt lat="45.26604" lon="4.81271">
        <ele>130.858109</ele>
        <time>2025-02-14T17:20:11.316Z</time>
      </trkpt>
      <trkpt lat="45.26582" lon="4.81262">
        <ele>130.888969</ele>
        <time>2025-02-14T17:20:13.522Z</time>
      </trkpt>
      <trkpt lat="45.26541" lon="4.81241">
        <ele>130.946296</ele>
        <time>2025-02-14T17:20:17.242Z</time>
      </trkpt>
      <trkpt lat="45.26507" lon="4.81234">
        <ele>130.992236</ele>
        <time>2025-02-14T17:20:20.036Z</time>
      </trkpt>
      <trkpt lat="45.26421" lon="4.81222">
        <ele>130.935353</ele>
        <time>2025-02-14T17:20:27.123Z</time>
      </trkpt>
      <trkpt lat="45.26339" lon="4.81226">
        <ele>130.827863</ele>
        <time>2025-02-14T17:20:34.308Z</time>
      </trkpt>
      <trkpt lat="45.26228" lon="4.8121">
        <ele>130.953357</ele>
        <time>2025-02-14T17:20:44.694Z</time>
      </trkpt>
      <trkpt lat="45.2619" lon="4.81196">
        <ele>131.035364</ele>
        <time>2025-02-14T17:20:48.403Z</time>
      </trkpt>
      <trkpt lat="45.26144" lon="4.81184">
        <ele>131.133287</ele>
        <time>2025-02-14T17:20:52.928Z</time>
      </trkpt>
      <trkpt lat="45.26038" lon="4.81154">
        <ele>131.133183</ele>
        <time>2025-02-14T17:21:02.960Z</time>
      </trkpt>
      <trkpt lat="45.25981" lon="4.81122">
        <ele>131.112987</ele>
        <time>2025-02-14T17:21:08.188Z</time>
      </trkpt>
      <trkpt lat="45.25891" lon="4.81077">
        <ele>130.746159</ele>
        <time>2025-02-14T17:21:15.780Z</time>
      </trkpt>
      <trkpt lat="45.25847" lon="4.81061">
        <ele>130.511985</ele>
        <time>2025-02-14T17:21:19.374Z</time>
      </trkpt>
      <trkpt lat="45.25807" lon="4.81043">
        <ele>130.295193</ele>
        <time>2025-02-14T17:21:22.683Z</time>
      </trkpt>
      <trkpt lat="45.25758" lon="4.81027">
        <ele>130.171013</ele>
        <time>2025-02-14T17:21:26.632Z</time>
      </trkpt>
      <trkpt lat="45.25705" lon="4.80994">
        <ele>130.147044</ele>
        <time>2025-02-14T17:21:31.401Z</time>
      </trkpt>
      <trkpt lat="45.25665" lon="4.80974">
        <ele>130.12953</ele>
        <time>2025-02-14T17:21:35.129Z</time>
      </trkpt>
      <trkpt lat="45.25508" lon="4.80912">
        <ele>131.05369</ele>
        <time>2025-02-14T17:21:51.836Z</time>
      </trkpt>
      <trkpt lat="45.25482" lon="4.80905">
        <ele>131.27961</ele>
        <time>2025-02-14T17:21:54.829Z</time>
      </trkpt>
      <trkpt lat="45.25442" lon="4.80901">
        <ele>131.618981</ele>
        <time>2025-02-14T17:21:59.527Z</time>
      </trkpt>
      <trkpt lat="45.25434" lon="4.809">
        <ele>131.75129</ele>
        <time>2025-02-14T17:22:00.552Z</time>
      </trkpt>
      <trkpt lat="45.25431" lon="4.809">
        <ele>131.810115</ele>
        <time>2025-02-14T17:22:00.959Z</time>
      </trkpt>
      <trkpt lat="45.2541" lon="4.80898">
        <ele>132.19326</ele>
        <time>2025-02-14T17:22:03.577Z</time>
      </trkpt>
      <trkpt lat="45.25381" lon="4.80888">
        <ele>132.740407</ele>
        <time>2025-02-14T17:22:07.531Z</time>
      </trkpt>
      <trkpt lat="45.25372" lon="4.8089">
        <ele>132.907701</ele>
        <time>2025-02-14T17:22:08.806Z</time>
      </trkpt>
      <trkpt lat="45.25365" lon="4.809">
        <ele>133.084605</ele>
        <time>2025-02-14T17:22:10.161Z</time>
      </trkpt>
      <trkpt lat="45.25357" lon="4.80919">
        <ele>133.374562</ele>
        <time>2025-02-14T17:22:12.425Z</time>
      </trkpt>
      <trkpt lat="45.25349" lon="4.8093">
        <ele>133.577817</ele>
        <time>2025-02-14T17:22:14.013Z</time>
      </trkpt>
      <trkpt lat="45.25331" lon="4.80945">
        <ele>133.967785</ele>
        <time>2025-02-14T17:22:17.028Z</time>
      </trkpt>
      <trkpt lat="45.25317" lon="4.80952">
        <ele>134.241246</ele>
        <time>2025-02-14T17:22:19.124Z</time>
      </trkpt>
      <trkpt lat="45.25274" lon="4.80964">
        <ele>134.969533</ele>
        <time>2025-02-14T17:22:25.040Z</time>
      </trkpt>
      <trkpt lat="45.25255" lon="4.80965">
        <ele>135.077752</ele>
        <time>2025-02-14T17:22:27.572Z</time>
      </trkpt>
      <trkpt lat="45.25228" lon="4.80967">
        <ele>135.227791</ele>
        <time>2025-02-14T17:22:30.827Z</time>
      </trkpt>
      <trkpt lat="45.25221" lon="4.80971">
        <ele>135.266374</ele>
        <time>2025-02-14T17:22:31.614Z</time>
      </trkpt>
      <trkpt lat="45.25216" lon="4.8098">
        <ele>135.313474</ele>
        <time>2025-02-14T17:22:32.531Z</time>
      </trkpt>
      <trkpt lat="45.25214" lon="4.8099">
        <ele>135.357561</ele>
        <time>2025-02-14T17:22:33.354Z</time>
      </trkpt>
      <trkpt lat="45.25212" lon="4.81038">
        <ele>135.546502</ele>
        <time>2025-02-14T17:22:36.614Z</time>
      </trkpt>
      <trkpt lat="45.25206" lon="4.81055">
        <ele>135.619154</ele>
        <time>2025-02-14T17:22:37.776Z</time>
      </trkpt>
      <trkpt lat="45.25195" lon="4.8107">
        <ele>135.703035</ele>
        <time>2025-02-14T17:22:39.053Z</time>
      </trkpt>
      <trkpt lat="45.25165" lon="4.81097">
        <ele>135.901796</ele>
        <time>2025-02-14T17:22:41.967Z</time>
      </trkpt>
      <trkpt lat="45.25153" lon="4.81112">
        <ele>135.934593</ele>
        <time>2025-02-14T17:22:43.227Z</time>
      </trkpt>
      <trkpt lat="45.25076" lon="4.81047">
        <ele>135.843136</ele>
        <time>2025-02-14T17:22:50.497Z</time>
      </trkpt>
      <trkpt lat="45.24982" lon="4.80977">
        <ele>135.85027</ele>
        <time>2025-02-14T17:23:00.398Z</time>
      </trkpt>
      <trkpt lat="45.24966" lon="4.80957">
        <ele>135.930353</ele>
        <time>2025-02-14T17:23:02.427Z</time>
      </trkpt>
      <trkpt lat="45.24871" lon="4.80893">
        <ele>136.332029</ele>
        <time>2025-02-14T17:23:12.833Z</time>
      </trkpt>
      <trkpt lat="45.24579" lon="4.80676">
        <ele>138.11666</ele>
        <time>2025-02-14T17:23:46.079Z</time>
      </trkpt>
      <trkpt lat="45.24557" lon="4.80662">
        <ele>138.277529</ele>
        <time>2025-02-14T17:23:48.844Z</time>
      </trkpt>
      <trkpt lat="45.24479" lon="4.80638">
        <ele>138.488099</ele>
        <time>2025-02-14T17:23:57.844Z</time>
      </trkpt>
      <trkpt lat="45.24455" lon="4.80631">
        <ele>138.476353</ele>
        <time>2025-02-14T17:24:00.269Z</time>
      </trkpt>
      <trkpt lat="45.24422" lon="4.80622">
        <ele>138.460592</ele>
        <time>2025-02-14T17:24:03.113Z</time>
      </trkpt>
      <trkpt lat="45.24404" lon="4.80616">
        <ele>138.451894</ele>
        <time>2025-02-14T17:24:04.620Z</time>
      </trkpt>
      <trkpt lat="45.24333" lon="4.80594">
        <ele>138.34363</ele>
        <time>2025-02-14T17:24:10.148Z</time>
      </trkpt>
      <trkpt lat="45.24327" lon="4.80592">
        <ele>138.308494</ele>
        <time>2025-02-14T17:24:10.597Z</time>
      </trkpt>
      <trkpt lat="45.24319" lon="4.8059">
        <ele>138.260641</ele>
        <time>2025-02-14T17:24:11.195Z</time>
      </trkpt>
      <trkpt lat="45.24295" lon="4.80583">
        <ele>138.121558</ele>
        <time>2025-02-14T17:24:12.961Z</time>
      </trkpt>
      <trkpt lat="45.24277" lon="4.80577">
        <ele>138.014488</ele>
        <time>2025-02-14T17:24:14.341Z</time>
      </trkpt>
      <trkpt lat="45.24213" lon="4.80556">
        <ele>137.644695</ele>
        <time>2025-02-14T17:24:19.720Z</time>
      </trkpt>
      <trkpt lat="45.24149" lon="4.80551">
        <ele>137.065903</ele>
        <time>2025-02-14T17:24:25.174Z</time>
      </trkpt>
      <trkpt lat="45.24121" lon="4.80551">
        <ele>136.646565</ele>
        <time>2025-02-14T17:24:27.277Z</time>
      </trkpt>
      <trkpt lat="45.24083" lon="4.8055">
        <ele>136.059834</ele>
        <time>2025-02-14T17:24:30.060Z</time>
      </trkpt>
      <trkpt lat="45.24061" lon="4.8055">
        <ele>135.728074</ele>
        <time>2025-02-14T17:24:31.545Z</time>
      </trkpt>
      <trkpt lat="45.24037" lon="4.80549">
        <ele>135.354848</ele>
        <time>2025-02-14T17:24:33.143Z</time>
      </trkpt>
      <trkpt lat="45.23985" lon="4.8055">
        <ele>134.526327</ele>
        <time>2025-02-14T17:24:36.385Z</time>
      </trkpt>
      <trkpt lat="45.23975" lon="4.80553">
        <ele>134.318557</ele>
        <time>2025-02-14T17:24:37.005Z</time>
      </trkpt>
      <trkpt lat="45.23954" lon="4.80575">
        <ele>133.779599</ele>
        <time>2025-02-14T17:24:38.635Z</time>
      </trkpt>
      <trkpt lat="45.23917" lon="4.80622">
        <ele>132.768732</ele>
        <time>2025-02-14T17:24:41.773Z</time>
      </trkpt>
      <trkpt lat="45.23913" lon="4.80627">
        <ele>132.667148</ele>
        <time>2025-02-14T17:24:42.097Z</time>
      </trkpt>
      <trkpt lat="45.23904" lon="4.80635">
        <ele>132.435406</ele>
        <time>2025-02-14T17:24:42.830Z</time>
      </trkpt>
      <trkpt lat="45.23885" lon="4.80646">
        <ele>132.014986</ele>
        <time>2025-02-14T17:24:44.186Z</time>
      </trkpt>
      <trkpt lat="45.23853" lon="4.80659">
        <ele>131.333489</ele>
        <time>2025-02-14T17:24:46.458Z</time>
      </trkpt>
      <trkpt lat="45.23849" lon="4.80648">
        <ele>131.155642</ele>
        <time>2025-02-14T17:24:47.076Z</time>
      </trkpt>
      <trkpt lat="45.23839" lon="4.80637">
        <ele>130.935836</ele>
        <time>2025-02-14T17:24:47.991Z</time>
      </trkpt>
      <trkpt lat="45.23749" lon="4.80548">
        <ele>130.216164</ele>
        <time>2025-02-14T17:24:56.747Z</time>
      </trkpt>
      <trkpt lat="45.23702" lon="4.8052">
        <ele>129.881247</ele>
        <time>2025-02-14T17:25:00.728Z</time>
      </trkpt>
      <trkpt lat="45.23617" lon="4.80491">
        <ele>129.641396</ele>
        <time>2025-02-14T17:25:07.584Z</time>
      </trkpt>
      <trkpt lat="45.23322" lon="4.80422">
        <ele>129.53026</ele>
        <time>2025-02-14T17:25:34.614Z</time>
      </trkpt>
      <trkpt lat="45.23291" lon="4.80424">
        <ele>129.5422</ele>
        <time>2025-02-14T17:25:37.476Z</time>
      </trkpt>
      <trkpt lat="45.23262" lon="4.80436">
        <ele>129.553547</ele>
        <time>2025-02-14T17:25:40.158Z</time>
      </trkpt>
      <trkpt lat="45.23124" lon="4.8043">
        <ele>129.555904</ele>
        <time>2025-02-14T17:25:52.512Z</time>
      </trkpt>
      <trkpt lat="45.23081" lon="4.80421">
        <ele>129.497685</ele>
        <time>2025-02-14T17:25:56.292Z</time>
      </trkpt>
      <trkpt lat="45.23064" lon="4.80426">
        <ele>129.474335</ele>
        <time>2025-02-14T17:25:57.809Z</time>
      </trkpt>
      <trkpt lat="45.23024" lon="4.80409">
        <ele>129.419132</ele>
        <time>2025-02-14T17:26:01.347Z</time>
      </trkpt>
      <trkpt lat="45.22916" lon="4.80404">
        <ele>129.239167</ele>
        <time>2025-02-14T17:26:10.392Z</time>
      </trkpt>
      <trkpt lat="45.22833" lon="4.80413">
        <ele>129.080968</ele>
        <time>2025-02-14T17:26:17.415Z</time>
      </trkpt>
      <trkpt lat="45.22745" lon="4.80441">
        <ele>128.934793</ele>
        <time>2025-02-14T17:26:25.324Z</time>
      </trkpt>
      <trkpt lat="45.22599" lon="4.80498">
        <ele>128.685165</ele>
        <time>2025-02-14T17:26:38.269Z</time>
      </trkpt>
      <trkpt lat="45.22546" lon="4.80531">
        <ele>128.53199</ele>
        <time>2025-02-14T17:26:43.010Z</time>
      </trkpt>
      <trkpt lat="45.22324" lon="4.80649">
        <ele>127.997003</ele>
        <time>2025-02-14T17:27:02.642Z</time>
      </trkpt>
      <trkpt lat="45.22141" lon="4.80734">
        <ele>128.14018</ele>
        <time>2025-02-14T17:27:20.647Z</time>
      </trkpt>
      <trkpt lat="45.22042" lon="4.80783">
        <ele>128.352135</ele>
        <time>2025-02-14T17:27:30.076Z</time>
      </trkpt>
      <trkpt lat="45.22018" lon="4.80788">
        <ele>128.405104</ele>
        <time>2025-02-14T17:27:32.250Z</time>
      </trkpt>
      <trkpt lat="45.21933" lon="4.80816">
        <ele>128.596229</ele>
        <time>2025-02-14T17:27:40.813Z</time>
      </trkpt>
      <trkpt lat="45.21911" lon="4.80829">
        <ele>128.642976</ele>
        <time>2025-02-14T17:27:43.151Z</time>
      </trkpt>
      <trkpt lat="45.21898" lon="4.80845">
        <ele>128.677162</ele>
        <time>2025-02-14T17:27:44.881Z</time>
      </trkpt>
      <trkpt lat="45.21893" lon="4.80846">
        <ele>128.687284</ele>
        <time>2025-02-14T17:27:45.384Z</time>
      </trkpt>
      <trkpt lat="45.21883" lon="4.80844">
        <ele>128.707316</ele>
        <time>2025-02-14T17:27:46.400Z</time>
      </trkpt>
      <trkpt lat="45.21863" lon="4.80843">
        <ele>128.74645</ele>
        <time>2025-02-14T17:27:48.352Z</time>
      </trkpt>
      <trkpt lat="45.21564" lon="4.80914">
        <ele>128.911151</ele>
        <time>2025-02-14T17:28:15.541Z</time>
      </trkpt>
      <trkpt lat="45.21502" lon="4.80923">
        <ele>128.821596</ele>
        <time>2025-02-14T17:28:20.640Z</time>
      </trkpt>
      <trkpt lat="45.21393" lon="4.80955">
        <ele>128.73214</ele>
        <time>2025-02-14T17:28:30.248Z</time>
      </trkpt>
      <trkpt lat="45.21351" lon="4.80968">
        <ele>128.802902</ele>
        <time>2025-02-14T17:28:34.273Z</time>
      </trkpt>
      <trkpt lat="45.21258" lon="4.80988">
        <ele>128.955311</ele>
        <time>2025-02-14T17:28:43.346Z</time>
      </trkpt>
      <trkpt lat="45.21158" lon="4.81026">
        <ele>128.858892</ele>
        <time>2025-02-14T17:28:52.664Z</time>
      </trkpt>
      <trkpt lat="45.20995" lon="4.81106">
        <ele>128.559464</ele>
        <time>2025-02-14T17:29:06.658Z</time>
      </trkpt>
      <trkpt lat="45.20902" lon="4.81161">
        <ele>128.357647</ele>
        <time>2025-02-14T17:29:15.349Z</time>
      </trkpt>
      <trkpt lat="45.20892" lon="4.81173">
        <ele>128.35633</ele>
        <time>2025-02-14T17:29:16.565Z</time>
      </trkpt>
      <trkpt lat="45.20848" lon="4.8122">
        <ele>128.377003</ele>
        <time>2025-02-14T17:29:21.610Z</time>
      </trkpt>
      <trkpt lat="45.20785" lon="4.81257">
        <ele>128.402725</ele>
        <time>2025-02-14T17:29:27.914Z</time>
      </trkpt>
      <trkpt lat="45.2072" lon="4.81282">
        <ele>128.382479</ele>
        <time>2025-02-14T17:29:33.894Z</time>
      </trkpt>
      <trkpt lat="45.20639" lon="4.81328">
        <ele>128.229363</ele>
        <time>2025-02-14T17:29:41.285Z</time>
      </trkpt>
      <trkpt lat="45.20613" lon="4.81351">
        <ele>128.174183</ele>
        <time>2025-02-14T17:29:43.888Z</time>
      </trkpt>
      <trkpt lat="45.2057" lon="4.81358">
        <ele>128.104889</ele>
        <time>2025-02-14T17:29:47.391Z</time>
      </trkpt>
      <trkpt lat="45.20562" lon="4.81385">
        <ele>128.122219</ele>
        <time>2025-02-14T17:29:49.070Z</time>
      </trkpt>
      <trkpt lat="45.20469" lon="4.81391">
        <ele>128.202061</ele>
        <time>2025-02-14T17:29:57.179Z</time>
      </trkpt>
      <trkpt lat="45.20336" lon="4.81392">
        <ele>129.14005</ele>
        <time>2025-02-14T17:30:10.666Z</time>
      </trkpt>
      <trkpt lat="45.20328" lon="4.81389">
        <ele>129.242403</ele>
        <time>2025-02-14T17:30:11.581Z</time>
      </trkpt>
      <trkpt lat="45.20285" lon="4.81371">
        <ele>129.822759</ele>
        <time>2025-02-14T17:30:16.899Z</time>
      </trkpt>
      <trkpt lat="45.20256" lon="4.81348">
        <ele>130.254834</ele>
        <time>2025-02-14T17:30:21.258Z</time>
      </trkpt>
      <trkpt lat="45.20233" lon="4.81339">
        <ele>130.548708</ele>
        <time>2025-02-14T17:30:24.553Z</time>
      </trkpt>
      <trkpt lat="45.20223" lon="4.81332">
        <ele>130.754624</ele>
        <time>2025-02-14T17:30:26.408Z</time>
      </trkpt>
      <trkpt lat="45.2018" lon="4.81294">
        <ele>131.627356</ele>
        <time>2025-02-14T17:30:34.292Z</time>
      </trkpt>
      <trkpt lat="45.20162" lon="4.81269">
        <ele>132.066691</ele>
        <time>2025-02-14T17:30:38.261Z</time>
      </trkpt>
      <trkpt lat="45.20101" lon="4.81185">
        <ele>133.552244</ele>
        <time>2025-02-14T17:30:49.482Z</time>
      </trkpt>
      <trkpt lat="45.20021" lon="4.81024">
        <ele>132.47811</ele>
        <time>2025-02-14T17:30:59.643Z</time>
      </trkpt>
      <trkpt lat="45.19994" lon="4.80975">
        <ele>132.067403</ele>
        <time>2025-02-14T17:31:02.552Z</time>
      </trkpt>
      <trkpt lat="45.19964" lon="4.80929">
        <ele>131.517137</ele>
        <time>2025-02-14T17:31:05.549Z</time>
      </trkpt>
      <trkpt lat="45.19933" lon="4.80889">
        <ele>130.969592</ele>
        <time>2025-02-14T17:31:08.443Z</time>
      </trkpt>
      <trkpt lat="45.19904" lon="4.80861">
        <ele>130.520265</ele>
        <time>2025-02-14T17:31:10.876Z</time>
      </trkpt>
      <trkpt lat="45.1987" lon="4.80814">
        <ele>129.906641</ele>
        <time>2025-02-14T17:31:14.382Z</time>
      </trkpt>
      <trkpt lat="45.19851" lon="4.80799">
        <ele>129.662183</ele>
        <time>2025-02-14T17:31:16.007Z</time>
      </trkpt>
      <trkpt lat="45.19803" lon="4.80785">
        <ele>129.446537</ele>
        <time>2025-02-14T17:31:19.762Z</time>
      </trkpt>
      <trkpt lat="45.19766" lon="4.80785">
        <ele>129.286314</ele>
        <time>2025-02-14T17:31:22.713Z</time>
      </trkpt>
      <trkpt lat="45.19742" lon="4.80782">
        <ele>129.181788</ele>
        <time>2025-02-14T17:31:24.766Z</time>
      </trkpt>
      <trkpt lat="45.1972" lon="4.80772">
        <ele>129.077837</ele>
        <time>2025-02-14T17:31:26.884Z</time>
      </trkpt>
      <trkpt lat="45.19623" lon="4.80763">
        <ele>128.726395</ele>
        <time>2025-02-14T17:31:34.966Z</time>
      </trkpt>
      <trkpt lat="45.19608" lon="4.80763">
        <ele>128.681705</ele>
        <time>2025-02-14T17:31:36.166Z</time>
      </trkpt>
      <trkpt lat="45.19519" lon="4.80767">
        <ele>128.408899</ele>
        <time>2025-02-14T17:31:43.516Z</time>
      </trkpt>
      <trkpt lat="45.19506" lon="4.80767">
        <ele>128.36815</ele>
        <time>2025-02-14T17:31:44.600Z</time>
      </trkpt>
      <trkpt lat="45.19481" lon="4.80755">
        <ele>128.293671</ele>
        <time>2025-02-14T17:31:46.764Z</time>
      </trkpt>
      <trkpt lat="45.19428" lon="4.80764">
        <ele>128.1475</ele>
        <time>2025-02-14T17:31:51.174Z</time>
      </trkpt>
      <trkpt lat="45.1938" lon="4.80781">
        <ele>128.014209</ele>
        <time>2025-02-14T17:31:55.127Z</time>
      </trkpt>
      <trkpt lat="45.19329" lon="4.80802">
        <ele>127.869563</ele>
        <time>2025-02-14T17:31:59.649Z</time>
      </trkpt>
      <trkpt lat="45.19296" lon="4.80825">
        <ele>127.881585</ele>
        <time>2025-02-14T17:32:02.953Z</time>
      </trkpt>
      <trkpt lat="45.19221" lon="4.80878">
        <ele>127.953017</ele>
        <time>2025-02-14T17:32:10.704Z</time>
      </trkpt>
      <trkpt lat="45.18896" lon="4.81101">
        <ele>128.463657</ele>
        <time>2025-02-14T17:32:44.099Z</time>
      </trkpt>
      <trkpt lat="45.18813" lon="4.81152">
        <ele>128.776149</ele>
        <time>2025-02-14T17:32:52.265Z</time>
      </trkpt>
      <trkpt lat="45.18696" lon="4.81215">
        <ele>129.82229</ele>
        <time>2025-02-14T17:33:04.799Z</time>
      </trkpt>
      <trkpt lat="45.18675" lon="4.81227">
        <ele>130.013455</ele>
        <time>2025-02-14T17:33:08.078Z</time>
      </trkpt>
      <trkpt lat="45.18671" lon="4.81234">
        <ele>130.078715</ele>
        <time>2025-02-14T17:33:08.924Z</time>
      </trkpt>
      <trkpt lat="45.18671" lon="4.8124">
        <ele>130.171764</ele>
        <time>2025-02-14T17:33:09.582Z</time>
      </trkpt>
      <trkpt lat="45.18652" lon="4.81249">
        <ele>130.613162</ele>
        <time>2025-02-14T17:33:12.654Z</time>
      </trkpt>
      <trkpt lat="45.18662" lon="4.81284">
        <ele>131.203994</ele>
        <time>2025-02-14T17:33:17.831Z</time>
      </trkpt>
      <trkpt lat="45.18667" lon="4.81299">
        <ele>131.460263</ele>
        <time>2025-02-14T17:33:20.071Z</time>
      </trkpt>
      <trkpt lat="45.18669" lon="4.81333">
        <ele>131.984009</ele>
        <time>2025-02-14T17:33:24.614Z</time>
      </trkpt>
      <trkpt lat="45.18674" lon="4.81345">
        <ele>132.205117</ele>
        <time>2025-02-14T17:33:26.547Z</time>
      </trkpt>
      <trkpt lat="45.18681" lon="4.81353">
        <ele>132.396374</ele>
        <time>2025-02-14T17:33:28.182Z</time>
      </trkpt>
      <trkpt lat="45.18684" lon="4.81357">
        <ele>132.490634</ele>
        <time>2025-02-14T17:33:28.995Z</time>
      </trkpt>
      <trkpt lat="45.18685" lon="4.81367">
        <ele>132.640097</ele>
        <time>2025-02-14T17:33:30.254Z</time>
      </trkpt>
      <trkpt lat="45.18684" lon="4.81377">
        <ele>132.795429</ele>
        <time>2025-02-14T17:33:31.570Z</time>
      </trkpt>
      <trkpt lat="45.18684" lon="4.81398">
        <ele>133.128862</ele>
        <time>2025-02-14T17:33:34.357Z</time>
      </trkpt>
      <trkpt lat="45.18626" lon="4.81396">
        <ele>133.871774</ele>
        <time>2025-02-14T17:33:41.791Z</time>
      </trkpt>
      <trkpt lat="45.18597" lon="4.81394">
        <ele>133.643117</ele>
        <time>2025-02-14T17:33:44.475Z</time>
      </trkpt>
      <trkpt lat="45.18579" lon="4.81393">
        <ele>133.506251</ele>
        <time>2025-02-14T17:33:45.888Z</time>
      </trkpt>
      <trkpt lat="45.18571" lon="4.81393">
        <ele>133.445552</ele>
        <time>2025-02-14T17:33:46.454Z</time>
      </trkpt>
      <trkpt lat="45.18518" lon="4.81392">
        <ele>133.037577</ele>
        <time>2025-02-14T17:33:50.050Z</time>
      </trkpt>
      <trkpt lat="45.18505" lon="4.81395">
        <ele>132.935625</ele>
        <time>2025-02-14T17:33:50.941Z</time>
      </trkpt>
      <trkpt lat="45.18469" lon="4.81394">
        <ele>132.663487</ele>
        <time>2025-02-14T17:33:53.318Z</time>
      </trkpt>
      <trkpt lat="45.18457" lon="4.81388">
        <ele>132.523484</ele>
        <time>2025-02-14T17:33:54.198Z</time>
      </trkpt>
      <trkpt lat="45.18445" lon="4.81381">
        <ele>132.367239</ele>
        <time>2025-02-14T17:33:55.050Z</time>
      </trkpt>
      <trkpt lat="45.18441" lon="4.81368">
        <ele>132.246476</ele>
        <time>2025-02-14T17:33:55.714Z</time>
      </trkpt>
      <trkpt lat="45.18439" lon="4.81362">
        <ele>132.186862</ele>
        <time>2025-02-14T17:33:56.037Z</time>
      </trkpt>
      <trkpt lat="45.18435" lon="4.81347">
        <ele>132.044427</ele>
        <time>2025-02-14T17:33:56.820Z</time>
      </trkpt>
      <trkpt lat="45.18428" lon="4.8131">
        <ele>131.713416</ele>
        <time>2025-02-14T17:33:59.440Z</time>
      </trkpt>
      <trkpt lat="45.18408" lon="4.81205">
        <ele>130.778771</ele>
        <time>2025-02-14T17:34:07.208Z</time>
      </trkpt>
      <trkpt lat="45.18378" lon="4.81048">
        <ele>130.069994</ele>
        <time>2025-02-14T17:34:20.488Z</time>
      </trkpt>
      <trkpt lat="45.18367" lon="4.8098">
        <ele>129.872061</ele>
        <time>2025-02-14T17:34:26.123Z</time>
      </trkpt>
      <trkpt lat="45.18366" lon="4.80944">
        <ele>129.767938</ele>
        <time>2025-02-14T17:34:29.014Z</time>
      </trkpt>
      <trkpt lat="45.18367" lon="4.809">
        <ele>129.595459</ele>
        <time>2025-02-14T17:34:31.380Z</time>
      </trkpt>
      <trkpt lat="45.18372" lon="4.80857">
        <ele>129.338884</ele>
        <time>2025-02-14T17:34:33.712Z</time>
      </trkpt>
      <trkpt lat="45.18373" lon="4.80852">
        <ele>129.303989</ele>
        <time>2025-02-14T17:34:34.016Z</time>
      </trkpt>
      <trkpt lat="45.18369" lon="4.80856">
        <ele>129.261991</ele>
        <time>2025-02-14T17:34:34.561Z</time>
      </trkpt>
      <trkpt lat="45.18364" lon="4.80863">
        <ele>129.201508</ele>
        <time>2025-02-14T17:34:35.334Z</time>
      </trkpt>
      <trkpt lat="45.1835" lon="4.80895">
        <ele>128.978127</ele>
        <time>2025-02-14T17:34:38.201Z</time>
      </trkpt>
      <trkpt lat="45.18341" lon="4.80916">
        <ele>128.838852</ele>
        <time>2025-02-14T17:34:40.030Z</time>
      </trkpt>
      <trkpt lat="45.18324" lon="4.80955">
        <ele>128.564065</ele>
        <time>2025-02-14T17:34:43.536Z</time>
      </trkpt>
      <trkpt lat="45.18309" lon="4.80987">
        <ele>128.340481</ele>
        <time>2025-02-14T17:34:46.251Z</time>
      </trkpt>
      <trkpt lat="45.18299" lon="4.8102">
        <ele>128.110187</ele>
        <time>2025-02-14T17:34:48.844Z</time>
      </trkpt>
      <trkpt lat="45.18297" lon="4.81059">
        <ele>127.81843</ele>
        <time>2025-02-14T17:34:51.632Z</time>
      </trkpt>
      <trkpt lat="45.18303" lon="4.81117">
        <ele>127.371666</ele>
        <time>2025-02-14T17:34:55.925Z</time>
      </trkpt>
      <trkpt lat="45.18202" lon="4.8112">
        <ele>126.283697</ele>
        <time>2025-02-14T17:35:06.183Z</time>
      </trkpt>
      <trkpt lat="45.1815" lon="4.81114">
        <ele>126.139703</ele>
        <time>2025-02-14T17:35:11.928Z</time>
      </trkpt>
      <trkpt lat="45.18099" lon="4.81103">
        <ele>126.028216</ele>
        <time>2025-02-14T17:35:17.905Z</time>
      </trkpt>
      <trkpt lat="45.17993" lon="4.81069">
        <ele>125.911057</ele>
        <time>2025-02-14T17:35:31.583Z</time>
      </trkpt>
      <trkpt lat="45.1792" lon="4.81034">
        <ele>126.058173</ele>
        <time>2025-02-14T17:35:41.476Z</time>
      </trkpt>
      <trkpt lat="45.17439" lon="4.80772">
        <ele>126.753104</ele>
        <time>2025-02-14T17:36:45.654Z</time>
      </trkpt>
      <trkpt lat="45.17429" lon="4.80766">
        <ele>126.761505</ele>
        <time>2025-02-14T17:36:46.943Z</time>
      </trkpt>
      <trkpt lat="45.17406" lon="4.80753">
        <ele>126.781676</ele>
        <time>2025-02-14T17:36:50.027Z</time>
      </trkpt>
      <trkpt lat="45.17381" lon="4.80739">
        <ele>126.802373</ele>
        <time>2025-02-14T17:36:53.248Z</time>
      </trkpt>
      <trkpt lat="45.17366" lon="4.80731">
        <ele>126.815078</ele>
        <time>2025-02-14T17:36:55.237Z</time>
      </trkpt>
      <trkpt lat="45.17262" lon="4.80681">
        <ele>127.181444</ele>
        <time>2025-02-14T17:37:08.679Z</time>
      </trkpt>
      <trkpt lat="45.1721" lon="4.8066">
        <ele>127.395374</ele>
        <time>2025-02-14T17:37:15.845Z</time>
      </trkpt>
      <trkpt lat="45.17157" lon="4.80643">
        <ele>127.810045</ele>
        <time>2025-02-14T17:37:23.244Z</time>
      </trkpt>
      <trkpt lat="45.17031" lon="4.80619">
        <ele>129.734352</ele>
        <time>2025-02-14T17:37:44.016Z</time>
      </trkpt>
      <trkpt lat="45.16991" lon="4.80615">
        <ele>130.387765</ele>
        <time>2025-02-14T17:37:50.304Z</time>
      </trkpt>
      <trkpt lat="45.16975" lon="4.80617">
        <ele>130.726072</ele>
        <time>2025-02-14T17:37:52.548Z</time>
      </trkpt>
      <trkpt lat="45.16961" lon="4.80625">
        <ele>131.059873</ele>
        <time>2025-02-14T17:37:55.083Z</time>
      </trkpt>
      <trkpt lat="45.16946" lon="4.80629">
        <ele>131.409205</ele>
        <time>2025-02-14T17:37:58.058Z</time>
      </trkpt>
      <trkpt lat="45.16918" lon="4.80623">
        <ele>132.024728</ele>
        <time>2025-02-14T17:38:02.960Z</time>
      </trkpt>
      <trkpt lat="45.16895" lon="4.80638">
        <ele>132.574896</ele>
        <time>2025-02-14T17:38:06.970Z</time>
      </trkpt>
      <trkpt lat="45.16879" lon="4.80644">
        <ele>132.93839</ele>
        <time>2025-02-14T17:38:09.431Z</time>
      </trkpt>
      <trkpt lat="45.16877" lon="4.80641">
        <ele>133.003472</ele>
        <time>2025-02-14T17:38:09.970Z</time>
      </trkpt>
      <trkpt lat="45.16878" lon="4.80638">
        <ele>133.054227</ele>
        <time>2025-02-14T17:38:10.411Z</time>
      </trkpt>
      <trkpt lat="45.16905" lon="4.80612">
        <ele>133.766394</ele>
        <time>2025-02-14T17:38:16.326Z</time>
      </trkpt>
      <trkpt lat="45.16907" lon="4.80608">
        <ele>133.850496</ele>
        <time>2025-02-14T17:38:17.033Z</time>
      </trkpt>
      <trkpt lat="45.16905" lon="4.80606">
        <ele>133.893601</ele>
        <time>2025-02-14T17:38:17.382Z</time>
      </trkpt>
      <trkpt lat="45.16867" lon="4.80637">
        <ele>135.131066</ele>
        <time>2025-02-14T17:38:26.240Z</time>
      </trkpt>
      <trkpt lat="45.16849" lon="4.80648">
        <ele>135.739321</ele>
        <time>2025-02-14T17:38:30.426Z</time>
      </trkpt>
      <trkpt lat="45.16842" lon="4.80649">
        <ele>135.962598</ele>
        <time>2025-02-14T17:38:32.212Z</time>
      </trkpt>
      <trkpt lat="45.16805" lon="4.80666">
        <ele>137.156209</ele>
        <time>2025-02-14T17:38:40.194Z</time>
      </trkpt>
      <trkpt lat="45.16797" lon="4.80675">
        <ele>137.483279</ele>
        <time>2025-02-14T17:38:42.174Z</time>
      </trkpt>
      <trkpt lat="45.16787" lon="4.8068">
        <ele>137.800631</ele>
        <time>2025-02-14T17:38:44.155Z</time>
      </trkpt>
      <trkpt lat="45.16761" lon="4.80694">
        <ele>138.654103</ele>
        <time>2025-02-14T17:38:49.672Z</time>
      </trkpt>
      <trkpt lat="45.16741" lon="4.80698">
        <ele>139.284745</ele>
        <time>2025-02-14T17:38:53.962Z</time>
      </trkpt>
      <trkpt lat="45.16649" lon="4.80764">
        <ele>140.278756</ele>
        <time>2025-02-14T17:39:10.591Z</time>
      </trkpt>
      <trkpt lat="45.16637" lon="4.80782">
        <ele>140.38011</ele>
        <time>2025-02-14T17:39:12.840Z</time>
      </trkpt>
      <trkpt lat="45.16617" lon="4.80788">
        <ele>140.501467</ele>
        <time>2025-02-14T17:39:15.411Z</time>
      </trkpt>
      <trkpt lat="45.16408" lon="4.80936">
        <ele>138.545138</ele>
        <time>2025-02-14T17:39:38.907Z</time>
      </trkpt>
      <trkpt lat="45.16301" lon="4.80998">
        <ele>137.557213</ele>
        <time>2025-02-14T17:39:50.786Z</time>
      </trkpt>
      <trkpt lat="45.16283" lon="4.81021">
        <ele>137.35774</ele>
        <time>2025-02-14T17:39:53.429Z</time>
      </trkpt>
      <trkpt lat="45.16238" lon="4.81061">
        <ele>136.943508</ele>
        <time>2025-02-14T17:39:59.655Z</time>
      </trkpt>
      <trkpt lat="45.16216" lon="4.81094">
        <ele>136.782863</ele>
        <time>2025-02-14T17:40:03.235Z</time>
      </trkpt>
      <trkpt lat="45.16194" lon="4.81108">
        <ele>136.661213</ele>
        <time>2025-02-14T17:40:05.997Z</time>
      </trkpt>
      <trkpt lat="45.16179" lon="4.81111">
        <ele>136.580899</ele>
        <time>2025-02-14T17:40:07.829Z</time>
      </trkpt>
      <trkpt lat="45.16141" lon="4.81162">
        <ele>136.315269</ele>
        <time>2025-02-14T17:40:12.207Z</time>
      </trkpt>
      <trkpt lat="45.16085" lon="4.81253">
        <ele>135.355743</ele>
        <time>2025-02-14T17:40:18.457Z</time>
      </trkpt>
      <trkpt lat="45.16046" lon="4.81326">
        <ele>134.19385</ele>
        <time>2025-02-14T17:40:22.870Z</time>
      </trkpt>
      <trkpt lat="45.16036" lon="4.81376">
        <ele>133.540612</ele>
        <time>2025-02-14T17:40:25.225Z</time>
      </trkpt>
      <trkpt lat="45.16031" lon="4.81403">
        <ele>133.191627</ele>
        <time>2025-02-14T17:40:26.461Z</time>
      </trkpt>
      <trkpt lat="45.16029" lon="4.81415">
        <ele>133.032549</ele>
        <time>2025-02-14T17:40:27.022Z</time>
      </trkpt>
      <trkpt lat="45.15986" lon="4.81521">
        <ele>131.033221</ele>
        <time>2025-02-14T17:40:32.433Z</time>
      </trkpt>
      <trkpt lat="45.15942" lon="4.81635">
        <ele>128.869294</ele>
        <time>2025-02-14T17:40:38.302Z</time>
      </trkpt>
      <trkpt lat="45.15922" lon="4.81691">
        <ele>128.31936</ele>
        <time>2025-02-14T17:40:41.244Z</time>
      </trkpt>
      <trkpt lat="45.15924" lon="4.81714">
        <ele>128.17919</ele>
        <time>2025-02-14T17:40:42.341Z</time>
      </trkpt>
      <trkpt lat="45.15935" lon="4.8177">
        <ele>127.817905</ele>
        <time>2025-02-14T17:40:45.293Z</time>
      </trkpt>
      <trkpt lat="45.15933" lon="4.81795">
        <ele>127.661151</ele>
        <time>2025-02-14T17:40:46.654Z</time>
      </trkpt>
      <trkpt lat="45.15925" lon="4.81843">
        <ele>127.354605</ele>
        <time>2025-02-14T17:40:49.417Z</time>
      </trkpt>
      <trkpt lat="45.15898" lon="4.82045">
        <ele>127.466626</ele>
        <time>2025-02-14T17:41:03.658Z</time>
      </trkpt>
      <trkpt lat="45.15876" lon="4.82148">
        <ele>127.767784</ele>
        <time>2025-02-14T17:41:11.307Z</time>
      </trkpt>
      <trkpt lat="45.15849" lon="4.82241">
        <ele>127.943641</ele>
        <time>2025-02-14T17:41:18.383Z</time>
      </trkpt>
      <trkpt lat="45.15811" lon="4.82336">
        <ele>128.136852</ele>
        <time>2025-02-14T17:41:25.827Z</time>
      </trkpt>
      <trkpt lat="45.1579" lon="4.82377">
        <ele>128.160477</ele>
        <time>2025-02-14T17:41:28.985Z</time>
      </trkpt>
      <trkpt lat="45.15743" lon="4.8243">
        <ele>127.826706</ele>
        <time>2025-02-14T17:41:33.854Z</time>
      </trkpt>
      <trkpt lat="45.15718" lon="4.82454">
        <ele>127.655024</ele>
        <time>2025-02-14T17:41:36.192Z</time>
      </trkpt>
      <trkpt lat="45.15691" lon="4.82474">
        <ele>127.48829</ele>
        <time>2025-02-14T17:41:38.421Z</time>
      </trkpt>
      <trkpt lat="45.1564" lon="4.82498">
        <ele>127.190735</ele>
        <time>2025-02-14T17:41:42.462Z</time>
      </trkpt>
      <trkpt lat="45.15593" lon="4.82507">
        <ele>126.985673</ele>
        <time>2025-02-14T17:41:46.167Z</time>
      </trkpt>
      <trkpt lat="45.15565" lon="4.82511">
        <ele>126.866482</ele>
        <time>2025-02-14T17:41:48.397Z</time>
      </trkpt>
      <trkpt lat="45.15483" lon="4.82506">
        <ele>126.511204</ele>
        <time>2025-02-14T17:41:55.293Z</time>
      </trkpt>
      <trkpt lat="45.15441" lon="4.82495">
        <ele>126.289144</ele>
        <time>2025-02-14T17:41:58.826Z</time>
      </trkpt>
      <trkpt lat="45.15397" lon="4.82477">
        <ele>126.012865</ele>
        <time>2025-02-14T17:42:02.497Z</time>
      </trkpt>
      <trkpt lat="45.1535" lon="4.82453">
        <ele>125.713637</ele>
        <time>2025-02-14T17:42:06.328Z</time>
      </trkpt>
      <trkpt lat="45.15176" lon="4.82311">
        <ele>124.296006</ele>
        <time>2025-02-14T17:42:21.316Z</time>
      </trkpt>
      <trkpt lat="45.15163" lon="4.82297">
        <ele>124.174325</ele>
        <time>2025-02-14T17:42:22.593Z</time>
      </trkpt>
      <trkpt lat="45.15038" lon="4.82197">
        <ele>123.839457</ele>
        <time>2025-02-14T17:42:34.645Z</time>
      </trkpt>
      <trkpt lat="45.14987" lon="4.82148">
        <ele>123.76683</ele>
        <time>2025-02-14T17:42:40.305Z</time>
      </trkpt>
      <trkpt lat="45.14861" lon="4.8204">
        <ele>124.28076</ele>
        <time>2025-02-14T17:42:54.859Z</time>
      </trkpt>
      <trkpt lat="45.14551" lon="4.81729">
        <ele>125.236004</ele>
        <time>2025-02-14T17:43:31.474Z</time>
      </trkpt>
      <trkpt lat="45.14467" lon="4.8164">
        <ele>124.675051</ele>
        <time>2025-02-14T17:43:39.603Z</time>
      </trkpt>
      <trkpt lat="45.14375" lon="4.81551">
        <ele>124.009234</ele>
        <time>2025-02-14T17:43:47.948Z</time>
      </trkpt>
      <trkpt lat="45.14232" lon="4.81399">
        <ele>123.345708</ele>
        <time>2025-02-14T17:44:02.243Z</time>
      </trkpt>
      <trkpt lat="45.14197" lon="4.81359">
        <ele>123.588702</ele>
        <time>2025-02-14T17:44:06.429Z</time>
      </trkpt>
      <trkpt lat="45.14189" lon="4.81346">
        <ele>123.653466</ele>
        <time>2025-02-14T17:44:07.651Z</time>
      </trkpt>
      <trkpt lat="45.14182" lon="4.81317">
        <ele>123.770769</ele>
        <time>2025-02-14T17:44:09.993Z</time>
      </trkpt>
      <trkpt lat="45.14171" lon="4.81303">
        <ele>123.85148</ele>
        <time>2025-02-14T17:44:11.663Z</time>
      </trkpt>
      <trkpt lat="45.14146" lon="4.81278">
        <ele>124.019655</ele>
        <time>2025-02-14T17:44:15.208Z</time>
      </trkpt>
      <trkpt lat="45.14137" lon="4.81254">
        <ele>124.121063</ele>
        <time>2025-02-14T17:44:18.009Z</time>
      </trkpt>
      <trkpt lat="45.14123" lon="4.81256">
        <ele>124.196507</ele>
        <time>2025-02-14T17:44:19.640Z</time>
      </trkpt>
      <trkpt lat="45.14116" lon="4.81251">
        <ele>124.255534</ele>
        <time>2025-02-14T17:44:20.627Z</time>
      </trkpt>
      <trkpt lat="45.141" lon="4.81235">
        <ele>124.395787</ele>
        <time>2025-02-14T17:44:22.988Z</time>
      </trkpt>
      <trkpt lat="45.13984" lon="4.81082">
        <ele>125.472167</ele>
        <time>2025-02-14T17:44:40.038Z</time>
      </trkpt>
      <trkpt lat="45.13937" lon="4.81014">
        <ele>125.302652</ele>
        <time>2025-02-14T17:44:45.320Z</time>
      </trkpt>
      <trkpt lat="45.13874" lon="4.80911">
        <ele>125.060102</ele>
        <time>2025-02-14T17:44:53.017Z</time>
      </trkpt>
      <trkpt lat="45.13864" lon="4.80883">
        <ele>124.998177</ele>
        <time>2025-02-14T17:44:54.945Z</time>
      </trkpt>
      <trkpt lat="45.13864" lon="4.80868">
        <ele>124.966841</ele>
        <time>2025-02-14T17:44:56.180Z</time>
      </trkpt>
      <trkpt lat="45.1387" lon="4.80845">
        <ele>124.915018</ele>
        <time>2025-02-14T17:44:58.233Z</time>
      </trkpt>
      <trkpt lat="45.13853" lon="4.8083">
        <ele>124.856233</ele>
        <time>2025-02-14T17:44:59.904Z</time>
      </trkpt>
      <trkpt lat="45.13833" lon="4.80784">
        <ele>124.74018</ele>
        <time>2025-02-14T17:45:03.073Z</time>
      </trkpt>
      <trkpt lat="45.13804" lon="4.80708">
        <ele>124.558812</ele>
        <time>2025-02-14T17:45:08.185Z</time>
      </trkpt>
      <trkpt lat="45.13794" lon="4.80689">
        <ele>124.508625</ele>
        <time>2025-02-14T17:45:09.606Z</time>
      </trkpt>
      <trkpt lat="45.13778" lon="4.80673">
        <ele>124.527606</ele>
        <time>2025-02-14T17:45:11.129Z</time>
      </trkpt>
      <trkpt lat="45.13766" lon="4.80668">
        <ele>124.55161</ele>
        <time>2025-02-14T17:45:12.101Z</time>
      </trkpt>
      <trkpt lat="45.13761" lon="4.80668">
        <ele>124.559433</ele>
        <time>2025-02-14T17:45:12.411Z</time>
      </trkpt>
      <trkpt lat="45.13742" lon="4.80673">
        <ele>124.595268</ele>
        <time>2025-02-14T17:45:13.888Z</time>
      </trkpt>
      <trkpt lat="45.13706" lon="4.80705">
        <ele>124.673694</ele>
        <time>2025-02-14T17:45:17.401Z</time>
      </trkpt>
      <trkpt lat="45.13702" lon="4.80708">
        <ele>124.683429</ele>
        <time>2025-02-14T17:45:17.889Z</time>
      </trkpt>
      <trkpt lat="45.13667" lon="4.80735">
        <ele>124.75802</ele>
        <time>2025-02-14T17:45:22.073Z</time>
      </trkpt>
      <trkpt lat="45.13489" lon="4.8088">
        <ele>126.015494</ele>
        <time>2025-02-14T17:45:45.425Z</time>
      </trkpt>
      <trkpt lat="45.13486" lon="4.80882">
        <ele>126.040258</ele>
        <time>2025-02-14T17:45:45.729Z</time>
      </trkpt>
      <trkpt lat="45.13436" lon="4.80923">
        <ele>125.782241</ele>
        <time>2025-02-14T17:45:50.200Z</time>
      </trkpt>
      <trkpt lat="45.13432" lon="4.80926">
        <ele>125.748596</ele>
        <time>2025-02-14T17:45:50.537Z</time>
      </trkpt>
      <trkpt lat="45.1341" lon="4.80943">
        <ele>125.560459</ele>
        <time>2025-02-14T17:45:52.341Z</time>
      </trkpt>
      <trkpt lat="45.13397" lon="4.80946">
        <ele>125.464243</ele>
        <time>2025-02-14T17:45:53.250Z</time>
      </trkpt>
      <trkpt lat="45.13362" lon="4.80929">
        <ele>125.18973</ele>
        <time>2025-02-14T17:45:55.803Z</time>
      </trkpt>
      <trkpt lat="45.132" lon="4.80837">
        <ele>124.39626</ele>
        <time>2025-02-14T17:46:09.454Z</time>
      </trkpt>
      <trkpt lat="45.13106" lon="4.8079">
        <ele>124.297171</ele>
        <time>2025-02-14T17:46:18.881Z</time>
      </trkpt>
      <trkpt lat="45.12989" lon="4.80743">
        <ele>124.575888</ele>
        <time>2025-02-14T17:46:30.636Z</time>
      </trkpt>
      <trkpt lat="45.12896" lon="4.80717">
        <ele>124.536551</ele>
        <time>2025-02-14T17:46:38.962Z</time>
      </trkpt>
      <trkpt lat="45.1279" lon="4.80699">
        <ele>124.418991</ele>
        <time>2025-02-14T17:46:47.988Z</time>
      </trkpt>
      <trkpt lat="45.12682" lon="4.80694">
        <ele>124.208699</ele>
        <time>2025-02-14T17:46:57.220Z</time>
      </trkpt>
      <trkpt lat="45.12598" lon="4.80699">
        <ele>124.050127</ele>
        <time>2025-02-14T17:47:04.224Z</time>
      </trkpt>
      <trkpt lat="45.12504" lon="4.80712">
        <ele>123.904285</ele>
        <time>2025-02-14T17:47:12.079Z</time>
      </trkpt>
      <trkpt lat="45.12387" lon="4.80743">
        <ele>123.714168</ele>
        <time>2025-02-14T17:47:22.731Z</time>
      </trkpt>
      <trkpt lat="45.12318" lon="4.80768">
        <ele>123.596855</ele>
        <time>2025-02-14T17:47:28.970Z</time>
      </trkpt>
      <trkpt lat="45.12204" lon="4.80822">
        <ele>123.357171</ele>
        <time>2025-02-14T17:47:38.806Z</time>
      </trkpt>
      <trkpt lat="45.12127" lon="4.80868">
        <ele>123.160185</ele>
        <time>2025-02-14T17:47:45.720Z</time>
      </trkpt>
      <trkpt lat="45.12043" lon="4.80929">
        <ele>123.029864</ele>
        <time>2025-02-14T17:47:53.991Z</time>
      </trkpt>
      <trkpt lat="45.11991" lon="4.80971">
        <ele>122.983586</ele>
        <time>2025-02-14T17:47:59.234Z</time>
      </trkpt>
      <trkpt lat="45.11913" lon="4.81042">
        <ele>122.913586</ele>
        <time>2025-02-14T17:48:07.389Z</time>
      </trkpt>
      <trkpt lat="45.11527" lon="4.81395">
        <ele>122.74289</ele>
        <time>2025-02-14T17:48:47.564Z</time>
      </trkpt>
      <trkpt lat="45.11362" lon="4.81551">
        <ele>123.201762</ele>
        <time>2025-02-14T17:49:06.532Z</time>
      </trkpt>
      <trkpt lat="45.11088" lon="4.81823">
        <ele>124.188477</ele>
        <time>2025-02-14T17:49:38.792Z</time>
      </trkpt>
      <trkpt lat="45.11078" lon="4.81837">
        <ele>124.228173</ele>
        <time>2025-02-14T17:49:40.178Z</time>
      </trkpt>
      <trkpt lat="45.11069" lon="4.81855">
        <ele>124.274984</ele>
        <time>2025-02-14T17:49:41.801Z</time>
      </trkpt>
      <trkpt lat="45.1106" lon="4.8188">
        <ele>124.331821</ele>
        <time>2025-02-14T17:49:43.744Z</time>
      </trkpt>
      <trkpt lat="45.11053" lon="4.81919">
        <ele>124.084099</ele>
        <time>2025-02-14T17:49:46.399Z</time>
      </trkpt>
      <trkpt lat="45.11049" lon="4.8193">
        <ele>123.987533</ele>
        <time>2025-02-14T17:49:47.127Z</time>
      </trkpt>
      <trkpt lat="45.11041" lon="4.81941">
        <ele>123.851381</ele>
        <time>2025-02-14T17:49:48.112Z</time>
      </trkpt>
      <trkpt lat="45.10994" lon="4.81982">
        <ele>123.21527</ele>
        <time>2025-02-14T17:49:52.291Z</time>
      </trkpt>
      <trkpt lat="45.10914" lon="4.82052">
        <ele>122.297146</ele>
        <time>2025-02-14T17:49:58.261Z</time>
      </trkpt>
      <trkpt lat="45.10905" lon="4.8206">
        <ele>122.337892</ele>
        <time>2025-02-14T17:49:58.955Z</time>
      </trkpt>
      <trkpt lat="45.10899" lon="4.82074">
        <ele>122.380625</ele>
        <time>2025-02-14T17:49:59.703Z</time>
      </trkpt>
      <trkpt lat="45.10898" lon="4.82091">
        <ele>122.426792</ele>
        <time>2025-02-14T17:50:00.526Z</time>
      </trkpt>
      <trkpt lat="45.10901" lon="4.821">
        <ele>122.455919</ele>
        <time>2025-02-14T17:50:01.062Z</time>
      </trkpt>
      <trkpt lat="45.10991" lon="4.82279">
        <ele>123.478353</ele>
        <time>2025-02-14T17:50:19.985Z</time>
      </trkpt>
      <trkpt lat="45.10997" lon="4.8229">
        <ele>123.657193</ele>
        <time>2025-02-14T17:50:21.567Z</time>
      </trkpt>
      <trkpt lat="45.11064" lon="4.82424">
        <ele>125.861422</ele>
        <time>2025-02-14T17:50:39.047Z</time>
      </trkpt>
      <trkpt lat="45.11081" lon="4.82463">
        <ele>126.313962</ele>
        <time>2025-02-14T17:50:42.649Z</time>
      </trkpt>
      <trkpt lat="45.11095" lon="4.82505">
        <ele>125.99839</ele>
        <time>2025-02-14T17:50:45.794Z</time>
      </trkpt>
      <trkpt lat="45.11073" lon="4.82509">
        <ele>125.786512</ele>
        <time>2025-02-14T17:50:48.273Z</time>
      </trkpt>
      <trkpt lat="45.11054" lon="4.82504">
        <ele>125.599436</ele>
        <time>2025-02-14T17:50:50.322Z</time>
      </trkpt>
      <trkpt lat="45.11038" lon="4.82492">
        <ele>125.424631</ele>
        <time>2025-02-14T17:50:52.140Z</time>
      </trkpt>
      <trkpt lat="45.11021" lon="4.8247">
        <ele>125.205984</ele>
        <time>2025-02-14T17:50:54.314Z</time>
      </trkpt>
      <trkpt lat="45.10885" lon="4.82488">
        <ele>123.719448</ele>
        <time>2025-02-14T17:51:07.062Z</time>
      </trkpt>
      <trkpt lat="45.10866" lon="4.82524">
        <ele>123.34092</ele>
        <time>2025-02-14T17:51:10.294Z</time>
      </trkpt>
      <trkpt lat="45.10787" lon="4.82628">
        <ele>122.465739</ele>
        <time>2025-02-14T17:51:22.684Z</time>
      </trkpt>
      <trkpt lat="45.10766" lon="4.82649">
        <ele>122.446116</ele>
        <time>2025-02-14T17:51:25.789Z</time>
      </trkpt>
      <trkpt lat="45.10744" lon="4.82668">
        <ele>122.425875</ele>
        <time>2025-02-14T17:51:28.985Z</time>
      </trkpt>
      <trkpt lat="45.1056" lon="4.82799">
        <ele>122.401572</ele>
        <time>2025-02-14T17:51:53.898Z</time>
      </trkpt>
      <trkpt lat="45.10547" lon="4.82814">
        <ele>122.408483</ele>
        <time>2025-02-14T17:51:56.036Z</time>
      </trkpt>
      <trkpt lat="45.10508" lon="4.82829">
        <ele>122.424685</ele>
        <time>2025-02-14T17:52:01.089Z</time>
      </trkpt>
      <trkpt lat="45.10479" lon="4.8285">
        <ele>122.425373</ele>
        <time>2025-02-14T17:52:05.167Z</time>
      </trkpt>
      <trkpt lat="45.10348" lon="4.8296">
        <ele>122.409654</ele>
        <time>2025-02-14T17:52:23.762Z</time>
      </trkpt>
      <trkpt lat="45.10248" lon="4.8301">
        <ele>122.158902</ele>
        <time>2025-02-14T17:52:35.819Z</time>
      </trkpt>
      <trkpt lat="45.10026" lon="4.83136">
        <ele>121.724192</ele>
        <time>2025-02-14T17:53:03.814Z</time>
      </trkpt>
      <trkpt lat="45.09677" lon="4.83231">
        <ele>121.36404</ele>
        <time>2025-02-14T17:53:46.159Z</time>
      </trkpt>
      <trkpt lat="45.09639" lon="4.83238">
        <ele>121.304985</ele>
        <time>2025-02-14T17:53:50.720Z</time>
      </trkpt>
      <trkpt lat="45.09628" lon="4.8324">
        <ele>121.281576</ele>
        <time>2025-02-14T17:53:52.013Z</time>
      </trkpt>
      <trkpt lat="45.09618" lon="4.83243">
        <ele>121.259662</ele>
        <time>2025-02-14T17:53:53.222Z</time>
      </trkpt>
      <trkpt lat="45.09338" lon="4.83325">
        <ele>120.366528</ele>
        <time>2025-02-14T17:54:26.419Z</time>
      </trkpt>
      <trkpt lat="45.09315" lon="4.83321">
        <ele>120.273897</ele>
        <time>2025-02-14T17:54:28.786Z</time>
      </trkpt>
      <trkpt lat="45.09291" lon="4.83279">
        <ele>120.293319</ele>
        <time>2025-02-14T17:54:32.743Z</time>
      </trkpt>
      <trkpt lat="45.09282" lon="4.8327">
        <ele>120.325613</ele>
        <time>2025-02-14T17:54:33.890Z</time>
      </trkpt>
      <trkpt lat="45.09273" lon="4.83267">
        <ele>120.354279</ele>
        <time>2025-02-14T17:54:34.907Z</time>
      </trkpt>
      <trkpt lat="45.09259" lon="4.83267">
        <ele>120.394724</ele>
        <time>2025-02-14T17:54:36.367Z</time>
      </trkpt>
      <trkpt lat="45.09186" lon="4.83298">
        <ele>120.621815</ele>
        <time>2025-02-14T17:54:45.393Z</time>
      </trkpt>
      <trkpt lat="45.09094" lon="4.83327">
        <ele>121.877655</ele>
        <time>2025-02-14T17:55:01.938Z</time>
      </trkpt>
      <trkpt lat="45.09081" lon="4.83335">
        <ele>122.189853</ele>
        <time>2025-02-14T17:55:04.578Z</time>
      </trkpt>
      <trkpt lat="45.09073" lon="4.83344">
        <ele>122.411554</ele>
        <time>2025-02-14T17:55:06.493Z</time>
      </trkpt>
      <trkpt lat="45.09068" lon="4.83357">
        <ele>122.656795</ele>
        <time>2025-02-14T17:55:08.592Z</time>
      </trkpt>
      <trkpt lat="45.0906" lon="4.83386">
        <ele>123.145584</ele>
        <time>2025-02-14T17:55:12.776Z</time>
      </trkpt>
      <trkpt lat="45.08918" lon="4.83347">
        <ele>125.32332</ele>
        <time>2025-02-14T17:55:32.528Z</time>
      </trkpt>
      <trkpt lat="45.08855" lon="4.83334">
        <ele>125.796844</ele>
        <time>2025-02-14T17:55:38.312Z</time>
      </trkpt>
      <trkpt lat="45.08741" lon="4.83325">
        <ele>126.561693</ele>
        <time>2025-02-14T17:55:47.710Z</time>
      </trkpt>
      <trkpt lat="45.08674" lon="4.83305">
        <ele>126.984593</ele>
        <time>2025-02-14T17:55:55.537Z</time>
      </trkpt>
      <trkpt lat="45.08603" lon="4.83277">
        <ele>127.021496</ele>
        <time>2025-02-14T17:56:04.780Z</time>
      </trkpt>
      <trkpt lat="45.08565" lon="4.8326">
        <ele>126.737883</ele>
        <time>2025-02-14T17:56:09.545Z</time>
      </trkpt>
      <trkpt lat="45.08173" lon="4.83034">
        <ele>123.257726</ele>
        <time>2025-02-14T17:56:39.730Z</time>
      </trkpt>
      <trkpt lat="45.08142" lon="4.83021">
        <ele>122.898791</ele>
        <time>2025-02-14T17:56:42.113Z</time>
      </trkpt>
      <trkpt lat="45.07929" lon="4.83">
        <ele>121.633378</ele>
        <time>2025-02-14T17:56:58.560Z</time>
      </trkpt>
      <trkpt lat="45.07729" lon="4.82984">
        <ele>121.949285</ele>
        <time>2025-02-14T17:57:18.302Z</time>
      </trkpt>
      <trkpt lat="45.0766" lon="4.82981">
        <ele>122.004146</ele>
        <time>2025-02-14T17:57:24.623Z</time>
      </trkpt>
      <trkpt lat="45.07629" lon="4.82985">
        <ele>122.029212</ele>
        <time>2025-02-14T17:57:27.438Z</time>
      </trkpt>
      <trkpt lat="45.07603" lon="4.82994">
        <ele>122.050692</ele>
        <time>2025-02-14T17:57:29.768Z</time>
      </trkpt>
      <trkpt lat="45.07582" lon="4.83003">
        <ele>122.013719</ele>
        <time>2025-02-14T17:57:31.532Z</time>
      </trkpt>
      <trkpt lat="45.07561" lon="4.83016">
        <ele>121.91378</ele>
        <time>2025-02-14T17:57:33.367Z</time>
      </trkpt>
      <trkpt lat="45.07549" lon="4.83028">
        <ele>121.848535</ele>
        <time>2025-02-14T17:57:34.522Z</time>
      </trkpt>
      <trkpt lat="45.07412" lon="4.8316">
        <ele>121.150974</ele>
        <time>2025-02-14T17:57:47.688Z</time>
      </trkpt>
      <trkpt lat="45.07371" lon="4.83199">
        <ele>120.975103</ele>
        <time>2025-02-14T17:57:51.728Z</time>
      </trkpt>
      <trkpt lat="45.07341" lon="4.83228">
        <ele>120.847297</ele>
        <time>2025-02-14T17:57:54.686Z</time>
      </trkpt>
      <trkpt lat="45.07273" lon="4.83293">
        <ele>120.707392</ele>
        <time>2025-02-14T17:58:01.385Z</time>
      </trkpt>
      <trkpt lat="45.07238" lon="4.83323">
        <ele>120.836984</ele>
        <time>2025-02-14T17:58:05.077Z</time>
      </trkpt>
      <trkpt lat="45.07205" lon="4.83359">
        <ele>120.970778</ele>
        <time>2025-02-14T17:58:09.209Z</time>
      </trkpt>
      <trkpt lat="45.07178" lon="4.83391">
        <ele>121.083045</ele>
        <time>2025-02-14T17:58:12.696Z</time>
      </trkpt>
      <trkpt lat="45.07138" lon="4.83424">
        <ele>121.248497</ele>
        <time>2025-02-14T17:58:17.535Z</time>
      </trkpt>
      <trkpt lat="45.07126" lon="4.8343">
        <ele>121.324935</ele>
        <time>2025-02-14T17:58:18.968Z</time>
      </trkpt>
      <trkpt lat="45.07092" lon="4.83451">
        <ele>121.553389</ele>
        <time>2025-02-14T17:58:23.442Z</time>
      </trkpt>
      <trkpt lat="45.07078" lon="4.83467">
        <ele>121.663148</ele>
        <time>2025-02-14T17:58:25.595Z</time>
      </trkpt>
      <trkpt lat="45.07061" lon="4.83493">
        <ele>121.819304</ele>
        <time>2025-02-14T17:58:28.631Z</time>
      </trkpt>
      <trkpt lat="45.07055" lon="4.83514">
        <ele>121.916033</ele>
        <time>2025-02-14T17:58:30.438Z</time>
      </trkpt>
      <trkpt lat="45.07054" lon="4.83519">
        <ele>121.940311</ele>
        <time>2025-02-14T17:58:30.880Z</time>
      </trkpt>
      <trkpt lat="45.07049" lon="4.8363">
        <ele>122.206805</ele>
        <time>2025-02-14T17:58:37.911Z</time>
      </trkpt>
      <trkpt lat="45.07048" lon="4.83636">
        <ele>122.179862</ele>
        <time>2025-02-14T17:58:38.242Z</time>
      </trkpt>
      <trkpt lat="45.07005" lon="4.83609">
        <ele>121.893849</ele>
        <time>2025-02-14T17:58:41.567Z</time>
      </trkpt>
      <trkpt lat="45.06977" lon="4.8359">
        <ele>121.706522</ele>
        <time>2025-02-14T17:58:43.699Z</time>
      </trkpt>
      <trkpt lat="45.06969" lon="4.83584">
        <ele>121.651059</ele>
        <time>2025-02-14T17:58:44.312Z</time>
      </trkpt>
      <trkpt lat="45.06962" lon="4.83579">
        <ele>121.602203</ele>
        <time>2025-02-14T17:58:44.884Z</time>
      </trkpt>
      <trkpt lat="45.06953" lon="4.83573">
        <ele>121.542671</ele>
        <time>2025-02-14T17:58:45.545Z</time>
      </trkpt>
      <trkpt lat="45.06939" lon="4.83564">
        <ele>121.451929</ele>
        <time>2025-02-14T17:58:46.569Z</time>
      </trkpt>
      <trkpt lat="45.06787" lon="4.83464">
        <ele>122.535157</ele>
        <time>2025-02-14T17:59:26.413Z</time>
      </trkpt>
      <trkpt lat="45.06786" lon="4.83463">
        <ele>122.554576</ele>
        <time>2025-02-14T17:59:26.763Z</time>
      </trkpt>
      <trkpt lat="45.0678" lon="4.8347">
        <ele>122.633378</ele>
        <time>2025-02-14T17:59:27.976Z</time>
      </trkpt>
      <trkpt lat="45.06775" lon="4.83479">
        <ele>122.715013</ele>
        <time>2025-02-14T17:59:29.600Z</time>
      </trkpt>
      <trkpt lat="45.06778" lon="4.83471">
        <ele>122.783923</ele>
        <time>2025-02-14T17:59:30.608Z</time>
      </trkpt>
      <trkpt lat="45.06773" lon="4.83467">
        <ele>122.841936</ele>
        <time>2025-02-14T17:59:31.749Z</time>
      </trkpt>
      <trkpt lat="45.06777" lon="4.83457">
        <ele>122.927809</ele>
        <time>2025-02-14T17:59:32.837Z</time>
      </trkpt>
      <trkpt lat="45.06755" lon="4.83439">
        <ele>123.163183</ele>
        <time>2025-02-14T17:59:36.588Z</time>
      </trkpt>
      <trkpt lat="45.06745" lon="4.83438">
        <ele>123.241466</ele>
        <time>2025-02-14T17:59:37.828Z</time>
      </trkpt>
      <trkpt lat="45.06713" lon="4.83448">
        <ele>123.507791</ele>
        <time>2025-02-14T17:59:42.338Z</time>
      </trkpt>
      <trkpt lat="45.06699" lon="4.8345">
        <ele>123.625263</ele>
        <time>2025-02-14T17:59:44.213Z</time>
      </trkpt>
      <trkpt lat="45.06658" lon="4.83457">
        <ele>123.964208</ele>
        <time>2025-02-14T17:59:48.724Z</time>
      </trkpt>
      <trkpt lat="45.06642" lon="4.8346">
        <ele>124.096171</ele>
        <time>2025-02-14T17:59:50.321Z</time>
      </trkpt>
      <trkpt lat="45.06608" lon="4.83465">
        <ele>124.371429</ele>
        <time>2025-02-14T17:59:53.234Z</time>
      </trkpt>
      <trkpt lat="45.0658" lon="4.83469">
        <ele>124.423281</ele>
        <time>2025-02-14T17:59:55.369Z</time>
      </trkpt>
      <trkpt lat="45.06571" lon="4.83445">
        <ele>124.227418</ele>
        <time>2025-02-14T17:59:56.806Z</time>
      </trkpt>
      <trkpt lat="45.06543" lon="4.83459">
        <ele>123.927062</ele>
        <time>2025-02-14T17:59:59.049Z</time>
      </trkpt>
      <trkpt lat="45.06551" lon="4.83475">
        <ele>123.788033</ele>
        <time>2025-02-14T18:00:00.086Z</time>
      </trkpt>
      <trkpt lat="45.06537" lon="4.83482">
        <ele>123.639749</ele>
        <time>2025-02-14T18:00:01.188Z</time>
      </trkpt>
      <trkpt lat="45.06518" lon="4.83501">
        <ele>123.405188</ele>
        <time>2025-02-14T18:00:02.901Z</time>
      </trkpt>
      <trkpt lat="45.06503" lon="4.83514">
        <ele>123.224049</ele>
        <time>2025-02-14T18:00:04.218Z</time>
      </trkpt>
      <trkpt lat="45.06495" lon="4.8352">
        <ele>123.133509</ele>
        <time>2025-02-14T18:00:04.874Z</time>
      </trkpt>
      <trkpt lat="45.06474" lon="4.83543">
        <ele>122.861386</ele>
        <time>2025-02-14T18:00:06.758Z</time>
      </trkpt>
      <trkpt lat="45.06456" lon="4.83566">
        <ele>122.595207</ele>
        <time>2025-02-14T18:00:08.367Z</time>
      </trkpt>
      <trkpt lat="45.06445" lon="4.83575">
        <ele>122.444147</ele>
        <time>2025-02-14T18:00:09.180Z</time>
      </trkpt>
      <trkpt lat="45.06432" lon="4.83584">
        <ele>122.26356</ele>
        <time>2025-02-14T18:00:10.168Z</time>
      </trkpt>
      <trkpt lat="45.06428" lon="4.83585">
        <ele>122.211308</ele>
        <time>2025-02-14T18:00:10.454Z</time>
      </trkpt>
      <trkpt lat="45.06397" lon="4.83599">
        <ele>121.802259</ele>
        <time>2025-02-14T18:00:12.775Z</time>
      </trkpt>
      <trkpt lat="45.06379" lon="4.83607">
        <ele>121.566268</ele>
        <time>2025-02-14T18:00:14.122Z</time>
      </trkpt>
      <trkpt lat="45.0633" lon="4.83623">
        <ele>120.940281</ele>
        <time>2025-02-14T18:00:17.700Z</time>
      </trkpt>
      <trkpt lat="45.06278" lon="4.83635">
        <ele>120.364786</ele>
        <time>2025-02-14T18:00:21.503Z</time>
      </trkpt>
      <trkpt lat="45.06247" lon="4.83645">
        <ele>120.143123</ele>
        <time>2025-02-14T18:00:24.011Z</time>
      </trkpt>
      <trkpt lat="45.06216" lon="4.83653">
        <ele>119.927167</ele>
        <time>2025-02-14T18:00:26.493Z</time>
      </trkpt>
      <trkpt lat="45.06207" lon="4.83655">
        <ele>119.867917</ele>
        <time>2025-02-14T18:00:27.172Z</time>
      </trkpt>
      <trkpt lat="45.06192" lon="4.83659">
        <ele>119.762768</ele>
        <time>2025-02-14T18:00:28.387Z</time>
      </trkpt>
      <trkpt lat="45.06141" lon="4.83674">
        <ele>119.403738</ele>
        <time>2025-02-14T18:00:32.452Z</time>
      </trkpt>
      <trkpt lat="45.06107" lon="4.83684">
        <ele>119.202287</ele>
        <time>2025-02-14T18:00:35.141Z</time>
      </trkpt>
      <trkpt lat="45.06071" lon="4.83692">
        <ele>119.105283</ele>
        <time>2025-02-14T18:00:37.908Z</time>
      </trkpt>
      <trkpt lat="45.06028" lon="4.83705">
        <ele>118.985063</ele>
        <time>2025-02-14T18:00:41.504Z</time>
      </trkpt>
      <trkpt lat="45.06004" lon="4.83711">
        <ele>118.920035</ele>
        <time>2025-02-14T18:00:43.523Z</time>
      </trkpt>
      <trkpt lat="45.05994" lon="4.83714">
        <ele>118.891361</ele>
        <time>2025-02-14T18:00:44.433Z</time>
      </trkpt>
      <trkpt lat="45.05989" lon="4.83716">
        <ele>118.877553</ele>
        <time>2025-02-14T18:00:44.875Z</time>
      </trkpt>
      <trkpt lat="45.05935" lon="4.83732">
        <ele>118.745711</ele>
        <time>2025-02-14T18:00:49.835Z</time>
      </trkpt>
      <trkpt lat="45.05878" lon="4.83737">
        <ele>118.798343</ele>
        <time>2025-02-14T18:00:55.284Z</time>
      </trkpt>
      <trkpt lat="45.05856" lon="4.83734">
        <ele>118.818429</ele>
        <time>2025-02-14T18:00:57.414Z</time>
      </trkpt>
      <trkpt lat="45.05826" lon="4.83725">
        <ele>118.846853</ele>
        <time>2025-02-14T18:01:00.331Z</time>
      </trkpt>
      <trkpt lat="45.05823" lon="4.83724">
        <ele>118.849691</ele>
        <time>2025-02-14T18:01:00.620Z</time>
      </trkpt>
      <trkpt lat="45.05757" lon="4.83705">
        <ele>118.888446</ele>
        <time>2025-02-14T18:01:06.610Z</time>
      </trkpt>
      <trkpt lat="45.05689" lon="4.83687">
        <ele>118.644291</ele>
        <time>2025-02-14T18:01:12.214Z</time>
      </trkpt>
      <trkpt lat="45.05669" lon="4.83682">
        <ele>118.572723</ele>
        <time>2025-02-14T18:01:13.809Z</time>
      </trkpt>
      <trkpt lat="45.05643" lon="4.83676">
        <ele>118.477576</ele>
        <time>2025-02-14T18:01:15.977Z</time>
      </trkpt>
      <trkpt lat="45.05623" lon="4.8367">
        <ele>118.403578</ele>
        <time>2025-02-14T18:01:17.663Z</time>
      </trkpt>
      <trkpt lat="45.05579" lon="4.83656">
        <ele>118.242834</ele>
        <time>2025-02-14T18:01:21.293Z</time>
      </trkpt>
      <trkpt lat="45.05563" lon="4.8365">
        <ele>118.179192</ele>
        <time>2025-02-14T18:01:22.615Z</time>
      </trkpt>
      <trkpt lat="45.05553" lon="4.83645">
        <ele>118.137041</ele>
        <time>2025-02-14T18:01:23.492Z</time>
      </trkpt>
      <trkpt lat="45.05499" lon="4.83614">
        <ele>117.915444</ele>
        <time>2025-02-14T18:01:28.088Z</time>
      </trkpt>
      <trkpt lat="45.05458" lon="4.83591">
        <ele>117.74469</ele>
        <time>2025-02-14T18:01:31.739Z</time>
      </trkpt>
      <trkpt lat="45.05432" lon="4.83576">
        <ele>117.63458</ele>
        <time>2025-02-14T18:01:34.081Z</time>
      </trkpt>
      <trkpt lat="45.0541" lon="4.83564">
        <ele>117.581002</ele>
        <time>2025-02-14T18:01:35.961Z</time>
      </trkpt>
      <trkpt lat="45.05401" lon="4.83558">
        <ele>117.588706</ele>
        <time>2025-02-14T18:01:36.710Z</time>
      </trkpt>
      <trkpt lat="45.05383" lon="4.83547">
        <ele>117.605774</ele>
        <time>2025-02-14T18:01:38.412Z</time>
      </trkpt>
      <trkpt lat="45.05376" lon="4.83546">
        <ele>117.611468</ele>
        <time>2025-02-14T18:01:39.002Z</time>
      </trkpt>
      <trkpt lat="45.05364" lon="4.83545">
        <ele>117.621041</ele>
        <time>2025-02-14T18:01:40.016Z</time>
      </trkpt>
      <trkpt lat="45.05355" lon="4.83542">
        <ele>117.628776</ele>
        <time>2025-02-14T18:01:40.856Z</time>
      </trkpt>
      <trkpt lat="45.0535" lon="4.83533">
        <ele>117.635896</ele>
        <time>2025-02-14T18:01:41.656Z</time>
      </trkpt>
      <trkpt lat="45.05342" lon="4.83528">
        <ele>117.643102</ele>
        <time>2025-02-14T18:01:42.455Z</time>
      </trkpt>
      <trkpt lat="45.05333" lon="4.83529">
        <ele>117.650634</ele>
        <time>2025-02-14T18:01:43.302Z</time>
      </trkpt>
      <trkpt lat="45.05322" lon="4.83522">
        <ele>117.66034</ele>
        <time>2025-02-14T18:01:44.403Z</time>
      </trkpt>
      <trkpt lat="45.05314" lon="4.83514">
        <ele>117.669168</ele>
        <time>2025-02-14T18:01:45.412Z</time>
      </trkpt>
      <trkpt lat="45.05305" lon="4.835">
        <ele>117.679686</ele>
        <time>2025-02-14T18:01:46.613Z</time>
      </trkpt>
      <trkpt lat="45.0527" lon="4.8345">
        <ele>117.721581</ele>
        <time>2025-02-14T18:01:51.480Z</time>
      </trkpt>
      <trkpt lat="45.05212" lon="4.83376">
        <ele>118.046089</ele>
        <time>2025-02-14T18:01:59.169Z</time>
      </trkpt>
      <trkpt lat="45.05095" lon="4.83228">
        <ele>119.178764</ele>
        <time>2025-02-14T18:02:14.898Z</time>
      </trkpt>
      <trkpt lat="45.0509" lon="4.83216">
        <ele>119.306979</ele>
        <time>2025-02-14T18:02:16.023Z</time>
      </trkpt>
      <trkpt lat="45.05086" lon="4.83202">
        <ele>119.439026</ele>
        <time>2025-02-14T18:02:17.196Z</time>
      </trkpt>
      <trkpt lat="45.05085" lon="4.83192">
        <ele>119.532033</ele>
        <time>2025-02-14T18:02:18.022Z</time>
      </trkpt>
      <trkpt lat="45.0508" lon="4.83185">
        <ele>119.632255</ele>
        <time>2025-02-14T18:02:18.929Z</time>
      </trkpt>
      <trkpt lat="45.05072" lon="4.83183">
        <ele>119.733603</ele>
        <time>2025-02-14T18:02:19.847Z</time>
      </trkpt>
      <trkpt lat="45.05068" lon="4.83185">
        <ele>119.783701</ele>
        <time>2025-02-14T18:02:20.314Z</time>
      </trkpt>
      <trkpt lat="45.0505" lon="4.8317">
        <ele>120.052878</ele>
        <time>2025-02-14T18:02:22.915Z</time>
      </trkpt>
      <trkpt lat="45.05034" lon="4.8315">
        <ele>120.34051</ele>
        <time>2025-02-14T18:02:25.853Z</time>
      </trkpt>
      <trkpt lat="45.04989" lon="4.83095">
        <ele>121.168347</ele>
        <time>2025-02-14T18:02:34.263Z</time>
      </trkpt>
      <trkpt lat="45.04944" lon="4.83046">
        <ele>122.027342</ele>
        <time>2025-02-14T18:02:41.776Z</time>
      </trkpt>
      <trkpt lat="45.04902" lon="4.83016">
        <ele>122.761167</ele>
        <time>2025-02-14T18:02:47.825Z</time>
      </trkpt>
      <trkpt lat="45.04772" lon="4.82956">
        <ele>124.250216</ele>
        <time>2025-02-14T18:03:03.023Z</time>
      </trkpt>
      <trkpt lat="45.04743" lon="4.82949">
        <ele>124.481379</ele>
        <time>2025-02-14T18:03:06.163Z</time>
      </trkpt>
      <trkpt lat="45.047" lon="4.82946">
        <ele>124.826055</ele>
        <time>2025-02-14T18:03:10.902Z</time>
      </trkpt>
      <trkpt lat="45.04675" lon="4.82944">
        <ele>125.023647</ele>
        <time>2025-02-14T18:03:13.430Z</time>
      </trkpt>
      <trkpt lat="45.04645" lon="4.82948">
        <ele>125.164107</ele>
        <time>2025-02-14T18:03:16.361Z</time>
      </trkpt>
      <trkpt lat="45.04633" lon="4.82944">
        <ele>125.21995</ele>
        <time>2025-02-14T18:03:17.543Z</time>
      </trkpt>
      <trkpt lat="45.04623" lon="4.8293">
        <ele>125.283226</ele>
        <time>2025-02-14T18:03:18.884Z</time>
      </trkpt>
      <trkpt lat="45.04614" lon="4.82926">
        <ele>125.324487</ele>
        <time>2025-02-14T18:03:19.762Z</time>
      </trkpt>
      <trkpt lat="45.04601" lon="4.82928">
        <ele>125.383457</ele>
        <time>2025-02-14T18:03:21.032Z</time>
      </trkpt>
      <trkpt lat="45.04593" lon="4.82936">
        <ele>125.429942</ele>
        <time>2025-02-14T18:03:22.044Z</time>
      </trkpt>
      <trkpt lat="45.04587" lon="4.82945">
        <ele>125.468576</ele>
        <time>2025-02-14T18:03:22.858Z</time>
      </trkpt>
      <trkpt lat="45.04576" lon="4.82952">
        <ele>125.526505</ele>
        <time>2025-02-14T18:03:24.120Z</time>
      </trkpt>
      <trkpt lat="45.04542" lon="4.82952">
        <ele>125.677458</ele>
        <time>2025-02-14T18:03:27.353Z</time>
      </trkpt>
      <trkpt lat="45.04508" lon="4.82943">
        <ele>125.835507</ele>
        <time>2025-02-14T18:03:30.741Z</time>
      </trkpt>
      <trkpt lat="45.04444" lon="4.8291">
        <ele>127.204911</ele>
        <time>2025-02-14T18:03:38.103Z</time>
      </trkpt>
      <trkpt lat="45.04406" lon="4.82874">
        <ele>128.158792</ele>
        <time>2025-02-14T18:03:43.426Z</time>
      </trkpt>
      <trkpt lat="45.04379" lon="4.82843">
        <ele>128.874448</ele>
        <time>2025-02-14T18:03:48.474Z</time>
      </trkpt>
      <trkpt lat="45.04325" lon="4.82778">
        <ele>131.573009</ele>
        <time>2025-02-14T18:04:03.036Z</time>
      </trkpt>
      <trkpt lat="45.04307" lon="4.82761">
        <ele>132.726335</ele>
        <time>2025-02-14T18:04:08.221Z</time>
      </trkpt>
      <trkpt lat="45.04277" lon="4.82739">
        <ele>134.541205</ele>
        <time>2025-02-14T18:04:16.367Z</time>
      </trkpt>
      <trkpt lat="45.04241" lon="4.82722">
        <ele>136.571873</ele>
        <time>2025-02-14T18:04:25.599Z</time>
      </trkpt>
      <trkpt lat="45.04217" lon="4.82713">
        <ele>137.877015</ele>
        <time>2025-02-14T18:04:31.524Z</time>
      </trkpt>
      <trkpt lat="45.04152" lon="4.82699">
        <ele>140.110971</ele>
        <time>2025-02-14T18:04:44.297Z</time>
      </trkpt>
      <trkpt lat="45.04121" lon="4.8269">
        <ele>140.812981</ele>
        <time>2025-02-14T18:04:48.788Z</time>
      </trkpt>
      <trkpt lat="45.04062" lon="4.8266">
        <ele>142.188005</ele>
        <time>2025-02-14T18:04:55.855Z</time>
      </trkpt>
      <trkpt lat="45.03981" lon="4.82606">
        <ele>143.217621</ele>
        <time>2025-02-14T18:05:05.970Z</time>
      </trkpt>
      <trkpt lat="45.0395" lon="4.82585">
        <ele>143.263104</ele>
        <time>2025-02-14T18:05:09.877Z</time>
      </trkpt>
      <trkpt lat="45.03905" lon="4.82562">
        <ele>143.327237</ele>
        <time>2025-02-14T18:05:14.578Z</time>
      </trkpt>
      <trkpt lat="45.03873" lon="4.82551">
        <ele>143.372293</ele>
        <time>2025-02-14T18:05:17.192Z</time>
      </trkpt>
      <trkpt lat="45.03839" lon="4.82544">
        <ele>143.065459</ele>
        <time>2025-02-14T18:05:19.580Z</time>
      </trkpt>
      <trkpt lat="45.03811" lon="4.82543">
        <ele>142.438006</ele>
        <time>2025-02-14T18:05:21.388Z</time>
      </trkpt>
      <trkpt lat="45.03759" lon="4.82545">
        <ele>141.25194</ele>
        <time>2025-02-14T18:05:24.605Z</time>
      </trkpt>
      <trkpt lat="45.03612" lon="4.82561">
        <ele>138.485207</ele>
        <time>2025-02-14T18:05:33.983Z</time>
      </trkpt>
      <trkpt lat="45.03562" lon="4.82573">
        <ele>137.823853</ele>
        <time>2025-02-14T18:05:37.953Z</time>
      </trkpt>
      <trkpt lat="45.03501" lon="4.82595">
        <ele>137.010749</ele>
        <time>2025-02-14T18:05:43.027Z</time>
      </trkpt>
      <trkpt lat="45.0348" lon="4.82603">
        <ele>136.668231</ele>
        <time>2025-02-14T18:05:44.796Z</time>
      </trkpt>
      <trkpt lat="45.03319" lon="4.82693">
        <ele>133.713995</ele>
        <time>2025-02-14T18:05:56.410Z</time>
      </trkpt>
      <trkpt lat="45.03315" lon="4.82696">
        <ele>133.600589</ele>
        <time>2025-02-14T18:05:56.698Z</time>
      </trkpt>
      <trkpt lat="45.02948" lon="4.82909">
        <ele>124.136294</ele>
        <time>2025-02-14T18:06:21.699Z</time>
      </trkpt>
      <trkpt lat="45.02934" lon="4.82917">
        <ele>123.88102</ele>
        <time>2025-02-14T18:06:22.751Z</time>
      </trkpt>
      <trkpt lat="45.02614" lon="4.83103">
        <ele>119.81211</ele>
        <time>2025-02-14T18:06:47.789Z</time>
      </trkpt>
      <trkpt lat="45.02569" lon="4.83125">
        <ele>119.530118</ele>
        <time>2025-02-14T18:06:52.027Z</time>
      </trkpt>
      <trkpt lat="45.02493" lon="4.83144">
        <ele>119.072386</ele>
        <time>2025-02-14T18:06:58.362Z</time>
      </trkpt>
      <trkpt lat="45.02458" lon="4.83158">
        <ele>118.662565</ele>
        <time>2025-02-14T18:07:01.091Z</time>
      </trkpt>
      <trkpt lat="45.02447" lon="4.8316">
        <ele>118.525</ele>
        <time>2025-02-14T18:07:01.953Z</time>
      </trkpt>
      <trkpt lat="45.02431" lon="4.83158">
        <ele>118.339514</ele>
        <time>2025-02-14T18:07:03.093Z</time>
      </trkpt>
      <trkpt lat="45.02409" lon="4.83163">
        <ele>118.089486</ele>
        <time>2025-02-14T18:07:04.599Z</time>
      </trkpt>
      <trkpt lat="45.02337" lon="4.83185">
        <ele>117.223778</ele>
        <time>2025-02-14T18:07:09.623Z</time>
      </trkpt>
      <trkpt lat="45.02175" lon="4.83223">
        <ele>116.179305</ele>
        <time>2025-02-14T18:07:22.132Z</time>
      </trkpt>
      <trkpt lat="45.02144" lon="4.83234">
        <ele>115.998703</ele>
        <time>2025-02-14T18:07:25.003Z</time>
      </trkpt>
      <trkpt lat="45.02095" lon="4.83262">
        <ele>116.27321</ele>
        <time>2025-02-14T18:07:30.011Z</time>
      </trkpt>
      <trkpt lat="45.02014" lon="4.83326">
        <ele>116.862301</ele>
        <time>2025-02-14T18:07:40.019Z</time>
      </trkpt>
      <trkpt lat="45.0198" lon="4.83341">
        <ele>117.085749</ele>
        <time>2025-02-14T18:07:44.006Z</time>
      </trkpt>
      <trkpt lat="45.01938" lon="4.83348">
        <ele>117.398669</ele>
        <time>2025-02-14T18:07:48.918Z</time>
      </trkpt>
      <trkpt lat="45.01909" lon="4.83341">
        <ele>117.61759</ele>
        <time>2025-02-14T18:07:52.302Z</time>
      </trkpt>
      <trkpt lat="45.01874" lon="4.83326">
        <ele>117.893519</ele>
        <time>2025-02-14T18:07:56.469Z</time>
      </trkpt>
      <trkpt lat="45.01842" lon="4.83316">
        <ele>118.139013</ele>
        <time>2025-02-14T18:08:00.029Z</time>
      </trkpt>
      <trkpt lat="45.01808" lon="4.83309">
        <ele>118.397278</ele>
        <time>2025-02-14T18:08:03.429Z</time>
      </trkpt>
      <trkpt lat="45.01757" lon="4.83307">
        <ele>118.198893</ele>
        <time>2025-02-14T18:08:07.796Z</time>
      </trkpt>
      <trkpt lat="45.01743" lon="4.83308">
        <ele>118.11127</ele>
        <time>2025-02-14T18:08:08.930Z</time>
      </trkpt>
      <trkpt lat="45.01728" lon="4.83309">
        <ele>118.016901</ele>
        <time>2025-02-14T18:08:10.101Z</time>
      </trkpt>
      <trkpt lat="45.01619" lon="4.8332">
        <ele>117.37324</ele>
        <time>2025-02-14T18:08:17.924Z</time>
      </trkpt>
      <trkpt lat="45.01594" lon="4.83325">
        <ele>117.825893</ele>
        <time>2025-02-14T18:08:19.816Z</time>
      </trkpt>
      <trkpt lat="45.01549" lon="4.83334">
        <ele>118.661274</ele>
        <time>2025-02-14T18:08:24.310Z</time>
      </trkpt>
      <trkpt lat="45.01507" lon="4.83335">
        <ele>119.411053</ele>
        <time>2025-02-14T18:08:29.672Z</time>
      </trkpt>
      <trkpt lat="45.01295" lon="4.83313">
        <ele>126.133155</ele>
        <time>2025-02-14T18:09:09.975Z</time>
      </trkpt>
      <trkpt lat="45.01258" lon="4.83316">
        <ele>127.446277</ele>
        <time>2025-02-14T18:09:16.374Z</time>
      </trkpt>
      <trkpt lat="45.01175" lon="4.83333">
        <ele>128.428689</ele>
        <time>2025-02-14T18:09:27.280Z</time>
      </trkpt>
      <trkpt lat="45.01134" lon="4.83348">
        <ele>128.929076</ele>
        <time>2025-02-14T18:09:31.058Z</time>
      </trkpt>
      <trkpt lat="45.01035" lon="4.83368">
        <ele>130.17642</ele>
        <time>2025-02-14T18:09:40.195Z</time>
      </trkpt>
      <trkpt lat="45.00977" lon="4.83363">
        <ele>130.937479</ele>
        <time>2025-02-14T18:09:47.648Z</time>
      </trkpt>
      <trkpt lat="45.00921" lon="4.83348">
        <ele>131.690076</ele>
        <time>2025-02-14T18:09:55.763Z</time>
      </trkpt>
      <trkpt lat="45.00895" lon="4.83347">
        <ele>131.905458</ele>
        <time>2025-02-14T18:09:59.360Z</time>
      </trkpt>
      <trkpt lat="45.00867" lon="4.83351">
        <ele>131.965273</ele>
        <time>2025-02-14T18:10:03.138Z</time>
      </trkpt>
      <trkpt lat="45.00825" lon="4.83361">
        <ele>132.052613</ele>
        <time>2025-02-14T18:10:07.980Z</time>
      </trkpt>
      <trkpt lat="45.00634" lon="4.83432">
        <ele>131.593001</ele>
        <time>2025-02-14T18:10:22.528Z</time>
      </trkpt>
      <trkpt lat="45.00579" lon="4.83461">
        <ele>131.199117</ele>
        <time>2025-02-14T18:10:26.851Z</time>
      </trkpt>
      <trkpt lat="45.00549" lon="4.83482">
        <ele>131.187363</ele>
        <time>2025-02-14T18:10:30.181Z</time>
      </trkpt>
      <trkpt lat="45.00523" lon="4.83508">
        <ele>131.522732</ele>
        <time>2025-02-14T18:10:33.549Z</time>
      </trkpt>
      <trkpt lat="45.00523" lon="4.83508">
        <ele>131.524037</ele>
        <time>2025-02-14T18:10:33.561Z</time>
      </trkpt>
      <trkpt lat="45.00502" lon="4.83538">
        <ele>131.840627</ele>
        <time>2025-02-14T18:10:37.125Z</time>
      </trkpt>
      <trkpt lat="45.00484" lon="4.83567">
        <ele>132.134406</ele>
        <time>2025-02-14T18:10:40.859Z</time>
      </trkpt>
      <trkpt lat="45.00348" lon="4.83837">
        <ele>133.995396</ele>
        <time>2025-02-14T18:11:08.712Z</time>
      </trkpt>
      <trkpt lat="45.00271" lon="4.83938">
        <ele>132.158839</ele>
        <time>2025-02-14T18:11:15.904Z</time>
      </trkpt>
      <trkpt lat="45.00202" lon="4.83983">
        <ele>130.283345</ele>
        <time>2025-02-14T18:11:20.446Z</time>
      </trkpt>
      <trkpt lat="45.00064" lon="4.84036">
        <ele>126.681311</ele>
        <time>2025-02-14T18:11:28.986Z</time>
      </trkpt>
      <trkpt lat="44.99971" lon="4.84067">
        <ele>125.459916</ele>
        <time>2025-02-14T18:11:36.403Z</time>
      </trkpt>
      <trkpt lat="44.99966" lon="4.84069">
        <ele>125.50419</ele>
        <time>2025-02-14T18:11:36.937Z</time>
      </trkpt>
      <trkpt lat="44.99908" lon="4.8409">
        <ele>125.989641</ele>
        <time>2025-02-14T18:11:43.672Z</time>
      </trkpt>
      <trkpt lat="44.99862" lon="4.84123">
        <ele>126.406499</ele>
        <time>2025-02-14T18:11:50.530Z</time>
      </trkpt>
      <trkpt lat="44.99811" lon="4.84165">
        <ele>126.862385</ele>
        <time>2025-02-14T18:11:57.487Z</time>
      </trkpt>
      <trkpt lat="44.99757" lon="4.8421">
        <ele>127.336312</ele>
        <time>2025-02-14T18:12:05.009Z</time>
      </trkpt>
      <trkpt lat="44.9971" lon="4.84251">
        <ele>127.745905</ele>
        <time>2025-02-14T18:12:10.922Z</time>
      </trkpt>
      <trkpt lat="44.99657" lon="4.84296">
        <ele>127.647827</ele>
        <time>2025-02-14T18:12:15.989Z</time>
      </trkpt>
      <trkpt lat="44.99506" lon="4.84426">
        <ele>126.02624</ele>
        <time>2025-02-14T18:12:28.214Z</time>
      </trkpt>
      <trkpt lat="44.99247" lon="4.84648">
        <ele>125.945331</ele>
        <time>2025-02-14T18:12:58.017Z</time>
      </trkpt>
      <trkpt lat="44.9922" lon="4.84667">
        <ele>125.917758</ele>
        <time>2025-02-14T18:13:00.190Z</time>
      </trkpt>
      <trkpt lat="44.99175" lon="4.84688">
        <ele>124.914164</ele>
        <time>2025-02-14T18:13:03.404Z</time>
      </trkpt>
      <trkpt lat="44.99021" lon="4.84732">
        <ele>122.087588</ele>
        <time>2025-02-14T18:13:13.207Z</time>
      </trkpt>
      <trkpt lat="44.98876" lon="4.84742">
        <ele>121.560712</ele>
        <time>2025-02-14T18:13:25.689Z</time>
      </trkpt>
      <trkpt lat="44.98734" lon="4.84744">
        <ele>123.537872</ele>
        <time>2025-02-14T18:13:44.672Z</time>
      </trkpt>
      <trkpt lat="44.98677" lon="4.8475">
        <ele>124.336391</ele>
        <time>2025-02-14T18:13:51.842Z</time>
      </trkpt>
      <trkpt lat="44.98639" lon="4.84759">
        <ele>124.660397</ele>
        <time>2025-02-14T18:13:56.422Z</time>
      </trkpt>
      <trkpt lat="44.9859" lon="4.84778">
        <ele>125.074872</ele>
        <time>2025-02-14T18:14:01.927Z</time>
      </trkpt>
      <trkpt lat="44.98468" lon="4.84835">
        <ele>125.628456</ele>
        <time>2025-02-14T18:14:14.825Z</time>
      </trkpt>
      <trkpt lat="44.98363" lon="4.84902">
        <ele>125.378769</ele>
        <time>2025-02-14T18:14:24.295Z</time>
      </trkpt>
      <trkpt lat="44.98325" lon="4.84927">
        <ele>125.087334</ele>
        <time>2025-02-14T18:14:27.373Z</time>
      </trkpt>
      <trkpt lat="44.97947" lon="4.85052">
        <ele>121.790786</ele>
        <time>2025-02-14T18:14:55.663Z</time>
      </trkpt>
      <trkpt lat="44.97916" lon="4.85062">
        <ele>121.811104</ele>
        <time>2025-02-14T18:14:59.331Z</time>
      </trkpt>
      <trkpt lat="44.9767" lon="4.85143">
        <ele>121.92234</ele>
        <time>2025-02-14T18:15:24.207Z</time>
      </trkpt>
      <trkpt lat="44.97541" lon="4.85183">
        <ele>120.911932</ele>
        <time>2025-02-14T18:15:33.329Z</time>
      </trkpt>
      <trkpt lat="44.97511" lon="4.85188">
        <ele>120.631267</ele>
        <time>2025-02-14T18:15:35.606Z</time>
      </trkpt>
      <trkpt lat="44.9746" lon="4.8519">
        <ele>120.318735</ele>
        <time>2025-02-14T18:15:39.748Z</time>
      </trkpt>
      <trkpt lat="44.97356" lon="4.85182">
        <ele>120.680786</ele>
        <time>2025-02-14T18:15:49.539Z</time>
      </trkpt>
      <trkpt lat="44.97346" lon="4.85182">
        <ele>120.715757</ele>
        <time>2025-02-14T18:15:50.541Z</time>
      </trkpt>
      <trkpt lat="44.97317" lon="4.85182">
        <ele>120.818904</ele>
        <time>2025-02-14T18:15:53.670Z</time>
      </trkpt>
      <trkpt lat="44.97244" lon="4.85188">
        <ele>121.736948</ele>
        <time>2025-02-14T18:16:01.957Z</time>
      </trkpt>
      <trkpt lat="44.97219" lon="4.85185">
        <ele>122.1743</ele>
        <time>2025-02-14T18:16:05.202Z</time>
      </trkpt>
      <trkpt lat="44.97199" lon="4.8518">
        <ele>122.513405</ele>
        <time>2025-02-14T18:16:07.891Z</time>
      </trkpt>
      <trkpt lat="44.97176" lon="4.85169">
        <ele>122.930123</ele>
        <time>2025-02-14T18:16:11.254Z</time>
      </trkpt>
      <trkpt lat="44.97034" lon="4.85095">
        <ele>125.720656</ele>
        <time>2025-02-14T18:16:32.944Z</time>
      </trkpt>
      <trkpt lat="44.96991" lon="4.85072">
        <ele>126.603139</ele>
        <time>2025-02-14T18:16:39.274Z</time>
      </trkpt>
      <trkpt lat="44.96972" lon="4.85066">
        <ele>126.976893</ele>
        <time>2025-02-14T18:16:41.761Z</time>
      </trkpt>
      <trkpt lat="44.96946" lon="4.85059">
        <ele>127.470756</ele>
        <time>2025-02-14T18:16:45.032Z</time>
      </trkpt>
      <trkpt lat="44.96895" lon="4.85045">
        <ele>127.755663</ele>
        <time>2025-02-14T18:16:50.639Z</time>
      </trkpt>
      <trkpt lat="44.96792" lon="4.85014">
        <ele>128.335107</ele>
        <time>2025-02-14T18:17:01.104Z</time>
      </trkpt>
      <trkpt lat="44.96781" lon="4.85011">
        <ele>128.396926</ele>
        <time>2025-02-14T18:17:02.139Z</time>
      </trkpt>
      <trkpt lat="44.96716" lon="4.84992">
        <ele>128.336943</ele>
        <time>2025-02-14T18:17:08.003Z</time>
      </trkpt>
      <trkpt lat="44.96663" lon="4.84976">
        <ele>128.228084</ele>
        <time>2025-02-14T18:17:12.770Z</time>
      </trkpt>
      <trkpt lat="44.96531" lon="4.84935">
        <ele>128.219088</ele>
        <time>2025-02-14T18:17:23.297Z</time>
      </trkpt>
      <trkpt lat="44.96487" lon="4.84922">
        <ele>128.305713</ele>
        <time>2025-02-14T18:17:27.086Z</time>
      </trkpt>
      <trkpt lat="44.96466" lon="4.84916">
        <ele>128.345681</ele>
        <time>2025-02-14T18:17:29.354Z</time>
      </trkpt>
      <trkpt lat="44.96454" lon="4.84913">
        <ele>128.369844</ele>
        <time>2025-02-14T18:17:30.819Z</time>
      </trkpt>
      <trkpt lat="44.96416" lon="4.84901">
        <ele>128.475705</ele>
        <time>2025-02-14T18:17:35.484Z</time>
      </trkpt>
      <trkpt lat="44.96407" lon="4.84898">
        <ele>128.572825</ele>
        <time>2025-02-14T18:17:36.560Z</time>
      </trkpt>
      <trkpt lat="44.96363" lon="4.84885">
        <ele>129.055445</ele>
        <time>2025-02-14T18:17:42.304Z</time>
      </trkpt>
      <trkpt lat="44.96361" lon="4.84884">
        <ele>129.074001</ele>
        <time>2025-02-14T18:17:42.521Z</time>
      </trkpt>
      <trkpt lat="44.96232" lon="4.84845">
        <ele>130.353562</ele>
        <time>2025-02-14T18:17:57.817Z</time>
      </trkpt>
      <trkpt lat="44.96138" lon="4.84817">
        <ele>130.301807</ele>
        <time>2025-02-14T18:18:05.871Z</time>
      </trkpt>
      <trkpt lat="44.96118" lon="4.84811">
        <ele>130.29069</ele>
        <time>2025-02-14T18:18:07.503Z</time>
      </trkpt>
      <trkpt lat="44.96113" lon="4.8481">
        <ele>130.287662</ele>
        <time>2025-02-14T18:18:07.955Z</time>
      </trkpt>
      <trkpt lat="44.96069" lon="4.84797">
        <ele>130.263654</ele>
        <time>2025-02-14T18:18:11.495Z</time>
      </trkpt>
      <trkpt lat="44.95988" lon="4.84767">
        <ele>129.964663</ele>
        <time>2025-02-14T18:18:18.735Z</time>
      </trkpt>
      <trkpt lat="44.95942" lon="4.84757">
        <ele>129.793764</ele>
        <time>2025-02-14T18:18:22.513Z</time>
      </trkpt>
      <trkpt lat="44.95919" lon="4.84751">
        <ele>129.710242</ele>
        <time>2025-02-14T18:18:24.307Z</time>
      </trkpt>
      <trkpt lat="44.95898" lon="4.84744">
        <ele>129.632558</ele>
        <time>2025-02-14T18:18:26.001Z</time>
      </trkpt>
      <trkpt lat="44.95878" lon="4.84738">
        <ele>129.550013</ele>
        <time>2025-02-14T18:18:27.637Z</time>
      </trkpt>
      <trkpt lat="44.95822" lon="4.84721">
        <ele>129.311756</ele>
        <time>2025-02-14T18:18:32.256Z</time>
      </trkpt>
      <trkpt lat="44.95752" lon="4.84699">
        <ele>129.009309</ele>
        <time>2025-02-14T18:18:37.934Z</time>
      </trkpt>
      <trkpt lat="44.95657" lon="4.84667">
        <ele>128.91486</ele>
        <time>2025-02-14T18:18:49.419Z</time>
      </trkpt>
      <trkpt lat="44.95654" lon="4.84654">
        <ele>128.923622</ele>
        <time>2025-02-14T18:18:50.285Z</time>
      </trkpt>
      <trkpt lat="44.95639" lon="4.84646">
        <ele>128.939113</ele>
        <time>2025-02-14T18:18:51.811Z</time>
      </trkpt>
      <trkpt lat="44.95392" lon="4.84547">
        <ele>129.694983</ele>
        <time>2025-02-14T18:19:16.794Z</time>
      </trkpt>
      <trkpt lat="44.95377" lon="4.84547">
        <ele>129.757137</ele>
        <time>2025-02-14T18:19:18.321Z</time>
      </trkpt>
      <trkpt lat="44.95344" lon="4.84532">
        <ele>130.074247</ele>
        <time>2025-02-14T18:19:21.843Z</time>
      </trkpt>
      <trkpt lat="44.95338" lon="4.84526">
        <ele>130.144772</ele>
        <time>2025-02-14T18:19:22.615Z</time>
      </trkpt>
      <trkpt lat="44.95309" lon="4.84514">
        <ele>130.428035</ele>
        <time>2025-02-14T18:19:25.849Z</time>
      </trkpt>
      <trkpt lat="44.95208" lon="4.84471">
        <ele>131.4218</ele>
        <time>2025-02-14T18:19:37.918Z</time>
      </trkpt>
      <trkpt lat="44.95089" lon="4.84421">
        <ele>133.007024</ele>
        <time>2025-02-14T18:19:53.525Z</time>
      </trkpt>
      <trkpt lat="44.9507" lon="4.84417">
        <ele>133.262582</ele>
        <time>2025-02-14T18:19:55.957Z</time>
      </trkpt>
      <trkpt lat="44.95061" lon="4.84414">
        <ele>133.376128</ele>
        <time>2025-02-14T18:19:56.981Z</time>
      </trkpt>
      <trkpt lat="44.95012" lon="4.84392">
        <ele>133.771398</ele>
        <time>2025-02-14T18:20:02.906Z</time>
      </trkpt>
      <trkpt lat="44.95009" lon="4.84403">
        <ele>133.772395</ele>
        <time>2025-02-14T18:20:03.988Z</time>
      </trkpt>
      <trkpt lat="44.94911" lon="4.8436">
        <ele>133.785193</ele>
        <time>2025-02-14T18:20:13.279Z</time>
      </trkpt>
      <trkpt lat="44.94907" lon="4.84358">
        <ele>133.785688</ele>
        <time>2025-02-14T18:20:13.572Z</time>
      </trkpt>
      <trkpt lat="44.949" lon="4.84355">
        <ele>133.786679</ele>
        <time>2025-02-14T18:20:14.180Z</time>
      </trkpt>
      <trkpt lat="44.94889" lon="4.84351">
        <ele>133.78802</ele>
        <time>2025-02-14T18:20:14.988Z</time>
      </trkpt>
      <trkpt lat="44.94861" lon="4.8435">
        <ele>133.764686</ele>
        <time>2025-02-14T18:20:17.093Z</time>
      </trkpt>
      <trkpt lat="44.94845" lon="4.84357">
        <ele>133.606099</ele>
        <time>2025-02-14T18:20:18.348Z</time>
      </trkpt>
      <trkpt lat="44.94831" lon="4.8437">
        <ele>133.452575</ele>
        <time>2025-02-14T18:20:19.550Z</time>
      </trkpt>
      <trkpt lat="44.94745" lon="4.84484">
        <ele>132.369432</ele>
        <time>2025-02-14T18:20:28.178Z</time>
      </trkpt>
      <trkpt lat="44.9474" lon="4.84491">
        <ele>132.305425</ele>
        <time>2025-02-14T18:20:28.706Z</time>
      </trkpt>
      <trkpt lat="44.94632" lon="4.84637">
        <ele>130.91272</ele>
        <time>2025-02-14T18:20:39.921Z</time>
      </trkpt>
      <trkpt lat="44.94611" lon="4.84669">
        <ele>130.626591</ele>
        <time>2025-02-14T18:20:42.238Z</time>
      </trkpt>
      <trkpt lat="44.94608" lon="4.84675">
        <ele>130.575918</ele>
        <time>2025-02-14T18:20:42.634Z</time>
      </trkpt>
      <trkpt lat="44.94592" lon="4.84713">
        <ele>130.379177</ele>
        <time>2025-02-14T18:20:44.921Z</time>
      </trkpt>
      <trkpt lat="44.94587" lon="4.8471">
        <ele>130.355443</ele>
        <time>2025-02-14T18:20:45.327Z</time>
      </trkpt>
      <trkpt lat="44.94577" lon="4.84713">
        <ele>130.309675</ele>
        <time>2025-02-14T18:20:46.063Z</time>
      </trkpt>
      <trkpt lat="44.94576" lon="4.84714">
        <ele>130.303619</ele>
        <time>2025-02-14T18:20:46.163Z</time>
      </trkpt>
      <trkpt lat="44.94561" lon="4.84733">
        <ele>130.215827</ele>
        <time>2025-02-14T18:20:47.571Z</time>
      </trkpt>
      <trkpt lat="44.9456" lon="4.84735">
        <ele>130.207452</ele>
        <time>2025-02-14T18:20:47.705Z</time>
      </trkpt>
      <trkpt lat="44.94556" lon="4.84746">
        <ele>130.172117</ele>
        <time>2025-02-14T18:20:48.248Z</time>
      </trkpt>
      <trkpt lat="44.94556" lon="4.84755">
        <ele>130.143741</ele>
        <time>2025-02-14T18:20:48.710Z</time>
      </trkpt>
      <trkpt lat="44.94557" lon="4.8476">
        <ele>130.126881</ele>
        <time>2025-02-14T18:20:48.976Z</time>
      </trkpt>
      <trkpt lat="44.94563" lon="4.84771">
        <ele>130.084022</ele>
        <time>2025-02-14T18:20:49.675Z</time>
      </trkpt>
      <trkpt lat="44.94568" lon="4.84775">
        <ele>130.060269</ele>
        <time>2025-02-14T18:20:50.076Z</time>
      </trkpt>
      <trkpt lat="44.94572" lon="4.84789">
        <ele>130.014427</ele>
        <time>2025-02-14T18:20:50.859Z</time>
      </trkpt>
      <trkpt lat="44.94579" lon="4.8481">
        <ele>129.943659</ele>
        <time>2025-02-14T18:20:52.180Z</time>
      </trkpt>
      <trkpt lat="44.94588" lon="4.84835">
        <ele>129.856401</ele>
        <time>2025-02-14T18:20:54.044Z</time>
      </trkpt>
      <trkpt lat="44.94591" lon="4.84857">
        <ele>129.787126</ele>
        <time>2025-02-14T18:20:55.659Z</time>
      </trkpt>
      <trkpt lat="44.94591" lon="4.84881">
        <ele>129.713081</ele>
        <time>2025-02-14T18:20:57.454Z</time>
      </trkpt>
      <trkpt lat="44.94595" lon="4.84905">
        <ele>129.632716</ele>
        <time>2025-02-14T18:20:59.503Z</time>
      </trkpt>
      <trkpt lat="44.94605" lon="4.84932">
        <ele>129.530102</ele>
        <time>2025-02-14T18:21:02.548Z</time>
      </trkpt>
      <trkpt lat="44.94641" lon="4.85031">
        <ele>129.15386</ele>
        <time>2025-02-14T18:21:10.301Z</time>
      </trkpt>
      <trkpt lat="44.94653" lon="4.85077">
        <ele>128.985226</ele>
        <time>2025-02-14T18:21:12.865Z</time>
      </trkpt>
      <trkpt lat="44.94654" lon="4.85112">
        <ele>128.868068</ele>
        <time>2025-02-14T18:21:14.419Z</time>
      </trkpt>
      <trkpt lat="44.94648" lon="4.85139">
        <ele>128.545037</ele>
        <time>2025-02-14T18:21:15.681Z</time>
      </trkpt>
      <trkpt lat="44.94641" lon="4.85159">
        <ele>128.078921</ele>
        <time>2025-02-14T18:21:16.654Z</time>
      </trkpt>
      <trkpt lat="44.94621" lon="4.85183">
        <ele>127.291727</ele>
        <time>2025-02-14T18:21:18.266Z</time>
      </trkpt>
      <trkpt lat="44.94597" lon="4.85208">
        <ele>126.425653</ele>
        <time>2025-02-14T18:21:19.940Z</time>
      </trkpt>
      <trkpt lat="44.94567" lon="4.85231">
        <ele>125.423194</ele>
        <time>2025-02-14T18:21:21.933Z</time>
      </trkpt>
      <trkpt lat="44.94554" lon="4.85237">
        <ele>125.016882</ele>
        <time>2025-02-14T18:21:22.800Z</time>
      </trkpt>
      <trkpt lat="44.94537" lon="4.85239">
        <ele>124.521087</ele>
        <time>2025-02-14T18:21:23.869Z</time>
      </trkpt>
      <trkpt lat="44.94533" lon="4.85236">
        <ele>124.386751</ele>
        <time>2025-02-14T18:21:24.172Z</time>
      </trkpt>
      <trkpt lat="44.94524" lon="4.85235">
        <ele>124.119356</ele>
        <time>2025-02-14T18:21:24.758Z</time>
      </trkpt>
      <trkpt lat="44.94517" lon="4.85243">
        <ele>123.853688</ele>
        <time>2025-02-14T18:21:25.370Z</time>
      </trkpt>
      <trkpt lat="44.94515" lon="4.85254">
        <ele>123.628447</ele>
        <time>2025-02-14T18:21:25.885Z</time>
      </trkpt>
      <trkpt lat="44.94518" lon="4.85264">
        <ele>123.48826</ele>
        <time>2025-02-14T18:21:26.432Z</time>
      </trkpt>
      <trkpt lat="44.94523" lon="4.85269">
        <ele>123.423759</ele>
        <time>2025-02-14T18:21:26.868Z</time>
      </trkpt>
      <trkpt lat="44.9453" lon="4.85283">
        <ele>123.29981</ele>
        <time>2025-02-14T18:21:27.730Z</time>
      </trkpt>
      <trkpt lat="44.94533" lon="4.85297">
        <ele>123.189489</ele>
        <time>2025-02-14T18:21:28.508Z</time>
      </trkpt>
      <trkpt lat="44.94537" lon="4.85332">
        <ele>122.931015</ele>
        <time>2025-02-14T18:21:30.380Z</time>
      </trkpt>
      <trkpt lat="44.94539" lon="4.85358">
        <ele>122.733973</ele>
        <time>2025-02-14T18:21:31.806Z</time>
      </trkpt>
      <trkpt lat="44.9454" lon="4.85365">
        <ele>122.682371</ele>
        <time>2025-02-14T18:21:32.179Z</time>
      </trkpt>
      <trkpt lat="44.94539" lon="4.85403">
        <ele>122.403974</ele>
        <time>2025-02-14T18:21:34.142Z</time>
      </trkpt>
      <trkpt lat="44.94538" lon="4.85416">
        <ele>122.30077</ele>
        <time>2025-02-14T18:21:34.883Z</time>
      </trkpt>
      <trkpt lat="44.94534" lon="4.85446">
        <ele>122.07375</ele>
        <time>2025-02-14T18:21:36.521Z</time>
      </trkpt>
      <trkpt lat="44.94525" lon="4.85473">
        <ele>121.854807</ele>
        <time>2025-02-14T18:21:38.091Z</time>
      </trkpt>
      <trkpt lat="44.94501" lon="4.8554">
        <ele>121.433755</ele>
        <time>2025-02-14T18:21:42.075Z</time>
      </trkpt>
      <trkpt lat="44.9449" lon="4.85565">
        <ele>121.300236</ele>
        <time>2025-02-14T18:21:43.589Z</time>
      </trkpt>
      <trkpt lat="44.94476" lon="4.85587">
        <ele>121.162267</ele>
        <time>2025-02-14T18:21:45.180Z</time>
      </trkpt>
      <trkpt lat="44.94464" lon="4.856">
        <ele>121.0656</ele>
        <time>2025-02-14T18:21:46.308Z</time>
      </trkpt>
      <trkpt lat="44.94448" lon="4.85606">
        <ele>120.957405</ele>
        <time>2025-02-14T18:21:47.599Z</time>
      </trkpt>
      <trkpt lat="44.94438" lon="4.85607">
        <ele>120.886207</ele>
        <time>2025-02-14T18:21:48.449Z</time>
      </trkpt>
      <trkpt lat="44.94412" lon="4.85599">
        <ele>120.71335</ele>
        <time>2025-02-14T18:21:50.544Z</time>
      </trkpt>
      <trkpt lat="44.94375" lon="4.85592">
        <ele>120.477397</ele>
        <time>2025-02-14T18:21:53.536Z</time>
      </trkpt>
      <trkpt lat="44.94352" lon="4.85592">
        <ele>120.438958</ele>
        <time>2025-02-14T18:21:55.382Z</time>
      </trkpt>
      <trkpt lat="44.94306" lon="4.856">
        <ele>120.359086</ele>
        <time>2025-02-14T18:21:59.501Z</time>
      </trkpt>
      <trkpt lat="44.94263" lon="4.85622">
        <ele>120.280042</ele>
        <time>2025-02-14T18:22:03.865Z</time>
      </trkpt>
      <trkpt lat="44.94196" lon="4.85668">
        <ele>120.07729</ele>
        <time>2025-02-14T18:22:10.200Z</time>
      </trkpt>
      <trkpt lat="44.94174" lon="4.85681">
        <ele>119.884269</ele>
        <time>2025-02-14T18:22:12.006Z</time>
      </trkpt>
      <trkpt lat="44.94024" lon="4.85761">
        <ele>118.59668</ele>
        <time>2025-02-14T18:22:23.695Z</time>
      </trkpt>
      <trkpt lat="44.93967" lon="4.85779">
        <ele>118.288304</ele>
        <time>2025-02-14T18:22:28.146Z</time>
      </trkpt>
      <trkpt lat="44.93934" lon="4.85797">
        <ele>118.104743</ele>
        <time>2025-02-14T18:22:30.934Z</time>
      </trkpt>
      <trkpt lat="44.93923" lon="4.85795">
        <ele>118.045104</ele>
        <time>2025-02-14T18:22:31.888Z</time>
      </trkpt>
      <trkpt lat="44.93911" lon="4.85802">
        <ele>117.977651</ele>
        <time>2025-02-14T18:22:32.977Z</time>
      </trkpt>
      <trkpt lat="44.93903" lon="4.85821">
        <ele>117.895929</ele>
        <time>2025-02-14T18:22:34.325Z</time>
      </trkpt>
      <trkpt lat="44.93883" lon="4.85835">
        <ele>117.782525</ele>
        <time>2025-02-14T18:22:36.220Z</time>
      </trkpt>
      <trkpt lat="44.9387" lon="4.85839">
        <ele>117.727337</ele>
        <time>2025-02-14T18:22:37.482Z</time>
      </trkpt>
      <trkpt lat="44.9376" lon="4.85859">
        <ele>117.565536</ele>
        <time>2025-02-14T18:22:47.184Z</time>
      </trkpt>
      <trkpt lat="44.93711" lon="4.85864">
        <ele>117.492519</ele>
        <time>2025-02-14T18:22:51.408Z</time>
      </trkpt>
      <trkpt lat="44.93613" lon="4.85866">
        <ele>117.034363</ele>
        <time>2025-02-14T18:22:59.186Z</time>
      </trkpt>
      <trkpt lat="44.93446" lon="4.85841">
        <ele>116.027346</ele>
        <time>2025-02-14T18:23:12.263Z</time>
      </trkpt>
      <trkpt lat="44.93421" lon="4.85849">
        <ele>115.852048</ele>
        <time>2025-02-14T18:23:14.198Z</time>
      </trkpt>
      <trkpt lat="44.93405" lon="4.85862">
        <ele>115.72218</ele>
        <time>2025-02-14T18:23:15.629Z</time>
      </trkpt>
      <trkpt lat="44.93393" lon="4.85875">
        <ele>115.618744</ele>
        <time>2025-02-14T18:23:16.764Z</time>
      </trkpt>
      <trkpt lat="44.93369" lon="4.85918">
        <ele>115.347412</ele>
        <time>2025-02-14T18:23:19.736Z</time>
      </trkpt>
      <trkpt lat="44.93356" lon="4.85934">
        <ele>115.222677</ele>
        <time>2025-02-14T18:23:21.053Z</time>
      </trkpt>
      <trkpt lat="44.93338" lon="4.85938">
        <ele>115.090944</ele>
        <time>2025-02-14T18:23:22.369Z</time>
      </trkpt>
      <trkpt lat="44.93333" lon="4.85934">
        <ele>115.0461</ele>
        <time>2025-02-14T18:23:22.823Z</time>
      </trkpt>
      <trkpt lat="44.9332" lon="4.85934">
        <ele>114.952057</ele>
        <time>2025-02-14T18:23:23.767Z</time>
      </trkpt>
      <trkpt lat="44.93312" lon="4.85944">
        <ele>114.871821</ele>
        <time>2025-02-14T18:23:24.582Z</time>
      </trkpt>
      <trkpt lat="44.93302" lon="4.8595">
        <ele>114.78765</ele>
        <time>2025-02-14T18:23:25.443Z</time>
      </trkpt>
      <trkpt lat="44.93275" lon="4.85953">
        <ele>114.587847</ele>
        <time>2025-02-14T18:23:27.479Z</time>
      </trkpt>
      <trkpt lat="44.93262" lon="4.85953">
        <ele>114.490072</ele>
        <time>2025-02-14T18:23:28.489Z</time>
      </trkpt>
      <trkpt lat="44.93214" lon="4.85952">
        <ele>114.13104</ele>
        <time>2025-02-14T18:23:32.179Z</time>
      </trkpt>
      <trkpt lat="44.93126" lon="4.85931">
        <ele>113.479201</ele>
        <time>2025-02-14T18:23:38.924Z</time>
      </trkpt>
      <trkpt lat="44.9308" lon="4.85926">
        <ele>113.139047</ele>
        <time>2025-02-14T18:23:42.501Z</time>
      </trkpt>
      <trkpt lat="44.9295" lon="4.85934">
        <ele>112.361257</ele>
        <time>2025-02-14T18:23:52.425Z</time>
      </trkpt>
      <trkpt lat="44.92834" lon="4.85946">
        <ele>111.854219</ele>
        <time>2025-02-14T18:24:02.032Z</time>
      </trkpt>
      <trkpt lat="44.92812" lon="4.85946">
        <ele>111.799534</ele>
        <time>2025-02-14T18:24:03.902Z</time>
      </trkpt>
      <trkpt lat="44.92798" lon="4.85942">
        <ele>111.772717</ele>
        <time>2025-02-14T18:24:05.100Z</time>
      </trkpt>
      <trkpt lat="44.92789" lon="4.8593">
        <ele>111.74877</ele>
        <time>2025-02-14T18:24:06.173Z</time>
      </trkpt>
      <trkpt lat="44.92779" lon="4.85927">
        <ele>111.728718</ele>
        <time>2025-02-14T18:24:07.080Z</time>
      </trkpt>
      <trkpt lat="44.92773" lon="4.85929">
        <ele>111.718616</ele>
        <time>2025-02-14T18:24:07.537Z</time>
      </trkpt>
      <trkpt lat="44.92765" lon="4.8594">
        <ele>111.69683</ele>
        <time>2025-02-14T18:24:08.523Z</time>
      </trkpt>
      <trkpt lat="44.9275" lon="4.85948">
        <ele>111.666741</ele>
        <time>2025-02-14T18:24:09.880Z</time>
      </trkpt>
      <trkpt lat="44.92735" lon="4.85952">
        <ele>111.637011</ele>
        <time>2025-02-14T18:24:11.233Z</time>
      </trkpt>
      <trkpt lat="44.92586" lon="4.8596">
        <ele>111.208002</ele>
        <time>2025-02-14T18:24:23.704Z</time>
      </trkpt>
      <trkpt lat="44.92453" lon="4.85975">
        <ele>110.663931</ele>
        <time>2025-02-14T18:24:34.374Z</time>
      </trkpt>
      <trkpt lat="44.92413" lon="4.85974">
        <ele>110.467214</ele>
        <time>2025-02-14T18:24:37.520Z</time>
      </trkpt>
      <trkpt lat="44.92405" lon="4.85966">
        <ele>110.420647</ele>
        <time>2025-02-14T18:24:38.281Z</time>
      </trkpt>
      <trkpt lat="44.92396" lon="4.85963">
        <ele>110.372441</ele>
        <time>2025-02-14T18:24:39.053Z</time>
      </trkpt>
      <trkpt lat="44.92386" lon="4.85966">
        <ele>110.324723</ele>
        <time>2025-02-14T18:24:39.829Z</time>
      </trkpt>
      <trkpt lat="44.92382" lon="4.8597">
        <ele>110.302224</ele>
        <time>2025-02-14T18:24:40.194Z</time>
      </trkpt>
      <trkpt lat="44.92375" lon="4.85984">
        <ele>110.242565</ele>
        <time>2025-02-14T18:24:41.167Z</time>
      </trkpt>
      <trkpt lat="44.92374" lon="4.85994">
        <ele>110.206995</ele>
        <time>2025-02-14T18:24:41.748Z</time>
      </trkpt>
      <trkpt lat="44.92362" lon="4.8601">
        <ele>110.12623</ele>
        <time>2025-02-14T18:24:43.077Z</time>
      </trkpt>
      <trkpt lat="44.92344" lon="4.86025">
        <ele>110.026671</ele>
        <time>2025-02-14T18:24:44.704Z</time>
      </trkpt>
      <trkpt lat="44.92259" lon="4.86077">
        <ele>109.734193</ele>
        <time>2025-02-14T18:24:52.226Z</time>
      </trkpt>
      <trkpt lat="44.92113" lon="4.8618">
        <ele>109.364343</ele>
        <time>2025-02-14T18:25:06.265Z</time>
      </trkpt>
      <trkpt lat="44.92087" lon="4.86192">
        <ele>109.317239</ele>
        <time>2025-02-14T18:25:08.594Z</time>
      </trkpt>
      <trkpt lat="44.92071" lon="4.86193">
        <ele>109.289266</ele>
        <time>2025-02-14T18:25:09.996Z</time>
      </trkpt>
      <trkpt lat="44.92061" lon="4.86185">
        <ele>109.269169</ele>
        <time>2025-02-14T18:25:11.010Z</time>
      </trkpt>
      <trkpt lat="44.92049" lon="4.86184">
        <ele>109.248893</ele>
        <time>2025-02-14T18:25:12.022Z</time>
      </trkpt>
      <trkpt lat="44.92036" lon="4.86176">
        <ele>109.222818</ele>
        <time>2025-02-14T18:25:13.804Z</time>
      </trkpt>
      <trkpt lat="44.92024" lon="4.86162">
        <ele>109.19727</ele>
        <time>2025-02-14T18:25:15.537Z</time>
      </trkpt>
      <trkpt lat="44.92018" lon="4.86169">
        <ele>109.183703</ele>
        <time>2025-02-14T18:25:16.203Z</time>
      </trkpt>
      <trkpt lat="44.92013" lon="4.86176">
        <ele>109.171792</ele>
        <time>2025-02-14T18:25:16.789Z</time>
      </trkpt>
      <trkpt lat="44.92021" lon="4.86191">
        <ele>109.148481</ele>
        <time>2025-02-14T18:25:17.920Z</time>
      </trkpt>
      <trkpt lat="44.92021" lon="4.86204">
        <ele>109.116107</ele>
        <time>2025-02-14T18:25:18.686Z</time>
      </trkpt>
      <trkpt lat="44.92018" lon="4.86213">
        <ele>109.0794</ele>
        <time>2025-02-14T18:25:19.263Z</time>
      </trkpt>
      <trkpt lat="44.92003" lon="4.86223">
        <ele>108.996839</ele>
        <time>2025-02-14T18:25:20.534Z</time>
      </trkpt>
      <trkpt lat="44.91672" lon="4.86321">
        <ele>107.163769</ele>
        <time>2025-02-14T18:25:47.017Z</time>
      </trkpt>
      <trkpt lat="44.9162" lon="4.86328">
        <ele>107.022172</ele>
        <time>2025-02-14T18:25:51.272Z</time>
      </trkpt>
      <trkpt lat="44.9158" lon="4.86324">
        <ele>106.913776</ele>
        <time>2025-02-14T18:25:54.599Z</time>
      </trkpt>
      <trkpt lat="44.91547" lon="4.86318">
        <ele>106.823206</ele>
        <time>2025-02-14T18:25:57.421Z</time>
      </trkpt>
      <trkpt lat="44.91306" lon="4.86255">
        <ele>106.308388</ele>
        <time>2025-02-14T18:26:18.307Z</time>
      </trkpt>
      <trkpt lat="44.91254" lon="4.8625">
        <ele>106.221522</ele>
        <time>2025-02-14T18:26:22.731Z</time>
      </trkpt>
      <trkpt lat="44.91194" lon="4.86257">
        <ele>106.120548</ele>
        <time>2025-02-14T18:26:27.886Z</time>
      </trkpt>
      <trkpt lat="44.91154" lon="4.86267">
        <ele>106.054121</ele>
        <time>2025-02-14T18:26:31.273Z</time>
      </trkpt>
      <trkpt lat="44.91117" lon="4.86284">
        <ele>106.001423</ele>
        <time>2025-02-14T18:26:34.650Z</time>
      </trkpt>
      <trkpt lat="44.91083" lon="4.86305">
        <ele>105.957355</ele>
        <time>2025-02-14T18:26:37.745Z</time>
      </trkpt>
      <trkpt lat="44.91019" lon="4.86361">
        <ele>105.865515</ele>
        <time>2025-02-14T18:26:44.189Z</time>
      </trkpt>
      <trkpt lat="44.90998" lon="4.86385">
        <ele>105.832651</ele>
        <time>2025-02-14T18:26:46.546Z</time>
      </trkpt>
      <trkpt lat="44.9096" lon="4.86436">
        <ele>105.868486</ele>
        <time>2025-02-14T18:26:51.201Z</time>
      </trkpt>
      <trkpt lat="44.9087" lon="4.8658">
        <ele>106.028641</ele>
        <time>2025-02-14T18:27:03.964Z</time>
      </trkpt>
      <trkpt lat="44.90644" lon="4.86938">
        <ele>106.701057</ele>
        <time>2025-02-14T18:27:36.231Z</time>
      </trkpt>
      <trkpt lat="44.90643" lon="4.8694">
        <ele>106.702899</ele>
        <time>2025-02-14T18:27:36.346Z</time>
      </trkpt>
      <trkpt lat="44.90507" lon="4.87154">
        <ele>106.156731</ele>
        <time>2025-02-14T18:27:52.913Z</time>
      </trkpt>
      <trkpt lat="44.90503" lon="4.87155">
        <ele>106.145082</ele>
        <time>2025-02-14T18:27:53.274Z</time>
      </trkpt>
      <trkpt lat="44.905" lon="4.87149">
        <ele>106.129492</ele>
        <time>2025-02-14T18:27:53.759Z</time>
      </trkpt>
      <trkpt lat="44.90505" lon="4.87139">
        <ele>106.103985</ele>
        <time>2025-02-14T18:27:54.551Z</time>
      </trkpt>
      <trkpt lat="44.90564" lon="4.87045">
        <ele>105.852758</ele>
        <time>2025-02-14T18:28:02.089Z</time>
      </trkpt>
      <trkpt lat="44.90576" lon="4.8702">
        <ele>105.790975</ele>
        <time>2025-02-14T18:28:03.979Z</time>
      </trkpt>
      <trkpt lat="44.9054" lon="4.86994">
        <ele>105.67689</ele>
        <time>2025-02-14T18:28:07.403Z</time>
      </trkpt>
      <trkpt lat="44.90468" lon="4.86967">
        <ele>105.285433</ele>
        <time>2025-02-14T18:28:13.087Z</time>
      </trkpt>
      <trkpt lat="44.90455" lon="4.86989">
        <ele>105.171528</ele>
        <time>2025-02-14T18:28:15.233Z</time>
      </trkpt>
      <trkpt lat="44.90435" lon="4.87009">
        <ele>105.035592</ele>
        <time>2025-02-14T18:28:17.909Z</time>
      </trkpt>
      <trkpt lat="44.90422" lon="4.87014">
        <ele>104.963214</ele>
        <time>2025-02-14T18:28:19.337Z</time>
      </trkpt>
      <trkpt lat="44.90412" lon="4.87018">
        <ele>104.902661</ele>
        <time>2025-02-14T18:28:20.544Z</time>
      </trkpt>
      <trkpt lat="44.90372" lon="4.86993">
        <ele>104.661603</ele>
        <time>2025-02-14T18:28:24.050Z</time>
      </trkpt>
      <trkpt lat="44.9036" lon="4.86991">
        <ele>104.672848</ele>
        <time>2025-02-14T18:28:24.989Z</time>
      </trkpt>
      <trkpt lat="44.90344" lon="4.86978">
        <ele>104.691437</ele>
        <time>2025-02-14T18:28:26.556Z</time>
      </trkpt>
      <trkpt lat="44.90328" lon="4.8696">
        <ele>104.712213</ele>
        <time>2025-02-14T18:28:28.344Z</time>
      </trkpt>
      <trkpt lat="44.90319" lon="4.86945">
        <ele>104.725819</ele>
        <time>2025-02-14T18:28:29.564Z</time>
      </trkpt>
      <trkpt lat="44.90294" lon="4.86861">
        <ele>104.78999</ele>
        <time>2025-02-14T18:28:35.898Z</time>
      </trkpt>
      <trkpt lat="44.90286" lon="4.86841">
        <ele>104.806202</ele>
        <time>2025-02-14T18:28:37.527Z</time>
      </trkpt>
      <trkpt lat="44.90276" lon="4.86825">
        <ele>104.820578</ele>
        <time>2025-02-14T18:28:38.948Z</time>
      </trkpt>
      <trkpt lat="44.90256" lon="4.86801">
        <ele>104.837397</ele>
        <time>2025-02-14T18:28:41.525Z</time>
      </trkpt>
      <trkpt lat="44.90216" lon="4.86781">
        <ele>104.824709</ele>
        <time>2025-02-14T18:28:45.422Z</time>
      </trkpt>
      <trkpt lat="44.90042" lon="4.86714">
        <ele>104.715817</ele>
        <time>2025-02-14T18:29:00.890Z</time>
      </trkpt>
      <trkpt lat="44.89659" lon="4.86564">
        <ele>104.779145</ele>
        <time>2025-02-14T18:29:35.074Z</time>
      </trkpt>
      <trkpt lat="44.89642" lon="4.86557">
        <ele>104.872676</ele>
        <time>2025-02-14T18:29:36.992Z</time>
      </trkpt>
      <trkpt lat="44.89612" lon="4.86545">
        <ele>105.038436</ele>
        <time>2025-02-14T18:29:40.596Z</time>
      </trkpt>
      <trkpt lat="44.89588" lon="4.86532">
        <ele>105.174297</ele>
        <time>2025-02-14T18:29:43.740Z</time>
      </trkpt>
      <trkpt lat="44.89573" lon="4.86512">
        <ele>105.291047</ele>
        <time>2025-02-14T18:29:46.357Z</time>
      </trkpt>
      <trkpt lat="44.89566" lon="4.86498">
        <ele>105.370119</ele>
        <time>2025-02-14T18:29:47.795Z</time>
      </trkpt>
      <trkpt lat="44.89559" lon="4.86481">
        <ele>105.467521</ele>
        <time>2025-02-14T18:29:49.566Z</time>
      </trkpt>
      <trkpt lat="44.89543" lon="4.86455">
        <ele>105.63225</ele>
        <time>2025-02-14T18:29:52.409Z</time>
      </trkpt>
      <trkpt lat="44.89526" lon="4.8644">
        <ele>105.771087</ele>
        <time>2025-02-14T18:29:54.708Z</time>
      </trkpt>
      <trkpt lat="44.8951" lon="4.86432">
        <ele>105.883708</ele>
        <time>2025-02-14T18:29:56.510Z</time>
      </trkpt>
      <trkpt lat="44.89503" lon="4.86429">
        <ele>105.931517</ele>
        <time>2025-02-14T18:29:57.251Z</time>
      </trkpt>
      <trkpt lat="44.8939" lon="4.86386">
        <ele>106.474778</ele>
        <time>2025-02-14T18:30:08.164Z</time>
      </trkpt>
      <trkpt lat="44.8937" lon="4.86489">
        <ele>106.440159</ele>
        <time>2025-02-14T18:30:14.401Z</time>
      </trkpt>
      <trkpt lat="44.89365" lon="4.86512">
        <ele>106.432331</ele>
        <time>2025-02-14T18:30:15.891Z</time>
      </trkpt>
      <trkpt lat="44.89353" lon="4.86508">
        <ele>106.426623</ele>
        <time>2025-02-14T18:30:16.989Z</time>
      </trkpt>
      <trkpt lat="44.89298" lon="4.86488">
        <ele>106.446932</ele>
        <time>2025-02-14T18:30:22.271Z</time>
      </trkpt>
      <trkpt lat="44.89152" lon="4.86433">
        <ele>106.768564</ele>
        <time>2025-02-14T18:30:36.777Z</time>
      </trkpt>
      <trkpt lat="44.89105" lon="4.8642">
        <ele>106.724587</ele>
        <time>2025-02-14T18:30:41.002Z</time>
      </trkpt>
      <trkpt lat="44.89093" lon="4.86417">
        <ele>106.701568</ele>
        <time>2025-02-14T18:30:42.048Z</time>
      </trkpt>
      <trkpt lat="44.89081" lon="4.86414">
        <ele>106.677971</ele>
        <time>2025-02-14T18:30:43.085Z</time>
      </trkpt>
      <trkpt lat="44.89049" lon="4.86407">
        <ele>106.616895</ele>
        <time>2025-02-14T18:30:45.763Z</time>
      </trkpt>
      <trkpt lat="44.88984" lon="4.86393">
        <ele>106.49361</ele>
        <time>2025-02-14T18:30:51.165Z</time>
      </trkpt>
      <trkpt lat="44.88976" lon="4.86391">
        <ele>106.478016</ele>
        <time>2025-02-14T18:30:51.859Z</time>
      </trkpt>
      <trkpt lat="44.88868" lon="4.86367">
        <ele>106.439115</ele>
        <time>2025-02-14T18:31:01.292Z</time>
      </trkpt>
      <trkpt lat="44.88854" lon="4.86363">
        <ele>106.436789</ele>
        <time>2025-02-14T18:31:02.543Z</time>
      </trkpt>
      <trkpt lat="44.88824" lon="4.86357">
        <ele>106.431758</ele>
        <time>2025-02-14T18:31:05.291Z</time>
      </trkpt>
      <trkpt lat="44.88803" lon="4.86352">
        <ele>106.428146</ele>
        <time>2025-02-14T18:31:07.320Z</time>
      </trkpt>
      <trkpt lat="44.88799" lon="4.86351">
        <ele>106.427528</ele>
        <time>2025-02-14T18:31:07.666Z</time>
      </trkpt>
      <trkpt lat="44.88793" lon="4.86349">
        <ele>106.426541</ele>
        <time>2025-02-14T18:31:08.217Z</time>
      </trkpt>
      <trkpt lat="44.88751" lon="4.8634">
        <ele>106.464044</ele>
        <time>2025-02-14T18:31:12.269Z</time>
      </trkpt>
      <trkpt lat="44.88723" lon="4.86334">
        <ele>106.494095</ele>
        <time>2025-02-14T18:31:14.675Z</time>
      </trkpt>
      <trkpt lat="44.8866" lon="4.8632">
        <ele>106.563682</ele>
        <time>2025-02-14T18:31:20.694Z</time>
      </trkpt>
      <trkpt lat="44.88621" lon="4.86312">
        <ele>106.607397</ele>
        <time>2025-02-14T18:31:24.369Z</time>
      </trkpt>
      <trkpt lat="44.88591" lon="4.86308">
        <ele>106.598769</ele>
        <time>2025-02-14T18:31:26.999Z</time>
      </trkpt>
      <trkpt lat="44.8856" lon="4.86313">
        <ele>106.558664</ele>
        <time>2025-02-14T18:31:29.634Z</time>
      </trkpt>
      <trkpt lat="44.88547" lon="4.86317">
        <ele>106.541238</ele>
        <time>2025-02-14T18:31:30.751Z</time>
      </trkpt>
      <trkpt lat="44.88524" lon="4.86328">
        <ele>106.509723</ele>
        <time>2025-02-14T18:31:32.790Z</time>
      </trkpt>
      <trkpt lat="44.88512" lon="4.86337">
        <ele>106.491349</ele>
        <time>2025-02-14T18:31:34.017Z</time>
      </trkpt>
      <trkpt lat="44.8839" lon="4.86425">
        <ele>106.384566</ele>
        <time>2025-02-14T18:31:45.750Z</time>
      </trkpt>
      <trkpt lat="44.88346" lon="4.8645">
        <ele>106.382583</ele>
        <time>2025-02-14T18:31:49.886Z</time>
      </trkpt>
      <trkpt lat="44.8832" lon="4.86459">
        <ele>106.381441</ele>
        <time>2025-02-14T18:31:52.303Z</time>
      </trkpt>
      <trkpt lat="44.8828" lon="4.86468">
        <ele>106.379729</ele>
        <time>2025-02-14T18:31:56.024Z</time>
      </trkpt>
      <trkpt lat="44.88237" lon="4.8647">
        <ele>106.393178</ele>
        <time>2025-02-14T18:32:00.000Z</time>
      </trkpt>
      <trkpt lat="44.88171" lon="4.86473">
        <ele>106.420169</ele>
        <time>2025-02-14T18:32:05.911Z</time>
      </trkpt>
      <trkpt lat="44.88169" lon="4.86465">
        <ele>106.422573</ele>
        <time>2025-02-14T18:32:06.436Z</time>
      </trkpt>
      <trkpt lat="44.88165" lon="4.86464">
        <ele>106.424211</ele>
        <time>2025-02-14T18:32:06.778Z</time>
      </trkpt>
      <trkpt lat="44.8816" lon="4.86466">
        <ele>106.426092</ele>
        <time>2025-02-14T18:32:07.187Z</time>
      </trkpt>
      <trkpt lat="44.88158" lon="4.86474">
        <ele>106.428816</ele>
        <time>2025-02-14T18:32:07.778Z</time>
      </trkpt>
      <trkpt lat="44.88107" lon="4.86477">
        <ele>106.449428</ele>
        <time>2025-02-14T18:32:12.149Z</time>
      </trkpt>
      <trkpt lat="44.87933" lon="4.86484">
        <ele>106.934341</ele>
        <time>2025-02-14T18:32:28.455Z</time>
      </trkpt>
      <trkpt lat="44.87923" lon="4.86489">
        <ele>106.964579</ele>
        <time>2025-02-14T18:32:29.502Z</time>
      </trkpt>
      <trkpt lat="44.87917" lon="4.86505">
        <ele>107.063916</ele>
        <time>2025-02-14T18:32:30.857Z</time>
      </trkpt>
      <trkpt lat="44.87913" lon="4.86521">
        <ele>107.182647</ele>
        <time>2025-02-14T18:32:32.302Z</time>
      </trkpt>
      <trkpt lat="44.87911" lon="4.86532">
        <ele>107.254725</ele>
        <time>2025-02-14T18:32:33.232Z</time>
      </trkpt>
      <trkpt lat="44.87905" lon="4.86557">
        <ele>107.433595</ele>
        <time>2025-02-14T18:32:35.514Z</time>
      </trkpt>
      <trkpt lat="44.8789" lon="4.86626">
        <ele>107.91305</ele>
        <time>2025-02-14T18:32:41.617Z</time>
      </trkpt>
      <trkpt lat="44.87883" lon="4.86639">
        <ele>108.027313</ele>
        <time>2025-02-14T18:32:43.129Z</time>
      </trkpt>
      <trkpt lat="44.87879" lon="4.86655">
        <ele>108.138807</ele>
        <time>2025-02-14T18:32:44.584Z</time>
      </trkpt>
      <trkpt lat="44.87875" lon="4.86671">
        <ele>108.250915</ele>
        <time>2025-02-14T18:32:45.971Z</time>
      </trkpt>
      <trkpt lat="44.87866" lon="4.86708">
        <ele>108.518085</ele>
        <time>2025-02-14T18:32:48.890Z</time>
      </trkpt>
      <trkpt lat="44.87866" lon="4.86738">
        <ele>108.677743</ele>
        <time>2025-02-14T18:32:50.966Z</time>
      </trkpt>
      <trkpt lat="44.87856" lon="4.86777">
        <ele>108.700683</ele>
        <time>2025-02-14T18:32:53.953Z</time>
      </trkpt>
      <trkpt lat="44.87843" lon="4.86845">
        <ele>108.74067</ele>
        <time>2025-02-14T18:32:58.869Z</time>
      </trkpt>
      <trkpt lat="44.87831" lon="4.86908">
        <ele>108.77702</ele>
        <time>2025-02-14T18:33:02.944Z</time>
      </trkpt>
      <trkpt lat="44.87814" lon="4.87019">
        <ele>108.658478</ele>
        <time>2025-02-14T18:33:09.377Z</time>
      </trkpt>
      <trkpt lat="44.87786" lon="4.87265">
        <ele>108.018503</ele>
        <time>2025-02-14T18:33:23.074Z</time>
      </trkpt>
      <trkpt lat="44.87784" lon="4.87281">
        <ele>108.075531</ele>
        <time>2025-02-14T18:33:24.125Z</time>
      </trkpt>
      <trkpt lat="44.87781" lon="4.87298">
        <ele>108.139679</ele>
        <time>2025-02-14T18:33:25.321Z</time>
      </trkpt>
      <trkpt lat="44.8778" lon="4.87306">
        <ele>108.16914</ele>
        <time>2025-02-14T18:33:25.892Z</time>
      </trkpt>
      <trkpt lat="44.87775" lon="4.87354">
        <ele>108.347149</ele>
        <time>2025-02-14T18:33:29.513Z</time>
      </trkpt>
      <trkpt lat="44.87773" lon="4.87369">
        <ele>108.402656</ele>
        <time>2025-02-14T18:33:30.726Z</time>
      </trkpt>
      <trkpt lat="44.87771" lon="4.87384">
        <ele>108.46005</ele>
        <time>2025-02-14T18:33:32.002Z</time>
      </trkpt>
      <trkpt lat="44.87769" lon="4.87398">
        <ele>108.512402</ele>
        <time>2025-02-14T18:33:33.190Z</time>
      </trkpt>
      <trkpt lat="44.87766" lon="4.87412">
        <ele>108.56479</ele>
        <time>2025-02-14T18:33:34.425Z</time>
      </trkpt>
      <trkpt lat="44.87763" lon="4.87414">
        <ele>108.583298</ele>
        <time>2025-02-14T18:33:34.856Z</time>
      </trkpt>
      <trkpt lat="44.87621" lon="4.87381">
        <ele>109.38961</ele>
        <time>2025-02-14T18:33:51.061Z</time>
      </trkpt>
      <trkpt lat="44.87587" lon="4.87373">
        <ele>109.585082</ele>
        <time>2025-02-14T18:33:54.322Z</time>
      </trkpt>
      <trkpt lat="44.87574" lon="4.87367">
        <ele>109.663535</ele>
        <time>2025-02-14T18:33:55.577Z</time>
      </trkpt>
      <trkpt lat="44.87386" lon="4.87331">
        <ele>109.645547</ele>
        <time>2025-02-14T18:34:11.580Z</time>
      </trkpt>
      <trkpt lat="44.87301" lon="4.87314">
        <ele>109.748392</ele>
        <time>2025-02-14T18:34:19.514Z</time>
      </trkpt>
      <trkpt lat="44.8726" lon="4.87306">
        <ele>109.831503</ele>
        <time>2025-02-14T18:34:23.684Z</time>
      </trkpt>
      <trkpt lat="44.87254" lon="4.87304">
        <ele>109.844449</ele>
        <time>2025-02-14T18:34:24.336Z</time>
      </trkpt>
      <trkpt lat="44.87171" lon="4.87286">
        <ele>109.854395</ele>
        <time>2025-02-14T18:34:32.383Z</time>
      </trkpt>
      <trkpt lat="44.87114" lon="4.87277">
        <ele>109.412013</ele>
        <time>2025-02-14T18:34:36.808Z</time>
      </trkpt>
      <trkpt lat="44.871" lon="4.87274">
        <ele>109.300236</ele>
        <time>2025-02-14T18:34:37.851Z</time>
      </trkpt>
      <trkpt lat="44.8704" lon="4.87266">
        <ele>108.836312</ele>
        <time>2025-02-14T18:34:42.193Z</time>
      </trkpt>
      <trkpt lat="44.87004" lon="4.87261">
        <ele>108.58668</ele>
        <time>2025-02-14T18:34:44.762Z</time>
      </trkpt>
      <trkpt lat="44.86985" lon="4.87259">
        <ele>108.542981</ele>
        <time>2025-02-14T18:34:46.183Z</time>
      </trkpt>
      <trkpt lat="44.86956" lon="4.87257">
        <ele>108.479075</ele>
        <time>2025-02-14T18:34:48.314Z</time>
      </trkpt>
      <trkpt lat="44.86934" lon="4.87255">
        <ele>108.431172</ele>
        <time>2025-02-14T18:34:50.023Z</time>
      </trkpt>
      <trkpt lat="44.86926" lon="4.87255">
        <ele>108.411802</ele>
        <time>2025-02-14T18:34:50.758Z</time>
      </trkpt>
      <trkpt lat="44.86912" lon="4.87253">
        <ele>108.382156</ele>
        <time>2025-02-14T18:34:51.944Z</time>
      </trkpt>
      <trkpt lat="44.86866" lon="4.87248">
        <ele>108.278232</ele>
        <time>2025-02-14T18:34:56.648Z</time>
      </trkpt>
      <trkpt lat="44.86859" lon="4.87248">
        <ele>108.262849</ele>
        <time>2025-02-14T18:34:57.310Z</time>
      </trkpt>
      <trkpt lat="44.86817" lon="4.87244">
        <ele>108.228662</ele>
        <time>2025-02-14T18:35:01.343Z</time>
      </trkpt>
      <trkpt lat="44.86794" lon="4.87242">
        <ele>108.288621</ele>
        <time>2025-02-14T18:35:03.486Z</time>
      </trkpt>
      <trkpt lat="44.8679" lon="4.87241">
        <ele>108.298715</ele>
        <time>2025-02-14T18:35:03.850Z</time>
      </trkpt>
      <trkpt lat="44.86781" lon="4.8724">
        <ele>108.323716</ele>
        <time>2025-02-14T18:35:04.739Z</time>
      </trkpt>
      <trkpt lat="44.86707" lon="4.87233">
        <ele>108.521305</ele>
        <time>2025-02-14T18:35:11.970Z</time>
      </trkpt>
      <trkpt lat="44.86641" lon="4.87223">
        <ele>108.672787</ele>
        <time>2025-02-14T18:35:18.064Z</time>
      </trkpt>
      <trkpt lat="44.86612" lon="4.87217">
        <ele>108.672795</ele>
        <time>2025-02-14T18:35:20.830Z</time>
      </trkpt>
      <trkpt lat="44.86586" lon="4.8721">
        <ele>108.672801</ele>
        <time>2025-02-14T18:35:23.271Z</time>
      </trkpt>
      <trkpt lat="44.86526" lon="4.87197">
        <ele>108.672817</ele>
        <time>2025-02-14T18:35:28.739Z</time>
      </trkpt>
      <trkpt lat="44.86391" lon="4.87165">
        <ele>108.376371</ele>
        <time>2025-02-14T18:35:40.259Z</time>
      </trkpt>
      <trkpt lat="44.86322" lon="4.87151">
        <ele>108.125037</ele>
        <time>2025-02-14T18:35:45.933Z</time>
      </trkpt>
      <trkpt lat="44.8632" lon="4.8715">
        <ele>108.11995</ele>
        <time>2025-02-14T18:35:46.049Z</time>
      </trkpt>
      <trkpt lat="44.86288" lon="4.87143">
        <ele>108.005337</ele>
        <time>2025-02-14T18:35:48.559Z</time>
      </trkpt>
      <trkpt lat="44.86261" lon="4.87137">
        <ele>107.907665</ele>
        <time>2025-02-14T18:35:50.712Z</time>
      </trkpt>
      <trkpt lat="44.86238" lon="4.87126">
        <ele>107.824246</ele>
        <time>2025-02-14T18:35:52.575Z</time>
      </trkpt>
      <trkpt lat="44.86233" lon="4.87129">
        <ele>107.805746</ele>
        <time>2025-02-14T18:35:53.006Z</time>
      </trkpt>
      <trkpt lat="44.86149" lon="4.87108">
        <ele>107.509769</ele>
        <time>2025-02-14T18:36:00.000Z</time>
      </trkpt>
      <trkpt lat="44.86113" lon="4.87098">
        <ele>107.398643</ele>
        <time>2025-02-14T18:36:03.202Z</time>
      </trkpt>
      <trkpt lat="44.86094" lon="4.8709">
        <ele>107.395997</ele>
        <time>2025-02-14T18:36:04.924Z</time>
      </trkpt>
      <trkpt lat="44.86049" lon="4.87079">
        <ele>107.389883</ele>
        <time>2025-02-14T18:36:09.061Z</time>
      </trkpt>
      <trkpt lat="44.86039" lon="4.87077">
        <ele>107.388545</ele>
        <time>2025-02-14T18:36:09.983Z</time>
      </trkpt>
      <trkpt lat="44.86016" lon="4.87074">
        <ele>107.385321</ele>
        <time>2025-02-14T18:36:12.167Z</time>
      </trkpt>
      <trkpt lat="44.86004" lon="4.87076">
        <ele>107.383732</ele>
        <time>2025-02-14T18:36:13.214Z</time>
      </trkpt>
      <trkpt lat="44.85912" lon="4.87119">
        <ele>107.349169</ele>
        <time>2025-02-14T18:36:21.757Z</time>
      </trkpt>
      <trkpt lat="44.8589" lon="4.87132">
        <ele>107.331263</ele>
        <time>2025-02-14T18:36:23.784Z</time>
      </trkpt>
      <trkpt lat="44.8588" lon="4.87148">
        <ele>107.319051</ele>
        <time>2025-02-14T18:36:25.183Z</time>
      </trkpt>
      <trkpt lat="44.85873" lon="4.8718">
        <ele>107.300765</ele>
        <time>2025-02-14T18:36:27.294Z</time>
      </trkpt>
      <trkpt lat="44.8581" lon="4.87159">
        <ele>107.251116</ele>
        <time>2025-02-14T18:36:32.867Z</time>
      </trkpt>
      <trkpt lat="44.85792" lon="4.87147">
        <ele>107.2332</ele>
        <time>2025-02-14T18:36:34.641Z</time>
      </trkpt>
      <trkpt lat="44.85788" lon="4.87136">
        <ele>107.210462</ele>
        <time>2025-02-14T18:36:35.366Z</time>
      </trkpt>
      <trkpt lat="44.85778" lon="4.87126">
        <ele>107.177574</ele>
        <time>2025-02-14T18:36:36.403Z</time>
      </trkpt>
      <trkpt lat="44.85772" lon="4.87124">
        <ele>107.160719</ele>
        <time>2025-02-14T18:36:36.931Z</time>
      </trkpt>
      <trkpt lat="44.85762" lon="4.87127">
        <ele>107.134505</ele>
        <time>2025-02-14T18:36:37.766Z</time>
      </trkpt>
      <trkpt lat="44.85755" lon="4.87135">
        <ele>107.108242</ele>
        <time>2025-02-14T18:36:38.587Z</time>
      </trkpt>
      <trkpt lat="44.8575" lon="4.87151">
        <ele>107.076944</ele>
        <time>2025-02-14T18:36:39.562Z</time>
      </trkpt>
      <trkpt lat="44.8575" lon="4.87159">
        <ele>107.061202</ele>
        <time>2025-02-14T18:36:40.051Z</time>
      </trkpt>
      <trkpt lat="44.85753" lon="4.87169">
        <ele>107.04128</ele>
        <time>2025-02-14T18:36:40.663Z</time>
      </trkpt>
      <trkpt lat="44.85752" lon="4.87179">
        <ele>107.02112</ele>
        <time>2025-02-14T18:36:41.278Z</time>
      </trkpt>
      <trkpt lat="44.85747" lon="4.87192">
        <ele>106.993121</ele>
        <time>2025-02-14T18:36:42.132Z</time>
      </trkpt>
      <trkpt lat="44.85743" lon="4.87196">
        <ele>106.981087</ele>
        <time>2025-02-14T18:36:42.502Z</time>
      </trkpt>
      <trkpt lat="44.85705" lon="4.872">
        <ele>106.880493</ele>
        <time>2025-02-14T18:36:45.513Z</time>
      </trkpt>
      <trkpt lat="44.85655" lon="4.87224">
        <ele>106.754875</ele>
        <time>2025-02-14T18:36:49.962Z</time>
      </trkpt>
      <trkpt lat="44.85478" lon="4.87282">
        <ele>106.807016</ele>
        <time>2025-02-14T18:37:05.855Z</time>
      </trkpt>
      <trkpt lat="44.85419" lon="4.87306">
        <ele>107.266132</ele>
        <time>2025-02-14T18:37:12.359Z</time>
      </trkpt>
      <trkpt lat="44.85405" lon="4.87314">
        <ele>107.380248</ele>
        <time>2025-02-14T18:37:14.058Z</time>
      </trkpt>
      <trkpt lat="44.85375" lon="4.87329">
        <ele>107.620941</ele>
        <time>2025-02-14T18:37:17.652Z</time>
      </trkpt>
      <trkpt lat="44.85333" lon="4.87352">
        <ele>107.961214</ele>
        <time>2025-02-14T18:37:22.716Z</time>
      </trkpt>
      <trkpt lat="44.85314" lon="4.87366">
        <ele>108.140132</ele>
        <time>2025-02-14T18:37:25.112Z</time>
      </trkpt>
      <trkpt lat="44.85253" lon="4.87432">
        <ele>109.07484</ele>
        <time>2025-02-14T18:37:33.852Z</time>
      </trkpt>
      <trkpt lat="44.85208" lon="4.87476">
        <ele>109.74659</ele>
        <time>2025-02-14T18:37:40.480Z</time>
      </trkpt>
      <trkpt lat="44.85145" lon="4.87533">
        <ele>110.539334</ele>
        <time>2025-02-14T18:37:49.989Z</time>
      </trkpt>
      <trkpt lat="44.8511" lon="4.87563">
        <ele>110.86937</ele>
        <time>2025-02-14T18:37:54.831Z</time>
      </trkpt>
      <trkpt lat="44.85005" lon="4.87606">
        <ele>111.758365</ele>
        <time>2025-02-14T18:38:06.049Z</time>
      </trkpt>
      <trkpt lat="44.84939" lon="4.87636">
        <ele>111.521711</ele>
        <time>2025-02-14T18:38:11.765Z</time>
      </trkpt>
      <trkpt lat="44.84627" lon="4.87733">
        <ele>110.318486</ele>
        <time>2025-02-14T18:38:37.107Z</time>
      </trkpt>
      <trkpt lat="44.84597" lon="4.87754">
        <ele>110.33726</ele>
        <time>2025-02-14T18:38:40.062Z</time>
      </trkpt>
      <trkpt lat="44.84542" lon="4.87803">
        <ele>110.373396</ele>
        <time>2025-02-14T18:38:46.101Z</time>
      </trkpt>
      <trkpt lat="44.8442" lon="4.87883">
        <ele>111.007792</ele>
        <time>2025-02-14T18:38:59.327Z</time>
      </trkpt>
      <trkpt lat="44.84331" lon="4.87947">
        <ele>111.729355</ele>
        <time>2025-02-14T18:39:10.706Z</time>
      </trkpt>
      <trkpt lat="44.84333" lon="4.8797">
        <ele>111.817137</ele>
        <time>2025-02-14T18:39:12.618Z</time>
      </trkpt>
      <trkpt lat="44.84332" lon="4.88013">
        <ele>111.977537</ele>
        <time>2025-02-14T18:39:16.011Z</time>
      </trkpt>
      <trkpt lat="44.84323" lon="4.88054">
        <ele>112.13753</ele>
        <time>2025-02-14T18:39:19.309Z</time>
      </trkpt>
      <trkpt lat="44.84309" lon="4.8808">
        <ele>112.25486</ele>
        <time>2025-02-14T18:39:21.669Z</time>
      </trkpt>
      <trkpt lat="44.84279" lon="4.88123">
        <ele>112.482922</ele>
        <time>2025-02-14T18:39:25.888Z</time>
      </trkpt>
      <trkpt lat="44.84264" lon="4.88152">
        <ele>112.612962</ele>
        <time>2025-02-14T18:39:27.930Z</time>
      </trkpt>
      <trkpt lat="44.84217" lon="4.88337">
        <ele>113.114532</ele>
        <time>2025-02-14T18:39:40.021Z</time>
      </trkpt>
      <trkpt lat="44.84212" lon="4.88358">
        <ele>113.168826</ele>
        <time>2025-02-14T18:39:41.642Z</time>
      </trkpt>
      <trkpt lat="44.84211" lon="4.88361">
        <ele>113.177683</ele>
        <time>2025-02-14T18:39:41.924Z</time>
      </trkpt>
      <trkpt lat="44.842" lon="4.88405">
        <ele>113.346823</ele>
        <time>2025-02-14T18:39:45.748Z</time>
      </trkpt>
      <trkpt lat="44.84197" lon="4.88417">
        <ele>113.63668</ele>
        <time>2025-02-14T18:39:46.870Z</time>
      </trkpt>
      <trkpt lat="44.84191" lon="4.88436">
        <ele>114.115634</ele>
        <time>2025-02-14T18:39:48.826Z</time>
      </trkpt>
      <trkpt lat="44.84185" lon="4.88451">
        <ele>114.504623</ele>
        <time>2025-02-14T18:39:50.509Z</time>
      </trkpt>
      <trkpt lat="44.84169" lon="4.88477">
        <ele>115.275373</ele>
        <time>2025-02-14T18:39:54.069Z</time>
      </trkpt>
      <trkpt lat="44.84119" lon="4.88539">
        <ele>117.402746</ele>
        <time>2025-02-14T18:40:04.942Z</time>
      </trkpt>
      <trkpt lat="44.8408" lon="4.88591">
        <ele>119.168278</ele>
        <time>2025-02-14T18:40:16.033Z</time>
      </trkpt>
      <trkpt lat="44.84073" lon="4.88608">
        <ele>119.924931</ele>
        <time>2025-02-14T18:40:19.126Z</time>
      </trkpt>
      <trkpt lat="44.84065" lon="4.88639">
        <ele>121.177556</ele>
        <time>2025-02-14T18:40:24.271Z</time>
      </trkpt>
      <trkpt lat="44.84059" lon="4.88701">
        <ele>123.600108</ele>
        <time>2025-02-14T18:40:34.176Z</time>
      </trkpt>
      <trkpt lat="44.84057" lon="4.88709">
        <ele>123.92266</ele>
        <time>2025-02-14T18:40:35.442Z</time>
      </trkpt>
      <trkpt lat="44.8405" lon="4.88737">
        <ele>125.095142</ele>
        <time>2025-02-14T18:40:40.179Z</time>
      </trkpt>
      <trkpt lat="44.84039" lon="4.88759">
        <ele>126.130304</ele>
        <time>2025-02-14T18:40:44.420Z</time>
      </trkpt>
      <trkpt lat="44.84025" lon="4.88775">
        <ele>127.104395</ele>
        <time>2025-02-14T18:40:48.399Z</time>
      </trkpt>
      <trkpt lat="44.83989" lon="4.88802">
        <ele>129.480457</ele>
        <time>2025-02-14T18:40:57.457Z</time>
      </trkpt>
      <trkpt lat="44.83978" lon="4.88817">
        <ele>130.592043</ele>
        <time>2025-02-14T18:41:00.812Z</time>
      </trkpt>
      <trkpt lat="44.83955" lon="4.88892">
        <ele>134.767368</ele>
        <time>2025-02-14T18:41:14.176Z</time>
      </trkpt>
      <trkpt lat="44.83904" lon="4.89028">
        <ele>142.731208</ele>
        <time>2025-02-14T18:41:46.142Z</time>
      </trkpt>
      <trkpt lat="44.83895" lon="4.89052">
        <ele>144.24074</ele>
        <time>2025-02-14T18:41:51.941Z</time>
      </trkpt>
      <trkpt lat="44.83879" lon="4.891">
        <ele>147.145285</ele>
        <time>2025-02-14T18:42:02.712Z</time>
      </trkpt>
      <trkpt lat="44.83862" lon="4.89143">
        <ele>149.825051</ele>
        <time>2025-02-14T18:42:12.431Z</time>
      </trkpt>
      <trkpt lat="44.83855" lon="4.8916">
        <ele>150.929631</ele>
        <time>2025-02-14T18:42:16.450Z</time>
      </trkpt>
      <trkpt lat="44.83854" lon="4.89163">
        <ele>151.087429</ele>
        <time>2025-02-14T18:42:17.039Z</time>
      </trkpt>
      <trkpt lat="44.83848" lon="4.89178">
        <ele>152.075459</ele>
        <time>2025-02-14T18:42:20.604Z</time>
      </trkpt>
      <trkpt lat="44.8384" lon="4.89192">
        <ele>153.071044</ele>
        <time>2025-02-14T18:42:24.075Z</time>
      </trkpt>
      <trkpt lat="44.83811" lon="4.89246">
        <ele>156.423319</ele>
        <time>2025-02-14T18:42:36.116Z</time>
      </trkpt>
      <trkpt lat="44.83788" lon="4.89275">
        <ele>157.959992</ele>
        <time>2025-02-14T18:42:43.396Z</time>
      </trkpt>
      <trkpt lat="44.83783" lon="4.89279">
        <ele>158.245962</ele>
        <time>2025-02-14T18:42:44.697Z</time>
      </trkpt>
      <trkpt lat="44.83747" lon="4.89227">
        <ele>160.840136</ele>
        <time>2025-02-14T18:42:55.331Z</time>
      </trkpt>
      <trkpt lat="44.83721" lon="4.89184">
        <ele>162.847839</ele>
        <time>2025-02-14T18:43:03.110Z</time>
      </trkpt>
      <trkpt lat="44.8372" lon="4.89174">
        <ele>163.200933</ele>
        <time>2025-02-14T18:43:04.439Z</time>
      </trkpt>
      <trkpt lat="44.83724" lon="4.89163">
        <ele>163.652244</ele>
        <time>2025-02-14T18:43:06.063Z</time>
      </trkpt>
      <trkpt lat="44.83739" lon="4.89131">
        <ele>164.955702</ele>
        <time>2025-02-14T18:43:10.789Z</time>
      </trkpt>
      <trkpt lat="44.83738" lon="4.89108">
        <ele>165.632062</ele>
        <time>2025-02-14T18:43:13.611Z</time>
      </trkpt>
      <trkpt lat="44.83733" lon="4.89092">
        <ele>166.130946</ele>
        <time>2025-02-14T18:43:15.633Z</time>
      </trkpt>
      <trkpt lat="44.83729" lon="4.89093">
        <ele>166.294523</ele>
        <time>2025-02-14T18:43:16.327Z</time>
      </trkpt>
      <trkpt lat="44.8372" lon="4.89104">
        <ele>166.760326</ele>
        <time>2025-02-14T18:43:18.189Z</time>
      </trkpt>
      <trkpt lat="44.83663" lon="4.89201">
        <ele>170.471592</ele>
        <time>2025-02-14T18:43:35.808Z</time>
      </trkpt>
      <trkpt lat="44.83646" lon="4.89231">
        <ele>171.613005</ele>
        <time>2025-02-14T18:43:41.832Z</time>
      </trkpt>
      <trkpt lat="44.83635" lon="4.89243">
        <ele>172.167307</ele>
        <time>2025-02-14T18:43:44.466Z</time>
      </trkpt>
      <trkpt lat="44.83631" lon="4.89248">
        <ele>172.280024</ele>
        <time>2025-02-14T18:43:45.541Z</time>
      </trkpt>
      <trkpt lat="44.83606" lon="4.8927">
        <ele>172.617278</ele>
        <time>2025-02-14T18:43:50.479Z</time>
      </trkpt>
      <trkpt lat="44.83588" lon="4.893">
        <ele>172.944295</ele>
        <time>2025-02-14T18:43:54.641Z</time>
      </trkpt>
      <trkpt lat="44.83568" lon="4.8933">
        <ele>173.282404</ele>
        <time>2025-02-14T18:43:58.226Z</time>
      </trkpt>
      <trkpt lat="44.8356" lon="4.89343">
        <ele>173.429452</ele>
        <time>2025-02-14T18:43:59.609Z</time>
      </trkpt>
      <trkpt lat="44.83552" lon="4.89368">
        <ele>173.659306</ele>
        <time>2025-02-14T18:44:01.505Z</time>
      </trkpt>
      <trkpt lat="44.8355" lon="4.8941">
        <ele>174.0047</ele>
        <time>2025-02-14T18:44:03.795Z</time>
      </trkpt>
      <trkpt lat="44.83553" lon="4.89442">
        <ele>174.273435</ele>
        <time>2025-02-14T18:44:05.405Z</time>
      </trkpt>
      <trkpt lat="44.83557" lon="4.89457">
        <ele>174.283008</ele>
        <time>2025-02-14T18:44:06.145Z</time>
      </trkpt>
      <trkpt lat="44.83574" lon="4.89487">
        <ele>174.09138</ele>
        <time>2025-02-14T18:44:07.989Z</time>
      </trkpt>
      <trkpt lat="44.83587" lon="4.89503">
        <ele>173.968485</ele>
        <time>2025-02-14T18:44:09.180Z</time>
      </trkpt>
      <trkpt lat="44.83591" lon="4.89508">
        <ele>173.931129</ele>
        <time>2025-02-14T18:44:09.551Z</time>
      </trkpt>
      <trkpt lat="44.83598" lon="4.89517">
        <ele>173.864411</ele>
        <time>2025-02-14T18:44:10.223Z</time>
      </trkpt>
      <trkpt lat="44.83658" lon="4.89579">
        <ele>173.344304</ele>
        <time>2025-02-14T18:44:15.761Z</time>
      </trkpt>
      <trkpt lat="44.83672" lon="4.89605">
        <ele>173.186972</ele>
        <time>2025-02-14T18:44:17.713Z</time>
      </trkpt>
      <trkpt lat="44.83681" lon="4.89614">
        <ele>173.108997</ele>
        <time>2025-02-14T18:44:18.697Z</time>
      </trkpt>
      <trkpt lat="44.83691" lon="4.89619">
        <ele>173.158711</ele>
        <time>2025-02-14T18:44:19.666Z</time>
      </trkpt>
      <trkpt lat="44.83641" lon="4.89741">
        <ele>174.91637</ele>
        <time>2025-02-14T18:44:32.141Z</time>
      </trkpt>
      <trkpt lat="44.83633" lon="4.8976">
        <ele>175.201999</ele>
        <time>2025-02-14T18:44:34.658Z</time>
      </trkpt>
      <trkpt lat="44.83621" lon="4.89789">
        <ele>175.630103</ele>
        <time>2025-02-14T18:44:38.508Z</time>
      </trkpt>
      <trkpt lat="44.83584" lon="4.89876">
        <ele>176.595648</ele>
        <time>2025-02-14T18:44:49.613Z</time>
      </trkpt>
      <trkpt lat="44.8358" lon="4.89888">
        <ele>176.677384</ele>
        <time>2025-02-14T18:44:50.875Z</time>
      </trkpt>
      <trkpt lat="44.8358" lon="4.89895">
        <ele>176.72478</ele>
        <time>2025-02-14T18:44:51.581Z</time>
      </trkpt>
      <trkpt lat="44.83582" lon="4.89902">
        <ele>176.778929</ele>
        <time>2025-02-14T18:44:52.355Z</time>
      </trkpt>
      <trkpt lat="44.83581" lon="4.89909">
        <ele>176.824092</ele>
        <time>2025-02-14T18:44:52.988Z</time>
      </trkpt>
      <trkpt lat="44.83558" lon="4.89948">
        <ele>177.160413</ele>
        <time>2025-02-14T18:44:57.250Z</time>
      </trkpt>
      <trkpt lat="44.8353" lon="4.89994">
        <ele>177.566197</ele>
        <time>2025-02-14T18:45:01.527Z</time>
      </trkpt>
      <trkpt lat="44.83461" lon="4.90125">
        <ele>176.809054</ele>
        <time>2025-02-14T18:45:09.993Z</time>
      </trkpt>
      <trkpt lat="44.83422" lon="4.90193">
        <ele>175.900181</ele>
        <time>2025-02-14T18:45:14.078Z</time>
      </trkpt>
      <trkpt lat="44.83385" lon="4.90249">
        <ele>175.070017</ele>
        <time>2025-02-14T18:45:17.651Z</time>
      </trkpt>
      <trkpt lat="44.83316" lon="4.90338">
        <ele>173.558647</ele>
        <time>2025-02-14T18:45:24.115Z</time>
      </trkpt>
      <trkpt lat="44.83311" lon="4.90344">
        <ele>173.449713</ele>
        <time>2025-02-14T18:45:24.599Z</time>
      </trkpt>
      <trkpt lat="44.83279" lon="4.90379">
        <ele>172.800458</ele>
        <time>2025-02-14T18:45:27.528Z</time>
      </trkpt>
      <trkpt lat="44.83178" lon="4.90496">
        <ele>169.116049</ele>
        <time>2025-02-14T18:45:36.165Z</time>
      </trkpt>
      <trkpt lat="44.8309" lon="4.90598">
        <ele>165.079034</ele>
        <time>2025-02-14T18:45:42.631Z</time>
      </trkpt>
      <trkpt lat="44.82968" lon="4.90732">
        <ele>158.542433</ele>
        <time>2025-02-14T18:45:51.538Z</time>
      </trkpt>
      <trkpt lat="44.8292" lon="4.90782">
        <ele>157.105095</ele>
        <time>2025-02-14T18:45:55.268Z</time>
      </trkpt>
      <trkpt lat="44.8271" lon="4.91014">
        <ele>152.371274</ele>
        <time>2025-02-14T18:46:13.350Z</time>
      </trkpt>
      <trkpt lat="44.82614" lon="4.91123">
        <ele>152.443044</ele>
        <time>2025-02-14T18:46:23.989Z</time>
      </trkpt>
      <trkpt lat="44.82477" lon="4.91269">
        <ele>153.393738</ele>
        <time>2025-02-14T18:46:44.286Z</time>
      </trkpt>
      <trkpt lat="44.82352" lon="4.91401">
        <ele>154.110102</ele>
        <time>2025-02-14T18:46:59.117Z</time>
      </trkpt>
      <trkpt lat="44.82192" lon="4.91574">
        <ele>154.791311</ele>
        <time>2025-02-14T18:47:17.203Z</time>
      </trkpt>
      <trkpt lat="44.82137" lon="4.91635">
        <ele>155.196013</ele>
        <time>2025-02-14T18:47:25.122Z</time>
      </trkpt>
      <trkpt lat="44.81825" lon="4.91979">
        <ele>160.407725</ele>
        <time>2025-02-14T18:48:13.702Z</time>
      </trkpt>
      <trkpt lat="44.81763" lon="4.92047">
        <ele>161.326363</ele>
        <time>2025-02-14T18:48:22.370Z</time>
      </trkpt>
      <trkpt lat="44.8175" lon="4.92061">
        <ele>161.520892</ele>
        <time>2025-02-14T18:48:24.190Z</time>
      </trkpt>
      <trkpt lat="44.81486" lon="4.92354">
        <ele>166.675465</ele>
        <time>2025-02-14T18:49:04.779Z</time>
      </trkpt>
      <trkpt lat="44.81474" lon="4.92368">
        <ele>167.020372</ele>
        <time>2025-02-14T18:49:07.134Z</time>
      </trkpt>
      <trkpt lat="44.81398" lon="4.92451">
        <ele>169.025359</ele>
        <time>2025-02-14T18:49:23.576Z</time>
      </trkpt>
      <trkpt lat="44.81313" lon="4.92545">
        <ele>170.858531</ele>
        <time>2025-02-14T18:49:39.286Z</time>
      </trkpt>
      <trkpt lat="44.81256" lon="4.92606">
        <ele>171.425234</ele>
        <time>2025-02-14T18:49:45.448Z</time>
      </trkpt>
      <trkpt lat="44.81203" lon="4.9266">
        <ele>170.616796</ele>
        <time>2025-02-14T18:49:49.803Z</time>
      </trkpt>
      <trkpt lat="44.81014" lon="4.92844">
        <ele>167.971012</ele>
        <time>2025-02-14T18:50:05.796Z</time>
      </trkpt>
      <trkpt lat="44.80595" lon="4.93251">
        <ele>166.8957</ele>
        <time>2025-02-14T18:50:49.162Z</time>
      </trkpt>
      <trkpt lat="44.8048" lon="4.93369">
        <ele>167.568647</ele>
        <time>2025-02-14T18:51:03.287Z</time>
      </trkpt>
      <trkpt lat="44.80455" lon="4.93389">
        <ele>167.823054</ele>
        <time>2025-02-14T18:51:06.555Z</time>
      </trkpt>
      <trkpt lat="44.80442" lon="4.93393">
        <ele>167.938754</ele>
        <time>2025-02-14T18:51:08.142Z</time>
      </trkpt>
      <trkpt lat="44.80436" lon="4.93389">
        <ele>167.994203</ele>
        <time>2025-02-14T18:51:08.870Z</time>
      </trkpt>
      <trkpt lat="44.80421" lon="4.9339">
        <ele>168.123746</ele>
        <time>2025-02-14T18:51:10.691Z</time>
      </trkpt>
      <trkpt lat="44.80412" lon="4.93398">
        <ele>168.216185</ele>
        <time>2025-02-14T18:51:12.021Z</time>
      </trkpt>
      <trkpt lat="44.80407" lon="4.9341">
        <ele>168.307905</ele>
        <time>2025-02-14T18:51:13.320Z</time>
      </trkpt>
      <trkpt lat="44.80406" lon="4.9343">
        <ele>168.434169</ele>
        <time>2025-02-14T18:51:15.056Z</time>
      </trkpt>
      <trkpt lat="44.8041" lon="4.93442">
        <ele>168.514613</ele>
        <time>2025-02-14T18:51:16.101Z</time>
      </trkpt>
      <trkpt lat="44.80408" lon="4.93458">
        <ele>168.575427</ele>
        <time>2025-02-14T18:51:17.473Z</time>
      </trkpt>
      <trkpt lat="44.80402" lon="4.93478">
        <ele>168.634633</ele>
        <time>2025-02-14T18:51:19.157Z</time>
      </trkpt>
      <trkpt lat="44.80379" lon="4.93499">
        <ele>168.741447</ele>
        <time>2025-02-14T18:51:22.088Z</time>
      </trkpt>
      <trkpt lat="44.8034" lon="4.93517">
        <ele>168.901508</ele>
        <time>2025-02-14T18:51:26.544Z</time>
      </trkpt>
      <trkpt lat="44.80303" lon="4.9355">
        <ele>169.072734</ele>
        <time>2025-02-14T18:51:30.838Z</time>
      </trkpt>
      <trkpt lat="44.80276" lon="4.93576">
        <ele>169.201717</ele>
        <time>2025-02-14T18:51:33.480Z</time>
      </trkpt>
      <trkpt lat="44.80239" lon="4.93611">
        <ele>169.234059</ele>
        <time>2025-02-14T18:51:36.772Z</time>
      </trkpt>
      <trkpt lat="44.80122" lon="4.93724">
        <ele>169.193886</ele>
        <time>2025-02-14T18:51:48.596Z</time>
      </trkpt>
      <trkpt lat="44.80049" lon="4.93795">
        <ele>171.466949</ele>
        <time>2025-02-14T18:52:00.903Z</time>
      </trkpt>
      <trkpt lat="44.8003" lon="4.93815">
        <ele>172.128802</ele>
        <time>2025-02-14T18:52:04.948Z</time>
      </trkpt>
      <trkpt lat="44.80001" lon="4.93845">
        <ele>173.099366</ele>
        <time>2025-02-14T18:52:11.303Z</time>
      </trkpt>
      <trkpt lat="44.79966" lon="4.9388">
        <ele>174.318389</ele>
        <time>2025-02-14T18:52:19.286Z</time>
      </trkpt>
      <trkpt lat="44.79944" lon="4.93904">
        <ele>175.26604</ele>
        <time>2025-02-14T18:52:24.556Z</time>
      </trkpt>
      <trkpt lat="44.79936" lon="4.93914">
        <ele>175.626473</ele>
        <time>2025-02-14T18:52:26.528Z</time>
      </trkpt>
      <trkpt lat="44.7991" lon="4.93956">
        <ele>176.962712</ele>
        <time>2025-02-14T18:52:33.591Z</time>
      </trkpt>
      <trkpt lat="44.79865" lon="4.94028">
        <ele>179.300743</ele>
        <time>2025-02-14T18:52:45.474Z</time>
      </trkpt>
      <trkpt lat="44.79852" lon="4.94049">
        <ele>179.975358</ele>
        <time>2025-02-14T18:52:48.618Z</time>
      </trkpt>
      <trkpt lat="44.79849" lon="4.94055">
        <ele>180.155011</ele>
        <time>2025-02-14T18:52:49.405Z</time>
      </trkpt>
      <trkpt lat="44.79845" lon="4.94067">
        <ele>180.330599</ele>
        <time>2025-02-14T18:52:50.695Z</time>
      </trkpt>
      <trkpt lat="44.79843" lon="4.94074">
        <ele>180.421782</ele>
        <time>2025-02-14T18:52:51.478Z</time>
      </trkpt>
      <trkpt lat="44.79842" lon="4.9408">
        <ele>180.489354</ele>
        <time>2025-02-14T18:52:52.029Z</time>
      </trkpt>
      <trkpt lat="44.79839" lon="4.94088">
        <ele>180.588122</ele>
        <time>2025-02-14T18:52:52.846Z</time>
      </trkpt>
      <trkpt lat="44.79828" lon="4.941">
        <ele>180.813508</ele>
        <time>2025-02-14T18:52:54.631Z</time>
      </trkpt>
      <trkpt lat="44.79796" lon="4.94122">
        <ele>181.380142</ele>
        <time>2025-02-14T18:52:58.886Z</time>
      </trkpt>
      <trkpt lat="44.79777" lon="4.94133">
        <ele>181.707669</ele>
        <time>2025-02-14T18:53:01.137Z</time>
      </trkpt>
      <trkpt lat="44.79756" lon="4.94145">
        <ele>182.079824</ele>
        <time>2025-02-14T18:53:03.585Z</time>
      </trkpt>
      <trkpt lat="44.7975" lon="4.94148">
        <ele>182.183543</ele>
        <time>2025-02-14T18:53:04.290Z</time>
      </trkpt>
      <trkpt lat="44.79733" lon="4.94156">
        <ele>182.47216</ele>
        <time>2025-02-14T18:53:06.416Z</time>
      </trkpt>
      <trkpt lat="44.79726" lon="4.94158">
        <ele>182.579374</ele>
        <time>2025-02-14T18:53:07.258Z</time>
      </trkpt>
      <trkpt lat="44.79708" lon="4.94169">
        <ele>182.901857</ele>
        <time>2025-02-14T18:53:09.756Z</time>
      </trkpt>
      <trkpt lat="44.797" lon="4.94174">
        <ele>183.032039</ele>
        <time>2025-02-14T18:53:10.776Z</time>
      </trkpt>
      <trkpt lat="44.79686" lon="4.94183">
        <ele>183.388832</ele>
        <time>2025-02-14T18:53:12.784Z</time>
      </trkpt>
      <trkpt lat="44.79678" lon="4.94188">
        <ele>183.597264</ele>
        <time>2025-02-14T18:53:13.904Z</time>
      </trkpt>
      <trkpt lat="44.79674" lon="4.9419">
        <ele>183.713013</ele>
        <time>2025-02-14T18:53:14.540Z</time>
      </trkpt>
      <trkpt lat="44.79662" lon="4.94198">
        <ele>184.050303</ele>
        <time>2025-02-14T18:53:16.444Z</time>
      </trkpt>
      <trkpt lat="44.79641" lon="4.94209">
        <ele>184.610797</ele>
        <time>2025-02-14T18:53:19.925Z</time>
      </trkpt>
      <trkpt lat="44.79637" lon="4.94211">
        <ele>184.703004</ele>
        <time>2025-02-14T18:53:20.538Z</time>
      </trkpt>
      <trkpt lat="44.79632" lon="4.94214">
        <ele>184.853579</ele>
        <time>2025-02-14T18:53:21.558Z</time>
      </trkpt>
      <trkpt lat="44.7953" lon="4.9427">
        <ele>187.586855</ele>
        <time>2025-02-14T18:53:39.671Z</time>
      </trkpt>
      <trkpt lat="44.79521" lon="4.94275">
        <ele>187.583708</ele>
        <time>2025-02-14T18:53:41.078Z</time>
      </trkpt>
      <trkpt lat="44.79419" lon="4.94333">
        <ele>187.415597</ele>
        <time>2025-02-14T18:53:52.610Z</time>
      </trkpt>
      <trkpt lat="44.79404" lon="4.94341">
        <ele>187.391181</ele>
        <time>2025-02-14T18:53:53.660Z</time>
      </trkpt>
      <trkpt lat="44.79353" lon="4.94377">
        <ele>187.12377</ele>
        <time>2025-02-14T18:53:57.234Z</time>
      </trkpt>
      <trkpt lat="44.79322" lon="4.94401">
        <ele>186.534561</ele>
        <time>2025-02-14T18:53:59.380Z</time>
      </trkpt>
      <trkpt lat="44.79308" lon="4.94412">
        <ele>186.262975</ele>
        <time>2025-02-14T18:54:00.382Z</time>
      </trkpt>
      <trkpt lat="44.79245" lon="4.94459">
        <ele>185.083847</ele>
        <time>2025-02-14T18:54:04.992Z</time>
      </trkpt>
      <trkpt lat="44.79252" lon="4.9448">
        <ele>184.811521</ele>
        <time>2025-02-14T18:54:06.758Z</time>
      </trkpt>
      <trkpt lat="44.79256" lon="4.9451">
        <ele>184.451153</ele>
        <time>2025-02-14T18:54:09.459Z</time>
      </trkpt>
      <trkpt lat="44.79255" lon="4.94526">
        <ele>184.378134</ele>
        <time>2025-02-14T18:54:10.989Z</time>
      </trkpt>
      <trkpt lat="44.79212" lon="4.94634">
        <ele>185.152206</ele>
        <time>2025-02-14T18:54:24.754Z</time>
      </trkpt>
      <trkpt lat="44.79199" lon="4.94689">
        <ele>185.516457</ele>
        <time>2025-02-14T18:54:30.919Z</time>
      </trkpt>
      <trkpt lat="44.79196" lon="4.94721">
        <ele>185.72022</ele>
        <time>2025-02-14T18:54:34.103Z</time>
      </trkpt>
      <trkpt lat="44.79189" lon="4.94781">
        <ele>186.077148</ele>
        <time>2025-02-14T18:54:39.770Z</time>
      </trkpt>
      <trkpt lat="44.79176" lon="4.94857">
        <ele>186.510594</ele>
        <time>2025-02-14T18:54:47.019Z</time>
      </trkpt>
      <trkpt lat="44.7917" lon="4.94859">
        <ele>186.561881</ele>
        <time>2025-02-14T18:54:47.884Z</time>
      </trkpt>
      <trkpt lat="44.79158" lon="4.94873">
        <ele>186.685062</ele>
        <time>2025-02-14T18:54:49.965Z</time>
      </trkpt>
      <trkpt lat="44.79098" lon="4.94951">
        <ele>187.320922</ele>
        <time>2025-02-14T18:55:01.826Z</time>
      </trkpt>
      <trkpt lat="44.79049" lon="4.95013">
        <ele>188.089642</ele>
        <time>2025-02-14T18:55:12.055Z</time>
      </trkpt>
      <trkpt lat="44.78993" lon="4.95069">
        <ele>188.89385</ele>
        <time>2025-02-14T18:55:22.426Z</time>
      </trkpt>
      <trkpt lat="44.78889" lon="4.95164">
        <ele>190.345028</ele>
        <time>2025-02-14T18:55:40.412Z</time>
      </trkpt>
      <trkpt lat="44.78867" lon="4.95187">
        <ele>190.66615</ele>
        <time>2025-02-14T18:55:44.382Z</time>
      </trkpt>
      <trkpt lat="44.78839" lon="4.95229">
        <ele>191.146622</ele>
        <time>2025-02-14T18:55:50.485Z</time>
      </trkpt>
      <trkpt lat="44.78805" lon="4.95294">
        <ele>192.032038</ele>
        <time>2025-02-14T18:55:59.282Z</time>
      </trkpt>
      <trkpt lat="44.78754" lon="4.95405">
        <ele>194.011591</ele>
        <time>2025-02-14T18:56:14.749Z</time>
      </trkpt>
      <trkpt lat="44.78731" lon="4.95397">
        <ele>194.512067</ele>
        <time>2025-02-14T18:56:19.072Z</time>
      </trkpt>
      <trkpt lat="44.78588" lon="4.95327">
        <ele>198.693938</ele>
        <time>2025-02-14T18:56:48.710Z</time>
      </trkpt>
      <trkpt lat="44.78517" lon="4.95542">
        <ele>204.002322</ele>
        <time>2025-02-14T18:57:21.101Z</time>
      </trkpt>
      <trkpt lat="44.78472" lon="4.95667">
        <ele>207.36054</ele>
        <time>2025-02-14T18:57:41.797Z</time>
      </trkpt>
      <trkpt lat="44.78413" lon="4.9585">
        <ele>212.649511</ele>
        <time>2025-02-14T18:58:12.325Z</time>
      </trkpt>
      <trkpt lat="44.78371" lon="4.95951">
        <ele>214.464088</ele>
        <time>2025-02-14T18:58:29.010Z</time>
      </trkpt>
      <trkpt lat="44.7835" lon="4.95988">
        <ele>215.06376</ele>
        <time>2025-02-14T18:58:35.101Z</time>
      </trkpt>
      <trkpt lat="44.78323" lon="4.96025">
        <ele>215.735601</ele>
        <time>2025-02-14T18:58:41.273Z</time>
      </trkpt>
      <trkpt lat="44.78251" lon="4.961">
        <ele>215.256144</ele>
        <time>2025-02-14T18:58:50.853Z</time>
      </trkpt>
      <trkpt lat="44.78227" lon="4.96113">
        <ele>214.57953</ele>
        <time>2025-02-14T18:58:52.448Z</time>
      </trkpt>
      <trkpt lat="44.78211" lon="4.96127">
        <ele>214.076035</ele>
        <time>2025-02-14T18:58:53.596Z</time>
      </trkpt>
      <trkpt lat="44.78195" lon="4.96144">
        <ele>213.541305</ele>
        <time>2025-02-14T18:58:54.788Z</time>
      </trkpt>
      <trkpt lat="44.78119" lon="4.96243">
        <ele>210.816148</ele>
        <time>2025-02-14T18:59:00.879Z</time>
      </trkpt>
      <trkpt lat="44.77983" lon="4.964">
        <ele>206.94425</ele>
        <time>2025-02-14T18:59:12.275Z</time>
      </trkpt>
      <trkpt lat="44.77889" lon="4.96489">
        <ele>206.234216</ele>
        <time>2025-02-14T18:59:21.359Z</time>
      </trkpt>
      <trkpt lat="44.77814" lon="4.96557">
        <ele>206.769566</ele>
        <time>2025-02-14T18:59:29.931Z</time>
      </trkpt>
      <trkpt lat="44.77789" lon="4.96577">
        <ele>207.175698</ele>
        <time>2025-02-14T18:59:33.258Z</time>
      </trkpt>
      <trkpt lat="44.77722" lon="4.96641">
        <ele>208.324455</ele>
        <time>2025-02-14T18:59:43.894Z</time>
      </trkpt>
      <trkpt lat="44.77583" lon="4.96765">
        <ele>213.347898</ele>
        <time>2025-02-14T19:00:11.148Z</time>
      </trkpt>
      <trkpt lat="44.77569" lon="4.96778">
        <ele>213.905589</ele>
        <time>2025-02-14T19:00:14.233Z</time>
      </trkpt>
      <trkpt lat="44.77459" lon="4.96873">
        <ele>218.922354</ele>
        <time>2025-02-14T19:00:37.953Z</time>
      </trkpt>
      <trkpt lat="44.7744" lon="4.96894">
        <ele>219.888479</ele>
        <time>2025-02-14T19:00:42.509Z</time>
      </trkpt>
      <trkpt lat="44.77431" lon="4.96915">
        <ele>220.585543</ele>
        <time>2025-02-14T19:00:45.803Z</time>
      </trkpt>
      <trkpt lat="44.77418" lon="4.96972">
        <ele>222.313879</ele>
        <time>2025-02-14T19:00:53.629Z</time>
      </trkpt>
      <trkpt lat="44.77413" lon="4.96984">
        <ele>222.766053</ele>
        <time>2025-02-14T19:00:55.580Z</time>
      </trkpt>
      <trkpt lat="44.77337" lon="4.97114">
        <ele>227.883032</ele>
        <time>2025-02-14T19:01:18.336Z</time>
      </trkpt>
      <trkpt lat="44.77263" lon="4.97234">
        <ele>231.726177</ele>
        <time>2025-02-14T19:01:40.823Z</time>
      </trkpt>
      <trkpt lat="44.77235" lon="4.97283">
        <ele>233.08374</ele>
        <time>2025-02-14T19:01:48.259Z</time>
      </trkpt>
      <trkpt lat="44.77225" lon="4.97303">
        <ele>233.600658</ele>
        <time>2025-02-14T19:01:50.700Z</time>
      </trkpt>
      <trkpt lat="44.77218" lon="4.97326">
        <ele>234.136962</ele>
        <time>2025-02-14T19:01:52.983Z</time>
      </trkpt>
      <trkpt lat="44.77193" lon="4.97458">
        <ele>235.043642</ele>
        <time>2025-02-14T19:02:01.659Z</time>
      </trkpt>
      <trkpt lat="44.77185" lon="4.97487">
        <ele>235.129772</ele>
        <time>2025-02-14T19:02:03.287Z</time>
      </trkpt>
      <trkpt lat="44.77174" lon="4.97518">
        <ele>235.228577</ele>
        <time>2025-02-14T19:02:05.258Z</time>
      </trkpt>
      <trkpt lat="44.77156" lon="4.9754">
        <ele>235.321948</ele>
        <time>2025-02-14T19:02:07.352Z</time>
      </trkpt>
      <trkpt lat="44.77144" lon="4.9755">
        <ele>235.375182</ele>
        <time>2025-02-14T19:02:08.702Z</time>
      </trkpt>
      <trkpt lat="44.77032" lon="4.97605">
        <ele>238.26376</ele>
        <time>2025-02-14T19:02:25.096Z</time>
      </trkpt>
      <trkpt lat="44.76934" lon="4.97668">
        <ele>240.647798</ele>
        <time>2025-02-14T19:02:45.976Z</time>
      </trkpt>
      <trkpt lat="44.76927" lon="4.97673">
        <ele>240.698166</ele>
        <time>2025-02-14T19:02:47.595Z</time>
      </trkpt>
      <trkpt lat="44.76858" lon="4.97749">
        <ele>241.236397</ele>
        <time>2025-02-14T19:02:59.063Z</time>
      </trkpt>
      <trkpt lat="44.76817" lon="4.97773">
        <ele>241.512486</ele>
        <time>2025-02-14T19:03:02.034Z</time>
      </trkpt>
      <trkpt lat="44.76806" lon="4.97777">
        <ele>241.581604</ele>
        <time>2025-02-14T19:03:02.690Z</time>
      </trkpt>
      <trkpt lat="44.76763" lon="4.97786">
        <ele>239.041532</ele>
        <time>2025-02-14T19:03:05.156Z</time>
      </trkpt>
      <trkpt lat="44.76673" lon="4.97785">
        <ele>233.82389</ele>
        <time>2025-02-14T19:03:09.948Z</time>
      </trkpt>
      <trkpt lat="44.76626" lon="4.97789">
        <ele>231.079686</ele>
        <time>2025-02-14T19:03:12.522Z</time>
      </trkpt>
      <trkpt lat="44.76617" lon="4.97789">
        <ele>230.677114</ele>
        <time>2025-02-14T19:03:13.023Z</time>
      </trkpt>
      <trkpt lat="44.76563" lon="4.97833">
        <ele>227.842707</ele>
        <time>2025-02-14T19:03:16.564Z</time>
      </trkpt>
      <trkpt lat="44.76531" lon="4.97859">
        <ele>226.17647</ele>
        <time>2025-02-14T19:03:18.708Z</time>
      </trkpt>
      <trkpt lat="44.76505" lon="4.97893">
        <ele>224.582444</ele>
        <time>2025-02-14T19:03:20.783Z</time>
      </trkpt>
      <trkpt lat="44.76494" lon="4.97913">
        <ele>223.774608</ele>
        <time>2025-02-14T19:03:21.851Z</time>
      </trkpt>
      <trkpt lat="44.76453" lon="4.97971">
        <ele>221.420512</ele>
        <time>2025-02-14T19:03:25.413Z</time>
      </trkpt>
      <trkpt lat="44.76407" lon="4.98025">
        <ele>219.124061</ele>
        <time>2025-02-14T19:03:29.071Z</time>
      </trkpt>
      <trkpt lat="44.7633" lon="4.98124">
        <ele>214.763836</ele>
        <time>2025-02-14T19:03:35.058Z</time>
      </trkpt>
      <trkpt lat="44.76307" lon="4.98176">
        <ele>212.433017</ele>
        <time>2025-02-14T19:03:37.503Z</time>
      </trkpt>
      <trkpt lat="44.76294" lon="4.98195">
        <ele>211.427972</ele>
        <time>2025-02-14T19:03:38.560Z</time>
      </trkpt>
      <trkpt lat="44.76275" lon="4.98216">
        <ele>210.145874</ele>
        <time>2025-02-14T19:03:39.905Z</time>
      </trkpt>
      <trkpt lat="44.76218" lon="4.98264">
        <ele>206.616406</ele>
        <time>2025-02-14T19:03:43.555Z</time>
      </trkpt>
      <trkpt lat="44.76198" lon="4.98279">
        <ele>205.247786</ele>
        <time>2025-02-14T19:03:44.798Z</time>
      </trkpt>
      <trkpt lat="44.76152" lon="4.9833">
        <ele>201.610253</ele>
        <time>2025-02-14T19:03:48.018Z</time>
      </trkpt>
      <trkpt lat="44.76122" lon="4.98359">
        <ele>199.355361</ele>
        <time>2025-02-14T19:03:50.010Z</time>
      </trkpt>
      <trkpt lat="44.76083" lon="4.98375">
        <ele>196.86849</ele>
        <time>2025-02-14T19:03:52.206Z</time>
      </trkpt>
      <trkpt lat="44.7603" lon="4.98398">
        <ele>194.102212</ele>
        <time>2025-02-14T19:03:55.284Z</time>
      </trkpt>
      <trkpt lat="44.75954" lon="4.98418">
        <ele>190.984923</ele>
        <time>2025-02-14T19:03:59.753Z</time>
      </trkpt>
      <trkpt lat="44.75947" lon="4.98418">
        <ele>190.698675</ele>
        <time>2025-02-14T19:04:00.175Z</time>
      </trkpt>
      <trkpt lat="44.75927" lon="4.98405">
        <ele>189.816888</ele>
        <time>2025-02-14T19:04:01.498Z</time>
      </trkpt>
      <trkpt lat="44.75898" lon="4.98378">
        <ele>188.422447</ele>
        <time>2025-02-14T19:04:03.621Z</time>
      </trkpt>
      <trkpt lat="44.75892" lon="4.98371">
        <ele>188.105341</ele>
        <time>2025-02-14T19:04:04.143Z</time>
      </trkpt>
      <trkpt lat="44.75838" lon="4.98299">
        <ele>187.229787</ele>
        <time>2025-02-14T19:04:09.384Z</time>
      </trkpt>
      <trkpt lat="44.75826" lon="4.98294">
        <ele>187.088326</ele>
        <time>2025-02-14T19:04:10.369Z</time>
      </trkpt>
      <trkpt lat="44.75816" lon="4.98298">
        <ele>186.967623</ele>
        <time>2025-02-14T19:04:11.192Z</time>
      </trkpt>
      <trkpt lat="44.75787" lon="4.98334">
        <ele>186.507359</ele>
        <time>2025-02-14T19:04:14.249Z</time>
      </trkpt>
      <trkpt lat="44.75782" lon="4.98341">
        <ele>186.425594</ele>
        <time>2025-02-14T19:04:14.809Z</time>
      </trkpt>
      <trkpt lat="44.75767" lon="4.98353">
        <ele>186.223382</ele>
        <time>2025-02-14T19:04:16.142Z</time>
      </trkpt>
      <trkpt lat="44.75708" lon="4.98327">
        <ele>185.238979</ele>
        <time>2025-02-14T19:04:20.748Z</time>
      </trkpt>
      <trkpt lat="44.75659" lon="4.98306">
        <ele>184.307395</ele>
        <time>2025-02-14T19:04:24.198Z</time>
      </trkpt>
      <trkpt lat="44.75644" lon="4.98296">
        <ele>184.017076</ele>
        <time>2025-02-14T19:04:25.181Z</time>
      </trkpt>
      <trkpt lat="44.75584" lon="4.98256">
        <ele>182.815094</ele>
        <time>2025-02-14T19:04:29.367Z</time>
      </trkpt>
      <trkpt lat="44.75506" lon="4.9821">
        <ele>182.184774</ele>
        <time>2025-02-14T19:04:35.400Z</time>
      </trkpt>
      <trkpt lat="44.75479" lon="4.98199">
        <ele>181.988755</ele>
        <time>2025-02-14T19:04:38.158Z</time>
      </trkpt>
      <trkpt lat="44.7547" lon="4.98198">
        <ele>181.924266</ele>
        <time>2025-02-14T19:04:39.188Z</time>
      </trkpt>
      <trkpt lat="44.75445" lon="4.98205">
        <ele>181.75088</ele>
        <time>2025-02-14T19:04:41.873Z</time>
      </trkpt>
      <trkpt lat="44.75378" lon="4.98243">
        <ele>180.719433</ele>
        <time>2025-02-14T19:04:47.956Z</time>
      </trkpt>
      <trkpt lat="44.75364" lon="4.98256">
        <ele>180.338605</ele>
        <time>2025-02-14T19:04:49.176Z</time>
      </trkpt>
      <trkpt lat="44.75329" lon="4.98233">
        <ele>179.518675</ele>
        <time>2025-02-14T19:04:51.586Z</time>
      </trkpt>
      <trkpt lat="44.75275" lon="4.98197">
        <ele>178.204163</ele>
        <time>2025-02-14T19:04:55.260Z</time>
      </trkpt>
      <trkpt lat="44.75254" lon="4.98187">
        <ele>177.736089</ele>
        <time>2025-02-14T19:04:56.522Z</time>
      </trkpt>
      <trkpt lat="44.75236" lon="4.98184">
        <ele>177.370238</ele>
        <time>2025-02-14T19:04:57.643Z</time>
      </trkpt>
      <trkpt lat="44.75211" lon="4.98197">
        <ele>176.904678</ele>
        <time>2025-02-14T19:04:59.222Z</time>
      </trkpt>
      <trkpt lat="44.752" lon="4.98208">
        <ele>176.655286</ele>
        <time>2025-02-14T19:05:00.100Z</time>
      </trkpt>
      <trkpt lat="44.75191" lon="4.98222">
        <ele>176.409209</ele>
        <time>2025-02-14T19:05:00.993Z</time>
      </trkpt>
      <trkpt lat="44.75124" lon="4.98364">
        <ele>174.240364</ele>
        <time>2025-02-14T19:05:09.836Z</time>
      </trkpt>
      <trkpt lat="44.75114" lon="4.98386">
        <ele>173.973652</ele>
        <time>2025-02-14T19:05:11.157Z</time>
      </trkpt>
      <trkpt lat="44.75096" lon="4.98404">
        <ele>173.641929</ele>
        <time>2025-02-14T19:05:12.768Z</time>
      </trkpt>
      <trkpt lat="44.75056" lon="4.98439">
        <ele>172.950689</ele>
        <time>2025-02-14T19:05:16.001Z</time>
      </trkpt>
      <trkpt lat="44.75049" lon="4.98444">
        <ele>172.840034</ele>
        <time>2025-02-14T19:05:16.512Z</time>
      </trkpt>
      <trkpt lat="44.75029" lon="4.98461">
        <ele>172.488717</ele>
        <time>2025-02-14T19:05:18.094Z</time>
      </trkpt>
      <trkpt lat="44.74994" lon="4.98499">
        <ele>171.833773</ele>
        <time>2025-02-14T19:05:21.057Z</time>
      </trkpt>
      <trkpt lat="44.74974" lon="4.98518">
        <ele>171.502501</ele>
        <time>2025-02-14T19:05:22.713Z</time>
      </trkpt>
      <trkpt lat="44.74912" lon="4.98573">
        <ele>170.57331</ele>
        <time>2025-02-14T19:05:27.753Z</time>
      </trkpt>
      <trkpt lat="44.7478" lon="4.98683">
        <ele>168.98506</ele>
        <time>2025-02-14T19:05:39.061Z</time>
      </trkpt>
      <trkpt lat="44.74739" lon="4.98717">
        <ele>168.663846</ele>
        <time>2025-02-14T19:05:42.680Z</time>
      </trkpt>
      <trkpt lat="44.74658" lon="4.98783">
        <ele>168.291892</ele>
        <time>2025-02-14T19:05:50.131Z</time>
      </trkpt>
      <trkpt lat="44.74636" lon="4.98793">
        <ele>168.414017</ele>
        <time>2025-02-14T19:05:52.250Z</time>
      </trkpt>
      <trkpt lat="44.74613" lon="4.98796">
        <ele>168.53551</ele>
        <time>2025-02-14T19:05:54.489Z</time>
      </trkpt>
      <trkpt lat="44.74595" lon="4.98793">
        <ele>168.630762</ele>
        <time>2025-02-14T19:05:56.312Z</time>
      </trkpt>
      <trkpt lat="44.74586" lon="4.98796">
        <ele>168.680272</ele>
        <time>2025-02-14T19:05:57.289Z</time>
      </trkpt>
      <trkpt lat="44.74578" lon="4.988">
        <ele>168.728664</ele>
        <time>2025-02-14T19:05:58.263Z</time>
      </trkpt>
      <trkpt lat="44.74564" lon="4.98822">
        <ele>168.835451</ele>
        <time>2025-02-14T19:06:00.471Z</time>
      </trkpt>
      <trkpt lat="44.7454" lon="4.98902">
        <ele>169.160693</ele>
        <time>2025-02-14T19:06:07.854Z</time>
      </trkpt>
      <trkpt lat="44.74535" lon="4.98926">
        <ele>169.240145</ele>
        <time>2025-02-14T19:06:09.940Z</time>
      </trkpt>
      <trkpt lat="44.74533" lon="4.99017">
        <ele>169.541844</ele>
        <time>2025-02-14T19:06:17.053Z</time>
      </trkpt>
      <trkpt lat="44.74528" lon="4.99041">
        <ele>169.623269</ele>
        <time>2025-02-14T19:06:18.684Z</time>
      </trkpt>
      <trkpt lat="44.74519" lon="4.99051">
        <ele>169.675447</ele>
        <time>2025-02-14T19:06:19.703Z</time>
      </trkpt>
      <trkpt lat="44.74514" lon="4.99053">
        <ele>169.699936</ele>
        <time>2025-02-14T19:06:20.184Z</time>
      </trkpt>
      <trkpt lat="44.74491" lon="4.99047">
        <ele>169.810413</ele>
        <time>2025-02-14T19:06:22.290Z</time>
      </trkpt>
      <trkpt lat="44.74487" lon="4.99036">
        <ele>169.852217</ele>
        <time>2025-02-14T19:06:23.082Z</time>
      </trkpt>
      <trkpt lat="44.7448" lon="4.99026">
        <ele>169.89798</ele>
        <time>2025-02-14T19:06:23.937Z</time>
      </trkpt>
      <trkpt lat="44.74471" lon="4.99022">
        <ele>169.944139</ele>
        <time>2025-02-14T19:06:24.784Z</time>
      </trkpt>
      <trkpt lat="44.7446" lon="4.99024">
        <ele>169.992448</ele>
        <time>2025-02-14T19:06:25.691Z</time>
      </trkpt>
      <trkpt lat="44.74452" lon="4.99033">
        <ele>170.03993</ele>
        <time>2025-02-14T19:06:26.582Z</time>
      </trkpt>
      <trkpt lat="44.74447" lon="4.99048">
        <ele>170.092718</ele>
        <time>2025-02-14T19:06:27.561Z</time>
      </trkpt>
      <trkpt lat="44.74449" lon="4.99064">
        <ele>170.142266</ele>
        <time>2025-02-14T19:06:28.475Z</time>
      </trkpt>
      <trkpt lat="44.74451" lon="4.9907">
        <ele>170.167435</ele>
        <time>2025-02-14T19:06:28.936Z</time>
      </trkpt>
      <trkpt lat="44.74451" lon="4.99094">
        <ele>170.243204</ele>
        <time>2025-02-14T19:06:30.317Z</time>
      </trkpt>
      <trkpt lat="44.74448" lon="4.99113">
        <ele>170.304454</ele>
        <time>2025-02-14T19:06:31.458Z</time>
      </trkpt>
      <trkpt lat="44.74344" lon="4.99393">
        <ele>172.259529</ele>
        <time>2025-02-14T19:06:56.481Z</time>
      </trkpt>
      <trkpt lat="44.74328" lon="4.99434">
        <ele>172.670685</ele>
        <time>2025-02-14T19:07:00.811Z</time>
      </trkpt>
      <trkpt lat="44.74295" lon="4.99512">
        <ele>173.605751</ele>
        <time>2025-02-14T19:07:09.387Z</time>
      </trkpt>
      <trkpt lat="44.74282" lon="4.99543">
        <ele>174.007534</ele>
        <time>2025-02-14T19:07:12.816Z</time>
      </trkpt>
      <trkpt lat="44.74255" lon="4.99605">
        <ele>174.820924</ele>
        <time>2025-02-14T19:07:19.363Z</time>
      </trkpt>
      <trkpt lat="44.7425" lon="4.99618">
        <ele>174.990346</ele>
        <time>2025-02-14T19:07:20.708Z</time>
      </trkpt>
      <trkpt lat="44.74198" lon="4.99742">
        <ele>176.632442</ele>
        <time>2025-02-14T19:07:33.019Z</time>
      </trkpt>
      <trkpt lat="44.74178" lon="4.99797">
        <ele>177.345166</ele>
        <time>2025-02-14T19:07:38.414Z</time>
      </trkpt>
      <trkpt lat="44.74123" lon="4.99977">
        <ele>179.490744</ele>
        <time>2025-02-14T19:07:57.236Z</time>
      </trkpt>
      <trkpt lat="44.74083" lon="5.00068">
        <ele>180.533304</ele>
        <time>2025-02-14T19:08:06.946Z</time>
      </trkpt>
      <trkpt lat="44.74051" lon="5.0013">
        <ele>181.240406</ele>
        <time>2025-02-14T19:08:12.931Z</time>
      </trkpt>
      <trkpt lat="44.73957" lon="5.00286">
        <ele>181.314317</ele>
        <time>2025-02-14T19:08:25.730Z</time>
      </trkpt>
      <trkpt lat="44.73916" lon="5.00354">
        <ele>181.270998</ele>
        <time>2025-02-14T19:08:31.006Z</time>
      </trkpt>
      <trkpt lat="44.73893" lon="5.00371">
        <ele>181.222327</ele>
        <time>2025-02-14T19:08:33.228Z</time>
      </trkpt>
      <trkpt lat="44.73891" lon="5.00376">
        <ele>181.213823</ele>
        <time>2025-02-14T19:08:33.613Z</time>
      </trkpt>
      <trkpt lat="44.73887" lon="5.00376">
        <ele>181.207731</ele>
        <time>2025-02-14T19:08:33.892Z</time>
      </trkpt>
      <trkpt lat="44.73881" lon="5.00377">
        <ele>181.195381</ele>
        <time>2025-02-14T19:08:34.440Z</time>
      </trkpt>
      <trkpt lat="44.73874" lon="5.00382">
        <ele>181.181308</ele>
        <time>2025-02-14T19:08:35.078Z</time>
      </trkpt>
      <trkpt lat="44.73865" lon="5.00397">
        <ele>181.153275</ele>
        <time>2025-02-14T19:08:36.325Z</time>
      </trkpt>
      <trkpt lat="44.73863" lon="5.00403">
        <ele>181.145375</ele>
        <time>2025-02-14T19:08:36.674Z</time>
      </trkpt>
      <trkpt lat="44.73862" lon="5.00408">
        <ele>181.138445</ele>
        <time>2025-02-14T19:08:36.976Z</time>
      </trkpt>
      <trkpt lat="44.73862" lon="5.00416">
        <ele>181.126815</ele>
        <time>2025-02-14T19:08:37.498Z</time>
      </trkpt>
      <trkpt lat="44.73866" lon="5.00433">
        <ele>181.103625</ele>
        <time>2025-02-14T19:08:38.520Z</time>
      </trkpt>
      <trkpt lat="44.73868" lon="5.00436">
        <ele>181.098114</ele>
        <time>2025-02-14T19:08:38.767Z</time>
      </trkpt>
      <trkpt lat="44.73865" lon="5.00463">
        <ele>181.060435</ele>
        <time>2025-02-14T19:08:40.422Z</time>
      </trkpt>
      <trkpt lat="44.73857" lon="5.00484">
        <ele>181.02869</ele>
        <time>2025-02-14T19:08:41.803Z</time>
      </trkpt>
      <trkpt lat="44.73826" lon="5.00518">
        <ele>180.949113</ele>
        <time>2025-02-14T19:08:45.042Z</time>
      </trkpt>
      <trkpt lat="44.73784" lon="5.00569">
        <ele>180.830137</ele>
        <time>2025-02-14T19:08:49.890Z</time>
      </trkpt>
      <trkpt lat="44.73739" lon="5.0064">
        <ele>180.685229</ele>
        <time>2025-02-14T19:08:55.485Z</time>
      </trkpt>
      <trkpt lat="44.73731" lon="5.00653">
        <ele>180.658607</ele>
        <time>2025-02-14T19:08:56.508Z</time>
      </trkpt>
      <trkpt lat="44.73723" lon="5.00666">
        <ele>180.63178</ele>
        <time>2025-02-14T19:08:57.528Z</time>
      </trkpt>
      <trkpt lat="44.73646" lon="5.00789">
        <ele>180.686721</ele>
        <time>2025-02-14T19:09:07.524Z</time>
      </trkpt>
      <trkpt lat="44.7363" lon="5.00816">
        <ele>180.708193</ele>
        <time>2025-02-14T19:09:09.821Z</time>
      </trkpt>
      <trkpt lat="44.73629" lon="5.00818">
        <ele>180.709765</ele>
        <time>2025-02-14T19:09:09.983Z</time>
      </trkpt>
      <trkpt lat="44.73617" lon="5.00841">
        <ele>180.727413</ele>
        <time>2025-02-14T19:09:11.957Z</time>
      </trkpt>
      <trkpt lat="44.736" lon="5.00879">
        <ele>180.759654</ele>
        <time>2025-02-14T19:09:15.001Z</time>
      </trkpt>
      <trkpt lat="44.73594" lon="5.00889">
        <ele>180.834549</ele>
        <time>2025-02-14T19:09:15.982Z</time>
      </trkpt>
      <trkpt lat="44.73564" lon="5.00935">
        <ele>181.175647</ele>
        <time>2025-02-14T19:09:20.777Z</time>
      </trkpt>
      <trkpt lat="44.73528" lon="5.00992">
        <ele>181.602415</ele>
        <time>2025-02-14T19:09:26.978Z</time>
      </trkpt>
      <trkpt lat="44.73503" lon="5.01029">
        <ele>181.886167</ele>
        <time>2025-02-14T19:09:30.997Z</time>
      </trkpt>
      <trkpt lat="44.73461" lon="5.01093">
        <ele>182.177301</ele>
        <time>2025-02-14T19:09:37.555Z</time>
      </trkpt>
      <trkpt lat="44.73442" lon="5.01124">
        <ele>182.198251</ele>
        <time>2025-02-14T19:09:40.651Z</time>
      </trkpt>
      <trkpt lat="44.7343" lon="5.01145">
        <ele>182.212233</ele>
        <time>2025-02-14T19:09:42.538Z</time>
      </trkpt>
      <trkpt lat="44.73406" lon="5.0119">
        <ele>182.241638</ele>
        <time>2025-02-14T19:09:46.239Z</time>
      </trkpt>
      <trkpt lat="44.73383" lon="5.01216">
        <ele>182.262366</ele>
        <time>2025-02-14T19:09:48.597Z</time>
      </trkpt>
      <trkpt lat="44.73351" lon="5.01233">
        <ele>182.287509</ele>
        <time>2025-02-14T19:09:51.187Z</time>
      </trkpt>
      <trkpt lat="44.73343" lon="5.01241">
        <ele>182.272424</ele>
        <time>2025-02-14T19:09:51.890Z</time>
      </trkpt>
      <trkpt lat="44.73333" lon="5.01249">
        <ele>182.250739</ele>
        <time>2025-02-14T19:09:52.816Z</time>
      </trkpt>
      <trkpt lat="44.73309" lon="5.01274">
        <ele>182.19801</ele>
        <time>2025-02-14T19:09:55.076Z</time>
      </trkpt>
      <trkpt lat="44.73269" lon="5.0132">
        <ele>182.105157</ele>
        <time>2025-02-14T19:09:59.104Z</time>
      </trkpt>
      <trkpt lat="44.73126" lon="5.01508">
        <ele>182.00689</ele>
        <time>2025-02-14T19:10:18.587Z</time>
      </trkpt>
      <trkpt lat="44.73085" lon="5.01473">
        <ele>182.024156</ele>
        <time>2025-02-14T19:10:22.612Z</time>
      </trkpt>
      <trkpt lat="44.73058" lon="5.01448">
        <ele>181.77776</ele>
        <time>2025-02-14T19:10:25.058Z</time>
      </trkpt>
      <trkpt lat="44.72881" lon="5.01293">
        <ele>179.624645</ele>
        <time>2025-02-14T19:10:39.198Z</time>
      </trkpt>
      <trkpt lat="44.72882" lon="5.01277">
        <ele>179.655049</ele>
        <time>2025-02-14T19:10:40.260Z</time>
      </trkpt>
      <trkpt lat="44.72873" lon="5.01275">
        <ele>179.678034</ele>
        <time>2025-02-14T19:10:41.010Z</time>
      </trkpt>
      <trkpt lat="44.72787" lon="5.01257">
        <ele>179.907614</ele>
        <time>2025-02-14T19:10:50.732Z</time>
      </trkpt>
      <trkpt lat="44.72773" lon="5.0126">
        <ele>179.944297</ele>
        <time>2025-02-14T19:10:52.457Z</time>
      </trkpt>
      <trkpt lat="44.7277" lon="5.01254">
        <ele>179.958841</ele>
        <time>2025-02-14T19:10:53.074Z</time>
      </trkpt>
      <trkpt lat="44.72763" lon="5.01254">
        <ele>179.975457</ele>
        <time>2025-02-14T19:10:53.940Z</time>
      </trkpt>
      <trkpt lat="44.7276" lon="5.01259">
        <ele>180.017121</ele>
        <time>2025-02-14T19:10:54.591Z</time>
      </trkpt>
      <trkpt lat="44.7276" lon="5.01267">
        <ele>180.0638</ele>
        <time>2025-02-14T19:10:55.326Z</time>
      </trkpt>
      <trkpt lat="44.72747" lon="5.01272">
        <ele>180.180202</ele>
        <time>2025-02-14T19:10:57.079Z</time>
      </trkpt>
      <trkpt lat="44.72726" lon="5.01272">
        <ele>180.365048</ele>
        <time>2025-02-14T19:10:59.839Z</time>
      </trkpt>
      <trkpt lat="44.72676" lon="5.01272">
        <ele>180.80044</ele>
        <time>2025-02-14T19:11:06.001Z</time>
      </trkpt>
      <trkpt lat="44.72575" lon="5.01272">
        <ele>181.58336</ele>
        <time>2025-02-14T19:11:15.797Z</time>
      </trkpt>
      <trkpt lat="44.72544" lon="5.01273">
        <ele>181.645678</ele>
        <time>2025-02-14T19:11:18.309Z</time>
      </trkpt>
      <trkpt lat="44.72538" lon="5.01273">
        <ele>181.65919</ele>
        <time>2025-02-14T19:11:18.842Z</time>
      </trkpt>
      <trkpt lat="44.72539" lon="5.01257">
        <ele>181.682934</ele>
        <time>2025-02-14T19:11:19.791Z</time>
      </trkpt>
      <trkpt lat="44.72546" lon="5.01213">
        <ele>181.747536</ele>
        <time>2025-02-14T19:11:22.450Z</time>
      </trkpt>
      <trkpt lat="44.72545" lon="5.01195">
        <ele>181.773103</ele>
        <time>2025-02-14T19:11:23.550Z</time>
      </trkpt>
      <trkpt lat="44.72548" lon="5.01158">
        <ele>181.826721</ele>
        <time>2025-02-14T19:11:25.945Z</time>
      </trkpt>
      <trkpt lat="44.72546" lon="5.01153">
        <ele>181.834624</ele>
        <time>2025-02-14T19:11:26.312Z</time>
      </trkpt>
      <trkpt lat="44.72539" lon="5.01149">
        <ele>181.850155</ele>
        <time>2025-02-14T19:11:27.034Z</time>
      </trkpt>
      <trkpt lat="44.72526" lon="5.01147">
        <ele>181.875494</ele>
        <time>2025-02-14T19:11:28.248Z</time>
      </trkpt>
      <trkpt lat="44.72511" lon="5.0115">
        <ele>181.90591</ele>
        <time>2025-02-14T19:11:29.788Z</time>
      </trkpt>
      <trkpt lat="44.72493" lon="5.0116">
        <ele>182.37096</ele>
        <time>2025-02-14T19:11:31.989Z</time>
      </trkpt>
      <trkpt lat="44.72473" lon="5.01178">
        <ele>183.094325</ele>
        <time>2025-02-14T19:11:35.060Z</time>
      </trkpt>
      <trkpt lat="44.72468" lon="5.01181">
        <ele>183.24692</ele>
        <time>2025-02-14T19:11:35.758Z</time>
      </trkpt>
      <trkpt lat="44.72421" lon="5.01213">
        <ele>184.829436</ele>
        <time>2025-02-14T19:11:44.241Z</time>
      </trkpt>
      <trkpt lat="44.72366" lon="5.01254">
        <ele>186.710058</ele>
        <time>2025-02-14T19:11:55.754Z</time>
      </trkpt>
      <trkpt lat="44.72334" lon="5.01283">
        <ele>188.248029</ele>
        <time>2025-02-14T19:12:03.248Z</time>
      </trkpt>
      <trkpt lat="44.72252" lon="5.01381">
        <ele>193.804509</ele>
        <time>2025-02-14T19:12:25.119Z</time>
      </trkpt>
      <trkpt lat="44.72218" lon="5.01424">
        <ele>196.196218</ele>
        <time>2025-02-14T19:12:36.234Z</time>
      </trkpt>
      <trkpt lat="44.72209" lon="5.01434">
        <ele>196.756693</ele>
        <time>2025-02-14T19:12:38.782Z</time>
      </trkpt>
      <trkpt lat="44.72172" lon="5.01479">
        <ele>199.274641</ele>
        <time>2025-02-14T19:12:50.587Z</time>
      </trkpt>
      <trkpt lat="44.72155" lon="5.01486">
        <ele>200.17559</ele>
        <time>2025-02-14T19:12:54.786Z</time>
      </trkpt>
      <trkpt lat="44.72065" lon="5.01371">
        <ele>206.068492</ele>
        <time>2025-02-14T19:13:19.850Z</time>
      </trkpt>
      <trkpt lat="44.72031" lon="5.01327">
        <ele>206.923167</ele>
        <time>2025-02-14T19:13:26.402Z</time>
      </trkpt>
      <trkpt lat="44.71994" lon="5.01287">
        <ele>207.779458</ele>
        <time>2025-02-14T19:13:32.138Z</time>
      </trkpt>
      <trkpt lat="44.7188" lon="5.01181">
        <ele>209.77354</ele>
        <time>2025-02-14T19:13:47.007Z</time>
      </trkpt>
      <trkpt lat="44.71849" lon="5.01153">
        <ele>210.143572</ele>
        <time>2025-02-14T19:13:51.222Z</time>
      </trkpt>
      <trkpt lat="44.71811" lon="5.01125">
        <ele>210.574912</ele>
        <time>2025-02-14T19:13:56.219Z</time>
      </trkpt>
      <trkpt lat="44.71676" lon="5.0104">
        <ele>211.989018</ele>
        <time>2025-02-14T19:14:13.383Z</time>
      </trkpt>
      <trkpt lat="44.71656" lon="5.01024">
        <ele>212.204187</ele>
        <time>2025-02-14T19:14:15.883Z</time>
      </trkpt>
      <trkpt lat="44.71636" lon="5.01006">
        <ele>212.427493</ele>
        <time>2025-02-14T19:14:18.426Z</time>
      </trkpt>
      <trkpt lat="44.71529" lon="5.00897">
        <ele>213.387964</ele>
        <time>2025-02-14T19:14:31.766Z</time>
      </trkpt>
      <trkpt lat="44.71526" lon="5.00895">
        <ele>213.406231</ele>
        <time>2025-02-14T19:14:32.033Z</time>
      </trkpt>
      <trkpt lat="44.71474" lon="5.00842">
        <ele>213.8447</ele>
        <time>2025-02-14T19:14:38.920Z</time>
      </trkpt>
      <trkpt lat="44.7144" lon="5.00816">
        <ele>214.338592</ele>
        <time>2025-02-14T19:14:43.304Z</time>
      </trkpt>
      <trkpt lat="44.71241" lon="5.00712">
        <ele>217.618087</ele>
        <time>2025-02-14T19:15:10.076Z</time>
      </trkpt>
      <trkpt lat="44.71205" lon="5.00695">
        <ele>218.330666</ele>
        <time>2025-02-14T19:15:14.950Z</time>
      </trkpt>
      <trkpt lat="44.71175" lon="5.00684">
        <ele>218.916853</ele>
        <time>2025-02-14T19:15:19.102Z</time>
      </trkpt>
      <trkpt lat="44.7114" lon="5.0068">
        <ele>219.591532</ele>
        <time>2025-02-14T19:15:24.047Z</time>
      </trkpt>
      <trkpt lat="44.70964" lon="5.00698">
        <ele>224.187655</ele>
        <time>2025-02-14T19:15:51.293Z</time>
      </trkpt>
      <trkpt lat="44.70932" lon="5.00697">
        <ele>224.921425</ele>
        <time>2025-02-14T19:15:56.350Z</time>
      </trkpt>
      <trkpt lat="44.70884" lon="5.00682">
        <ele>225.866022</ele>
        <time>2025-02-14T19:16:03.732Z</time>
      </trkpt>
      <trkpt lat="44.70746" lon="5.00629">
        <ele>228.144162</ele>
        <time>2025-02-14T19:16:21.825Z</time>
      </trkpt>
      <trkpt lat="44.70732" lon="5.00623">
        <ele>228.198506</ele>
        <time>2025-02-14T19:16:23.348Z</time>
      </trkpt>
      <trkpt lat="44.70717" lon="5.00616">
        <ele>228.257727</ele>
        <time>2025-02-14T19:16:24.946Z</time>
      </trkpt>
      <trkpt lat="44.7069" lon="5.00607">
        <ele>228.360148</ele>
        <time>2025-02-14T19:16:27.576Z</time>
      </trkpt>
      <trkpt lat="44.70674" lon="5.00605">
        <ele>228.419932</ele>
        <time>2025-02-14T19:16:29.038Z</time>
      </trkpt>
      <trkpt lat="44.7056" lon="5.00607">
        <ele>228.966441</ele>
        <time>2025-02-14T19:16:38.669Z</time>
      </trkpt>
      <trkpt lat="44.70529" lon="5.00615">
        <ele>229.182788</ele>
        <time>2025-02-14T19:16:41.650Z</time>
      </trkpt>
      <trkpt lat="44.70512" lon="5.00624">
        <ele>229.306859</ele>
        <time>2025-02-14T19:16:43.441Z</time>
      </trkpt>
      <trkpt lat="44.70249" lon="5.00817">
        <ele>233.429768</ele>
        <time>2025-02-14T19:17:19.295Z</time>
      </trkpt>
      <trkpt lat="44.70216" lon="5.00851">
        <ele>234.835574</ele>
        <time>2025-02-14T19:17:25.810Z</time>
      </trkpt>
      <trkpt lat="44.70182" lon="5.00901">
        <ele>236.557015</ele>
        <time>2025-02-14T19:17:35.052Z</time>
      </trkpt>
      <trkpt lat="44.70171" lon="5.00913">
        <ele>237.0174</ele>
        <time>2025-02-14T19:17:37.695Z</time>
      </trkpt>
      <trkpt lat="44.70152" lon="5.00921">
        <ele>237.713779</ele>
        <time>2025-02-14T19:17:41.755Z</time>
      </trkpt>
      <trkpt lat="44.70143" lon="5.00921">
        <ele>238.031383</ele>
        <time>2025-02-14T19:17:43.581Z</time>
      </trkpt>
      <trkpt lat="44.70124" lon="5.0091">
        <ele>238.714886</ele>
        <time>2025-02-14T19:17:47.573Z</time>
      </trkpt>
      <trkpt lat="44.70107" lon="5.00884">
        <ele>239.497753</ele>
        <time>2025-02-14T19:17:52.604Z</time>
      </trkpt>
      <trkpt lat="44.70089" lon="5.00834">
        <ele>240.708489</ele>
        <time>2025-02-14T19:17:59.874Z</time>
      </trkpt>
      <trkpt lat="44.70057" lon="5.00728">
        <ele>243.214608</ele>
        <time>2025-02-14T19:18:11.903Z</time>
      </trkpt>
      <trkpt lat="44.70024" lon="5.00661">
        <ele>244.870549</ele>
        <time>2025-02-14T19:18:19.842Z</time>
      </trkpt>
      <trkpt lat="44.69968" lon="5.00561">
        <ele>247.225435</ele>
        <time>2025-02-14T19:18:33.917Z</time>
      </trkpt>
      <trkpt lat="44.69954" lon="5.0054">
        <ele>247.749329</ele>
        <time>2025-02-14T19:18:37.403Z</time>
      </trkpt>
      <trkpt lat="44.69938" lon="5.0052">
        <ele>248.309118</ele>
        <time>2025-02-14T19:18:41.117Z</time>
      </trkpt>
      <trkpt lat="44.69917" lon="5.00499">
        <ele>248.926054</ele>
        <time>2025-02-14T19:18:45.211Z</time>
      </trkpt>
      <trkpt lat="44.69895" lon="5.00484">
        <ele>248.752527</ele>
        <time>2025-02-14T19:18:48.576Z</time>
      </trkpt>
      <trkpt lat="44.6987" lon="5.00473">
        <ele>248.56619</ele>
        <time>2025-02-14T19:18:51.591Z</time>
      </trkpt>
      <trkpt lat="44.69816" lon="5.00456">
        <ele>248.165968</ele>
        <time>2025-02-14T19:18:56.126Z</time>
      </trkpt>
      <trkpt lat="44.69649" lon="5.00426">
        <ele>245.499371</ele>
        <time>2025-02-14T19:19:06.402Z</time>
      </trkpt>
      <trkpt lat="44.69627" lon="5.00425">
        <ele>245.020555</ele>
        <time>2025-02-14T19:19:07.744Z</time>
      </trkpt>
      <trkpt lat="44.69606" lon="5.00427">
        <ele>244.532519</ele>
        <time>2025-02-14T19:19:09.178Z</time>
      </trkpt>
      <trkpt lat="44.69563" lon="5.00435">
        <ele>243.628176</ele>
        <time>2025-02-14T19:19:12.279Z</time>
      </trkpt>
      <trkpt lat="44.69488" lon="5.00454">
        <ele>243.628176</ele>
        <time>2025-02-14T19:19:19.815Z</time>
      </trkpt>
      <trkpt lat="44.69414" lon="5.00477">
        <ele>243.628176</ele>
        <time>2025-02-14T19:19:27.742Z</time>
      </trkpt>
      <trkpt lat="44.69369" lon="5.00499">
        <ele>243.628176</ele>
        <time>2025-02-14T19:19:32.137Z</time>
      </trkpt>
      <trkpt lat="44.69337" lon="5.00519">
        <ele>243.628176</ele>
        <time>2025-02-14T19:19:35.008Z</time>
      </trkpt>
      <trkpt lat="44.69329" lon="5.00526">
        <ele>243.628176</ele>
        <time>2025-02-14T19:19:35.848Z</time>
      </trkpt>
    </trkseg>
  </trk>
</gpx>